<?xml version="1.0" encoding="UTF-8" standalone="no" ?>
<gpx xmlns="http://www.topografix.com/GPX/1/1" xmlns:xsi="http://www.w3.org/2001/XMLSchema-instance" xsi:schemaLocation="http://www.topografix.com/GPX/1/1 http://www.topografix.com/GPX/1/1/gpx.xsd" version="1.1" creator="VisuGPX - https://www.visugpx.com">
  <metadata>
    <name>NE-N-Pirmil Sainte Luce Carquefou St Mars du Désert Le Ceillier Nantes</name>
    <desc><![CDATA[NE-N-Pirmil Sainte Luce Carquefou St Mars du Désert Le Ceillier Nantes]]></desc>
  </metadata>
  <trk>
    <name><![CDATA[2022-08-06 08:36 GMT+2]]></name>
    <trkseg>
      <trkpt lat="47.16771" lon="-1.62652">
        <ele>67</ele>
        <time>2022-08-06T06:36:36Z</time>
      </trkpt>
      <trkpt lat="47.16772" lon="-1.62651">
        <ele>69</ele>
        <time>2022-08-06T06:38:37Z</time>
      </trkpt>
      <trkpt lat="47.16775" lon="-1.62647">
        <ele>72</ele>
        <time>2022-08-06T06:40:38Z</time>
      </trkpt>
      <trkpt lat="47.16783" lon="-1.62656">
        <ele>73</ele>
        <time>2022-08-06T06:41:33Z</time>
      </trkpt>
      <trkpt lat="47.16791" lon="-1.62647">
        <ele>73</ele>
        <time>2022-08-06T06:41:36Z</time>
      </trkpt>
      <trkpt lat="47.16798" lon="-1.62636">
        <ele>72</ele>
        <time>2022-08-06T06:41:38Z</time>
      </trkpt>
      <trkpt lat="47.16805" lon="-1.62623">
        <ele>71</ele>
        <time>2022-08-06T06:41:40Z</time>
      </trkpt>
      <trkpt lat="47.16813" lon="-1.6261">
        <ele>71</ele>
        <time>2022-08-06T06:41:42Z</time>
      </trkpt>
      <trkpt lat="47.16821" lon="-1.62597">
        <ele>71</ele>
        <time>2022-08-06T06:41:44Z</time>
      </trkpt>
      <trkpt lat="47.16828" lon="-1.62584">
        <ele>71</ele>
        <time>2022-08-06T06:41:46Z</time>
      </trkpt>
      <trkpt lat="47.1683" lon="-1.62568">
        <ele>71</ele>
        <time>2022-08-06T06:41:48Z</time>
      </trkpt>
      <trkpt lat="47.16822" lon="-1.62555">
        <ele>71</ele>
        <time>2022-08-06T06:41:50Z</time>
      </trkpt>
      <trkpt lat="47.16811" lon="-1.62547">
        <ele>71</ele>
        <time>2022-08-06T06:41:52Z</time>
      </trkpt>
      <trkpt lat="47.168" lon="-1.62539">
        <ele>71</ele>
        <time>2022-08-06T06:41:54Z</time>
      </trkpt>
      <trkpt lat="47.1679" lon="-1.62533">
        <ele>71</ele>
        <time>2022-08-06T06:41:56Z</time>
      </trkpt>
      <trkpt lat="47.16779" lon="-1.62525">
        <ele>71</ele>
        <time>2022-08-06T06:41:58Z</time>
      </trkpt>
      <trkpt lat="47.16767" lon="-1.62518">
        <ele>71</ele>
        <time>2022-08-06T06:42:00Z</time>
      </trkpt>
      <trkpt lat="47.16756" lon="-1.62512">
        <ele>71</ele>
        <time>2022-08-06T06:42:02Z</time>
      </trkpt>
      <trkpt lat="47.16745" lon="-1.62507">
        <ele>70</ele>
        <time>2022-08-06T06:42:04Z</time>
      </trkpt>
      <trkpt lat="47.16733" lon="-1.62501">
        <ele>70</ele>
        <time>2022-08-06T06:42:06Z</time>
      </trkpt>
      <trkpt lat="47.16722" lon="-1.62496">
        <ele>70</ele>
        <time>2022-08-06T06:42:08Z</time>
      </trkpt>
      <trkpt lat="47.16713" lon="-1.62488">
        <ele>69</ele>
        <time>2022-08-06T06:42:10Z</time>
      </trkpt>
      <trkpt lat="47.16712" lon="-1.62473">
        <ele>69</ele>
        <time>2022-08-06T06:42:12Z</time>
      </trkpt>
      <trkpt lat="47.16714" lon="-1.62456">
        <ele>69</ele>
        <time>2022-08-06T06:42:14Z</time>
      </trkpt>
      <trkpt lat="47.16716" lon="-1.62439">
        <ele>69</ele>
        <time>2022-08-06T06:42:16Z</time>
      </trkpt>
      <trkpt lat="47.1672" lon="-1.62422">
        <ele>68</ele>
        <time>2022-08-06T06:42:18Z</time>
      </trkpt>
      <trkpt lat="47.16726" lon="-1.62406">
        <ele>69</ele>
        <time>2022-08-06T06:42:20Z</time>
      </trkpt>
      <trkpt lat="47.1673" lon="-1.62388">
        <ele>69</ele>
        <time>2022-08-06T06:42:22Z</time>
      </trkpt>
      <trkpt lat="47.16736" lon="-1.62371">
        <ele>68</ele>
        <time>2022-08-06T06:42:24Z</time>
      </trkpt>
      <trkpt lat="47.16745" lon="-1.62358">
        <ele>69</ele>
        <time>2022-08-06T06:42:26Z</time>
      </trkpt>
      <trkpt lat="47.16756" lon="-1.62347">
        <ele>69</ele>
        <time>2022-08-06T06:42:28Z</time>
      </trkpt>
      <trkpt lat="47.16767" lon="-1.62339">
        <ele>69</ele>
        <time>2022-08-06T06:42:30Z</time>
      </trkpt>
      <trkpt lat="47.16778" lon="-1.62333">
        <ele>69</ele>
        <time>2022-08-06T06:42:32Z</time>
      </trkpt>
      <trkpt lat="47.1679" lon="-1.62326">
        <ele>70</ele>
        <time>2022-08-06T06:42:34Z</time>
      </trkpt>
      <trkpt lat="47.16802" lon="-1.6232">
        <ele>70</ele>
        <time>2022-08-06T06:42:36Z</time>
      </trkpt>
      <trkpt lat="47.16813" lon="-1.62313">
        <ele>70</ele>
        <time>2022-08-06T06:42:38Z</time>
      </trkpt>
      <trkpt lat="47.16824" lon="-1.62304">
        <ele>70</ele>
        <time>2022-08-06T06:42:40Z</time>
      </trkpt>
      <trkpt lat="47.16834" lon="-1.62295">
        <ele>70</ele>
        <time>2022-08-06T06:42:42Z</time>
      </trkpt>
      <trkpt lat="47.16843" lon="-1.62284">
        <ele>70</ele>
        <time>2022-08-06T06:42:44Z</time>
      </trkpt>
      <trkpt lat="47.16852" lon="-1.62272">
        <ele>70</ele>
        <time>2022-08-06T06:42:46Z</time>
      </trkpt>
      <trkpt lat="47.16862" lon="-1.62261">
        <ele>70</ele>
        <time>2022-08-06T06:42:48Z</time>
      </trkpt>
      <trkpt lat="47.16871" lon="-1.62249">
        <ele>70</ele>
        <time>2022-08-06T06:42:50Z</time>
      </trkpt>
      <trkpt lat="47.16881" lon="-1.62238">
        <ele>70</ele>
        <time>2022-08-06T06:42:52Z</time>
      </trkpt>
      <trkpt lat="47.1689" lon="-1.62227">
        <ele>70</ele>
        <time>2022-08-06T06:42:54Z</time>
      </trkpt>
      <trkpt lat="47.16898" lon="-1.62214">
        <ele>70</ele>
        <time>2022-08-06T06:42:56Z</time>
      </trkpt>
      <trkpt lat="47.16906" lon="-1.62201">
        <ele>69</ele>
        <time>2022-08-06T06:42:58Z</time>
      </trkpt>
      <trkpt lat="47.16914" lon="-1.62189">
        <ele>69</ele>
        <time>2022-08-06T06:43:00Z</time>
      </trkpt>
      <trkpt lat="47.16922" lon="-1.62175">
        <ele>69</ele>
        <time>2022-08-06T06:43:02Z</time>
      </trkpt>
      <trkpt lat="47.16929" lon="-1.62162">
        <ele>70</ele>
        <time>2022-08-06T06:43:04Z</time>
      </trkpt>
      <trkpt lat="47.16936" lon="-1.62147">
        <ele>69</ele>
        <time>2022-08-06T06:43:06Z</time>
      </trkpt>
      <trkpt lat="47.16943" lon="-1.62133">
        <ele>69</ele>
        <time>2022-08-06T06:43:08Z</time>
      </trkpt>
      <trkpt lat="47.16951" lon="-1.62119">
        <ele>69</ele>
        <time>2022-08-06T06:43:10Z</time>
      </trkpt>
      <trkpt lat="47.16958" lon="-1.62105">
        <ele>69</ele>
        <time>2022-08-06T06:43:12Z</time>
      </trkpt>
      <trkpt lat="47.16966" lon="-1.62091">
        <ele>68</ele>
        <time>2022-08-06T06:43:14Z</time>
      </trkpt>
      <trkpt lat="47.16973" lon="-1.62076">
        <ele>68</ele>
        <time>2022-08-06T06:43:16Z</time>
      </trkpt>
      <trkpt lat="47.1698" lon="-1.62062">
        <ele>68</ele>
        <time>2022-08-06T06:43:18Z</time>
      </trkpt>
      <trkpt lat="47.16988" lon="-1.62048">
        <ele>68</ele>
        <time>2022-08-06T06:43:20Z</time>
      </trkpt>
      <trkpt lat="47.16996" lon="-1.62035">
        <ele>68</ele>
        <time>2022-08-06T06:43:22Z</time>
      </trkpt>
      <trkpt lat="47.17004" lon="-1.62022">
        <ele>68</ele>
        <time>2022-08-06T06:43:24Z</time>
      </trkpt>
      <trkpt lat="47.17012" lon="-1.6201">
        <ele>67</ele>
        <time>2022-08-06T06:43:26Z</time>
      </trkpt>
      <trkpt lat="47.17021" lon="-1.61998">
        <ele>67</ele>
        <time>2022-08-06T06:43:28Z</time>
      </trkpt>
      <trkpt lat="47.1703" lon="-1.61986">
        <ele>67</ele>
        <time>2022-08-06T06:43:30Z</time>
      </trkpt>
      <trkpt lat="47.17038" lon="-1.61975">
        <ele>67</ele>
        <time>2022-08-06T06:43:32Z</time>
      </trkpt>
      <trkpt lat="47.17046" lon="-1.61963">
        <ele>67</ele>
        <time>2022-08-06T06:43:34Z</time>
      </trkpt>
      <trkpt lat="47.17055" lon="-1.6195">
        <ele>67</ele>
        <time>2022-08-06T06:43:36Z</time>
      </trkpt>
      <trkpt lat="47.17064" lon="-1.61939">
        <ele>67</ele>
        <time>2022-08-06T06:43:38Z</time>
      </trkpt>
      <trkpt lat="47.17073" lon="-1.61928">
        <ele>67</ele>
        <time>2022-08-06T06:43:40Z</time>
      </trkpt>
      <trkpt lat="47.17081" lon="-1.61919">
        <ele>67</ele>
        <time>2022-08-06T06:43:42Z</time>
      </trkpt>
      <trkpt lat="47.1709" lon="-1.6191">
        <ele>67</ele>
        <time>2022-08-06T06:43:44Z</time>
      </trkpt>
      <trkpt lat="47.171" lon="-1.619">
        <ele>68</ele>
        <time>2022-08-06T06:43:46Z</time>
      </trkpt>
      <trkpt lat="47.1711" lon="-1.61891">
        <ele>68</ele>
        <time>2022-08-06T06:43:48Z</time>
      </trkpt>
      <trkpt lat="47.17119" lon="-1.61882">
        <ele>68</ele>
        <time>2022-08-06T06:43:50Z</time>
      </trkpt>
      <trkpt lat="47.17129" lon="-1.61873">
        <ele>68</ele>
        <time>2022-08-06T06:43:52Z</time>
      </trkpt>
      <trkpt lat="47.17138" lon="-1.61863">
        <ele>69</ele>
        <time>2022-08-06T06:43:54Z</time>
      </trkpt>
      <trkpt lat="47.17147" lon="-1.61855">
        <ele>69</ele>
        <time>2022-08-06T06:43:56Z</time>
      </trkpt>
      <trkpt lat="47.17156" lon="-1.61846">
        <ele>69</ele>
        <time>2022-08-06T06:43:58Z</time>
      </trkpt>
      <trkpt lat="47.17165" lon="-1.61838">
        <ele>69</ele>
        <time>2022-08-06T06:44:00Z</time>
      </trkpt>
      <trkpt lat="47.17174" lon="-1.61829">
        <ele>69</ele>
        <time>2022-08-06T06:44:02Z</time>
      </trkpt>
      <trkpt lat="47.17183" lon="-1.6182">
        <ele>69</ele>
        <time>2022-08-06T06:44:04Z</time>
      </trkpt>
      <trkpt lat="47.17193" lon="-1.61811">
        <ele>69</ele>
        <time>2022-08-06T06:44:06Z</time>
      </trkpt>
      <trkpt lat="47.17202" lon="-1.61802">
        <ele>69</ele>
        <time>2022-08-06T06:44:08Z</time>
      </trkpt>
      <trkpt lat="47.17211" lon="-1.61792">
        <ele>69</ele>
        <time>2022-08-06T06:44:10Z</time>
      </trkpt>
      <trkpt lat="47.17219" lon="-1.6178">
        <ele>69</ele>
        <time>2022-08-06T06:44:12Z</time>
      </trkpt>
      <trkpt lat="47.17224" lon="-1.61764">
        <ele>69</ele>
        <time>2022-08-06T06:44:14Z</time>
      </trkpt>
      <trkpt lat="47.1723" lon="-1.61751">
        <ele>68</ele>
        <time>2022-08-06T06:44:16Z</time>
      </trkpt>
      <trkpt lat="47.17238" lon="-1.61739">
        <ele>68</ele>
        <time>2022-08-06T06:44:18Z</time>
      </trkpt>
      <trkpt lat="47.17247" lon="-1.61727">
        <ele>68</ele>
        <time>2022-08-06T06:44:20Z</time>
      </trkpt>
      <trkpt lat="47.17254" lon="-1.61714">
        <ele>68</ele>
        <time>2022-08-06T06:44:22Z</time>
      </trkpt>
      <trkpt lat="47.1726" lon="-1.617">
        <ele>67</ele>
        <time>2022-08-06T06:44:24Z</time>
      </trkpt>
      <trkpt lat="47.17266" lon="-1.61687">
        <ele>67</ele>
        <time>2022-08-06T06:44:26Z</time>
      </trkpt>
      <trkpt lat="47.17272" lon="-1.61673">
        <ele>67</ele>
        <time>2022-08-06T06:44:28Z</time>
      </trkpt>
      <trkpt lat="47.17279" lon="-1.61659">
        <ele>67</ele>
        <time>2022-08-06T06:44:30Z</time>
      </trkpt>
      <trkpt lat="47.17286" lon="-1.61646">
        <ele>67</ele>
        <time>2022-08-06T06:44:32Z</time>
      </trkpt>
      <trkpt lat="47.17294" lon="-1.61634">
        <ele>67</ele>
        <time>2022-08-06T06:44:34Z</time>
      </trkpt>
      <trkpt lat="47.17302" lon="-1.61622">
        <ele>67</ele>
        <time>2022-08-06T06:44:36Z</time>
      </trkpt>
      <trkpt lat="47.17311" lon="-1.6161">
        <ele>67</ele>
        <time>2022-08-06T06:44:38Z</time>
      </trkpt>
      <trkpt lat="47.17319" lon="-1.61598">
        <ele>67</ele>
        <time>2022-08-06T06:44:40Z</time>
      </trkpt>
      <trkpt lat="47.17327" lon="-1.61585">
        <ele>68</ele>
        <time>2022-08-06T06:44:42Z</time>
      </trkpt>
      <trkpt lat="47.17335" lon="-1.61573">
        <ele>68</ele>
        <time>2022-08-06T06:44:44Z</time>
      </trkpt>
      <trkpt lat="47.17344" lon="-1.61562">
        <ele>68</ele>
        <time>2022-08-06T06:44:46Z</time>
      </trkpt>
      <trkpt lat="47.17353" lon="-1.61552">
        <ele>67</ele>
        <time>2022-08-06T06:44:48Z</time>
      </trkpt>
      <trkpt lat="47.17362" lon="-1.61542">
        <ele>68</ele>
        <time>2022-08-06T06:44:50Z</time>
      </trkpt>
      <trkpt lat="47.17372" lon="-1.61533">
        <ele>68</ele>
        <time>2022-08-06T06:44:52Z</time>
      </trkpt>
      <trkpt lat="47.17382" lon="-1.61524">
        <ele>68</ele>
        <time>2022-08-06T06:44:54Z</time>
      </trkpt>
      <trkpt lat="47.17393" lon="-1.61515">
        <ele>68</ele>
        <time>2022-08-06T06:44:56Z</time>
      </trkpt>
      <trkpt lat="47.17404" lon="-1.61505">
        <ele>68</ele>
        <time>2022-08-06T06:44:58Z</time>
      </trkpt>
      <trkpt lat="47.17416" lon="-1.61497">
        <ele>68</ele>
        <time>2022-08-06T06:45:00Z</time>
      </trkpt>
      <trkpt lat="47.17427" lon="-1.61488">
        <ele>68</ele>
        <time>2022-08-06T06:45:02Z</time>
      </trkpt>
      <trkpt lat="47.17439" lon="-1.61481">
        <ele>67</ele>
        <time>2022-08-06T06:45:04Z</time>
      </trkpt>
      <trkpt lat="47.17451" lon="-1.61474">
        <ele>67</ele>
        <time>2022-08-06T06:45:06Z</time>
      </trkpt>
      <trkpt lat="47.17463" lon="-1.61468">
        <ele>68</ele>
        <time>2022-08-06T06:45:08Z</time>
      </trkpt>
      <trkpt lat="47.17475" lon="-1.61462">
        <ele>67</ele>
        <time>2022-08-06T06:45:10Z</time>
      </trkpt>
      <trkpt lat="47.17487" lon="-1.61457">
        <ele>67</ele>
        <time>2022-08-06T06:45:12Z</time>
      </trkpt>
      <trkpt lat="47.17497" lon="-1.61453">
        <ele>68</ele>
        <time>2022-08-06T06:45:14Z</time>
      </trkpt>
      <trkpt lat="47.17508" lon="-1.61444">
        <ele>67</ele>
        <time>2022-08-06T06:45:17Z</time>
      </trkpt>
      <trkpt lat="47.17512" lon="-1.61429">
        <ele>65</ele>
        <time>2022-08-06T06:45:19Z</time>
      </trkpt>
      <trkpt lat="47.17515" lon="-1.61411">
        <ele>64</ele>
        <time>2022-08-06T06:45:21Z</time>
      </trkpt>
      <trkpt lat="47.1752" lon="-1.61391">
        <ele>64</ele>
        <time>2022-08-06T06:45:23Z</time>
      </trkpt>
      <trkpt lat="47.17525" lon="-1.61374">
        <ele>64</ele>
        <time>2022-08-06T06:45:25Z</time>
      </trkpt>
      <trkpt lat="47.17528" lon="-1.61358">
        <ele>63</ele>
        <time>2022-08-06T06:45:27Z</time>
      </trkpt>
      <trkpt lat="47.17527" lon="-1.61343">
        <ele>62</ele>
        <time>2022-08-06T06:45:29Z</time>
      </trkpt>
      <trkpt lat="47.17522" lon="-1.61328">
        <ele>62</ele>
        <time>2022-08-06T06:45:31Z</time>
      </trkpt>
      <trkpt lat="47.1752" lon="-1.61311">
        <ele>62</ele>
        <time>2022-08-06T06:45:33Z</time>
      </trkpt>
      <trkpt lat="47.1752" lon="-1.61293">
        <ele>61</ele>
        <time>2022-08-06T06:45:35Z</time>
      </trkpt>
      <trkpt lat="47.17512" lon="-1.61278">
        <ele>61</ele>
        <time>2022-08-06T06:45:37Z</time>
      </trkpt>
      <trkpt lat="47.17504" lon="-1.61262">
        <ele>61</ele>
        <time>2022-08-06T06:45:39Z</time>
      </trkpt>
      <trkpt lat="47.17497" lon="-1.61245">
        <ele>61</ele>
        <time>2022-08-06T06:45:41Z</time>
      </trkpt>
      <trkpt lat="47.1749" lon="-1.61228">
        <ele>61</ele>
        <time>2022-08-06T06:45:43Z</time>
      </trkpt>
      <trkpt lat="47.17483" lon="-1.61211">
        <ele>61</ele>
        <time>2022-08-06T06:45:45Z</time>
      </trkpt>
      <trkpt lat="47.17476" lon="-1.61194">
        <ele>60</ele>
        <time>2022-08-06T06:45:47Z</time>
      </trkpt>
      <trkpt lat="47.17469" lon="-1.61176">
        <ele>60</ele>
        <time>2022-08-06T06:45:49Z</time>
      </trkpt>
      <trkpt lat="47.17462" lon="-1.61159">
        <ele>60</ele>
        <time>2022-08-06T06:45:51Z</time>
      </trkpt>
      <trkpt lat="47.17456" lon="-1.61142">
        <ele>60</ele>
        <time>2022-08-06T06:45:53Z</time>
      </trkpt>
      <trkpt lat="47.17448" lon="-1.61125">
        <ele>59</ele>
        <time>2022-08-06T06:45:55Z</time>
      </trkpt>
      <trkpt lat="47.17441" lon="-1.61108">
        <ele>59</ele>
        <time>2022-08-06T06:45:57Z</time>
      </trkpt>
      <trkpt lat="47.17433" lon="-1.6109">
        <ele>59</ele>
        <time>2022-08-06T06:45:59Z</time>
      </trkpt>
      <trkpt lat="47.1743" lon="-1.6107">
        <ele>58</ele>
        <time>2022-08-06T06:46:01Z</time>
      </trkpt>
      <trkpt lat="47.17426" lon="-1.6105">
        <ele>58</ele>
        <time>2022-08-06T06:46:03Z</time>
      </trkpt>
      <trkpt lat="47.17421" lon="-1.61033">
        <ele>58</ele>
        <time>2022-08-06T06:46:05Z</time>
      </trkpt>
      <trkpt lat="47.17423" lon="-1.61019">
        <ele>57</ele>
        <time>2022-08-06T06:46:07Z</time>
      </trkpt>
      <trkpt lat="47.17432" lon="-1.61024">
        <ele>58</ele>
        <time>2022-08-06T06:46:10Z</time>
      </trkpt>
      <trkpt lat="47.17436" lon="-1.61039">
        <ele>58</ele>
        <time>2022-08-06T06:46:12Z</time>
      </trkpt>
      <trkpt lat="47.17441" lon="-1.61055">
        <ele>58</ele>
        <time>2022-08-06T06:46:14Z</time>
      </trkpt>
      <trkpt lat="47.17449" lon="-1.6107">
        <ele>58</ele>
        <time>2022-08-06T06:46:16Z</time>
      </trkpt>
      <trkpt lat="47.17458" lon="-1.61084">
        <ele>57</ele>
        <time>2022-08-06T06:46:18Z</time>
      </trkpt>
      <trkpt lat="47.17471" lon="-1.61096">
        <ele>56</ele>
        <time>2022-08-06T06:46:20Z</time>
      </trkpt>
      <trkpt lat="47.17485" lon="-1.61102">
        <ele>56</ele>
        <time>2022-08-06T06:46:22Z</time>
      </trkpt>
      <trkpt lat="47.17499" lon="-1.61103">
        <ele>56</ele>
        <time>2022-08-06T06:46:24Z</time>
      </trkpt>
      <trkpt lat="47.17513" lon="-1.61098">
        <ele>55</ele>
        <time>2022-08-06T06:46:26Z</time>
      </trkpt>
      <trkpt lat="47.17525" lon="-1.61087">
        <ele>55</ele>
        <time>2022-08-06T06:46:28Z</time>
      </trkpt>
      <trkpt lat="47.17537" lon="-1.61075">
        <ele>55</ele>
        <time>2022-08-06T06:46:30Z</time>
      </trkpt>
      <trkpt lat="47.1755" lon="-1.61065">
        <ele>56</ele>
        <time>2022-08-06T06:46:32Z</time>
      </trkpt>
      <trkpt lat="47.17562" lon="-1.61054">
        <ele>56</ele>
        <time>2022-08-06T06:46:34Z</time>
      </trkpt>
      <trkpt lat="47.17574" lon="-1.61043">
        <ele>55</ele>
        <time>2022-08-06T06:46:36Z</time>
      </trkpt>
      <trkpt lat="47.17586" lon="-1.61033">
        <ele>55</ele>
        <time>2022-08-06T06:46:38Z</time>
      </trkpt>
      <trkpt lat="47.17598" lon="-1.61022">
        <ele>55</ele>
        <time>2022-08-06T06:46:40Z</time>
      </trkpt>
      <trkpt lat="47.1761" lon="-1.61011">
        <ele>55</ele>
        <time>2022-08-06T06:46:42Z</time>
      </trkpt>
      <trkpt lat="47.17623" lon="-1.61">
        <ele>55</ele>
        <time>2022-08-06T06:46:44Z</time>
      </trkpt>
      <trkpt lat="47.17635" lon="-1.6099">
        <ele>55</ele>
        <time>2022-08-06T06:46:46Z</time>
      </trkpt>
      <trkpt lat="47.17647" lon="-1.6098">
        <ele>55</ele>
        <time>2022-08-06T06:46:48Z</time>
      </trkpt>
      <trkpt lat="47.1766" lon="-1.60971">
        <ele>55</ele>
        <time>2022-08-06T06:46:50Z</time>
      </trkpt>
      <trkpt lat="47.17673" lon="-1.60968">
        <ele>55</ele>
        <time>2022-08-06T06:46:52Z</time>
      </trkpt>
      <trkpt lat="47.17686" lon="-1.60971">
        <ele>55</ele>
        <time>2022-08-06T06:46:54Z</time>
      </trkpt>
      <trkpt lat="47.17698" lon="-1.6097">
        <ele>55</ele>
        <time>2022-08-06T06:46:56Z</time>
      </trkpt>
      <trkpt lat="47.17709" lon="-1.60963">
        <ele>56</ele>
        <time>2022-08-06T06:46:58Z</time>
      </trkpt>
      <trkpt lat="47.17721" lon="-1.60956">
        <ele>55</ele>
        <time>2022-08-06T06:47:00Z</time>
      </trkpt>
      <trkpt lat="47.17733" lon="-1.60948">
        <ele>56</ele>
        <time>2022-08-06T06:47:02Z</time>
      </trkpt>
      <trkpt lat="47.17744" lon="-1.60939">
        <ele>56</ele>
        <time>2022-08-06T06:47:04Z</time>
      </trkpt>
      <trkpt lat="47.17756" lon="-1.6093">
        <ele>56</ele>
        <time>2022-08-06T06:47:06Z</time>
      </trkpt>
      <trkpt lat="47.17767" lon="-1.60921">
        <ele>56</ele>
        <time>2022-08-06T06:47:08Z</time>
      </trkpt>
      <trkpt lat="47.17779" lon="-1.60911">
        <ele>56</ele>
        <time>2022-08-06T06:47:10Z</time>
      </trkpt>
      <trkpt lat="47.1779" lon="-1.60903">
        <ele>55</ele>
        <time>2022-08-06T06:47:12Z</time>
      </trkpt>
      <trkpt lat="47.17802" lon="-1.60894">
        <ele>55</ele>
        <time>2022-08-06T06:47:14Z</time>
      </trkpt>
      <trkpt lat="47.17813" lon="-1.60884">
        <ele>55</ele>
        <time>2022-08-06T06:47:16Z</time>
      </trkpt>
      <trkpt lat="47.17822" lon="-1.60872">
        <ele>55</ele>
        <time>2022-08-06T06:47:18Z</time>
      </trkpt>
      <trkpt lat="47.1783" lon="-1.60859">
        <ele>55</ele>
        <time>2022-08-06T06:47:20Z</time>
      </trkpt>
      <trkpt lat="47.17838" lon="-1.60843">
        <ele>54</ele>
        <time>2022-08-06T06:47:22Z</time>
      </trkpt>
      <trkpt lat="47.17844" lon="-1.60827">
        <ele>54</ele>
        <time>2022-08-06T06:47:24Z</time>
      </trkpt>
      <trkpt lat="47.17848" lon="-1.60809">
        <ele>53</ele>
        <time>2022-08-06T06:47:26Z</time>
      </trkpt>
      <trkpt lat="47.17853" lon="-1.6079">
        <ele>53</ele>
        <time>2022-08-06T06:47:28Z</time>
      </trkpt>
      <trkpt lat="47.17857" lon="-1.60771">
        <ele>52</ele>
        <time>2022-08-06T06:47:30Z</time>
      </trkpt>
      <trkpt lat="47.17861" lon="-1.60752">
        <ele>52</ele>
        <time>2022-08-06T06:47:32Z</time>
      </trkpt>
      <trkpt lat="47.17865" lon="-1.60733">
        <ele>51</ele>
        <time>2022-08-06T06:47:34Z</time>
      </trkpt>
      <trkpt lat="47.1787" lon="-1.60714">
        <ele>51</ele>
        <time>2022-08-06T06:47:36Z</time>
      </trkpt>
      <trkpt lat="47.17874" lon="-1.60696">
        <ele>51</ele>
        <time>2022-08-06T06:47:38Z</time>
      </trkpt>
      <trkpt lat="47.17879" lon="-1.60677">
        <ele>51</ele>
        <time>2022-08-06T06:47:40Z</time>
      </trkpt>
      <trkpt lat="47.17885" lon="-1.60659">
        <ele>51</ele>
        <time>2022-08-06T06:47:42Z</time>
      </trkpt>
      <trkpt lat="47.17891" lon="-1.60642">
        <ele>51</ele>
        <time>2022-08-06T06:47:44Z</time>
      </trkpt>
      <trkpt lat="47.17896" lon="-1.60626">
        <ele>52</ele>
        <time>2022-08-06T06:47:46Z</time>
      </trkpt>
      <trkpt lat="47.179" lon="-1.60609">
        <ele>53</ele>
        <time>2022-08-06T06:47:48Z</time>
      </trkpt>
      <trkpt lat="47.17904" lon="-1.60593">
        <ele>53</ele>
        <time>2022-08-06T06:47:50Z</time>
      </trkpt>
      <trkpt lat="47.17911" lon="-1.60582">
        <ele>52</ele>
        <time>2022-08-06T06:47:52Z</time>
      </trkpt>
      <trkpt lat="47.17922" lon="-1.60581">
        <ele>52</ele>
        <time>2022-08-06T06:47:54Z</time>
      </trkpt>
      <trkpt lat="47.17933" lon="-1.60582">
        <ele>53</ele>
        <time>2022-08-06T06:47:56Z</time>
      </trkpt>
      <trkpt lat="47.17945" lon="-1.60577">
        <ele>54</ele>
        <time>2022-08-06T06:47:58Z</time>
      </trkpt>
      <trkpt lat="47.17957" lon="-1.60571">
        <ele>53</ele>
        <time>2022-08-06T06:48:00Z</time>
      </trkpt>
      <trkpt lat="47.17968" lon="-1.60564">
        <ele>53</ele>
        <time>2022-08-06T06:48:02Z</time>
      </trkpt>
      <trkpt lat="47.1798" lon="-1.60559">
        <ele>53</ele>
        <time>2022-08-06T06:48:04Z</time>
      </trkpt>
      <trkpt lat="47.17996" lon="-1.60554">
        <ele>55</ele>
        <time>2022-08-06T06:48:06Z</time>
      </trkpt>
      <trkpt lat="47.1801" lon="-1.60551">
        <ele>55</ele>
        <time>2022-08-06T06:48:08Z</time>
      </trkpt>
      <trkpt lat="47.18024" lon="-1.60551">
        <ele>55</ele>
        <time>2022-08-06T06:48:10Z</time>
      </trkpt>
      <trkpt lat="47.18037" lon="-1.60554">
        <ele>56</ele>
        <time>2022-08-06T06:48:12Z</time>
      </trkpt>
      <trkpt lat="47.1805" lon="-1.60561">
        <ele>56</ele>
        <time>2022-08-06T06:48:14Z</time>
      </trkpt>
      <trkpt lat="47.18062" lon="-1.60568">
        <ele>56</ele>
        <time>2022-08-06T06:48:16Z</time>
      </trkpt>
      <trkpt lat="47.18074" lon="-1.60575">
        <ele>56</ele>
        <time>2022-08-06T06:48:18Z</time>
      </trkpt>
      <trkpt lat="47.18087" lon="-1.60582">
        <ele>56</ele>
        <time>2022-08-06T06:48:20Z</time>
      </trkpt>
      <trkpt lat="47.18099" lon="-1.60588">
        <ele>56</ele>
        <time>2022-08-06T06:48:22Z</time>
      </trkpt>
      <trkpt lat="47.18112" lon="-1.60593">
        <ele>56</ele>
        <time>2022-08-06T06:48:24Z</time>
      </trkpt>
      <trkpt lat="47.18124" lon="-1.60597">
        <ele>56</ele>
        <time>2022-08-06T06:48:26Z</time>
      </trkpt>
      <trkpt lat="47.18137" lon="-1.606">
        <ele>57</ele>
        <time>2022-08-06T06:48:28Z</time>
      </trkpt>
      <trkpt lat="47.1815" lon="-1.60602">
        <ele>56</ele>
        <time>2022-08-06T06:48:30Z</time>
      </trkpt>
      <trkpt lat="47.18163" lon="-1.60602">
        <ele>56</ele>
        <time>2022-08-06T06:48:32Z</time>
      </trkpt>
      <trkpt lat="47.18176" lon="-1.606">
        <ele>56</ele>
        <time>2022-08-06T06:48:34Z</time>
      </trkpt>
      <trkpt lat="47.18187" lon="-1.60594">
        <ele>56</ele>
        <time>2022-08-06T06:48:36Z</time>
      </trkpt>
      <trkpt lat="47.1819" lon="-1.60578">
        <ele>55</ele>
        <time>2022-08-06T06:48:38Z</time>
      </trkpt>
      <trkpt lat="47.18201" lon="-1.60571">
        <ele>55</ele>
        <time>2022-08-06T06:48:40Z</time>
      </trkpt>
      <trkpt lat="47.18213" lon="-1.60566">
        <ele>56</ele>
        <time>2022-08-06T06:48:42Z</time>
      </trkpt>
      <trkpt lat="47.18224" lon="-1.60559">
        <ele>56</ele>
        <time>2022-08-06T06:48:44Z</time>
      </trkpt>
      <trkpt lat="47.18236" lon="-1.60551">
        <ele>56</ele>
        <time>2022-08-06T06:48:46Z</time>
      </trkpt>
      <trkpt lat="47.18248" lon="-1.60543">
        <ele>56</ele>
        <time>2022-08-06T06:48:48Z</time>
      </trkpt>
      <trkpt lat="47.1826" lon="-1.60533">
        <ele>56</ele>
        <time>2022-08-06T06:48:50Z</time>
      </trkpt>
      <trkpt lat="47.1827" lon="-1.60523">
        <ele>55</ele>
        <time>2022-08-06T06:48:52Z</time>
      </trkpt>
      <trkpt lat="47.1828" lon="-1.60513">
        <ele>55</ele>
        <time>2022-08-06T06:48:54Z</time>
      </trkpt>
      <trkpt lat="47.1829" lon="-1.60503">
        <ele>55</ele>
        <time>2022-08-06T06:48:56Z</time>
      </trkpt>
      <trkpt lat="47.18301" lon="-1.60492">
        <ele>55</ele>
        <time>2022-08-06T06:48:58Z</time>
      </trkpt>
      <trkpt lat="47.18311" lon="-1.60482">
        <ele>55</ele>
        <time>2022-08-06T06:49:00Z</time>
      </trkpt>
      <trkpt lat="47.1832" lon="-1.60471">
        <ele>55</ele>
        <time>2022-08-06T06:49:02Z</time>
      </trkpt>
      <trkpt lat="47.1833" lon="-1.6046">
        <ele>55</ele>
        <time>2022-08-06T06:49:04Z</time>
      </trkpt>
      <trkpt lat="47.1834" lon="-1.60448">
        <ele>55</ele>
        <time>2022-08-06T06:49:06Z</time>
      </trkpt>
      <trkpt lat="47.18349" lon="-1.60436">
        <ele>55</ele>
        <time>2022-08-06T06:49:08Z</time>
      </trkpt>
      <trkpt lat="47.18359" lon="-1.60423">
        <ele>55</ele>
        <time>2022-08-06T06:49:10Z</time>
      </trkpt>
      <trkpt lat="47.18369" lon="-1.60412">
        <ele>55</ele>
        <time>2022-08-06T06:49:12Z</time>
      </trkpt>
      <trkpt lat="47.18378" lon="-1.604">
        <ele>55</ele>
        <time>2022-08-06T06:49:14Z</time>
      </trkpt>
      <trkpt lat="47.18387" lon="-1.60388">
        <ele>54</ele>
        <time>2022-08-06T06:49:16Z</time>
      </trkpt>
      <trkpt lat="47.18396" lon="-1.60376">
        <ele>54</ele>
        <time>2022-08-06T06:49:18Z</time>
      </trkpt>
      <trkpt lat="47.18405" lon="-1.60364">
        <ele>54</ele>
        <time>2022-08-06T06:49:20Z</time>
      </trkpt>
      <trkpt lat="47.18414" lon="-1.60351">
        <ele>53</ele>
        <time>2022-08-06T06:49:22Z</time>
      </trkpt>
      <trkpt lat="47.18423" lon="-1.60338">
        <ele>54</ele>
        <time>2022-08-06T06:49:24Z</time>
      </trkpt>
      <trkpt lat="47.18431" lon="-1.60325">
        <ele>53</ele>
        <time>2022-08-06T06:49:26Z</time>
      </trkpt>
      <trkpt lat="47.18439" lon="-1.60311">
        <ele>54</ele>
        <time>2022-08-06T06:49:28Z</time>
      </trkpt>
      <trkpt lat="47.18447" lon="-1.60298">
        <ele>54</ele>
        <time>2022-08-06T06:49:30Z</time>
      </trkpt>
      <trkpt lat="47.18455" lon="-1.60284">
        <ele>54</ele>
        <time>2022-08-06T06:49:32Z</time>
      </trkpt>
      <trkpt lat="47.18463" lon="-1.60271">
        <ele>54</ele>
        <time>2022-08-06T06:49:34Z</time>
      </trkpt>
      <trkpt lat="47.1847" lon="-1.60257">
        <ele>54</ele>
        <time>2022-08-06T06:49:36Z</time>
      </trkpt>
      <trkpt lat="47.18478" lon="-1.60244">
        <ele>54</ele>
        <time>2022-08-06T06:49:38Z</time>
      </trkpt>
      <trkpt lat="47.18485" lon="-1.6023">
        <ele>54</ele>
        <time>2022-08-06T06:49:40Z</time>
      </trkpt>
      <trkpt lat="47.18493" lon="-1.60217">
        <ele>54</ele>
        <time>2022-08-06T06:49:42Z</time>
      </trkpt>
      <trkpt lat="47.185" lon="-1.60203">
        <ele>54</ele>
        <time>2022-08-06T06:49:44Z</time>
      </trkpt>
      <trkpt lat="47.18508" lon="-1.60188">
        <ele>54</ele>
        <time>2022-08-06T06:49:46Z</time>
      </trkpt>
      <trkpt lat="47.18515" lon="-1.60174">
        <ele>54</ele>
        <time>2022-08-06T06:49:48Z</time>
      </trkpt>
      <trkpt lat="47.18522" lon="-1.6016">
        <ele>54</ele>
        <time>2022-08-06T06:49:50Z</time>
      </trkpt>
      <trkpt lat="47.18529" lon="-1.60145">
        <ele>53</ele>
        <time>2022-08-06T06:49:52Z</time>
      </trkpt>
      <trkpt lat="47.18535" lon="-1.6013">
        <ele>53</ele>
        <time>2022-08-06T06:49:54Z</time>
      </trkpt>
      <trkpt lat="47.18542" lon="-1.60115">
        <ele>53</ele>
        <time>2022-08-06T06:49:56Z</time>
      </trkpt>
      <trkpt lat="47.18548" lon="-1.601">
        <ele>53</ele>
        <time>2022-08-06T06:49:58Z</time>
      </trkpt>
      <trkpt lat="47.18555" lon="-1.60085">
        <ele>53</ele>
        <time>2022-08-06T06:50:00Z</time>
      </trkpt>
      <trkpt lat="47.1856" lon="-1.6007">
        <ele>53</ele>
        <time>2022-08-06T06:50:02Z</time>
      </trkpt>
      <trkpt lat="47.18566" lon="-1.60055">
        <ele>53</ele>
        <time>2022-08-06T06:50:04Z</time>
      </trkpt>
      <trkpt lat="47.18572" lon="-1.60039">
        <ele>53</ele>
        <time>2022-08-06T06:50:06Z</time>
      </trkpt>
      <trkpt lat="47.18578" lon="-1.60023">
        <ele>53</ele>
        <time>2022-08-06T06:50:08Z</time>
      </trkpt>
      <trkpt lat="47.18583" lon="-1.60006">
        <ele>53</ele>
        <time>2022-08-06T06:50:10Z</time>
      </trkpt>
      <trkpt lat="47.18588" lon="-1.59991">
        <ele>53</ele>
        <time>2022-08-06T06:50:12Z</time>
      </trkpt>
      <trkpt lat="47.18593" lon="-1.59975">
        <ele>54</ele>
        <time>2022-08-06T06:50:14Z</time>
      </trkpt>
      <trkpt lat="47.18599" lon="-1.59958">
        <ele>54</ele>
        <time>2022-08-06T06:50:16Z</time>
      </trkpt>
      <trkpt lat="47.18603" lon="-1.59942">
        <ele>54</ele>
        <time>2022-08-06T06:50:18Z</time>
      </trkpt>
      <trkpt lat="47.18608" lon="-1.59926">
        <ele>54</ele>
        <time>2022-08-06T06:50:20Z</time>
      </trkpt>
      <trkpt lat="47.18613" lon="-1.59909">
        <ele>54</ele>
        <time>2022-08-06T06:50:22Z</time>
      </trkpt>
      <trkpt lat="47.18617" lon="-1.59893">
        <ele>54</ele>
        <time>2022-08-06T06:50:24Z</time>
      </trkpt>
      <trkpt lat="47.18621" lon="-1.59877">
        <ele>54</ele>
        <time>2022-08-06T06:50:26Z</time>
      </trkpt>
      <trkpt lat="47.18623" lon="-1.5986">
        <ele>54</ele>
        <time>2022-08-06T06:50:28Z</time>
      </trkpt>
      <trkpt lat="47.18618" lon="-1.59845">
        <ele>53</ele>
        <time>2022-08-06T06:50:30Z</time>
      </trkpt>
      <trkpt lat="47.18616" lon="-1.59829">
        <ele>53</ele>
        <time>2022-08-06T06:50:32Z</time>
      </trkpt>
      <trkpt lat="47.18623" lon="-1.59815">
        <ele>54</ele>
        <time>2022-08-06T06:50:34Z</time>
      </trkpt>
      <trkpt lat="47.18628" lon="-1.59802">
        <ele>54</ele>
        <time>2022-08-06T06:50:36Z</time>
      </trkpt>
      <trkpt lat="47.18632" lon="-1.59786">
        <ele>54</ele>
        <time>2022-08-06T06:50:38Z</time>
      </trkpt>
      <trkpt lat="47.18637" lon="-1.59771">
        <ele>55</ele>
        <time>2022-08-06T06:50:40Z</time>
      </trkpt>
      <trkpt lat="47.18645" lon="-1.59758">
        <ele>55</ele>
        <time>2022-08-06T06:50:42Z</time>
      </trkpt>
      <trkpt lat="47.18652" lon="-1.59746">
        <ele>55</ele>
        <time>2022-08-06T06:50:44Z</time>
      </trkpt>
      <trkpt lat="47.18654" lon="-1.5973">
        <ele>55</ele>
        <time>2022-08-06T06:50:46Z</time>
      </trkpt>
      <trkpt lat="47.18657" lon="-1.59714">
        <ele>56</ele>
        <time>2022-08-06T06:50:48Z</time>
      </trkpt>
      <trkpt lat="47.1866" lon="-1.59697">
        <ele>55</ele>
        <time>2022-08-06T06:50:50Z</time>
      </trkpt>
      <trkpt lat="47.18663" lon="-1.59681">
        <ele>55</ele>
        <time>2022-08-06T06:50:52Z</time>
      </trkpt>
      <trkpt lat="47.18667" lon="-1.59665">
        <ele>55</ele>
        <time>2022-08-06T06:50:54Z</time>
      </trkpt>
      <trkpt lat="47.18672" lon="-1.59649">
        <ele>54</ele>
        <time>2022-08-06T06:50:56Z</time>
      </trkpt>
      <trkpt lat="47.18674" lon="-1.59632">
        <ele>54</ele>
        <time>2022-08-06T06:50:58Z</time>
      </trkpt>
      <trkpt lat="47.18676" lon="-1.59615">
        <ele>54</ele>
        <time>2022-08-06T06:51:00Z</time>
      </trkpt>
      <trkpt lat="47.18678" lon="-1.59598">
        <ele>55</ele>
        <time>2022-08-06T06:51:02Z</time>
      </trkpt>
      <trkpt lat="47.18682" lon="-1.59573">
        <ele>55</ele>
        <time>2022-08-06T06:51:05Z</time>
      </trkpt>
      <trkpt lat="47.18684" lon="-1.59556">
        <ele>55</ele>
        <time>2022-08-06T06:51:07Z</time>
      </trkpt>
      <trkpt lat="47.18686" lon="-1.59539">
        <ele>55</ele>
        <time>2022-08-06T06:51:09Z</time>
      </trkpt>
      <trkpt lat="47.18688" lon="-1.59522">
        <ele>55</ele>
        <time>2022-08-06T06:51:11Z</time>
      </trkpt>
      <trkpt lat="47.1869" lon="-1.59504">
        <ele>55</ele>
        <time>2022-08-06T06:51:13Z</time>
      </trkpt>
      <trkpt lat="47.18692" lon="-1.59487">
        <ele>55</ele>
        <time>2022-08-06T06:51:15Z</time>
      </trkpt>
      <trkpt lat="47.18694" lon="-1.59469">
        <ele>55</ele>
        <time>2022-08-06T06:51:17Z</time>
      </trkpt>
      <trkpt lat="47.18696" lon="-1.59452">
        <ele>55</ele>
        <time>2022-08-06T06:51:19Z</time>
      </trkpt>
      <trkpt lat="47.18698" lon="-1.59435">
        <ele>55</ele>
        <time>2022-08-06T06:51:21Z</time>
      </trkpt>
      <trkpt lat="47.187" lon="-1.59417">
        <ele>55</ele>
        <time>2022-08-06T06:51:23Z</time>
      </trkpt>
      <trkpt lat="47.18702" lon="-1.594">
        <ele>55</ele>
        <time>2022-08-06T06:51:25Z</time>
      </trkpt>
      <trkpt lat="47.18704" lon="-1.59382">
        <ele>55</ele>
        <time>2022-08-06T06:51:27Z</time>
      </trkpt>
      <trkpt lat="47.18706" lon="-1.59365">
        <ele>55</ele>
        <time>2022-08-06T06:51:29Z</time>
      </trkpt>
      <trkpt lat="47.18708" lon="-1.59347">
        <ele>56</ele>
        <time>2022-08-06T06:51:31Z</time>
      </trkpt>
      <trkpt lat="47.1871" lon="-1.5933">
        <ele>56</ele>
        <time>2022-08-06T06:51:33Z</time>
      </trkpt>
      <trkpt lat="47.18712" lon="-1.59312">
        <ele>56</ele>
        <time>2022-08-06T06:51:35Z</time>
      </trkpt>
      <trkpt lat="47.18713" lon="-1.59294">
        <ele>56</ele>
        <time>2022-08-06T06:51:37Z</time>
      </trkpt>
      <trkpt lat="47.18716" lon="-1.59267">
        <ele>56</ele>
        <time>2022-08-06T06:51:40Z</time>
      </trkpt>
      <trkpt lat="47.18718" lon="-1.59249">
        <ele>56</ele>
        <time>2022-08-06T06:51:42Z</time>
      </trkpt>
      <trkpt lat="47.1872" lon="-1.59231">
        <ele>56</ele>
        <time>2022-08-06T06:51:44Z</time>
      </trkpt>
      <trkpt lat="47.18722" lon="-1.59213">
        <ele>56</ele>
        <time>2022-08-06T06:51:46Z</time>
      </trkpt>
      <trkpt lat="47.18724" lon="-1.59195">
        <ele>56</ele>
        <time>2022-08-06T06:51:48Z</time>
      </trkpt>
      <trkpt lat="47.18726" lon="-1.59177">
        <ele>56</ele>
        <time>2022-08-06T06:51:50Z</time>
      </trkpt>
      <trkpt lat="47.18728" lon="-1.5916">
        <ele>56</ele>
        <time>2022-08-06T06:51:52Z</time>
      </trkpt>
      <trkpt lat="47.1873" lon="-1.59142">
        <ele>56</ele>
        <time>2022-08-06T06:51:54Z</time>
      </trkpt>
      <trkpt lat="47.18732" lon="-1.59125">
        <ele>55</ele>
        <time>2022-08-06T06:51:56Z</time>
      </trkpt>
      <trkpt lat="47.18734" lon="-1.59107">
        <ele>55</ele>
        <time>2022-08-06T06:51:58Z</time>
      </trkpt>
      <trkpt lat="47.18735" lon="-1.59089">
        <ele>55</ele>
        <time>2022-08-06T06:52:00Z</time>
      </trkpt>
      <trkpt lat="47.18737" lon="-1.59071">
        <ele>55</ele>
        <time>2022-08-06T06:52:02Z</time>
      </trkpt>
      <trkpt lat="47.18739" lon="-1.59053">
        <ele>55</ele>
        <time>2022-08-06T06:52:04Z</time>
      </trkpt>
      <trkpt lat="47.18741" lon="-1.59035">
        <ele>55</ele>
        <time>2022-08-06T06:52:06Z</time>
      </trkpt>
      <trkpt lat="47.18744" lon="-1.59008">
        <ele>55</ele>
        <time>2022-08-06T06:52:09Z</time>
      </trkpt>
      <trkpt lat="47.18745" lon="-1.58991">
        <ele>55</ele>
        <time>2022-08-06T06:52:11Z</time>
      </trkpt>
      <trkpt lat="47.18747" lon="-1.58974">
        <ele>56</ele>
        <time>2022-08-06T06:52:13Z</time>
      </trkpt>
      <trkpt lat="47.18748" lon="-1.58956">
        <ele>56</ele>
        <time>2022-08-06T06:52:15Z</time>
      </trkpt>
      <trkpt lat="47.1875" lon="-1.58939">
        <ele>56</ele>
        <time>2022-08-06T06:52:17Z</time>
      </trkpt>
      <trkpt lat="47.18752" lon="-1.58921">
        <ele>57</ele>
        <time>2022-08-06T06:52:19Z</time>
      </trkpt>
      <trkpt lat="47.18754" lon="-1.58904">
        <ele>57</ele>
        <time>2022-08-06T06:52:21Z</time>
      </trkpt>
      <trkpt lat="47.18757" lon="-1.58886">
        <ele>58</ele>
        <time>2022-08-06T06:52:23Z</time>
      </trkpt>
      <trkpt lat="47.18758" lon="-1.58868">
        <ele>58</ele>
        <time>2022-08-06T06:52:25Z</time>
      </trkpt>
      <trkpt lat="47.18761" lon="-1.5885">
        <ele>58</ele>
        <time>2022-08-06T06:52:27Z</time>
      </trkpt>
      <trkpt lat="47.18763" lon="-1.58834">
        <ele>58</ele>
        <time>2022-08-06T06:52:29Z</time>
      </trkpt>
      <trkpt lat="47.18764" lon="-1.58817">
        <ele>58</ele>
        <time>2022-08-06T06:52:31Z</time>
      </trkpt>
      <trkpt lat="47.18764" lon="-1.58799">
        <ele>58</ele>
        <time>2022-08-06T06:52:33Z</time>
      </trkpt>
      <trkpt lat="47.18763" lon="-1.58782">
        <ele>58</ele>
        <time>2022-08-06T06:52:35Z</time>
      </trkpt>
      <trkpt lat="47.18758" lon="-1.58767">
        <ele>58</ele>
        <time>2022-08-06T06:52:37Z</time>
      </trkpt>
      <trkpt lat="47.18756" lon="-1.5875">
        <ele>57</ele>
        <time>2022-08-06T06:52:39Z</time>
      </trkpt>
      <trkpt lat="47.18759" lon="-1.58732">
        <ele>57</ele>
        <time>2022-08-06T06:52:41Z</time>
      </trkpt>
      <trkpt lat="47.18765" lon="-1.58717">
        <ele>57</ele>
        <time>2022-08-06T06:52:43Z</time>
      </trkpt>
      <trkpt lat="47.18774" lon="-1.58704">
        <ele>58</ele>
        <time>2022-08-06T06:52:45Z</time>
      </trkpt>
      <trkpt lat="47.18782" lon="-1.58691">
        <ele>58</ele>
        <time>2022-08-06T06:52:47Z</time>
      </trkpt>
      <trkpt lat="47.18787" lon="-1.58676">
        <ele>58</ele>
        <time>2022-08-06T06:52:49Z</time>
      </trkpt>
      <trkpt lat="47.1879" lon="-1.5866">
        <ele>57</ele>
        <time>2022-08-06T06:52:51Z</time>
      </trkpt>
      <trkpt lat="47.18794" lon="-1.58644">
        <ele>57</ele>
        <time>2022-08-06T06:52:53Z</time>
      </trkpt>
      <trkpt lat="47.18799" lon="-1.58628">
        <ele>57</ele>
        <time>2022-08-06T06:52:55Z</time>
      </trkpt>
      <trkpt lat="47.18803" lon="-1.58611">
        <ele>56</ele>
        <time>2022-08-06T06:52:57Z</time>
      </trkpt>
      <trkpt lat="47.18807" lon="-1.58595">
        <ele>56</ele>
        <time>2022-08-06T06:52:59Z</time>
      </trkpt>
      <trkpt lat="47.18811" lon="-1.58578">
        <ele>56</ele>
        <time>2022-08-06T06:53:01Z</time>
      </trkpt>
      <trkpt lat="47.18815" lon="-1.58562">
        <ele>56</ele>
        <time>2022-08-06T06:53:03Z</time>
      </trkpt>
      <trkpt lat="47.1882" lon="-1.58546">
        <ele>56</ele>
        <time>2022-08-06T06:53:05Z</time>
      </trkpt>
      <trkpt lat="47.18824" lon="-1.5853">
        <ele>56</ele>
        <time>2022-08-06T06:53:07Z</time>
      </trkpt>
      <trkpt lat="47.18828" lon="-1.58514">
        <ele>55</ele>
        <time>2022-08-06T06:53:09Z</time>
      </trkpt>
      <trkpt lat="47.18833" lon="-1.58498">
        <ele>55</ele>
        <time>2022-08-06T06:53:11Z</time>
      </trkpt>
      <trkpt lat="47.18837" lon="-1.58481">
        <ele>56</ele>
        <time>2022-08-06T06:53:13Z</time>
      </trkpt>
      <trkpt lat="47.18842" lon="-1.58465">
        <ele>56</ele>
        <time>2022-08-06T06:53:15Z</time>
      </trkpt>
      <trkpt lat="47.18847" lon="-1.58449">
        <ele>55</ele>
        <time>2022-08-06T06:53:17Z</time>
      </trkpt>
      <trkpt lat="47.18852" lon="-1.58432">
        <ele>55</ele>
        <time>2022-08-06T06:53:19Z</time>
      </trkpt>
      <trkpt lat="47.18857" lon="-1.58415">
        <ele>55</ele>
        <time>2022-08-06T06:53:21Z</time>
      </trkpt>
      <trkpt lat="47.18863" lon="-1.58399">
        <ele>55</ele>
        <time>2022-08-06T06:53:23Z</time>
      </trkpt>
      <trkpt lat="47.18868" lon="-1.58382">
        <ele>55</ele>
        <time>2022-08-06T06:53:25Z</time>
      </trkpt>
      <trkpt lat="47.18874" lon="-1.58367">
        <ele>54</ele>
        <time>2022-08-06T06:53:27Z</time>
      </trkpt>
      <trkpt lat="47.18879" lon="-1.5835">
        <ele>54</ele>
        <time>2022-08-06T06:53:29Z</time>
      </trkpt>
      <trkpt lat="47.18884" lon="-1.58333">
        <ele>54</ele>
        <time>2022-08-06T06:53:31Z</time>
      </trkpt>
      <trkpt lat="47.1889" lon="-1.58316">
        <ele>54</ele>
        <time>2022-08-06T06:53:33Z</time>
      </trkpt>
      <trkpt lat="47.18896" lon="-1.583">
        <ele>53</ele>
        <time>2022-08-06T06:53:35Z</time>
      </trkpt>
      <trkpt lat="47.18902" lon="-1.58283">
        <ele>53</ele>
        <time>2022-08-06T06:53:37Z</time>
      </trkpt>
      <trkpt lat="47.18909" lon="-1.58266">
        <ele>54</ele>
        <time>2022-08-06T06:53:39Z</time>
      </trkpt>
      <trkpt lat="47.18915" lon="-1.58249">
        <ele>54</ele>
        <time>2022-08-06T06:53:41Z</time>
      </trkpt>
      <trkpt lat="47.18921" lon="-1.58232">
        <ele>54</ele>
        <time>2022-08-06T06:53:43Z</time>
      </trkpt>
      <trkpt lat="47.18927" lon="-1.58215">
        <ele>54</ele>
        <time>2022-08-06T06:53:45Z</time>
      </trkpt>
      <trkpt lat="47.18933" lon="-1.58199">
        <ele>54</ele>
        <time>2022-08-06T06:53:47Z</time>
      </trkpt>
      <trkpt lat="47.18939" lon="-1.58183">
        <ele>54</ele>
        <time>2022-08-06T06:53:49Z</time>
      </trkpt>
      <trkpt lat="47.18944" lon="-1.58166">
        <ele>54</ele>
        <time>2022-08-06T06:53:51Z</time>
      </trkpt>
      <trkpt lat="47.1895" lon="-1.58149">
        <ele>54</ele>
        <time>2022-08-06T06:53:53Z</time>
      </trkpt>
      <trkpt lat="47.18955" lon="-1.58134">
        <ele>54</ele>
        <time>2022-08-06T06:53:55Z</time>
      </trkpt>
      <trkpt lat="47.18961" lon="-1.58118">
        <ele>54</ele>
        <time>2022-08-06T06:53:57Z</time>
      </trkpt>
      <trkpt lat="47.18967" lon="-1.58101">
        <ele>54</ele>
        <time>2022-08-06T06:53:59Z</time>
      </trkpt>
      <trkpt lat="47.18973" lon="-1.58084">
        <ele>54</ele>
        <time>2022-08-06T06:54:01Z</time>
      </trkpt>
      <trkpt lat="47.18979" lon="-1.58067">
        <ele>54</ele>
        <time>2022-08-06T06:54:03Z</time>
      </trkpt>
      <trkpt lat="47.18985" lon="-1.58051">
        <ele>54</ele>
        <time>2022-08-06T06:54:05Z</time>
      </trkpt>
      <trkpt lat="47.18991" lon="-1.58034">
        <ele>54</ele>
        <time>2022-08-06T06:54:07Z</time>
      </trkpt>
      <trkpt lat="47.18998" lon="-1.58018">
        <ele>55</ele>
        <time>2022-08-06T06:54:09Z</time>
      </trkpt>
      <trkpt lat="47.19003" lon="-1.58002">
        <ele>55</ele>
        <time>2022-08-06T06:54:11Z</time>
      </trkpt>
      <trkpt lat="47.19009" lon="-1.57986">
        <ele>55</ele>
        <time>2022-08-06T06:54:13Z</time>
      </trkpt>
      <trkpt lat="47.19015" lon="-1.57969">
        <ele>55</ele>
        <time>2022-08-06T06:54:15Z</time>
      </trkpt>
      <trkpt lat="47.1902" lon="-1.57953">
        <ele>55</ele>
        <time>2022-08-06T06:54:17Z</time>
      </trkpt>
      <trkpt lat="47.19027" lon="-1.57936">
        <ele>55</ele>
        <time>2022-08-06T06:54:19Z</time>
      </trkpt>
      <trkpt lat="47.19032" lon="-1.57919">
        <ele>55</ele>
        <time>2022-08-06T06:54:21Z</time>
      </trkpt>
      <trkpt lat="47.19038" lon="-1.57904">
        <ele>56</ele>
        <time>2022-08-06T06:54:23Z</time>
      </trkpt>
      <trkpt lat="47.19044" lon="-1.57887">
        <ele>55</ele>
        <time>2022-08-06T06:54:25Z</time>
      </trkpt>
      <trkpt lat="47.19049" lon="-1.57871">
        <ele>56</ele>
        <time>2022-08-06T06:54:27Z</time>
      </trkpt>
      <trkpt lat="47.19055" lon="-1.57856">
        <ele>56</ele>
        <time>2022-08-06T06:54:29Z</time>
      </trkpt>
      <trkpt lat="47.19061" lon="-1.5784">
        <ele>56</ele>
        <time>2022-08-06T06:54:31Z</time>
      </trkpt>
      <trkpt lat="47.19067" lon="-1.57825">
        <ele>56</ele>
        <time>2022-08-06T06:54:33Z</time>
      </trkpt>
      <trkpt lat="47.19072" lon="-1.5781">
        <ele>56</ele>
        <time>2022-08-06T06:54:35Z</time>
      </trkpt>
      <trkpt lat="47.19078" lon="-1.57794">
        <ele>56</ele>
        <time>2022-08-06T06:54:37Z</time>
      </trkpt>
      <trkpt lat="47.19083" lon="-1.57778">
        <ele>56</ele>
        <time>2022-08-06T06:54:39Z</time>
      </trkpt>
      <trkpt lat="47.19089" lon="-1.57762">
        <ele>55</ele>
        <time>2022-08-06T06:54:41Z</time>
      </trkpt>
      <trkpt lat="47.19094" lon="-1.57747">
        <ele>56</ele>
        <time>2022-08-06T06:54:43Z</time>
      </trkpt>
      <trkpt lat="47.191" lon="-1.57731">
        <ele>55</ele>
        <time>2022-08-06T06:54:45Z</time>
      </trkpt>
      <trkpt lat="47.19105" lon="-1.57716">
        <ele>56</ele>
        <time>2022-08-06T06:54:47Z</time>
      </trkpt>
      <trkpt lat="47.1911" lon="-1.57701">
        <ele>55</ele>
        <time>2022-08-06T06:54:49Z</time>
      </trkpt>
      <trkpt lat="47.19116" lon="-1.57684">
        <ele>55</ele>
        <time>2022-08-06T06:54:51Z</time>
      </trkpt>
      <trkpt lat="47.19122" lon="-1.57669">
        <ele>55</ele>
        <time>2022-08-06T06:54:53Z</time>
      </trkpt>
      <trkpt lat="47.19127" lon="-1.57654">
        <ele>56</ele>
        <time>2022-08-06T06:54:55Z</time>
      </trkpt>
      <trkpt lat="47.19133" lon="-1.57638">
        <ele>56</ele>
        <time>2022-08-06T06:54:57Z</time>
      </trkpt>
      <trkpt lat="47.19139" lon="-1.57622">
        <ele>56</ele>
        <time>2022-08-06T06:54:59Z</time>
      </trkpt>
      <trkpt lat="47.19144" lon="-1.57605">
        <ele>55</ele>
        <time>2022-08-06T06:55:01Z</time>
      </trkpt>
      <trkpt lat="47.1915" lon="-1.57589">
        <ele>55</ele>
        <time>2022-08-06T06:55:03Z</time>
      </trkpt>
      <trkpt lat="47.19156" lon="-1.57574">
        <ele>54</ele>
        <time>2022-08-06T06:55:05Z</time>
      </trkpt>
      <trkpt lat="47.19162" lon="-1.57559">
        <ele>55</ele>
        <time>2022-08-06T06:55:07Z</time>
      </trkpt>
      <trkpt lat="47.19167" lon="-1.57543">
        <ele>55</ele>
        <time>2022-08-06T06:55:09Z</time>
      </trkpt>
      <trkpt lat="47.19172" lon="-1.57527">
        <ele>55</ele>
        <time>2022-08-06T06:55:11Z</time>
      </trkpt>
      <trkpt lat="47.19177" lon="-1.57511">
        <ele>55</ele>
        <time>2022-08-06T06:55:13Z</time>
      </trkpt>
      <trkpt lat="47.19183" lon="-1.57494">
        <ele>54</ele>
        <time>2022-08-06T06:55:15Z</time>
      </trkpt>
      <trkpt lat="47.19188" lon="-1.57477">
        <ele>55</ele>
        <time>2022-08-06T06:55:17Z</time>
      </trkpt>
      <trkpt lat="47.19192" lon="-1.5746">
        <ele>55</ele>
        <time>2022-08-06T06:55:19Z</time>
      </trkpt>
      <trkpt lat="47.19197" lon="-1.57444">
        <ele>55</ele>
        <time>2022-08-06T06:55:21Z</time>
      </trkpt>
      <trkpt lat="47.19202" lon="-1.57427">
        <ele>55</ele>
        <time>2022-08-06T06:55:23Z</time>
      </trkpt>
      <trkpt lat="47.19206" lon="-1.5741">
        <ele>54</ele>
        <time>2022-08-06T06:55:25Z</time>
      </trkpt>
      <trkpt lat="47.1921" lon="-1.57394">
        <ele>54</ele>
        <time>2022-08-06T06:55:27Z</time>
      </trkpt>
      <trkpt lat="47.19214" lon="-1.57377">
        <ele>54</ele>
        <time>2022-08-06T06:55:29Z</time>
      </trkpt>
      <trkpt lat="47.19218" lon="-1.5736">
        <ele>54</ele>
        <time>2022-08-06T06:55:31Z</time>
      </trkpt>
      <trkpt lat="47.19223" lon="-1.57344">
        <ele>55</ele>
        <time>2022-08-06T06:55:33Z</time>
      </trkpt>
      <trkpt lat="47.19226" lon="-1.57327">
        <ele>54</ele>
        <time>2022-08-06T06:55:35Z</time>
      </trkpt>
      <trkpt lat="47.19229" lon="-1.5731">
        <ele>54</ele>
        <time>2022-08-06T06:55:37Z</time>
      </trkpt>
      <trkpt lat="47.19232" lon="-1.57292">
        <ele>54</ele>
        <time>2022-08-06T06:55:39Z</time>
      </trkpt>
      <trkpt lat="47.19235" lon="-1.57274">
        <ele>54</ele>
        <time>2022-08-06T06:55:41Z</time>
      </trkpt>
      <trkpt lat="47.19237" lon="-1.57257">
        <ele>54</ele>
        <time>2022-08-06T06:55:43Z</time>
      </trkpt>
      <trkpt lat="47.1924" lon="-1.57239">
        <ele>54</ele>
        <time>2022-08-06T06:55:45Z</time>
      </trkpt>
      <trkpt lat="47.19242" lon="-1.57221">
        <ele>54</ele>
        <time>2022-08-06T06:55:47Z</time>
      </trkpt>
      <trkpt lat="47.19245" lon="-1.57203">
        <ele>54</ele>
        <time>2022-08-06T06:55:49Z</time>
      </trkpt>
      <trkpt lat="47.19247" lon="-1.57185">
        <ele>55</ele>
        <time>2022-08-06T06:55:51Z</time>
      </trkpt>
      <trkpt lat="47.1925" lon="-1.57168">
        <ele>55</ele>
        <time>2022-08-06T06:55:53Z</time>
      </trkpt>
      <trkpt lat="47.19252" lon="-1.5715">
        <ele>55</ele>
        <time>2022-08-06T06:55:55Z</time>
      </trkpt>
      <trkpt lat="47.19254" lon="-1.57132">
        <ele>54</ele>
        <time>2022-08-06T06:55:57Z</time>
      </trkpt>
      <trkpt lat="47.19257" lon="-1.57114">
        <ele>54</ele>
        <time>2022-08-06T06:55:59Z</time>
      </trkpt>
      <trkpt lat="47.1926" lon="-1.57096">
        <ele>54</ele>
        <time>2022-08-06T06:56:01Z</time>
      </trkpt>
      <trkpt lat="47.19262" lon="-1.57079">
        <ele>54</ele>
        <time>2022-08-06T06:56:03Z</time>
      </trkpt>
      <trkpt lat="47.1926" lon="-1.57063">
        <ele>54</ele>
        <time>2022-08-06T06:56:05Z</time>
      </trkpt>
      <trkpt lat="47.19256" lon="-1.57045">
        <ele>54</ele>
        <time>2022-08-06T06:56:07Z</time>
      </trkpt>
      <trkpt lat="47.19259" lon="-1.57031">
        <ele>55</ele>
        <time>2022-08-06T06:56:09Z</time>
      </trkpt>
      <trkpt lat="47.19266" lon="-1.57015">
        <ele>55</ele>
        <time>2022-08-06T06:56:11Z</time>
      </trkpt>
      <trkpt lat="47.1927" lon="-1.56996">
        <ele>55</ele>
        <time>2022-08-06T06:56:13Z</time>
      </trkpt>
      <trkpt lat="47.19273" lon="-1.56978">
        <ele>54</ele>
        <time>2022-08-06T06:56:15Z</time>
      </trkpt>
      <trkpt lat="47.19276" lon="-1.56959">
        <ele>54</ele>
        <time>2022-08-06T06:56:17Z</time>
      </trkpt>
      <trkpt lat="47.19278" lon="-1.56941">
        <ele>54</ele>
        <time>2022-08-06T06:56:19Z</time>
      </trkpt>
      <trkpt lat="47.19279" lon="-1.56924">
        <ele>54</ele>
        <time>2022-08-06T06:56:21Z</time>
      </trkpt>
      <trkpt lat="47.1928" lon="-1.56906">
        <ele>55</ele>
        <time>2022-08-06T06:56:23Z</time>
      </trkpt>
      <trkpt lat="47.19283" lon="-1.56889">
        <ele>55</ele>
        <time>2022-08-06T06:56:25Z</time>
      </trkpt>
      <trkpt lat="47.19284" lon="-1.56872">
        <ele>55</ele>
        <time>2022-08-06T06:56:27Z</time>
      </trkpt>
      <trkpt lat="47.19286" lon="-1.56855">
        <ele>55</ele>
        <time>2022-08-06T06:56:29Z</time>
      </trkpt>
      <trkpt lat="47.19287" lon="-1.56838">
        <ele>56</ele>
        <time>2022-08-06T06:56:31Z</time>
      </trkpt>
      <trkpt lat="47.19287" lon="-1.56822">
        <ele>56</ele>
        <time>2022-08-06T06:56:33Z</time>
      </trkpt>
      <trkpt lat="47.19288" lon="-1.56804">
        <ele>57</ele>
        <time>2022-08-06T06:56:35Z</time>
      </trkpt>
      <trkpt lat="47.19289" lon="-1.56787">
        <ele>57</ele>
        <time>2022-08-06T06:56:37Z</time>
      </trkpt>
      <trkpt lat="47.1929" lon="-1.56769">
        <ele>56</ele>
        <time>2022-08-06T06:56:39Z</time>
      </trkpt>
      <trkpt lat="47.1929" lon="-1.56752">
        <ele>56</ele>
        <time>2022-08-06T06:56:41Z</time>
      </trkpt>
      <trkpt lat="47.1929" lon="-1.56735">
        <ele>56</ele>
        <time>2022-08-06T06:56:43Z</time>
      </trkpt>
      <trkpt lat="47.1929" lon="-1.56717">
        <ele>56</ele>
        <time>2022-08-06T06:56:45Z</time>
      </trkpt>
      <trkpt lat="47.19289" lon="-1.567">
        <ele>56</ele>
        <time>2022-08-06T06:56:47Z</time>
      </trkpt>
      <trkpt lat="47.19289" lon="-1.56683">
        <ele>56</ele>
        <time>2022-08-06T06:56:49Z</time>
      </trkpt>
      <trkpt lat="47.19288" lon="-1.56665">
        <ele>55</ele>
        <time>2022-08-06T06:56:51Z</time>
      </trkpt>
      <trkpt lat="47.19287" lon="-1.56647">
        <ele>55</ele>
        <time>2022-08-06T06:56:53Z</time>
      </trkpt>
      <trkpt lat="47.19285" lon="-1.5663">
        <ele>55</ele>
        <time>2022-08-06T06:56:55Z</time>
      </trkpt>
      <trkpt lat="47.19284" lon="-1.56612">
        <ele>55</ele>
        <time>2022-08-06T06:56:57Z</time>
      </trkpt>
      <trkpt lat="47.19282" lon="-1.56595">
        <ele>55</ele>
        <time>2022-08-06T06:56:59Z</time>
      </trkpt>
      <trkpt lat="47.19281" lon="-1.56578">
        <ele>55</ele>
        <time>2022-08-06T06:57:01Z</time>
      </trkpt>
      <trkpt lat="47.19279" lon="-1.5656">
        <ele>55</ele>
        <time>2022-08-06T06:57:03Z</time>
      </trkpt>
      <trkpt lat="47.19277" lon="-1.56543">
        <ele>55</ele>
        <time>2022-08-06T06:57:05Z</time>
      </trkpt>
      <trkpt lat="47.19275" lon="-1.56525">
        <ele>55</ele>
        <time>2022-08-06T06:57:07Z</time>
      </trkpt>
      <trkpt lat="47.19273" lon="-1.56507">
        <ele>55</ele>
        <time>2022-08-06T06:57:09Z</time>
      </trkpt>
      <trkpt lat="47.19271" lon="-1.56489">
        <ele>55</ele>
        <time>2022-08-06T06:57:11Z</time>
      </trkpt>
      <trkpt lat="47.19269" lon="-1.56471">
        <ele>55</ele>
        <time>2022-08-06T06:57:13Z</time>
      </trkpt>
      <trkpt lat="47.19266" lon="-1.56453">
        <ele>55</ele>
        <time>2022-08-06T06:57:15Z</time>
      </trkpt>
      <trkpt lat="47.19265" lon="-1.56435">
        <ele>55</ele>
        <time>2022-08-06T06:57:17Z</time>
      </trkpt>
      <trkpt lat="47.19264" lon="-1.56417">
        <ele>54</ele>
        <time>2022-08-06T06:57:19Z</time>
      </trkpt>
      <trkpt lat="47.19264" lon="-1.56399">
        <ele>55</ele>
        <time>2022-08-06T06:57:21Z</time>
      </trkpt>
      <trkpt lat="47.19262" lon="-1.56382">
        <ele>54</ele>
        <time>2022-08-06T06:57:23Z</time>
      </trkpt>
      <trkpt lat="47.19259" lon="-1.56365">
        <ele>54</ele>
        <time>2022-08-06T06:57:25Z</time>
      </trkpt>
      <trkpt lat="47.19256" lon="-1.56348">
        <ele>54</ele>
        <time>2022-08-06T06:57:27Z</time>
      </trkpt>
      <trkpt lat="47.19251" lon="-1.56332">
        <ele>55</ele>
        <time>2022-08-06T06:57:29Z</time>
      </trkpt>
      <trkpt lat="47.19243" lon="-1.56321">
        <ele>55</ele>
        <time>2022-08-06T06:57:31Z</time>
      </trkpt>
      <trkpt lat="47.19235" lon="-1.56307">
        <ele>55</ele>
        <time>2022-08-06T06:57:33Z</time>
      </trkpt>
      <trkpt lat="47.19232" lon="-1.56289">
        <ele>55</ele>
        <time>2022-08-06T06:57:35Z</time>
      </trkpt>
      <trkpt lat="47.19235" lon="-1.56271">
        <ele>55</ele>
        <time>2022-08-06T06:57:37Z</time>
      </trkpt>
      <trkpt lat="47.19241" lon="-1.56255">
        <ele>55</ele>
        <time>2022-08-06T06:57:39Z</time>
      </trkpt>
      <trkpt lat="47.19246" lon="-1.56239">
        <ele>55</ele>
        <time>2022-08-06T06:57:41Z</time>
      </trkpt>
      <trkpt lat="47.19244" lon="-1.56221">
        <ele>55</ele>
        <time>2022-08-06T06:57:43Z</time>
      </trkpt>
      <trkpt lat="47.19244" lon="-1.56203">
        <ele>55</ele>
        <time>2022-08-06T06:57:45Z</time>
      </trkpt>
      <trkpt lat="47.19244" lon="-1.56185">
        <ele>55</ele>
        <time>2022-08-06T06:57:47Z</time>
      </trkpt>
      <trkpt lat="47.19245" lon="-1.56167">
        <ele>55</ele>
        <time>2022-08-06T06:57:49Z</time>
      </trkpt>
      <trkpt lat="47.19244" lon="-1.56149">
        <ele>54</ele>
        <time>2022-08-06T06:57:51Z</time>
      </trkpt>
      <trkpt lat="47.19244" lon="-1.56129">
        <ele>54</ele>
        <time>2022-08-06T06:57:53Z</time>
      </trkpt>
      <trkpt lat="47.19243" lon="-1.5611">
        <ele>54</ele>
        <time>2022-08-06T06:57:55Z</time>
      </trkpt>
      <trkpt lat="47.19242" lon="-1.56092">
        <ele>54</ele>
        <time>2022-08-06T06:57:57Z</time>
      </trkpt>
      <trkpt lat="47.19241" lon="-1.56073">
        <ele>54</ele>
        <time>2022-08-06T06:57:59Z</time>
      </trkpt>
      <trkpt lat="47.1924" lon="-1.56053">
        <ele>54</ele>
        <time>2022-08-06T06:58:01Z</time>
      </trkpt>
      <trkpt lat="47.19238" lon="-1.56034">
        <ele>54</ele>
        <time>2022-08-06T06:58:03Z</time>
      </trkpt>
      <trkpt lat="47.19236" lon="-1.56016">
        <ele>54</ele>
        <time>2022-08-06T06:58:05Z</time>
      </trkpt>
      <trkpt lat="47.19233" lon="-1.55996">
        <ele>54</ele>
        <time>2022-08-06T06:58:07Z</time>
      </trkpt>
      <trkpt lat="47.19231" lon="-1.55977">
        <ele>53</ele>
        <time>2022-08-06T06:58:09Z</time>
      </trkpt>
      <trkpt lat="47.19229" lon="-1.55959">
        <ele>53</ele>
        <time>2022-08-06T06:58:11Z</time>
      </trkpt>
      <trkpt lat="47.19227" lon="-1.5594">
        <ele>53</ele>
        <time>2022-08-06T06:58:13Z</time>
      </trkpt>
      <trkpt lat="47.19225" lon="-1.55922">
        <ele>53</ele>
        <time>2022-08-06T06:58:15Z</time>
      </trkpt>
      <trkpt lat="47.19223" lon="-1.55902">
        <ele>53</ele>
        <time>2022-08-06T06:58:17Z</time>
      </trkpt>
      <trkpt lat="47.19222" lon="-1.55883">
        <ele>53</ele>
        <time>2022-08-06T06:58:19Z</time>
      </trkpt>
      <trkpt lat="47.19221" lon="-1.55863">
        <ele>53</ele>
        <time>2022-08-06T06:58:21Z</time>
      </trkpt>
      <trkpt lat="47.1922" lon="-1.55844">
        <ele>53</ele>
        <time>2022-08-06T06:58:23Z</time>
      </trkpt>
      <trkpt lat="47.19219" lon="-1.55824">
        <ele>52</ele>
        <time>2022-08-06T06:58:25Z</time>
      </trkpt>
      <trkpt lat="47.19218" lon="-1.55805">
        <ele>53</ele>
        <time>2022-08-06T06:58:27Z</time>
      </trkpt>
      <trkpt lat="47.19217" lon="-1.55786">
        <ele>54</ele>
        <time>2022-08-06T06:58:29Z</time>
      </trkpt>
      <trkpt lat="47.19217" lon="-1.55767">
        <ele>53</ele>
        <time>2022-08-06T06:58:31Z</time>
      </trkpt>
      <trkpt lat="47.19217" lon="-1.55749">
        <ele>54</ele>
        <time>2022-08-06T06:58:33Z</time>
      </trkpt>
      <trkpt lat="47.19217" lon="-1.55731">
        <ele>54</ele>
        <time>2022-08-06T06:58:35Z</time>
      </trkpt>
      <trkpt lat="47.19218" lon="-1.55713">
        <ele>54</ele>
        <time>2022-08-06T06:58:37Z</time>
      </trkpt>
      <trkpt lat="47.19218" lon="-1.55695">
        <ele>55</ele>
        <time>2022-08-06T06:58:39Z</time>
      </trkpt>
      <trkpt lat="47.19219" lon="-1.55676">
        <ele>54</ele>
        <time>2022-08-06T06:58:41Z</time>
      </trkpt>
      <trkpt lat="47.1922" lon="-1.55657">
        <ele>54</ele>
        <time>2022-08-06T06:58:43Z</time>
      </trkpt>
      <trkpt lat="47.19221" lon="-1.55639">
        <ele>54</ele>
        <time>2022-08-06T06:58:45Z</time>
      </trkpt>
      <trkpt lat="47.19222" lon="-1.55621">
        <ele>54</ele>
        <time>2022-08-06T06:58:47Z</time>
      </trkpt>
      <trkpt lat="47.19223" lon="-1.55602">
        <ele>54</ele>
        <time>2022-08-06T06:58:49Z</time>
      </trkpt>
      <trkpt lat="47.19225" lon="-1.55585">
        <ele>54</ele>
        <time>2022-08-06T06:58:51Z</time>
      </trkpt>
      <trkpt lat="47.19226" lon="-1.55567">
        <ele>54</ele>
        <time>2022-08-06T06:58:53Z</time>
      </trkpt>
      <trkpt lat="47.19228" lon="-1.55551">
        <ele>54</ele>
        <time>2022-08-06T06:58:55Z</time>
      </trkpt>
      <trkpt lat="47.1923" lon="-1.55533">
        <ele>54</ele>
        <time>2022-08-06T06:58:57Z</time>
      </trkpt>
      <trkpt lat="47.19231" lon="-1.55516">
        <ele>54</ele>
        <time>2022-08-06T06:58:59Z</time>
      </trkpt>
      <trkpt lat="47.19231" lon="-1.55499">
        <ele>55</ele>
        <time>2022-08-06T06:59:01Z</time>
      </trkpt>
      <trkpt lat="47.1923" lon="-1.55482">
        <ele>55</ele>
        <time>2022-08-06T06:59:03Z</time>
      </trkpt>
      <trkpt lat="47.19226" lon="-1.55467">
        <ele>55</ele>
        <time>2022-08-06T06:59:05Z</time>
      </trkpt>
      <trkpt lat="47.19217" lon="-1.55454">
        <ele>55</ele>
        <time>2022-08-06T06:59:07Z</time>
      </trkpt>
      <trkpt lat="47.19212" lon="-1.55438">
        <ele>55</ele>
        <time>2022-08-06T06:59:09Z</time>
      </trkpt>
      <trkpt lat="47.19215" lon="-1.5542">
        <ele>54</ele>
        <time>2022-08-06T06:59:11Z</time>
      </trkpt>
      <trkpt lat="47.19223" lon="-1.55407">
        <ele>55</ele>
        <time>2022-08-06T06:59:13Z</time>
      </trkpt>
      <trkpt lat="47.19233" lon="-1.55397">
        <ele>56</ele>
        <time>2022-08-06T06:59:15Z</time>
      </trkpt>
      <trkpt lat="47.1924" lon="-1.55383">
        <ele>56</ele>
        <time>2022-08-06T06:59:17Z</time>
      </trkpt>
      <trkpt lat="47.19246" lon="-1.55367">
        <ele>56</ele>
        <time>2022-08-06T06:59:19Z</time>
      </trkpt>
      <trkpt lat="47.19251" lon="-1.5535">
        <ele>55</ele>
        <time>2022-08-06T06:59:21Z</time>
      </trkpt>
      <trkpt lat="47.19255" lon="-1.55334">
        <ele>55</ele>
        <time>2022-08-06T06:59:23Z</time>
      </trkpt>
      <trkpt lat="47.19259" lon="-1.55318">
        <ele>56</ele>
        <time>2022-08-06T06:59:25Z</time>
      </trkpt>
      <trkpt lat="47.19263" lon="-1.55301">
        <ele>55</ele>
        <time>2022-08-06T06:59:27Z</time>
      </trkpt>
      <trkpt lat="47.19266" lon="-1.55284">
        <ele>55</ele>
        <time>2022-08-06T06:59:29Z</time>
      </trkpt>
      <trkpt lat="47.19269" lon="-1.55268">
        <ele>55</ele>
        <time>2022-08-06T06:59:31Z</time>
      </trkpt>
      <trkpt lat="47.19273" lon="-1.55252">
        <ele>55</ele>
        <time>2022-08-06T06:59:33Z</time>
      </trkpt>
      <trkpt lat="47.19276" lon="-1.55235">
        <ele>55</ele>
        <time>2022-08-06T06:59:35Z</time>
      </trkpt>
      <trkpt lat="47.1928" lon="-1.55218">
        <ele>56</ele>
        <time>2022-08-06T06:59:37Z</time>
      </trkpt>
      <trkpt lat="47.19285" lon="-1.55201">
        <ele>56</ele>
        <time>2022-08-06T06:59:39Z</time>
      </trkpt>
      <trkpt lat="47.19289" lon="-1.55184">
        <ele>57</ele>
        <time>2022-08-06T06:59:41Z</time>
      </trkpt>
      <trkpt lat="47.19294" lon="-1.55167">
        <ele>57</ele>
        <time>2022-08-06T06:59:43Z</time>
      </trkpt>
      <trkpt lat="47.19298" lon="-1.55151">
        <ele>57</ele>
        <time>2022-08-06T06:59:45Z</time>
      </trkpt>
      <trkpt lat="47.19302" lon="-1.55135">
        <ele>58</ele>
        <time>2022-08-06T06:59:47Z</time>
      </trkpt>
      <trkpt lat="47.19306" lon="-1.5512">
        <ele>59</ele>
        <time>2022-08-06T06:59:49Z</time>
      </trkpt>
      <trkpt lat="47.1931" lon="-1.55104">
        <ele>59</ele>
        <time>2022-08-06T06:59:51Z</time>
      </trkpt>
      <trkpt lat="47.19314" lon="-1.55089">
        <ele>59</ele>
        <time>2022-08-06T06:59:53Z</time>
      </trkpt>
      <trkpt lat="47.19319" lon="-1.55074">
        <ele>59</ele>
        <time>2022-08-06T06:59:55Z</time>
      </trkpt>
      <trkpt lat="47.19322" lon="-1.55059">
        <ele>60</ele>
        <time>2022-08-06T06:59:57Z</time>
      </trkpt>
      <trkpt lat="47.19326" lon="-1.55044">
        <ele>60</ele>
        <time>2022-08-06T06:59:59Z</time>
      </trkpt>
      <trkpt lat="47.1933" lon="-1.55029">
        <ele>61</ele>
        <time>2022-08-06T07:00:01Z</time>
      </trkpt>
      <trkpt lat="47.19334" lon="-1.55015">
        <ele>61</ele>
        <time>2022-08-06T07:00:03Z</time>
      </trkpt>
      <trkpt lat="47.19338" lon="-1.55">
        <ele>62</ele>
        <time>2022-08-06T07:00:05Z</time>
      </trkpt>
      <trkpt lat="47.19342" lon="-1.54985">
        <ele>62</ele>
        <time>2022-08-06T07:00:07Z</time>
      </trkpt>
      <trkpt lat="47.19345" lon="-1.5497">
        <ele>63</ele>
        <time>2022-08-06T07:00:09Z</time>
      </trkpt>
      <trkpt lat="47.19349" lon="-1.54955">
        <ele>63</ele>
        <time>2022-08-06T07:00:11Z</time>
      </trkpt>
      <trkpt lat="47.19353" lon="-1.54941">
        <ele>63</ele>
        <time>2022-08-06T07:00:13Z</time>
      </trkpt>
      <trkpt lat="47.19356" lon="-1.54926">
        <ele>63</ele>
        <time>2022-08-06T07:00:15Z</time>
      </trkpt>
      <trkpt lat="47.1936" lon="-1.54912">
        <ele>63</ele>
        <time>2022-08-06T07:00:17Z</time>
      </trkpt>
      <trkpt lat="47.19363" lon="-1.54897">
        <ele>64</ele>
        <time>2022-08-06T07:00:19Z</time>
      </trkpt>
      <trkpt lat="47.19366" lon="-1.54882">
        <ele>64</ele>
        <time>2022-08-06T07:00:21Z</time>
      </trkpt>
      <trkpt lat="47.19369" lon="-1.54867">
        <ele>64</ele>
        <time>2022-08-06T07:00:23Z</time>
      </trkpt>
      <trkpt lat="47.19373" lon="-1.54853">
        <ele>64</ele>
        <time>2022-08-06T07:00:25Z</time>
      </trkpt>
      <trkpt lat="47.19377" lon="-1.54836">
        <ele>65</ele>
        <time>2022-08-06T07:00:27Z</time>
      </trkpt>
      <trkpt lat="47.19381" lon="-1.54818">
        <ele>65</ele>
        <time>2022-08-06T07:00:29Z</time>
      </trkpt>
      <trkpt lat="47.19385" lon="-1.54798">
        <ele>64</ele>
        <time>2022-08-06T07:00:31Z</time>
      </trkpt>
      <trkpt lat="47.19391" lon="-1.54777">
        <ele>63</ele>
        <time>2022-08-06T07:00:33Z</time>
      </trkpt>
      <trkpt lat="47.19397" lon="-1.54756">
        <ele>61</ele>
        <time>2022-08-06T07:00:35Z</time>
      </trkpt>
      <trkpt lat="47.19402" lon="-1.54737">
        <ele>61</ele>
        <time>2022-08-06T07:00:37Z</time>
      </trkpt>
      <trkpt lat="47.19406" lon="-1.54718">
        <ele>60</ele>
        <time>2022-08-06T07:00:39Z</time>
      </trkpt>
      <trkpt lat="47.1941" lon="-1.547">
        <ele>59</ele>
        <time>2022-08-06T07:00:41Z</time>
      </trkpt>
      <trkpt lat="47.19414" lon="-1.54681">
        <ele>59</ele>
        <time>2022-08-06T07:00:43Z</time>
      </trkpt>
      <trkpt lat="47.1942" lon="-1.54664">
        <ele>58</ele>
        <time>2022-08-06T07:00:45Z</time>
      </trkpt>
      <trkpt lat="47.19425" lon="-1.54647">
        <ele>58</ele>
        <time>2022-08-06T07:00:47Z</time>
      </trkpt>
      <trkpt lat="47.1943" lon="-1.54631">
        <ele>57</ele>
        <time>2022-08-06T07:00:49Z</time>
      </trkpt>
      <trkpt lat="47.19429" lon="-1.54616">
        <ele>57</ele>
        <time>2022-08-06T07:00:51Z</time>
      </trkpt>
      <trkpt lat="47.19422" lon="-1.54602">
        <ele>57</ele>
        <time>2022-08-06T07:00:53Z</time>
      </trkpt>
      <trkpt lat="47.19421" lon="-1.54587">
        <ele>56</ele>
        <time>2022-08-06T07:00:55Z</time>
      </trkpt>
      <trkpt lat="47.19426" lon="-1.54572">
        <ele>56</ele>
        <time>2022-08-06T07:00:57Z</time>
      </trkpt>
      <trkpt lat="47.19434" lon="-1.5456">
        <ele>56</ele>
        <time>2022-08-06T07:00:59Z</time>
      </trkpt>
      <trkpt lat="47.19445" lon="-1.54551">
        <ele>56</ele>
        <time>2022-08-06T07:01:01Z</time>
      </trkpt>
      <trkpt lat="47.19452" lon="-1.54537">
        <ele>56</ele>
        <time>2022-08-06T07:01:03Z</time>
      </trkpt>
      <trkpt lat="47.19457" lon="-1.54521">
        <ele>57</ele>
        <time>2022-08-06T07:01:05Z</time>
      </trkpt>
      <trkpt lat="47.19462" lon="-1.54505">
        <ele>57</ele>
        <time>2022-08-06T07:01:07Z</time>
      </trkpt>
      <trkpt lat="47.19467" lon="-1.5449">
        <ele>57</ele>
        <time>2022-08-06T07:01:09Z</time>
      </trkpt>
      <trkpt lat="47.19472" lon="-1.54475">
        <ele>57</ele>
        <time>2022-08-06T07:01:11Z</time>
      </trkpt>
      <trkpt lat="47.19479" lon="-1.54462">
        <ele>57</ele>
        <time>2022-08-06T07:01:13Z</time>
      </trkpt>
      <trkpt lat="47.19489" lon="-1.54454">
        <ele>58</ele>
        <time>2022-08-06T07:01:15Z</time>
      </trkpt>
      <trkpt lat="47.19499" lon="-1.54446">
        <ele>58</ele>
        <time>2022-08-06T07:01:17Z</time>
      </trkpt>
      <trkpt lat="47.19509" lon="-1.54438">
        <ele>58</ele>
        <time>2022-08-06T07:01:19Z</time>
      </trkpt>
      <trkpt lat="47.19518" lon="-1.54431">
        <ele>59</ele>
        <time>2022-08-06T07:01:21Z</time>
      </trkpt>
      <trkpt lat="47.19528" lon="-1.54423">
        <ele>59</ele>
        <time>2022-08-06T07:01:23Z</time>
      </trkpt>
      <trkpt lat="47.19538" lon="-1.54415">
        <ele>59</ele>
        <time>2022-08-06T07:01:25Z</time>
      </trkpt>
      <trkpt lat="47.19549" lon="-1.54407">
        <ele>58</ele>
        <time>2022-08-06T07:01:27Z</time>
      </trkpt>
      <trkpt lat="47.19559" lon="-1.544">
        <ele>58</ele>
        <time>2022-08-06T07:01:29Z</time>
      </trkpt>
      <trkpt lat="47.1957" lon="-1.54392">
        <ele>58</ele>
        <time>2022-08-06T07:01:31Z</time>
      </trkpt>
      <trkpt lat="47.1958" lon="-1.54384">
        <ele>58</ele>
        <time>2022-08-06T07:01:33Z</time>
      </trkpt>
      <trkpt lat="47.1959" lon="-1.54376">
        <ele>57</ele>
        <time>2022-08-06T07:01:35Z</time>
      </trkpt>
      <trkpt lat="47.19599" lon="-1.54367">
        <ele>57</ele>
        <time>2022-08-06T07:01:37Z</time>
      </trkpt>
      <trkpt lat="47.19609" lon="-1.54357">
        <ele>57</ele>
        <time>2022-08-06T07:01:39Z</time>
      </trkpt>
      <trkpt lat="47.19618" lon="-1.54346">
        <ele>57</ele>
        <time>2022-08-06T07:01:41Z</time>
      </trkpt>
      <trkpt lat="47.19626" lon="-1.54334">
        <ele>56</ele>
        <time>2022-08-06T07:01:43Z</time>
      </trkpt>
      <trkpt lat="47.19635" lon="-1.54322">
        <ele>56</ele>
        <time>2022-08-06T07:01:45Z</time>
      </trkpt>
      <trkpt lat="47.19643" lon="-1.54311">
        <ele>56</ele>
        <time>2022-08-06T07:01:47Z</time>
      </trkpt>
      <trkpt lat="47.19653" lon="-1.54302">
        <ele>56</ele>
        <time>2022-08-06T07:01:49Z</time>
      </trkpt>
      <trkpt lat="47.19663" lon="-1.54293">
        <ele>56</ele>
        <time>2022-08-06T07:01:51Z</time>
      </trkpt>
      <trkpt lat="47.19673" lon="-1.54285">
        <ele>56</ele>
        <time>2022-08-06T07:01:53Z</time>
      </trkpt>
      <trkpt lat="47.19682" lon="-1.54277">
        <ele>56</ele>
        <time>2022-08-06T07:01:55Z</time>
      </trkpt>
      <trkpt lat="47.19692" lon="-1.54268">
        <ele>56</ele>
        <time>2022-08-06T07:01:57Z</time>
      </trkpt>
      <trkpt lat="47.19703" lon="-1.54262">
        <ele>57</ele>
        <time>2022-08-06T07:01:59Z</time>
      </trkpt>
      <trkpt lat="47.19713" lon="-1.54255">
        <ele>57</ele>
        <time>2022-08-06T07:02:01Z</time>
      </trkpt>
      <trkpt lat="47.19724" lon="-1.54247">
        <ele>56</ele>
        <time>2022-08-06T07:02:03Z</time>
      </trkpt>
      <trkpt lat="47.19734" lon="-1.54239">
        <ele>56</ele>
        <time>2022-08-06T07:02:05Z</time>
      </trkpt>
      <trkpt lat="47.19743" lon="-1.5423">
        <ele>56</ele>
        <time>2022-08-06T07:02:07Z</time>
      </trkpt>
      <trkpt lat="47.19751" lon="-1.54222">
        <ele>57</ele>
        <time>2022-08-06T07:02:10Z</time>
      </trkpt>
      <trkpt lat="47.19758" lon="-1.54212">
        <ele>56</ele>
        <time>2022-08-06T07:02:15Z</time>
      </trkpt>
      <trkpt lat="47.19766" lon="-1.54203">
        <ele>57</ele>
        <time>2022-08-06T07:02:19Z</time>
      </trkpt>
      <trkpt lat="47.19774" lon="-1.54198">
        <ele>58</ele>
        <time>2022-08-06T07:02:21Z</time>
      </trkpt>
      <trkpt lat="47.19782" lon="-1.54191">
        <ele>59</ele>
        <time>2022-08-06T07:02:23Z</time>
      </trkpt>
      <trkpt lat="47.19787" lon="-1.54176">
        <ele>59</ele>
        <time>2022-08-06T07:02:25Z</time>
      </trkpt>
      <trkpt lat="47.19791" lon="-1.54161">
        <ele>59</ele>
        <time>2022-08-06T07:02:27Z</time>
      </trkpt>
      <trkpt lat="47.19793" lon="-1.54147">
        <ele>58</ele>
        <time>2022-08-06T07:02:29Z</time>
      </trkpt>
      <trkpt lat="47.19797" lon="-1.54132">
        <ele>57</ele>
        <time>2022-08-06T07:02:31Z</time>
      </trkpt>
      <trkpt lat="47.19804" lon="-1.54117">
        <ele>57</ele>
        <time>2022-08-06T07:02:33Z</time>
      </trkpt>
      <trkpt lat="47.19814" lon="-1.54106">
        <ele>56</ele>
        <time>2022-08-06T07:02:35Z</time>
      </trkpt>
      <trkpt lat="47.19826" lon="-1.54097">
        <ele>56</ele>
        <time>2022-08-06T07:02:37Z</time>
      </trkpt>
      <trkpt lat="47.19832" lon="-1.54081">
        <ele>55</ele>
        <time>2022-08-06T07:02:39Z</time>
      </trkpt>
      <trkpt lat="47.19839" lon="-1.54065">
        <ele>54</ele>
        <time>2022-08-06T07:02:41Z</time>
      </trkpt>
      <trkpt lat="47.19847" lon="-1.54049">
        <ele>54</ele>
        <time>2022-08-06T07:02:43Z</time>
      </trkpt>
      <trkpt lat="47.19852" lon="-1.54031">
        <ele>54</ele>
        <time>2022-08-06T07:02:45Z</time>
      </trkpt>
      <trkpt lat="47.19858" lon="-1.54013">
        <ele>54</ele>
        <time>2022-08-06T07:02:47Z</time>
      </trkpt>
      <trkpt lat="47.19863" lon="-1.53995">
        <ele>53</ele>
        <time>2022-08-06T07:02:49Z</time>
      </trkpt>
      <trkpt lat="47.19869" lon="-1.53978">
        <ele>54</ele>
        <time>2022-08-06T07:02:51Z</time>
      </trkpt>
      <trkpt lat="47.19874" lon="-1.53961">
        <ele>53</ele>
        <time>2022-08-06T07:02:53Z</time>
      </trkpt>
      <trkpt lat="47.19879" lon="-1.53944">
        <ele>53</ele>
        <time>2022-08-06T07:02:55Z</time>
      </trkpt>
      <trkpt lat="47.19883" lon="-1.53926">
        <ele>54</ele>
        <time>2022-08-06T07:02:57Z</time>
      </trkpt>
      <trkpt lat="47.19887" lon="-1.53908">
        <ele>54</ele>
        <time>2022-08-06T07:02:59Z</time>
      </trkpt>
      <trkpt lat="47.19891" lon="-1.5389">
        <ele>54</ele>
        <time>2022-08-06T07:03:01Z</time>
      </trkpt>
      <trkpt lat="47.19895" lon="-1.53873">
        <ele>54</ele>
        <time>2022-08-06T07:03:03Z</time>
      </trkpt>
      <trkpt lat="47.19899" lon="-1.53856">
        <ele>54</ele>
        <time>2022-08-06T07:03:05Z</time>
      </trkpt>
      <trkpt lat="47.19902" lon="-1.53838">
        <ele>55</ele>
        <time>2022-08-06T07:03:07Z</time>
      </trkpt>
      <trkpt lat="47.19906" lon="-1.53819">
        <ele>55</ele>
        <time>2022-08-06T07:03:09Z</time>
      </trkpt>
      <trkpt lat="47.1991" lon="-1.53802">
        <ele>56</ele>
        <time>2022-08-06T07:03:11Z</time>
      </trkpt>
      <trkpt lat="47.19913" lon="-1.53786">
        <ele>56</ele>
        <time>2022-08-06T07:03:13Z</time>
      </trkpt>
      <trkpt lat="47.19917" lon="-1.53769">
        <ele>57</ele>
        <time>2022-08-06T07:03:15Z</time>
      </trkpt>
      <trkpt lat="47.1992" lon="-1.53749">
        <ele>57</ele>
        <time>2022-08-06T07:03:17Z</time>
      </trkpt>
      <trkpt lat="47.19924" lon="-1.5373">
        <ele>57</ele>
        <time>2022-08-06T07:03:19Z</time>
      </trkpt>
      <trkpt lat="47.19929" lon="-1.5371">
        <ele>57</ele>
        <time>2022-08-06T07:03:21Z</time>
      </trkpt>
      <trkpt lat="47.19934" lon="-1.53693">
        <ele>57</ele>
        <time>2022-08-06T07:03:23Z</time>
      </trkpt>
      <trkpt lat="47.19938" lon="-1.53674">
        <ele>57</ele>
        <time>2022-08-06T07:03:25Z</time>
      </trkpt>
      <trkpt lat="47.19942" lon="-1.53657">
        <ele>57</ele>
        <time>2022-08-06T07:03:27Z</time>
      </trkpt>
      <trkpt lat="47.19946" lon="-1.5364">
        <ele>57</ele>
        <time>2022-08-06T07:03:29Z</time>
      </trkpt>
      <trkpt lat="47.1995" lon="-1.53622">
        <ele>57</ele>
        <time>2022-08-06T07:03:31Z</time>
      </trkpt>
      <trkpt lat="47.19955" lon="-1.53605">
        <ele>56</ele>
        <time>2022-08-06T07:03:33Z</time>
      </trkpt>
      <trkpt lat="47.1996" lon="-1.53587">
        <ele>56</ele>
        <time>2022-08-06T07:03:35Z</time>
      </trkpt>
      <trkpt lat="47.19965" lon="-1.53572">
        <ele>56</ele>
        <time>2022-08-06T07:03:37Z</time>
      </trkpt>
      <trkpt lat="47.19969" lon="-1.53555">
        <ele>56</ele>
        <time>2022-08-06T07:03:39Z</time>
      </trkpt>
      <trkpt lat="47.19973" lon="-1.53539">
        <ele>56</ele>
        <time>2022-08-06T07:03:41Z</time>
      </trkpt>
      <trkpt lat="47.19977" lon="-1.53523">
        <ele>56</ele>
        <time>2022-08-06T07:03:43Z</time>
      </trkpt>
      <trkpt lat="47.19981" lon="-1.53508">
        <ele>56</ele>
        <time>2022-08-06T07:03:45Z</time>
      </trkpt>
      <trkpt lat="47.19982" lon="-1.53493">
        <ele>55</ele>
        <time>2022-08-06T07:03:47Z</time>
      </trkpt>
      <trkpt lat="47.19985" lon="-1.53478">
        <ele>55</ele>
        <time>2022-08-06T07:03:49Z</time>
      </trkpt>
      <trkpt lat="47.19995" lon="-1.5347">
        <ele>56</ele>
        <time>2022-08-06T07:03:51Z</time>
      </trkpt>
      <trkpt lat="47.20008" lon="-1.5347">
        <ele>56</ele>
        <time>2022-08-06T07:03:53Z</time>
      </trkpt>
      <trkpt lat="47.20018" lon="-1.53464">
        <ele>56</ele>
        <time>2022-08-06T07:03:55Z</time>
      </trkpt>
      <trkpt lat="47.20025" lon="-1.5345">
        <ele>56</ele>
        <time>2022-08-06T07:03:57Z</time>
      </trkpt>
      <trkpt lat="47.20032" lon="-1.53435">
        <ele>56</ele>
        <time>2022-08-06T07:03:59Z</time>
      </trkpt>
      <trkpt lat="47.20038" lon="-1.5342">
        <ele>55</ele>
        <time>2022-08-06T07:04:01Z</time>
      </trkpt>
      <trkpt lat="47.20042" lon="-1.53406">
        <ele>54</ele>
        <time>2022-08-06T07:04:03Z</time>
      </trkpt>
      <trkpt lat="47.20046" lon="-1.5339">
        <ele>54</ele>
        <time>2022-08-06T07:04:05Z</time>
      </trkpt>
      <trkpt lat="47.20053" lon="-1.53376">
        <ele>54</ele>
        <time>2022-08-06T07:04:07Z</time>
      </trkpt>
      <trkpt lat="47.20057" lon="-1.53362">
        <ele>55</ele>
        <time>2022-08-06T07:04:09Z</time>
      </trkpt>
      <trkpt lat="47.20057" lon="-1.53347">
        <ele>55</ele>
        <time>2022-08-06T07:04:11Z</time>
      </trkpt>
      <trkpt lat="47.20059" lon="-1.53332">
        <ele>55</ele>
        <time>2022-08-06T07:04:13Z</time>
      </trkpt>
      <trkpt lat="47.20071" lon="-1.53326">
        <ele>56</ele>
        <time>2022-08-06T07:04:16Z</time>
      </trkpt>
      <trkpt lat="47.2008" lon="-1.53329">
        <ele>56</ele>
        <time>2022-08-06T07:04:18Z</time>
      </trkpt>
      <trkpt lat="47.20087" lon="-1.53316">
        <ele>58</ele>
        <time>2022-08-06T07:04:21Z</time>
      </trkpt>
      <trkpt lat="47.20091" lon="-1.53303">
        <ele>58</ele>
        <time>2022-08-06T07:04:23Z</time>
      </trkpt>
      <trkpt lat="47.20095" lon="-1.53287">
        <ele>58</ele>
        <time>2022-08-06T07:04:25Z</time>
      </trkpt>
      <trkpt lat="47.201" lon="-1.53271">
        <ele>58</ele>
        <time>2022-08-06T07:04:27Z</time>
      </trkpt>
      <trkpt lat="47.20106" lon="-1.53256">
        <ele>58</ele>
        <time>2022-08-06T07:04:29Z</time>
      </trkpt>
      <trkpt lat="47.20111" lon="-1.53239">
        <ele>57</ele>
        <time>2022-08-06T07:04:31Z</time>
      </trkpt>
      <trkpt lat="47.20116" lon="-1.53223">
        <ele>57</ele>
        <time>2022-08-06T07:04:33Z</time>
      </trkpt>
      <trkpt lat="47.2012" lon="-1.53207">
        <ele>56</ele>
        <time>2022-08-06T07:04:35Z</time>
      </trkpt>
      <trkpt lat="47.20123" lon="-1.53191">
        <ele>56</ele>
        <time>2022-08-06T07:04:37Z</time>
      </trkpt>
      <trkpt lat="47.20127" lon="-1.53176">
        <ele>56</ele>
        <time>2022-08-06T07:04:39Z</time>
      </trkpt>
      <trkpt lat="47.20132" lon="-1.53161">
        <ele>56</ele>
        <time>2022-08-06T07:04:41Z</time>
      </trkpt>
      <trkpt lat="47.20138" lon="-1.53145">
        <ele>56</ele>
        <time>2022-08-06T07:04:43Z</time>
      </trkpt>
      <trkpt lat="47.20144" lon="-1.53131">
        <ele>56</ele>
        <time>2022-08-06T07:04:45Z</time>
      </trkpt>
      <trkpt lat="47.20151" lon="-1.53116">
        <ele>56</ele>
        <time>2022-08-06T07:04:47Z</time>
      </trkpt>
      <trkpt lat="47.20157" lon="-1.53101">
        <ele>56</ele>
        <time>2022-08-06T07:04:49Z</time>
      </trkpt>
      <trkpt lat="47.20164" lon="-1.53087">
        <ele>55</ele>
        <time>2022-08-06T07:04:51Z</time>
      </trkpt>
      <trkpt lat="47.20171" lon="-1.53074">
        <ele>55</ele>
        <time>2022-08-06T07:04:53Z</time>
      </trkpt>
      <trkpt lat="47.20178" lon="-1.53062">
        <ele>55</ele>
        <time>2022-08-06T07:04:55Z</time>
      </trkpt>
      <trkpt lat="47.20186" lon="-1.5305">
        <ele>55</ele>
        <time>2022-08-06T07:04:57Z</time>
      </trkpt>
      <trkpt lat="47.20195" lon="-1.53039">
        <ele>55</ele>
        <time>2022-08-06T07:04:59Z</time>
      </trkpt>
      <trkpt lat="47.20204" lon="-1.53029">
        <ele>55</ele>
        <time>2022-08-06T07:05:01Z</time>
      </trkpt>
      <trkpt lat="47.20214" lon="-1.53019">
        <ele>55</ele>
        <time>2022-08-06T07:05:03Z</time>
      </trkpt>
      <trkpt lat="47.20223" lon="-1.53008">
        <ele>54</ele>
        <time>2022-08-06T07:05:05Z</time>
      </trkpt>
      <trkpt lat="47.20231" lon="-1.52996">
        <ele>54</ele>
        <time>2022-08-06T07:05:07Z</time>
      </trkpt>
      <trkpt lat="47.20238" lon="-1.52982">
        <ele>55</ele>
        <time>2022-08-06T07:05:09Z</time>
      </trkpt>
      <trkpt lat="47.20245" lon="-1.52969">
        <ele>55</ele>
        <time>2022-08-06T07:05:11Z</time>
      </trkpt>
      <trkpt lat="47.20252" lon="-1.52956">
        <ele>56</ele>
        <time>2022-08-06T07:05:13Z</time>
      </trkpt>
      <trkpt lat="47.2026" lon="-1.52943">
        <ele>56</ele>
        <time>2022-08-06T07:05:15Z</time>
      </trkpt>
      <trkpt lat="47.20267" lon="-1.5293">
        <ele>55</ele>
        <time>2022-08-06T07:05:17Z</time>
      </trkpt>
      <trkpt lat="47.20274" lon="-1.52916">
        <ele>55</ele>
        <time>2022-08-06T07:05:19Z</time>
      </trkpt>
      <trkpt lat="47.20281" lon="-1.52901">
        <ele>54</ele>
        <time>2022-08-06T07:05:21Z</time>
      </trkpt>
      <trkpt lat="47.20288" lon="-1.52885">
        <ele>54</ele>
        <time>2022-08-06T07:05:23Z</time>
      </trkpt>
      <trkpt lat="47.20293" lon="-1.52868">
        <ele>54</ele>
        <time>2022-08-06T07:05:25Z</time>
      </trkpt>
      <trkpt lat="47.203" lon="-1.52852">
        <ele>53</ele>
        <time>2022-08-06T07:05:27Z</time>
      </trkpt>
      <trkpt lat="47.20307" lon="-1.52837">
        <ele>53</ele>
        <time>2022-08-06T07:05:29Z</time>
      </trkpt>
      <trkpt lat="47.20314" lon="-1.52822">
        <ele>53</ele>
        <time>2022-08-06T07:05:31Z</time>
      </trkpt>
      <trkpt lat="47.2032" lon="-1.52808">
        <ele>53</ele>
        <time>2022-08-06T07:05:33Z</time>
      </trkpt>
      <trkpt lat="47.20327" lon="-1.52794">
        <ele>52</ele>
        <time>2022-08-06T07:05:35Z</time>
      </trkpt>
      <trkpt lat="47.20334" lon="-1.5278">
        <ele>52</ele>
        <time>2022-08-06T07:05:37Z</time>
      </trkpt>
      <trkpt lat="47.20341" lon="-1.52765">
        <ele>53</ele>
        <time>2022-08-06T07:05:39Z</time>
      </trkpt>
      <trkpt lat="47.20348" lon="-1.52751">
        <ele>53</ele>
        <time>2022-08-06T07:05:41Z</time>
      </trkpt>
      <trkpt lat="47.20356" lon="-1.52737">
        <ele>53</ele>
        <time>2022-08-06T07:05:43Z</time>
      </trkpt>
      <trkpt lat="47.20363" lon="-1.52722">
        <ele>53</ele>
        <time>2022-08-06T07:05:45Z</time>
      </trkpt>
      <trkpt lat="47.20371" lon="-1.52708">
        <ele>53</ele>
        <time>2022-08-06T07:05:47Z</time>
      </trkpt>
      <trkpt lat="47.20378" lon="-1.52695">
        <ele>54</ele>
        <time>2022-08-06T07:05:49Z</time>
      </trkpt>
      <trkpt lat="47.20386" lon="-1.52681">
        <ele>53</ele>
        <time>2022-08-06T07:05:51Z</time>
      </trkpt>
      <trkpt lat="47.20392" lon="-1.52667">
        <ele>53</ele>
        <time>2022-08-06T07:05:53Z</time>
      </trkpt>
      <trkpt lat="47.20401" lon="-1.52645">
        <ele>54</ele>
        <time>2022-08-06T07:05:56Z</time>
      </trkpt>
      <trkpt lat="47.20407" lon="-1.52631">
        <ele>53</ele>
        <time>2022-08-06T07:05:58Z</time>
      </trkpt>
      <trkpt lat="47.20412" lon="-1.52616">
        <ele>53</ele>
        <time>2022-08-06T07:06:00Z</time>
      </trkpt>
      <trkpt lat="47.20416" lon="-1.526">
        <ele>53</ele>
        <time>2022-08-06T07:06:02Z</time>
      </trkpt>
      <trkpt lat="47.2042" lon="-1.52584">
        <ele>53</ele>
        <time>2022-08-06T07:06:04Z</time>
      </trkpt>
      <trkpt lat="47.20425" lon="-1.52569">
        <ele>53</ele>
        <time>2022-08-06T07:06:06Z</time>
      </trkpt>
      <trkpt lat="47.20429" lon="-1.52554">
        <ele>53</ele>
        <time>2022-08-06T07:06:08Z</time>
      </trkpt>
      <trkpt lat="47.20438" lon="-1.52531">
        <ele>54</ele>
        <time>2022-08-06T07:06:11Z</time>
      </trkpt>
      <trkpt lat="47.20444" lon="-1.52517">
        <ele>53</ele>
        <time>2022-08-06T07:06:13Z</time>
      </trkpt>
      <trkpt lat="47.20453" lon="-1.52495">
        <ele>53</ele>
        <time>2022-08-06T07:06:16Z</time>
      </trkpt>
      <trkpt lat="47.20458" lon="-1.5248">
        <ele>54</ele>
        <time>2022-08-06T07:06:18Z</time>
      </trkpt>
      <trkpt lat="47.20463" lon="-1.52463">
        <ele>54</ele>
        <time>2022-08-06T07:06:20Z</time>
      </trkpt>
      <trkpt lat="47.20469" lon="-1.52449">
        <ele>54</ele>
        <time>2022-08-06T07:06:22Z</time>
      </trkpt>
      <trkpt lat="47.20476" lon="-1.52434">
        <ele>53</ele>
        <time>2022-08-06T07:06:24Z</time>
      </trkpt>
      <trkpt lat="47.20481" lon="-1.52418">
        <ele>52</ele>
        <time>2022-08-06T07:06:26Z</time>
      </trkpt>
      <trkpt lat="47.20487" lon="-1.52402">
        <ele>52</ele>
        <time>2022-08-06T07:06:28Z</time>
      </trkpt>
      <trkpt lat="47.20493" lon="-1.52384">
        <ele>52</ele>
        <time>2022-08-06T07:06:30Z</time>
      </trkpt>
      <trkpt lat="47.20498" lon="-1.52368">
        <ele>52</ele>
        <time>2022-08-06T07:06:32Z</time>
      </trkpt>
      <trkpt lat="47.20503" lon="-1.52351">
        <ele>53</ele>
        <time>2022-08-06T07:06:34Z</time>
      </trkpt>
      <trkpt lat="47.20509" lon="-1.52335">
        <ele>53</ele>
        <time>2022-08-06T07:06:36Z</time>
      </trkpt>
      <trkpt lat="47.20513" lon="-1.52319">
        <ele>54</ele>
        <time>2022-08-06T07:06:38Z</time>
      </trkpt>
      <trkpt lat="47.20517" lon="-1.52306">
        <ele>55</ele>
        <time>2022-08-06T07:06:40Z</time>
      </trkpt>
      <trkpt lat="47.2052" lon="-1.52291">
        <ele>55</ele>
        <time>2022-08-06T07:06:42Z</time>
      </trkpt>
      <trkpt lat="47.20524" lon="-1.52277">
        <ele>55</ele>
        <time>2022-08-06T07:06:44Z</time>
      </trkpt>
      <trkpt lat="47.20529" lon="-1.52262">
        <ele>55</ele>
        <time>2022-08-06T07:06:46Z</time>
      </trkpt>
      <trkpt lat="47.20535" lon="-1.52249">
        <ele>56</ele>
        <time>2022-08-06T07:06:48Z</time>
      </trkpt>
      <trkpt lat="47.20542" lon="-1.52234">
        <ele>56</ele>
        <time>2022-08-06T07:06:50Z</time>
      </trkpt>
      <trkpt lat="47.20549" lon="-1.52221">
        <ele>56</ele>
        <time>2022-08-06T07:06:52Z</time>
      </trkpt>
      <trkpt lat="47.20556" lon="-1.52208">
        <ele>56</ele>
        <time>2022-08-06T07:06:54Z</time>
      </trkpt>
      <trkpt lat="47.20563" lon="-1.52195">
        <ele>55</ele>
        <time>2022-08-06T07:06:56Z</time>
      </trkpt>
      <trkpt lat="47.2057" lon="-1.52182">
        <ele>55</ele>
        <time>2022-08-06T07:06:58Z</time>
      </trkpt>
      <trkpt lat="47.20577" lon="-1.5217">
        <ele>55</ele>
        <time>2022-08-06T07:07:00Z</time>
      </trkpt>
      <trkpt lat="47.20584" lon="-1.52156">
        <ele>55</ele>
        <time>2022-08-06T07:07:02Z</time>
      </trkpt>
      <trkpt lat="47.20591" lon="-1.52143">
        <ele>55</ele>
        <time>2022-08-06T07:07:04Z</time>
      </trkpt>
      <trkpt lat="47.20598" lon="-1.5213">
        <ele>55</ele>
        <time>2022-08-06T07:07:06Z</time>
      </trkpt>
      <trkpt lat="47.20606" lon="-1.52118">
        <ele>56</ele>
        <time>2022-08-06T07:07:08Z</time>
      </trkpt>
      <trkpt lat="47.20612" lon="-1.52105">
        <ele>56</ele>
        <time>2022-08-06T07:07:10Z</time>
      </trkpt>
      <trkpt lat="47.20619" lon="-1.52091">
        <ele>56</ele>
        <time>2022-08-06T07:07:12Z</time>
      </trkpt>
      <trkpt lat="47.20627" lon="-1.52079">
        <ele>56</ele>
        <time>2022-08-06T07:07:14Z</time>
      </trkpt>
      <trkpt lat="47.20634" lon="-1.52067">
        <ele>56</ele>
        <time>2022-08-06T07:07:16Z</time>
      </trkpt>
      <trkpt lat="47.20641" lon="-1.52055">
        <ele>56</ele>
        <time>2022-08-06T07:07:18Z</time>
      </trkpt>
      <trkpt lat="47.2065" lon="-1.52043">
        <ele>56</ele>
        <time>2022-08-06T07:07:20Z</time>
      </trkpt>
      <trkpt lat="47.20658" lon="-1.52031">
        <ele>56</ele>
        <time>2022-08-06T07:07:22Z</time>
      </trkpt>
      <trkpt lat="47.20665" lon="-1.52018">
        <ele>56</ele>
        <time>2022-08-06T07:07:24Z</time>
      </trkpt>
      <trkpt lat="47.20671" lon="-1.52005">
        <ele>57</ele>
        <time>2022-08-06T07:07:26Z</time>
      </trkpt>
      <trkpt lat="47.20679" lon="-1.51992">
        <ele>56</ele>
        <time>2022-08-06T07:07:28Z</time>
      </trkpt>
      <trkpt lat="47.20686" lon="-1.51979">
        <ele>56</ele>
        <time>2022-08-06T07:07:30Z</time>
      </trkpt>
      <trkpt lat="47.20693" lon="-1.51966">
        <ele>56</ele>
        <time>2022-08-06T07:07:32Z</time>
      </trkpt>
      <trkpt lat="47.20701" lon="-1.51954">
        <ele>55</ele>
        <time>2022-08-06T07:07:34Z</time>
      </trkpt>
      <trkpt lat="47.20708" lon="-1.5194">
        <ele>55</ele>
        <time>2022-08-06T07:07:36Z</time>
      </trkpt>
      <trkpt lat="47.20715" lon="-1.51926">
        <ele>55</ele>
        <time>2022-08-06T07:07:38Z</time>
      </trkpt>
      <trkpt lat="47.20722" lon="-1.51912">
        <ele>55</ele>
        <time>2022-08-06T07:07:40Z</time>
      </trkpt>
      <trkpt lat="47.20729" lon="-1.51896">
        <ele>55</ele>
        <time>2022-08-06T07:07:42Z</time>
      </trkpt>
      <trkpt lat="47.20735" lon="-1.51881">
        <ele>54</ele>
        <time>2022-08-06T07:07:44Z</time>
      </trkpt>
      <trkpt lat="47.20741" lon="-1.51866">
        <ele>54</ele>
        <time>2022-08-06T07:07:46Z</time>
      </trkpt>
      <trkpt lat="47.20747" lon="-1.51852">
        <ele>54</ele>
        <time>2022-08-06T07:07:48Z</time>
      </trkpt>
      <trkpt lat="47.20754" lon="-1.51837">
        <ele>53</ele>
        <time>2022-08-06T07:07:50Z</time>
      </trkpt>
      <trkpt lat="47.20759" lon="-1.51822">
        <ele>54</ele>
        <time>2022-08-06T07:07:52Z</time>
      </trkpt>
      <trkpt lat="47.20763" lon="-1.51805">
        <ele>54</ele>
        <time>2022-08-06T07:07:54Z</time>
      </trkpt>
      <trkpt lat="47.20766" lon="-1.51787">
        <ele>54</ele>
        <time>2022-08-06T07:07:56Z</time>
      </trkpt>
      <trkpt lat="47.20769" lon="-1.5177">
        <ele>54</ele>
        <time>2022-08-06T07:07:58Z</time>
      </trkpt>
      <trkpt lat="47.20773" lon="-1.51752">
        <ele>54</ele>
        <time>2022-08-06T07:08:00Z</time>
      </trkpt>
      <trkpt lat="47.20777" lon="-1.51735">
        <ele>54</ele>
        <time>2022-08-06T07:08:02Z</time>
      </trkpt>
      <trkpt lat="47.20782" lon="-1.51718">
        <ele>53</ele>
        <time>2022-08-06T07:08:04Z</time>
      </trkpt>
      <trkpt lat="47.20785" lon="-1.51701">
        <ele>54</ele>
        <time>2022-08-06T07:08:06Z</time>
      </trkpt>
      <trkpt lat="47.20788" lon="-1.51685">
        <ele>54</ele>
        <time>2022-08-06T07:08:08Z</time>
      </trkpt>
      <trkpt lat="47.2079" lon="-1.51668">
        <ele>54</ele>
        <time>2022-08-06T07:08:10Z</time>
      </trkpt>
      <trkpt lat="47.20793" lon="-1.5165">
        <ele>54</ele>
        <time>2022-08-06T07:08:12Z</time>
      </trkpt>
      <trkpt lat="47.20796" lon="-1.51633">
        <ele>54</ele>
        <time>2022-08-06T07:08:14Z</time>
      </trkpt>
      <trkpt lat="47.20799" lon="-1.51616">
        <ele>54</ele>
        <time>2022-08-06T07:08:16Z</time>
      </trkpt>
      <trkpt lat="47.20802" lon="-1.51598">
        <ele>54</ele>
        <time>2022-08-06T07:08:18Z</time>
      </trkpt>
      <trkpt lat="47.20803" lon="-1.5158">
        <ele>54</ele>
        <time>2022-08-06T07:08:20Z</time>
      </trkpt>
      <trkpt lat="47.20805" lon="-1.51562">
        <ele>54</ele>
        <time>2022-08-06T07:08:22Z</time>
      </trkpt>
      <trkpt lat="47.20807" lon="-1.51545">
        <ele>55</ele>
        <time>2022-08-06T07:08:24Z</time>
      </trkpt>
      <trkpt lat="47.2081" lon="-1.51527">
        <ele>55</ele>
        <time>2022-08-06T07:08:26Z</time>
      </trkpt>
      <trkpt lat="47.20813" lon="-1.51509">
        <ele>55</ele>
        <time>2022-08-06T07:08:28Z</time>
      </trkpt>
      <trkpt lat="47.20816" lon="-1.51492">
        <ele>55</ele>
        <time>2022-08-06T07:08:30Z</time>
      </trkpt>
      <trkpt lat="47.20819" lon="-1.51475">
        <ele>55</ele>
        <time>2022-08-06T07:08:32Z</time>
      </trkpt>
      <trkpt lat="47.20822" lon="-1.51458">
        <ele>56</ele>
        <time>2022-08-06T07:08:34Z</time>
      </trkpt>
      <trkpt lat="47.20825" lon="-1.5144">
        <ele>56</ele>
        <time>2022-08-06T07:08:36Z</time>
      </trkpt>
      <trkpt lat="47.20828" lon="-1.51422">
        <ele>55</ele>
        <time>2022-08-06T07:08:38Z</time>
      </trkpt>
      <trkpt lat="47.20831" lon="-1.51404">
        <ele>55</ele>
        <time>2022-08-06T07:08:40Z</time>
      </trkpt>
      <trkpt lat="47.20836" lon="-1.51388">
        <ele>55</ele>
        <time>2022-08-06T07:08:42Z</time>
      </trkpt>
      <trkpt lat="47.2084" lon="-1.51371">
        <ele>55</ele>
        <time>2022-08-06T07:08:44Z</time>
      </trkpt>
      <trkpt lat="47.20844" lon="-1.51354">
        <ele>56</ele>
        <time>2022-08-06T07:08:46Z</time>
      </trkpt>
      <trkpt lat="47.20848" lon="-1.51338">
        <ele>56</ele>
        <time>2022-08-06T07:08:48Z</time>
      </trkpt>
      <trkpt lat="47.20854" lon="-1.51321">
        <ele>56</ele>
        <time>2022-08-06T07:08:50Z</time>
      </trkpt>
      <trkpt lat="47.20862" lon="-1.51304">
        <ele>56</ele>
        <time>2022-08-06T07:08:52Z</time>
      </trkpt>
      <trkpt lat="47.20869" lon="-1.51289">
        <ele>55</ele>
        <time>2022-08-06T07:08:54Z</time>
      </trkpt>
      <trkpt lat="47.20876" lon="-1.51275">
        <ele>55</ele>
        <time>2022-08-06T07:08:56Z</time>
      </trkpt>
      <trkpt lat="47.20882" lon="-1.51263">
        <ele>55</ele>
        <time>2022-08-06T07:08:58Z</time>
      </trkpt>
      <trkpt lat="47.20888" lon="-1.51245">
        <ele>55</ele>
        <time>2022-08-06T07:09:00Z</time>
      </trkpt>
      <trkpt lat="47.20893" lon="-1.51229">
        <ele>55</ele>
        <time>2022-08-06T07:09:02Z</time>
      </trkpt>
      <trkpt lat="47.20899" lon="-1.51213">
        <ele>55</ele>
        <time>2022-08-06T07:09:04Z</time>
      </trkpt>
      <trkpt lat="47.20905" lon="-1.51197">
        <ele>56</ele>
        <time>2022-08-06T07:09:06Z</time>
      </trkpt>
      <trkpt lat="47.20911" lon="-1.51181">
        <ele>56</ele>
        <time>2022-08-06T07:09:08Z</time>
      </trkpt>
      <trkpt lat="47.20916" lon="-1.51165">
        <ele>57</ele>
        <time>2022-08-06T07:09:10Z</time>
      </trkpt>
      <trkpt lat="47.20921" lon="-1.51149">
        <ele>56</ele>
        <time>2022-08-06T07:09:12Z</time>
      </trkpt>
      <trkpt lat="47.20927" lon="-1.51133">
        <ele>56</ele>
        <time>2022-08-06T07:09:14Z</time>
      </trkpt>
      <trkpt lat="47.20932" lon="-1.51117">
        <ele>56</ele>
        <time>2022-08-06T07:09:16Z</time>
      </trkpt>
      <trkpt lat="47.20937" lon="-1.51101">
        <ele>56</ele>
        <time>2022-08-06T07:09:18Z</time>
      </trkpt>
      <trkpt lat="47.20941" lon="-1.51084">
        <ele>56</ele>
        <time>2022-08-06T07:09:20Z</time>
      </trkpt>
      <trkpt lat="47.20945" lon="-1.51067">
        <ele>56</ele>
        <time>2022-08-06T07:09:22Z</time>
      </trkpt>
      <trkpt lat="47.20947" lon="-1.5105">
        <ele>56</ele>
        <time>2022-08-06T07:09:24Z</time>
      </trkpt>
      <trkpt lat="47.2095" lon="-1.51033">
        <ele>57</ele>
        <time>2022-08-06T07:09:26Z</time>
      </trkpt>
      <trkpt lat="47.20955" lon="-1.51017">
        <ele>57</ele>
        <time>2022-08-06T07:09:28Z</time>
      </trkpt>
      <trkpt lat="47.20961" lon="-1.51001">
        <ele>57</ele>
        <time>2022-08-06T07:09:30Z</time>
      </trkpt>
      <trkpt lat="47.20964" lon="-1.50985">
        <ele>56</ele>
        <time>2022-08-06T07:09:32Z</time>
      </trkpt>
      <trkpt lat="47.20964" lon="-1.50967">
        <ele>56</ele>
        <time>2022-08-06T07:09:34Z</time>
      </trkpt>
      <trkpt lat="47.20966" lon="-1.50949">
        <ele>56</ele>
        <time>2022-08-06T07:09:36Z</time>
      </trkpt>
      <trkpt lat="47.20968" lon="-1.5093">
        <ele>56</ele>
        <time>2022-08-06T07:09:38Z</time>
      </trkpt>
      <trkpt lat="47.2097" lon="-1.50911">
        <ele>56</ele>
        <time>2022-08-06T07:09:40Z</time>
      </trkpt>
      <trkpt lat="47.20973" lon="-1.50892">
        <ele>57</ele>
        <time>2022-08-06T07:09:42Z</time>
      </trkpt>
      <trkpt lat="47.20975" lon="-1.50874">
        <ele>56</ele>
        <time>2022-08-06T07:09:44Z</time>
      </trkpt>
      <trkpt lat="47.20977" lon="-1.50855">
        <ele>56</ele>
        <time>2022-08-06T07:09:46Z</time>
      </trkpt>
      <trkpt lat="47.2098" lon="-1.50836">
        <ele>56</ele>
        <time>2022-08-06T07:09:48Z</time>
      </trkpt>
      <trkpt lat="47.20982" lon="-1.50817">
        <ele>56</ele>
        <time>2022-08-06T07:09:50Z</time>
      </trkpt>
      <trkpt lat="47.20983" lon="-1.50799">
        <ele>56</ele>
        <time>2022-08-06T07:09:52Z</time>
      </trkpt>
      <trkpt lat="47.20985" lon="-1.5078">
        <ele>56</ele>
        <time>2022-08-06T07:09:54Z</time>
      </trkpt>
      <trkpt lat="47.20987" lon="-1.50762">
        <ele>56</ele>
        <time>2022-08-06T07:09:56Z</time>
      </trkpt>
      <trkpt lat="47.20989" lon="-1.50743">
        <ele>57</ele>
        <time>2022-08-06T07:09:58Z</time>
      </trkpt>
      <trkpt lat="47.20991" lon="-1.50725">
        <ele>56</ele>
        <time>2022-08-06T07:10:00Z</time>
      </trkpt>
      <trkpt lat="47.20993" lon="-1.50707">
        <ele>56</ele>
        <time>2022-08-06T07:10:02Z</time>
      </trkpt>
      <trkpt lat="47.20994" lon="-1.50688">
        <ele>56</ele>
        <time>2022-08-06T07:10:04Z</time>
      </trkpt>
      <trkpt lat="47.20996" lon="-1.5067">
        <ele>55</ele>
        <time>2022-08-06T07:10:06Z</time>
      </trkpt>
      <trkpt lat="47.20997" lon="-1.50651">
        <ele>55</ele>
        <time>2022-08-06T07:10:08Z</time>
      </trkpt>
      <trkpt lat="47.20998" lon="-1.50632">
        <ele>54</ele>
        <time>2022-08-06T07:10:10Z</time>
      </trkpt>
      <trkpt lat="47.20999" lon="-1.50613">
        <ele>54</ele>
        <time>2022-08-06T07:10:12Z</time>
      </trkpt>
      <trkpt lat="47.20999" lon="-1.50594">
        <ele>54</ele>
        <time>2022-08-06T07:10:14Z</time>
      </trkpt>
      <trkpt lat="47.20999" lon="-1.50576">
        <ele>54</ele>
        <time>2022-08-06T07:10:16Z</time>
      </trkpt>
      <trkpt lat="47.20999" lon="-1.50558">
        <ele>54</ele>
        <time>2022-08-06T07:10:18Z</time>
      </trkpt>
      <trkpt lat="47.20999" lon="-1.5054">
        <ele>54</ele>
        <time>2022-08-06T07:10:20Z</time>
      </trkpt>
      <trkpt lat="47.20998" lon="-1.50522">
        <ele>54</ele>
        <time>2022-08-06T07:10:22Z</time>
      </trkpt>
      <trkpt lat="47.20998" lon="-1.50503">
        <ele>54</ele>
        <time>2022-08-06T07:10:24Z</time>
      </trkpt>
      <trkpt lat="47.20998" lon="-1.50486">
        <ele>53</ele>
        <time>2022-08-06T07:10:26Z</time>
      </trkpt>
      <trkpt lat="47.20998" lon="-1.50468">
        <ele>53</ele>
        <time>2022-08-06T07:10:28Z</time>
      </trkpt>
      <trkpt lat="47.20999" lon="-1.5045">
        <ele>54</ele>
        <time>2022-08-06T07:10:30Z</time>
      </trkpt>
      <trkpt lat="47.20998" lon="-1.50431">
        <ele>54</ele>
        <time>2022-08-06T07:10:32Z</time>
      </trkpt>
      <trkpt lat="47.20997" lon="-1.50412">
        <ele>54</ele>
        <time>2022-08-06T07:10:34Z</time>
      </trkpt>
      <trkpt lat="47.20997" lon="-1.50392">
        <ele>53</ele>
        <time>2022-08-06T07:10:36Z</time>
      </trkpt>
      <trkpt lat="47.20997" lon="-1.50371">
        <ele>53</ele>
        <time>2022-08-06T07:10:38Z</time>
      </trkpt>
      <trkpt lat="47.20997" lon="-1.50351">
        <ele>53</ele>
        <time>2022-08-06T07:10:40Z</time>
      </trkpt>
      <trkpt lat="47.20997" lon="-1.50331">
        <ele>53</ele>
        <time>2022-08-06T07:10:42Z</time>
      </trkpt>
      <trkpt lat="47.20998" lon="-1.50311">
        <ele>54</ele>
        <time>2022-08-06T07:10:44Z</time>
      </trkpt>
      <trkpt lat="47.21" lon="-1.50292">
        <ele>54</ele>
        <time>2022-08-06T07:10:46Z</time>
      </trkpt>
      <trkpt lat="47.21002" lon="-1.50273">
        <ele>54</ele>
        <time>2022-08-06T07:10:48Z</time>
      </trkpt>
      <trkpt lat="47.21006" lon="-1.50256">
        <ele>54</ele>
        <time>2022-08-06T07:10:50Z</time>
      </trkpt>
      <trkpt lat="47.21013" lon="-1.50242">
        <ele>53</ele>
        <time>2022-08-06T07:10:52Z</time>
      </trkpt>
      <trkpt lat="47.21017" lon="-1.50226">
        <ele>53</ele>
        <time>2022-08-06T07:10:54Z</time>
      </trkpt>
      <trkpt lat="47.21013" lon="-1.50208">
        <ele>52</ele>
        <time>2022-08-06T07:10:56Z</time>
      </trkpt>
      <trkpt lat="47.21012" lon="-1.50189">
        <ele>52</ele>
        <time>2022-08-06T07:10:58Z</time>
      </trkpt>
      <trkpt lat="47.21018" lon="-1.50169">
        <ele>52</ele>
        <time>2022-08-06T07:11:00Z</time>
      </trkpt>
      <trkpt lat="47.21022" lon="-1.50151">
        <ele>52</ele>
        <time>2022-08-06T07:11:02Z</time>
      </trkpt>
      <trkpt lat="47.21026" lon="-1.50133">
        <ele>52</ele>
        <time>2022-08-06T07:11:04Z</time>
      </trkpt>
      <trkpt lat="47.21031" lon="-1.50115">
        <ele>52</ele>
        <time>2022-08-06T07:11:06Z</time>
      </trkpt>
      <trkpt lat="47.21035" lon="-1.50098">
        <ele>53</ele>
        <time>2022-08-06T07:11:08Z</time>
      </trkpt>
      <trkpt lat="47.2104" lon="-1.5008">
        <ele>53</ele>
        <time>2022-08-06T07:11:10Z</time>
      </trkpt>
      <trkpt lat="47.21044" lon="-1.50063">
        <ele>54</ele>
        <time>2022-08-06T07:11:12Z</time>
      </trkpt>
      <trkpt lat="47.21049" lon="-1.50044">
        <ele>54</ele>
        <time>2022-08-06T07:11:14Z</time>
      </trkpt>
      <trkpt lat="47.21053" lon="-1.50027">
        <ele>54</ele>
        <time>2022-08-06T07:11:16Z</time>
      </trkpt>
      <trkpt lat="47.21058" lon="-1.50009">
        <ele>54</ele>
        <time>2022-08-06T07:11:18Z</time>
      </trkpt>
      <trkpt lat="47.21062" lon="-1.49991">
        <ele>54</ele>
        <time>2022-08-06T07:11:20Z</time>
      </trkpt>
      <trkpt lat="47.21067" lon="-1.49974">
        <ele>54</ele>
        <time>2022-08-06T07:11:22Z</time>
      </trkpt>
      <trkpt lat="47.21071" lon="-1.49956">
        <ele>54</ele>
        <time>2022-08-06T07:11:24Z</time>
      </trkpt>
      <trkpt lat="47.21075" lon="-1.49939">
        <ele>54</ele>
        <time>2022-08-06T07:11:26Z</time>
      </trkpt>
      <trkpt lat="47.2108" lon="-1.49922">
        <ele>55</ele>
        <time>2022-08-06T07:11:28Z</time>
      </trkpt>
      <trkpt lat="47.21084" lon="-1.49906">
        <ele>55</ele>
        <time>2022-08-06T07:11:30Z</time>
      </trkpt>
      <trkpt lat="47.2109" lon="-1.4989">
        <ele>55</ele>
        <time>2022-08-06T07:11:32Z</time>
      </trkpt>
      <trkpt lat="47.21095" lon="-1.49873">
        <ele>54</ele>
        <time>2022-08-06T07:11:34Z</time>
      </trkpt>
      <trkpt lat="47.21097" lon="-1.49855">
        <ele>54</ele>
        <time>2022-08-06T07:11:36Z</time>
      </trkpt>
      <trkpt lat="47.21099" lon="-1.49837">
        <ele>54</ele>
        <time>2022-08-06T07:11:38Z</time>
      </trkpt>
      <trkpt lat="47.21103" lon="-1.4982">
        <ele>54</ele>
        <time>2022-08-06T07:11:40Z</time>
      </trkpt>
      <trkpt lat="47.21106" lon="-1.49802">
        <ele>54</ele>
        <time>2022-08-06T07:11:42Z</time>
      </trkpt>
      <trkpt lat="47.21108" lon="-1.49783">
        <ele>54</ele>
        <time>2022-08-06T07:11:44Z</time>
      </trkpt>
      <trkpt lat="47.2111" lon="-1.49765">
        <ele>54</ele>
        <time>2022-08-06T07:11:46Z</time>
      </trkpt>
      <trkpt lat="47.21112" lon="-1.49747">
        <ele>54</ele>
        <time>2022-08-06T07:11:48Z</time>
      </trkpt>
      <trkpt lat="47.21113" lon="-1.49729">
        <ele>54</ele>
        <time>2022-08-06T07:11:50Z</time>
      </trkpt>
      <trkpt lat="47.21114" lon="-1.4971">
        <ele>54</ele>
        <time>2022-08-06T07:11:52Z</time>
      </trkpt>
      <trkpt lat="47.21115" lon="-1.49691">
        <ele>54</ele>
        <time>2022-08-06T07:11:54Z</time>
      </trkpt>
      <trkpt lat="47.21116" lon="-1.49672">
        <ele>54</ele>
        <time>2022-08-06T07:11:56Z</time>
      </trkpt>
      <trkpt lat="47.21118" lon="-1.49653">
        <ele>54</ele>
        <time>2022-08-06T07:11:58Z</time>
      </trkpt>
      <trkpt lat="47.2112" lon="-1.49634">
        <ele>53</ele>
        <time>2022-08-06T07:12:00Z</time>
      </trkpt>
      <trkpt lat="47.21122" lon="-1.49615">
        <ele>53</ele>
        <time>2022-08-06T07:12:02Z</time>
      </trkpt>
      <trkpt lat="47.21127" lon="-1.49599">
        <ele>53</ele>
        <time>2022-08-06T07:12:04Z</time>
      </trkpt>
      <trkpt lat="47.21134" lon="-1.49584">
        <ele>53</ele>
        <time>2022-08-06T07:12:06Z</time>
      </trkpt>
      <trkpt lat="47.21134" lon="-1.49565">
        <ele>53</ele>
        <time>2022-08-06T07:12:08Z</time>
      </trkpt>
      <trkpt lat="47.21128" lon="-1.49548">
        <ele>52</ele>
        <time>2022-08-06T07:12:10Z</time>
      </trkpt>
      <trkpt lat="47.21124" lon="-1.49529">
        <ele>52</ele>
        <time>2022-08-06T07:12:12Z</time>
      </trkpt>
      <trkpt lat="47.21124" lon="-1.49509">
        <ele>53</ele>
        <time>2022-08-06T07:12:14Z</time>
      </trkpt>
      <trkpt lat="47.21125" lon="-1.4949">
        <ele>53</ele>
        <time>2022-08-06T07:12:16Z</time>
      </trkpt>
      <trkpt lat="47.21125" lon="-1.49471">
        <ele>53</ele>
        <time>2022-08-06T07:12:18Z</time>
      </trkpt>
      <trkpt lat="47.21125" lon="-1.49451">
        <ele>53</ele>
        <time>2022-08-06T07:12:20Z</time>
      </trkpt>
      <trkpt lat="47.21126" lon="-1.49431">
        <ele>54</ele>
        <time>2022-08-06T07:12:22Z</time>
      </trkpt>
      <trkpt lat="47.21127" lon="-1.49411">
        <ele>54</ele>
        <time>2022-08-06T07:12:24Z</time>
      </trkpt>
      <trkpt lat="47.21128" lon="-1.49391">
        <ele>54</ele>
        <time>2022-08-06T07:12:26Z</time>
      </trkpt>
      <trkpt lat="47.21128" lon="-1.49372">
        <ele>54</ele>
        <time>2022-08-06T07:12:28Z</time>
      </trkpt>
      <trkpt lat="47.21129" lon="-1.49352">
        <ele>55</ele>
        <time>2022-08-06T07:12:30Z</time>
      </trkpt>
      <trkpt lat="47.2113" lon="-1.49332">
        <ele>55</ele>
        <time>2022-08-06T07:12:32Z</time>
      </trkpt>
      <trkpt lat="47.21131" lon="-1.49313">
        <ele>55</ele>
        <time>2022-08-06T07:12:34Z</time>
      </trkpt>
      <trkpt lat="47.21132" lon="-1.49294">
        <ele>54</ele>
        <time>2022-08-06T07:12:36Z</time>
      </trkpt>
      <trkpt lat="47.21133" lon="-1.49275">
        <ele>54</ele>
        <time>2022-08-06T07:12:38Z</time>
      </trkpt>
      <trkpt lat="47.21134" lon="-1.49256">
        <ele>54</ele>
        <time>2022-08-06T07:12:40Z</time>
      </trkpt>
      <trkpt lat="47.21135" lon="-1.49237">
        <ele>54</ele>
        <time>2022-08-06T07:12:42Z</time>
      </trkpt>
      <trkpt lat="47.21136" lon="-1.49218">
        <ele>54</ele>
        <time>2022-08-06T07:12:44Z</time>
      </trkpt>
      <trkpt lat="47.21138" lon="-1.49199">
        <ele>54</ele>
        <time>2022-08-06T07:12:46Z</time>
      </trkpt>
      <trkpt lat="47.2114" lon="-1.4918">
        <ele>54</ele>
        <time>2022-08-06T07:12:48Z</time>
      </trkpt>
      <trkpt lat="47.21142" lon="-1.49162">
        <ele>55</ele>
        <time>2022-08-06T07:12:50Z</time>
      </trkpt>
      <trkpt lat="47.21145" lon="-1.49143">
        <ele>55</ele>
        <time>2022-08-06T07:12:52Z</time>
      </trkpt>
      <trkpt lat="47.21147" lon="-1.49125">
        <ele>55</ele>
        <time>2022-08-06T07:12:54Z</time>
      </trkpt>
      <trkpt lat="47.2115" lon="-1.49107">
        <ele>55</ele>
        <time>2022-08-06T07:12:56Z</time>
      </trkpt>
      <trkpt lat="47.21157" lon="-1.49092">
        <ele>54</ele>
        <time>2022-08-06T07:12:58Z</time>
      </trkpt>
      <trkpt lat="47.21159" lon="-1.49073">
        <ele>53</ele>
        <time>2022-08-06T07:13:00Z</time>
      </trkpt>
      <trkpt lat="47.21154" lon="-1.49058">
        <ele>53</ele>
        <time>2022-08-06T07:13:02Z</time>
      </trkpt>
      <trkpt lat="47.21151" lon="-1.49042">
        <ele>54</ele>
        <time>2022-08-06T07:13:04Z</time>
      </trkpt>
      <trkpt lat="47.21153" lon="-1.49025">
        <ele>54</ele>
        <time>2022-08-06T07:13:06Z</time>
      </trkpt>
      <trkpt lat="47.21157" lon="-1.49007">
        <ele>54</ele>
        <time>2022-08-06T07:13:08Z</time>
      </trkpt>
      <trkpt lat="47.2116" lon="-1.48989">
        <ele>54</ele>
        <time>2022-08-06T07:13:10Z</time>
      </trkpt>
      <trkpt lat="47.21163" lon="-1.48971">
        <ele>55</ele>
        <time>2022-08-06T07:13:12Z</time>
      </trkpt>
      <trkpt lat="47.21166" lon="-1.48954">
        <ele>55</ele>
        <time>2022-08-06T07:13:14Z</time>
      </trkpt>
      <trkpt lat="47.21169" lon="-1.48936">
        <ele>55</ele>
        <time>2022-08-06T07:13:16Z</time>
      </trkpt>
      <trkpt lat="47.21173" lon="-1.48918">
        <ele>56</ele>
        <time>2022-08-06T07:13:18Z</time>
      </trkpt>
      <trkpt lat="47.21177" lon="-1.48901">
        <ele>56</ele>
        <time>2022-08-06T07:13:20Z</time>
      </trkpt>
      <trkpt lat="47.2118" lon="-1.48882">
        <ele>56</ele>
        <time>2022-08-06T07:13:22Z</time>
      </trkpt>
      <trkpt lat="47.21184" lon="-1.48864">
        <ele>56</ele>
        <time>2022-08-06T07:13:24Z</time>
      </trkpt>
      <trkpt lat="47.21186" lon="-1.48846">
        <ele>56</ele>
        <time>2022-08-06T07:13:26Z</time>
      </trkpt>
      <trkpt lat="47.21189" lon="-1.48828">
        <ele>56</ele>
        <time>2022-08-06T07:13:28Z</time>
      </trkpt>
      <trkpt lat="47.21192" lon="-1.4881">
        <ele>55</ele>
        <time>2022-08-06T07:13:30Z</time>
      </trkpt>
      <trkpt lat="47.21196" lon="-1.48792">
        <ele>55</ele>
        <time>2022-08-06T07:13:32Z</time>
      </trkpt>
      <trkpt lat="47.212" lon="-1.48774">
        <ele>55</ele>
        <time>2022-08-06T07:13:34Z</time>
      </trkpt>
      <trkpt lat="47.21205" lon="-1.48756">
        <ele>55</ele>
        <time>2022-08-06T07:13:36Z</time>
      </trkpt>
      <trkpt lat="47.2121" lon="-1.48738">
        <ele>56</ele>
        <time>2022-08-06T07:13:38Z</time>
      </trkpt>
      <trkpt lat="47.21214" lon="-1.48719">
        <ele>56</ele>
        <time>2022-08-06T07:13:40Z</time>
      </trkpt>
      <trkpt lat="47.21219" lon="-1.48702">
        <ele>56</ele>
        <time>2022-08-06T07:13:42Z</time>
      </trkpt>
      <trkpt lat="47.21223" lon="-1.48683">
        <ele>56</ele>
        <time>2022-08-06T07:13:44Z</time>
      </trkpt>
      <trkpt lat="47.21227" lon="-1.48666">
        <ele>57</ele>
        <time>2022-08-06T07:13:46Z</time>
      </trkpt>
      <trkpt lat="47.21232" lon="-1.48648">
        <ele>57</ele>
        <time>2022-08-06T07:13:48Z</time>
      </trkpt>
      <trkpt lat="47.21237" lon="-1.48632">
        <ele>57</ele>
        <time>2022-08-06T07:13:50Z</time>
      </trkpt>
      <trkpt lat="47.21241" lon="-1.48614">
        <ele>57</ele>
        <time>2022-08-06T07:13:52Z</time>
      </trkpt>
      <trkpt lat="47.21246" lon="-1.48597">
        <ele>56</ele>
        <time>2022-08-06T07:13:54Z</time>
      </trkpt>
      <trkpt lat="47.21251" lon="-1.48579">
        <ele>56</ele>
        <time>2022-08-06T07:13:56Z</time>
      </trkpt>
      <trkpt lat="47.21256" lon="-1.48562">
        <ele>56</ele>
        <time>2022-08-06T07:13:58Z</time>
      </trkpt>
      <trkpt lat="47.2126" lon="-1.48546">
        <ele>56</ele>
        <time>2022-08-06T07:14:00Z</time>
      </trkpt>
      <trkpt lat="47.21266" lon="-1.4853">
        <ele>56</ele>
        <time>2022-08-06T07:14:02Z</time>
      </trkpt>
      <trkpt lat="47.21274" lon="-1.48518">
        <ele>56</ele>
        <time>2022-08-06T07:14:04Z</time>
      </trkpt>
      <trkpt lat="47.21285" lon="-1.48514">
        <ele>57</ele>
        <time>2022-08-06T07:14:06Z</time>
      </trkpt>
      <trkpt lat="47.21294" lon="-1.48502">
        <ele>57</ele>
        <time>2022-08-06T07:14:08Z</time>
      </trkpt>
      <trkpt lat="47.21296" lon="-1.48484">
        <ele>56</ele>
        <time>2022-08-06T07:14:10Z</time>
      </trkpt>
      <trkpt lat="47.21299" lon="-1.48466">
        <ele>56</ele>
        <time>2022-08-06T07:14:12Z</time>
      </trkpt>
      <trkpt lat="47.21302" lon="-1.48448">
        <ele>55</ele>
        <time>2022-08-06T07:14:14Z</time>
      </trkpt>
      <trkpt lat="47.21306" lon="-1.4843">
        <ele>54</ele>
        <time>2022-08-06T07:14:16Z</time>
      </trkpt>
      <trkpt lat="47.21311" lon="-1.48413">
        <ele>54</ele>
        <time>2022-08-06T07:14:18Z</time>
      </trkpt>
      <trkpt lat="47.21317" lon="-1.48396">
        <ele>53</ele>
        <time>2022-08-06T07:14:20Z</time>
      </trkpt>
      <trkpt lat="47.21322" lon="-1.48379">
        <ele>52</ele>
        <time>2022-08-06T07:14:22Z</time>
      </trkpt>
      <trkpt lat="47.21327" lon="-1.48363">
        <ele>53</ele>
        <time>2022-08-06T07:14:24Z</time>
      </trkpt>
      <trkpt lat="47.21332" lon="-1.48346">
        <ele>53</ele>
        <time>2022-08-06T07:14:26Z</time>
      </trkpt>
      <trkpt lat="47.21338" lon="-1.4833">
        <ele>53</ele>
        <time>2022-08-06T07:14:28Z</time>
      </trkpt>
      <trkpt lat="47.21343" lon="-1.48314">
        <ele>53</ele>
        <time>2022-08-06T07:14:30Z</time>
      </trkpt>
      <trkpt lat="47.21349" lon="-1.48298">
        <ele>52</ele>
        <time>2022-08-06T07:14:32Z</time>
      </trkpt>
      <trkpt lat="47.21354" lon="-1.48282">
        <ele>53</ele>
        <time>2022-08-06T07:14:34Z</time>
      </trkpt>
      <trkpt lat="47.2136" lon="-1.48265">
        <ele>53</ele>
        <time>2022-08-06T07:14:36Z</time>
      </trkpt>
      <trkpt lat="47.21365" lon="-1.48249">
        <ele>53</ele>
        <time>2022-08-06T07:14:38Z</time>
      </trkpt>
      <trkpt lat="47.21371" lon="-1.48233">
        <ele>53</ele>
        <time>2022-08-06T07:14:40Z</time>
      </trkpt>
      <trkpt lat="47.21376" lon="-1.48217">
        <ele>53</ele>
        <time>2022-08-06T07:14:42Z</time>
      </trkpt>
      <trkpt lat="47.21383" lon="-1.48202">
        <ele>53</ele>
        <time>2022-08-06T07:14:44Z</time>
      </trkpt>
      <trkpt lat="47.2139" lon="-1.48186">
        <ele>53</ele>
        <time>2022-08-06T07:14:46Z</time>
      </trkpt>
      <trkpt lat="47.21397" lon="-1.4817">
        <ele>53</ele>
        <time>2022-08-06T07:14:48Z</time>
      </trkpt>
      <trkpt lat="47.21404" lon="-1.48155">
        <ele>53</ele>
        <time>2022-08-06T07:14:50Z</time>
      </trkpt>
      <trkpt lat="47.21412" lon="-1.4814">
        <ele>53</ele>
        <time>2022-08-06T07:14:52Z</time>
      </trkpt>
      <trkpt lat="47.2142" lon="-1.48126">
        <ele>53</ele>
        <time>2022-08-06T07:14:54Z</time>
      </trkpt>
      <trkpt lat="47.21428" lon="-1.48112">
        <ele>53</ele>
        <time>2022-08-06T07:14:56Z</time>
      </trkpt>
      <trkpt lat="47.21436" lon="-1.48097">
        <ele>53</ele>
        <time>2022-08-06T07:14:58Z</time>
      </trkpt>
      <trkpt lat="47.21444" lon="-1.48084">
        <ele>53</ele>
        <time>2022-08-06T07:15:00Z</time>
      </trkpt>
      <trkpt lat="47.21452" lon="-1.48071">
        <ele>53</ele>
        <time>2022-08-06T07:15:02Z</time>
      </trkpt>
      <trkpt lat="47.21461" lon="-1.48058">
        <ele>53</ele>
        <time>2022-08-06T07:15:04Z</time>
      </trkpt>
      <trkpt lat="47.2147" lon="-1.48047">
        <ele>53</ele>
        <time>2022-08-06T07:15:06Z</time>
      </trkpt>
      <trkpt lat="47.21479" lon="-1.48035">
        <ele>53</ele>
        <time>2022-08-06T07:15:08Z</time>
      </trkpt>
      <trkpt lat="47.21489" lon="-1.48024">
        <ele>53</ele>
        <time>2022-08-06T07:15:10Z</time>
      </trkpt>
      <trkpt lat="47.21499" lon="-1.48013">
        <ele>53</ele>
        <time>2022-08-06T07:15:12Z</time>
      </trkpt>
      <trkpt lat="47.21508" lon="-1.48002">
        <ele>54</ele>
        <time>2022-08-06T07:15:14Z</time>
      </trkpt>
      <trkpt lat="47.21517" lon="-1.47992">
        <ele>54</ele>
        <time>2022-08-06T07:15:16Z</time>
      </trkpt>
      <trkpt lat="47.21526" lon="-1.47982">
        <ele>54</ele>
        <time>2022-08-06T07:15:18Z</time>
      </trkpt>
      <trkpt lat="47.21536" lon="-1.47973">
        <ele>55</ele>
        <time>2022-08-06T07:15:20Z</time>
      </trkpt>
      <trkpt lat="47.21546" lon="-1.47962">
        <ele>55</ele>
        <time>2022-08-06T07:15:22Z</time>
      </trkpt>
      <trkpt lat="47.21556" lon="-1.47953">
        <ele>55</ele>
        <time>2022-08-06T07:15:24Z</time>
      </trkpt>
      <trkpt lat="47.21565" lon="-1.47944">
        <ele>56</ele>
        <time>2022-08-06T07:15:26Z</time>
      </trkpt>
      <trkpt lat="47.21576" lon="-1.47934">
        <ele>56</ele>
        <time>2022-08-06T07:15:28Z</time>
      </trkpt>
      <trkpt lat="47.21586" lon="-1.47925">
        <ele>56</ele>
        <time>2022-08-06T07:15:30Z</time>
      </trkpt>
      <trkpt lat="47.21596" lon="-1.47915">
        <ele>56</ele>
        <time>2022-08-06T07:15:32Z</time>
      </trkpt>
      <trkpt lat="47.21605" lon="-1.47906">
        <ele>57</ele>
        <time>2022-08-06T07:15:34Z</time>
      </trkpt>
      <trkpt lat="47.21615" lon="-1.47896">
        <ele>57</ele>
        <time>2022-08-06T07:15:36Z</time>
      </trkpt>
      <trkpt lat="47.21625" lon="-1.47888">
        <ele>57</ele>
        <time>2022-08-06T07:15:38Z</time>
      </trkpt>
      <trkpt lat="47.21634" lon="-1.4788">
        <ele>57</ele>
        <time>2022-08-06T07:15:40Z</time>
      </trkpt>
      <trkpt lat="47.21644" lon="-1.4787">
        <ele>57</ele>
        <time>2022-08-06T07:15:42Z</time>
      </trkpt>
      <trkpt lat="47.21655" lon="-1.47861">
        <ele>57</ele>
        <time>2022-08-06T07:15:44Z</time>
      </trkpt>
      <trkpt lat="47.21665" lon="-1.47851">
        <ele>57</ele>
        <time>2022-08-06T07:15:46Z</time>
      </trkpt>
      <trkpt lat="47.21675" lon="-1.47842">
        <ele>58</ele>
        <time>2022-08-06T07:15:48Z</time>
      </trkpt>
      <trkpt lat="47.21684" lon="-1.47833">
        <ele>57</ele>
        <time>2022-08-06T07:15:50Z</time>
      </trkpt>
      <trkpt lat="47.21694" lon="-1.47824">
        <ele>57</ele>
        <time>2022-08-06T07:15:52Z</time>
      </trkpt>
      <trkpt lat="47.21704" lon="-1.47815">
        <ele>57</ele>
        <time>2022-08-06T07:15:54Z</time>
      </trkpt>
      <trkpt lat="47.21714" lon="-1.47806">
        <ele>57</ele>
        <time>2022-08-06T07:15:56Z</time>
      </trkpt>
      <trkpt lat="47.21724" lon="-1.47797">
        <ele>57</ele>
        <time>2022-08-06T07:15:58Z</time>
      </trkpt>
      <trkpt lat="47.21733" lon="-1.47788">
        <ele>58</ele>
        <time>2022-08-06T07:16:00Z</time>
      </trkpt>
      <trkpt lat="47.21742" lon="-1.4778">
        <ele>58</ele>
        <time>2022-08-06T07:16:02Z</time>
      </trkpt>
      <trkpt lat="47.2175" lon="-1.47772">
        <ele>58</ele>
        <time>2022-08-06T07:16:04Z</time>
      </trkpt>
      <trkpt lat="47.2176" lon="-1.47764">
        <ele>58</ele>
        <time>2022-08-06T07:16:06Z</time>
      </trkpt>
      <trkpt lat="47.2177" lon="-1.47754">
        <ele>57</ele>
        <time>2022-08-06T07:16:08Z</time>
      </trkpt>
      <trkpt lat="47.2178" lon="-1.47746">
        <ele>57</ele>
        <time>2022-08-06T07:16:10Z</time>
      </trkpt>
      <trkpt lat="47.21791" lon="-1.47738">
        <ele>57</ele>
        <time>2022-08-06T07:16:12Z</time>
      </trkpt>
      <trkpt lat="47.21801" lon="-1.47731">
        <ele>57</ele>
        <time>2022-08-06T07:16:14Z</time>
      </trkpt>
      <trkpt lat="47.21811" lon="-1.47722">
        <ele>57</ele>
        <time>2022-08-06T07:16:16Z</time>
      </trkpt>
      <trkpt lat="47.21821" lon="-1.47714">
        <ele>57</ele>
        <time>2022-08-06T07:16:18Z</time>
      </trkpt>
      <trkpt lat="47.2183" lon="-1.47705">
        <ele>58</ele>
        <time>2022-08-06T07:16:20Z</time>
      </trkpt>
      <trkpt lat="47.2184" lon="-1.47697">
        <ele>58</ele>
        <time>2022-08-06T07:16:22Z</time>
      </trkpt>
      <trkpt lat="47.21851" lon="-1.47688">
        <ele>57</ele>
        <time>2022-08-06T07:16:24Z</time>
      </trkpt>
      <trkpt lat="47.21862" lon="-1.47678">
        <ele>57</ele>
        <time>2022-08-06T07:16:26Z</time>
      </trkpt>
      <trkpt lat="47.21873" lon="-1.47668">
        <ele>57</ele>
        <time>2022-08-06T07:16:28Z</time>
      </trkpt>
      <trkpt lat="47.21883" lon="-1.47658">
        <ele>57</ele>
        <time>2022-08-06T07:16:30Z</time>
      </trkpt>
      <trkpt lat="47.21894" lon="-1.47649">
        <ele>57</ele>
        <time>2022-08-06T07:16:32Z</time>
      </trkpt>
      <trkpt lat="47.21904" lon="-1.47639">
        <ele>57</ele>
        <time>2022-08-06T07:16:34Z</time>
      </trkpt>
      <trkpt lat="47.21915" lon="-1.47629">
        <ele>57</ele>
        <time>2022-08-06T07:16:36Z</time>
      </trkpt>
      <trkpt lat="47.21925" lon="-1.47619">
        <ele>57</ele>
        <time>2022-08-06T07:16:38Z</time>
      </trkpt>
      <trkpt lat="47.21936" lon="-1.4761">
        <ele>57</ele>
        <time>2022-08-06T07:16:40Z</time>
      </trkpt>
      <trkpt lat="47.21946" lon="-1.476">
        <ele>57</ele>
        <time>2022-08-06T07:16:42Z</time>
      </trkpt>
      <trkpt lat="47.21957" lon="-1.4759">
        <ele>56</ele>
        <time>2022-08-06T07:16:44Z</time>
      </trkpt>
      <trkpt lat="47.21968" lon="-1.4758">
        <ele>56</ele>
        <time>2022-08-06T07:16:46Z</time>
      </trkpt>
      <trkpt lat="47.21978" lon="-1.47571">
        <ele>56</ele>
        <time>2022-08-06T07:16:48Z</time>
      </trkpt>
      <trkpt lat="47.21989" lon="-1.47561">
        <ele>56</ele>
        <time>2022-08-06T07:16:50Z</time>
      </trkpt>
      <trkpt lat="47.21999" lon="-1.47552">
        <ele>55</ele>
        <time>2022-08-06T07:16:52Z</time>
      </trkpt>
      <trkpt lat="47.22009" lon="-1.47543">
        <ele>55</ele>
        <time>2022-08-06T07:16:54Z</time>
      </trkpt>
      <trkpt lat="47.22019" lon="-1.47533">
        <ele>55</ele>
        <time>2022-08-06T07:16:56Z</time>
      </trkpt>
      <trkpt lat="47.2203" lon="-1.47523">
        <ele>55</ele>
        <time>2022-08-06T07:16:58Z</time>
      </trkpt>
      <trkpt lat="47.2204" lon="-1.47514">
        <ele>55</ele>
        <time>2022-08-06T07:17:00Z</time>
      </trkpt>
      <trkpt lat="47.22051" lon="-1.47505">
        <ele>55</ele>
        <time>2022-08-06T07:17:02Z</time>
      </trkpt>
      <trkpt lat="47.22061" lon="-1.47496">
        <ele>55</ele>
        <time>2022-08-06T07:17:04Z</time>
      </trkpt>
      <trkpt lat="47.22071" lon="-1.47487">
        <ele>56</ele>
        <time>2022-08-06T07:17:06Z</time>
      </trkpt>
      <trkpt lat="47.22082" lon="-1.47477">
        <ele>56</ele>
        <time>2022-08-06T07:17:08Z</time>
      </trkpt>
      <trkpt lat="47.22092" lon="-1.47468">
        <ele>56</ele>
        <time>2022-08-06T07:17:10Z</time>
      </trkpt>
      <trkpt lat="47.22103" lon="-1.47459">
        <ele>55</ele>
        <time>2022-08-06T07:17:12Z</time>
      </trkpt>
      <trkpt lat="47.22114" lon="-1.4745">
        <ele>55</ele>
        <time>2022-08-06T07:17:14Z</time>
      </trkpt>
      <trkpt lat="47.22124" lon="-1.47441">
        <ele>55</ele>
        <time>2022-08-06T07:17:16Z</time>
      </trkpt>
      <trkpt lat="47.22135" lon="-1.47432">
        <ele>55</ele>
        <time>2022-08-06T07:17:18Z</time>
      </trkpt>
      <trkpt lat="47.22145" lon="-1.47424">
        <ele>55</ele>
        <time>2022-08-06T07:17:20Z</time>
      </trkpt>
      <trkpt lat="47.22156" lon="-1.47414">
        <ele>55</ele>
        <time>2022-08-06T07:17:22Z</time>
      </trkpt>
      <trkpt lat="47.22166" lon="-1.47405">
        <ele>55</ele>
        <time>2022-08-06T07:17:24Z</time>
      </trkpt>
      <trkpt lat="47.22176" lon="-1.47397">
        <ele>55</ele>
        <time>2022-08-06T07:17:26Z</time>
      </trkpt>
      <trkpt lat="47.22186" lon="-1.47389">
        <ele>56</ele>
        <time>2022-08-06T07:17:28Z</time>
      </trkpt>
      <trkpt lat="47.22195" lon="-1.4738">
        <ele>56</ele>
        <time>2022-08-06T07:17:30Z</time>
      </trkpt>
      <trkpt lat="47.22206" lon="-1.47371">
        <ele>56</ele>
        <time>2022-08-06T07:17:32Z</time>
      </trkpt>
      <trkpt lat="47.22217" lon="-1.47363">
        <ele>57</ele>
        <time>2022-08-06T07:17:34Z</time>
      </trkpt>
      <trkpt lat="47.22228" lon="-1.47355">
        <ele>57</ele>
        <time>2022-08-06T07:17:36Z</time>
      </trkpt>
      <trkpt lat="47.2224" lon="-1.47349">
        <ele>57</ele>
        <time>2022-08-06T07:17:38Z</time>
      </trkpt>
      <trkpt lat="47.22251" lon="-1.47342">
        <ele>57</ele>
        <time>2022-08-06T07:17:40Z</time>
      </trkpt>
      <trkpt lat="47.22262" lon="-1.47335">
        <ele>57</ele>
        <time>2022-08-06T07:17:42Z</time>
      </trkpt>
      <trkpt lat="47.22273" lon="-1.47327">
        <ele>57</ele>
        <time>2022-08-06T07:17:44Z</time>
      </trkpt>
      <trkpt lat="47.22283" lon="-1.47318">
        <ele>57</ele>
        <time>2022-08-06T07:17:46Z</time>
      </trkpt>
      <trkpt lat="47.22293" lon="-1.4731">
        <ele>57</ele>
        <time>2022-08-06T07:17:48Z</time>
      </trkpt>
      <trkpt lat="47.22304" lon="-1.47302">
        <ele>57</ele>
        <time>2022-08-06T07:17:50Z</time>
      </trkpt>
      <trkpt lat="47.22314" lon="-1.47293">
        <ele>56</ele>
        <time>2022-08-06T07:17:52Z</time>
      </trkpt>
      <trkpt lat="47.22324" lon="-1.47284">
        <ele>56</ele>
        <time>2022-08-06T07:17:54Z</time>
      </trkpt>
      <trkpt lat="47.22334" lon="-1.47275">
        <ele>56</ele>
        <time>2022-08-06T07:17:56Z</time>
      </trkpt>
      <trkpt lat="47.22344" lon="-1.47267">
        <ele>56</ele>
        <time>2022-08-06T07:17:58Z</time>
      </trkpt>
      <trkpt lat="47.22354" lon="-1.47259">
        <ele>56</ele>
        <time>2022-08-06T07:18:00Z</time>
      </trkpt>
      <trkpt lat="47.22364" lon="-1.4725">
        <ele>56</ele>
        <time>2022-08-06T07:18:02Z</time>
      </trkpt>
      <trkpt lat="47.22373" lon="-1.47242">
        <ele>56</ele>
        <time>2022-08-06T07:18:04Z</time>
      </trkpt>
      <trkpt lat="47.22382" lon="-1.47233">
        <ele>56</ele>
        <time>2022-08-06T07:18:06Z</time>
      </trkpt>
      <trkpt lat="47.2239" lon="-1.47224">
        <ele>56</ele>
        <time>2022-08-06T07:18:08Z</time>
      </trkpt>
      <trkpt lat="47.22399" lon="-1.47215">
        <ele>56</ele>
        <time>2022-08-06T07:18:10Z</time>
      </trkpt>
      <trkpt lat="47.22407" lon="-1.47206">
        <ele>56</ele>
        <time>2022-08-06T07:18:12Z</time>
      </trkpt>
      <trkpt lat="47.22415" lon="-1.47198">
        <ele>56</ele>
        <time>2022-08-06T07:18:14Z</time>
      </trkpt>
      <trkpt lat="47.22424" lon="-1.47188">
        <ele>56</ele>
        <time>2022-08-06T07:18:16Z</time>
      </trkpt>
      <trkpt lat="47.22433" lon="-1.47179">
        <ele>56</ele>
        <time>2022-08-06T07:18:18Z</time>
      </trkpt>
      <trkpt lat="47.22442" lon="-1.47171">
        <ele>56</ele>
        <time>2022-08-06T07:18:20Z</time>
      </trkpt>
      <trkpt lat="47.22451" lon="-1.47163">
        <ele>56</ele>
        <time>2022-08-06T07:18:22Z</time>
      </trkpt>
      <trkpt lat="47.2246" lon="-1.47155">
        <ele>56</ele>
        <time>2022-08-06T07:18:24Z</time>
      </trkpt>
      <trkpt lat="47.2247" lon="-1.47147">
        <ele>57</ele>
        <time>2022-08-06T07:18:26Z</time>
      </trkpt>
      <trkpt lat="47.22479" lon="-1.47141">
        <ele>57</ele>
        <time>2022-08-06T07:18:28Z</time>
      </trkpt>
      <trkpt lat="47.22489" lon="-1.47136">
        <ele>57</ele>
        <time>2022-08-06T07:18:30Z</time>
      </trkpt>
      <trkpt lat="47.225" lon="-1.47132">
        <ele>57</ele>
        <time>2022-08-06T07:18:32Z</time>
      </trkpt>
      <trkpt lat="47.22511" lon="-1.47128">
        <ele>57</ele>
        <time>2022-08-06T07:18:34Z</time>
      </trkpt>
      <trkpt lat="47.22522" lon="-1.47125">
        <ele>57</ele>
        <time>2022-08-06T07:18:36Z</time>
      </trkpt>
      <trkpt lat="47.22534" lon="-1.47123">
        <ele>57</ele>
        <time>2022-08-06T07:18:38Z</time>
      </trkpt>
      <trkpt lat="47.22546" lon="-1.4712">
        <ele>57</ele>
        <time>2022-08-06T07:18:40Z</time>
      </trkpt>
      <trkpt lat="47.22558" lon="-1.47117">
        <ele>57</ele>
        <time>2022-08-06T07:18:42Z</time>
      </trkpt>
      <trkpt lat="47.22569" lon="-1.47113">
        <ele>56</ele>
        <time>2022-08-06T07:18:44Z</time>
      </trkpt>
      <trkpt lat="47.22581" lon="-1.47107">
        <ele>56</ele>
        <time>2022-08-06T07:18:46Z</time>
      </trkpt>
      <trkpt lat="47.22591" lon="-1.47097">
        <ele>56</ele>
        <time>2022-08-06T07:18:48Z</time>
      </trkpt>
      <trkpt lat="47.22601" lon="-1.47086">
        <ele>56</ele>
        <time>2022-08-06T07:18:50Z</time>
      </trkpt>
      <trkpt lat="47.22608" lon="-1.47071">
        <ele>56</ele>
        <time>2022-08-06T07:18:52Z</time>
      </trkpt>
      <trkpt lat="47.22615" lon="-1.47056">
        <ele>56</ele>
        <time>2022-08-06T07:18:54Z</time>
      </trkpt>
      <trkpt lat="47.22623" lon="-1.47043">
        <ele>55</ele>
        <time>2022-08-06T07:18:56Z</time>
      </trkpt>
      <trkpt lat="47.22632" lon="-1.4703">
        <ele>55</ele>
        <time>2022-08-06T07:18:58Z</time>
      </trkpt>
      <trkpt lat="47.2264" lon="-1.47018">
        <ele>55</ele>
        <time>2022-08-06T07:19:00Z</time>
      </trkpt>
      <trkpt lat="47.2265" lon="-1.47006">
        <ele>55</ele>
        <time>2022-08-06T07:19:02Z</time>
      </trkpt>
      <trkpt lat="47.22659" lon="-1.46996">
        <ele>55</ele>
        <time>2022-08-06T07:19:04Z</time>
      </trkpt>
      <trkpt lat="47.22669" lon="-1.46987">
        <ele>55</ele>
        <time>2022-08-06T07:19:06Z</time>
      </trkpt>
      <trkpt lat="47.22679" lon="-1.4698">
        <ele>56</ele>
        <time>2022-08-06T07:19:08Z</time>
      </trkpt>
      <trkpt lat="47.2269" lon="-1.46973">
        <ele>56</ele>
        <time>2022-08-06T07:19:10Z</time>
      </trkpt>
      <trkpt lat="47.227" lon="-1.46967">
        <ele>56</ele>
        <time>2022-08-06T07:19:12Z</time>
      </trkpt>
      <trkpt lat="47.22711" lon="-1.46962">
        <ele>56</ele>
        <time>2022-08-06T07:19:14Z</time>
      </trkpt>
      <trkpt lat="47.22722" lon="-1.46957">
        <ele>56</ele>
        <time>2022-08-06T07:19:16Z</time>
      </trkpt>
      <trkpt lat="47.22733" lon="-1.46954">
        <ele>56</ele>
        <time>2022-08-06T07:19:18Z</time>
      </trkpt>
      <trkpt lat="47.22744" lon="-1.46952">
        <ele>56</ele>
        <time>2022-08-06T07:19:20Z</time>
      </trkpt>
      <trkpt lat="47.22754" lon="-1.46949">
        <ele>56</ele>
        <time>2022-08-06T07:19:22Z</time>
      </trkpt>
      <trkpt lat="47.22762" lon="-1.46939">
        <ele>56</ele>
        <time>2022-08-06T07:19:24Z</time>
      </trkpt>
      <trkpt lat="47.2277" lon="-1.4693">
        <ele>56</ele>
        <time>2022-08-06T07:19:26Z</time>
      </trkpt>
      <trkpt lat="47.22781" lon="-1.46928">
        <ele>57</ele>
        <time>2022-08-06T07:19:28Z</time>
      </trkpt>
      <trkpt lat="47.22791" lon="-1.46932">
        <ele>57</ele>
        <time>2022-08-06T07:19:30Z</time>
      </trkpt>
      <trkpt lat="47.22801" lon="-1.46936">
        <ele>57</ele>
        <time>2022-08-06T07:19:32Z</time>
      </trkpt>
      <trkpt lat="47.22812" lon="-1.46941">
        <ele>57</ele>
        <time>2022-08-06T07:19:34Z</time>
      </trkpt>
      <trkpt lat="47.22823" lon="-1.46946">
        <ele>58</ele>
        <time>2022-08-06T07:19:36Z</time>
      </trkpt>
      <trkpt lat="47.22834" lon="-1.4695">
        <ele>58</ele>
        <time>2022-08-06T07:19:38Z</time>
      </trkpt>
      <trkpt lat="47.22845" lon="-1.46954">
        <ele>58</ele>
        <time>2022-08-06T07:19:40Z</time>
      </trkpt>
      <trkpt lat="47.22857" lon="-1.46959">
        <ele>58</ele>
        <time>2022-08-06T07:19:42Z</time>
      </trkpt>
      <trkpt lat="47.22868" lon="-1.46965">
        <ele>58</ele>
        <time>2022-08-06T07:19:44Z</time>
      </trkpt>
      <trkpt lat="47.2288" lon="-1.46971">
        <ele>58</ele>
        <time>2022-08-06T07:19:46Z</time>
      </trkpt>
      <trkpt lat="47.2289" lon="-1.46974">
        <ele>58</ele>
        <time>2022-08-06T07:19:48Z</time>
      </trkpt>
      <trkpt lat="47.22901" lon="-1.46977">
        <ele>59</ele>
        <time>2022-08-06T07:19:50Z</time>
      </trkpt>
      <trkpt lat="47.22912" lon="-1.46979">
        <ele>59</ele>
        <time>2022-08-06T07:19:52Z</time>
      </trkpt>
      <trkpt lat="47.22923" lon="-1.46981">
        <ele>59</ele>
        <time>2022-08-06T07:19:54Z</time>
      </trkpt>
      <trkpt lat="47.22934" lon="-1.46982">
        <ele>59</ele>
        <time>2022-08-06T07:19:56Z</time>
      </trkpt>
      <trkpt lat="47.22946" lon="-1.46982">
        <ele>59</ele>
        <time>2022-08-06T07:19:58Z</time>
      </trkpt>
      <trkpt lat="47.22957" lon="-1.46983">
        <ele>59</ele>
        <time>2022-08-06T07:20:00Z</time>
      </trkpt>
      <trkpt lat="47.22969" lon="-1.46986">
        <ele>60</ele>
        <time>2022-08-06T07:20:02Z</time>
      </trkpt>
      <trkpt lat="47.22981" lon="-1.46991">
        <ele>59</ele>
        <time>2022-08-06T07:20:04Z</time>
      </trkpt>
      <trkpt lat="47.22993" lon="-1.46996">
        <ele>59</ele>
        <time>2022-08-06T07:20:06Z</time>
      </trkpt>
      <trkpt lat="47.23006" lon="-1.47001">
        <ele>60</ele>
        <time>2022-08-06T07:20:08Z</time>
      </trkpt>
      <trkpt lat="47.23018" lon="-1.47009">
        <ele>60</ele>
        <time>2022-08-06T07:20:10Z</time>
      </trkpt>
      <trkpt lat="47.2303" lon="-1.47019">
        <ele>60</ele>
        <time>2022-08-06T07:20:12Z</time>
      </trkpt>
      <trkpt lat="47.23041" lon="-1.4703">
        <ele>60</ele>
        <time>2022-08-06T07:20:14Z</time>
      </trkpt>
      <trkpt lat="47.23051" lon="-1.47043">
        <ele>59</ele>
        <time>2022-08-06T07:20:16Z</time>
      </trkpt>
      <trkpt lat="47.23061" lon="-1.47059">
        <ele>58</ele>
        <time>2022-08-06T07:20:18Z</time>
      </trkpt>
      <trkpt lat="47.23071" lon="-1.47076">
        <ele>58</ele>
        <time>2022-08-06T07:20:20Z</time>
      </trkpt>
      <trkpt lat="47.23081" lon="-1.47094">
        <ele>57</ele>
        <time>2022-08-06T07:20:22Z</time>
      </trkpt>
      <trkpt lat="47.2309" lon="-1.47112">
        <ele>56</ele>
        <time>2022-08-06T07:20:24Z</time>
      </trkpt>
      <trkpt lat="47.23102" lon="-1.47127">
        <ele>55</ele>
        <time>2022-08-06T07:20:26Z</time>
      </trkpt>
      <trkpt lat="47.23116" lon="-1.47125">
        <ele>55</ele>
        <time>2022-08-06T07:20:28Z</time>
      </trkpt>
      <trkpt lat="47.23127" lon="-1.47108">
        <ele>55</ele>
        <time>2022-08-06T07:20:30Z</time>
      </trkpt>
      <trkpt lat="47.23137" lon="-1.47091">
        <ele>56</ele>
        <time>2022-08-06T07:20:32Z</time>
      </trkpt>
      <trkpt lat="47.2313" lon="-1.47078">
        <ele>56</ele>
        <time>2022-08-06T07:20:34Z</time>
      </trkpt>
      <trkpt lat="47.2312" lon="-1.47062">
        <ele>55</ele>
        <time>2022-08-06T07:20:36Z</time>
      </trkpt>
      <trkpt lat="47.23111" lon="-1.47043">
        <ele>55</ele>
        <time>2022-08-06T07:20:38Z</time>
      </trkpt>
      <trkpt lat="47.23102" lon="-1.47027">
        <ele>55</ele>
        <time>2022-08-06T07:20:40Z</time>
      </trkpt>
      <trkpt lat="47.23095" lon="-1.4701">
        <ele>55</ele>
        <time>2022-08-06T07:20:42Z</time>
      </trkpt>
      <trkpt lat="47.23088" lon="-1.46996">
        <ele>55</ele>
        <time>2022-08-06T07:20:44Z</time>
      </trkpt>
      <trkpt lat="47.23078" lon="-1.46987">
        <ele>56</ele>
        <time>2022-08-06T07:20:46Z</time>
      </trkpt>
      <trkpt lat="47.23074" lon="-1.46999">
        <ele>56</ele>
        <time>2022-08-06T07:20:48Z</time>
      </trkpt>
      <trkpt lat="47.23081" lon="-1.47012">
        <ele>56</ele>
        <time>2022-08-06T07:20:50Z</time>
      </trkpt>
      <trkpt lat="47.23089" lon="-1.47026">
        <ele>58</ele>
        <time>2022-08-06T07:20:52Z</time>
      </trkpt>
      <trkpt lat="47.23098" lon="-1.4704">
        <ele>58</ele>
        <time>2022-08-06T07:20:54Z</time>
      </trkpt>
      <trkpt lat="47.23105" lon="-1.47054">
        <ele>58</ele>
        <time>2022-08-06T07:20:56Z</time>
      </trkpt>
      <trkpt lat="47.23113" lon="-1.47068">
        <ele>60</ele>
        <time>2022-08-06T07:20:58Z</time>
      </trkpt>
      <trkpt lat="47.2312" lon="-1.47083">
        <ele>61</ele>
        <time>2022-08-06T07:21:00Z</time>
      </trkpt>
      <trkpt lat="47.23128" lon="-1.47097">
        <ele>61</ele>
        <time>2022-08-06T07:21:02Z</time>
      </trkpt>
      <trkpt lat="47.23136" lon="-1.47111">
        <ele>61</ele>
        <time>2022-08-06T07:21:04Z</time>
      </trkpt>
      <trkpt lat="47.23144" lon="-1.47125">
        <ele>61</ele>
        <time>2022-08-06T07:21:06Z</time>
      </trkpt>
      <trkpt lat="47.23152" lon="-1.47139">
        <ele>62</ele>
        <time>2022-08-06T07:21:08Z</time>
      </trkpt>
      <trkpt lat="47.23159" lon="-1.47152">
        <ele>62</ele>
        <time>2022-08-06T07:21:10Z</time>
      </trkpt>
      <trkpt lat="47.23167" lon="-1.47166">
        <ele>62</ele>
        <time>2022-08-06T07:21:12Z</time>
      </trkpt>
      <trkpt lat="47.23175" lon="-1.4718">
        <ele>63</ele>
        <time>2022-08-06T07:21:14Z</time>
      </trkpt>
      <trkpt lat="47.23183" lon="-1.47193">
        <ele>63</ele>
        <time>2022-08-06T07:21:16Z</time>
      </trkpt>
      <trkpt lat="47.2319" lon="-1.47206">
        <ele>63</ele>
        <time>2022-08-06T07:21:18Z</time>
      </trkpt>
      <trkpt lat="47.23198" lon="-1.47219">
        <ele>63</ele>
        <time>2022-08-06T07:21:20Z</time>
      </trkpt>
      <trkpt lat="47.23206" lon="-1.47233">
        <ele>63</ele>
        <time>2022-08-06T07:21:22Z</time>
      </trkpt>
      <trkpt lat="47.23218" lon="-1.47254">
        <ele>64</ele>
        <time>2022-08-06T07:21:25Z</time>
      </trkpt>
      <trkpt lat="47.23227" lon="-1.47268">
        <ele>63</ele>
        <time>2022-08-06T07:21:27Z</time>
      </trkpt>
      <trkpt lat="47.23235" lon="-1.47281">
        <ele>64</ele>
        <time>2022-08-06T07:21:29Z</time>
      </trkpt>
      <trkpt lat="47.23246" lon="-1.47302">
        <ele>64</ele>
        <time>2022-08-06T07:21:32Z</time>
      </trkpt>
      <trkpt lat="47.23254" lon="-1.47315">
        <ele>64</ele>
        <time>2022-08-06T07:21:34Z</time>
      </trkpt>
      <trkpt lat="47.23262" lon="-1.47329">
        <ele>64</ele>
        <time>2022-08-06T07:21:36Z</time>
      </trkpt>
      <trkpt lat="47.23274" lon="-1.4735">
        <ele>64</ele>
        <time>2022-08-06T07:21:39Z</time>
      </trkpt>
      <trkpt lat="47.23283" lon="-1.47365">
        <ele>63</ele>
        <time>2022-08-06T07:21:41Z</time>
      </trkpt>
      <trkpt lat="47.23291" lon="-1.47379">
        <ele>63</ele>
        <time>2022-08-06T07:21:43Z</time>
      </trkpt>
      <trkpt lat="47.23299" lon="-1.47393">
        <ele>63</ele>
        <time>2022-08-06T07:21:45Z</time>
      </trkpt>
      <trkpt lat="47.23307" lon="-1.47409">
        <ele>62</ele>
        <time>2022-08-06T07:21:47Z</time>
      </trkpt>
      <trkpt lat="47.23315" lon="-1.47423">
        <ele>62</ele>
        <time>2022-08-06T07:21:49Z</time>
      </trkpt>
      <trkpt lat="47.23324" lon="-1.47438">
        <ele>61</ele>
        <time>2022-08-06T07:21:51Z</time>
      </trkpt>
      <trkpt lat="47.23333" lon="-1.47453">
        <ele>61</ele>
        <time>2022-08-06T07:21:53Z</time>
      </trkpt>
      <trkpt lat="47.23342" lon="-1.47469">
        <ele>60</ele>
        <time>2022-08-06T07:21:55Z</time>
      </trkpt>
      <trkpt lat="47.23351" lon="-1.47484">
        <ele>60</ele>
        <time>2022-08-06T07:21:57Z</time>
      </trkpt>
      <trkpt lat="47.2336" lon="-1.47499">
        <ele>59</ele>
        <time>2022-08-06T07:21:59Z</time>
      </trkpt>
      <trkpt lat="47.2337" lon="-1.47513">
        <ele>58</ele>
        <time>2022-08-06T07:22:01Z</time>
      </trkpt>
      <trkpt lat="47.23381" lon="-1.47527">
        <ele>58</ele>
        <time>2022-08-06T07:22:03Z</time>
      </trkpt>
      <trkpt lat="47.23392" lon="-1.47542">
        <ele>58</ele>
        <time>2022-08-06T07:22:05Z</time>
      </trkpt>
      <trkpt lat="47.23402" lon="-1.47557">
        <ele>57</ele>
        <time>2022-08-06T07:22:07Z</time>
      </trkpt>
      <trkpt lat="47.23412" lon="-1.47572">
        <ele>57</ele>
        <time>2022-08-06T07:22:09Z</time>
      </trkpt>
      <trkpt lat="47.23421" lon="-1.47587">
        <ele>57</ele>
        <time>2022-08-06T07:22:11Z</time>
      </trkpt>
      <trkpt lat="47.23431" lon="-1.47602">
        <ele>57</ele>
        <time>2022-08-06T07:22:13Z</time>
      </trkpt>
      <trkpt lat="47.23441" lon="-1.47616">
        <ele>57</ele>
        <time>2022-08-06T07:22:15Z</time>
      </trkpt>
      <trkpt lat="47.23451" lon="-1.47631">
        <ele>56</ele>
        <time>2022-08-06T07:22:17Z</time>
      </trkpt>
      <trkpt lat="47.23462" lon="-1.47644">
        <ele>56</ele>
        <time>2022-08-06T07:22:19Z</time>
      </trkpt>
      <trkpt lat="47.23472" lon="-1.47655">
        <ele>56</ele>
        <time>2022-08-06T07:22:21Z</time>
      </trkpt>
      <trkpt lat="47.23485" lon="-1.47666">
        <ele>57</ele>
        <time>2022-08-06T07:22:23Z</time>
      </trkpt>
      <trkpt lat="47.23499" lon="-1.47675">
        <ele>56</ele>
        <time>2022-08-06T07:22:25Z</time>
      </trkpt>
      <trkpt lat="47.23511" lon="-1.47684">
        <ele>57</ele>
        <time>2022-08-06T07:22:27Z</time>
      </trkpt>
      <trkpt lat="47.23523" lon="-1.47692">
        <ele>56</ele>
        <time>2022-08-06T07:22:29Z</time>
      </trkpt>
      <trkpt lat="47.23535" lon="-1.47699">
        <ele>56</ele>
        <time>2022-08-06T07:22:31Z</time>
      </trkpt>
      <trkpt lat="47.23547" lon="-1.47702">
        <ele>55</ele>
        <time>2022-08-06T07:22:33Z</time>
      </trkpt>
      <trkpt lat="47.23558" lon="-1.47695">
        <ele>55</ele>
        <time>2022-08-06T07:22:35Z</time>
      </trkpt>
      <trkpt lat="47.2357" lon="-1.47688">
        <ele>55</ele>
        <time>2022-08-06T07:22:38Z</time>
      </trkpt>
      <trkpt lat="47.2358" lon="-1.4769">
        <ele>54</ele>
        <time>2022-08-06T07:22:40Z</time>
      </trkpt>
      <trkpt lat="47.23592" lon="-1.47697">
        <ele>54</ele>
        <time>2022-08-06T07:22:42Z</time>
      </trkpt>
      <trkpt lat="47.23604" lon="-1.47705">
        <ele>54</ele>
        <time>2022-08-06T07:22:44Z</time>
      </trkpt>
      <trkpt lat="47.23615" lon="-1.47712">
        <ele>54</ele>
        <time>2022-08-06T07:22:46Z</time>
      </trkpt>
      <trkpt lat="47.23628" lon="-1.47719">
        <ele>54</ele>
        <time>2022-08-06T07:22:48Z</time>
      </trkpt>
      <trkpt lat="47.2364" lon="-1.47726">
        <ele>54</ele>
        <time>2022-08-06T07:22:50Z</time>
      </trkpt>
      <trkpt lat="47.23651" lon="-1.47734">
        <ele>54</ele>
        <time>2022-08-06T07:22:52Z</time>
      </trkpt>
      <trkpt lat="47.23663" lon="-1.4774">
        <ele>54</ele>
        <time>2022-08-06T07:22:54Z</time>
      </trkpt>
      <trkpt lat="47.23675" lon="-1.47747">
        <ele>55</ele>
        <time>2022-08-06T07:22:56Z</time>
      </trkpt>
      <trkpt lat="47.23687" lon="-1.47749">
        <ele>54</ele>
        <time>2022-08-06T07:22:58Z</time>
      </trkpt>
      <trkpt lat="47.237" lon="-1.47747">
        <ele>54</ele>
        <time>2022-08-06T07:23:00Z</time>
      </trkpt>
      <trkpt lat="47.23711" lon="-1.47742">
        <ele>55</ele>
        <time>2022-08-06T07:23:02Z</time>
      </trkpt>
      <trkpt lat="47.2372" lon="-1.47734">
        <ele>55</ele>
        <time>2022-08-06T07:23:04Z</time>
      </trkpt>
      <trkpt lat="47.23729" lon="-1.47724">
        <ele>55</ele>
        <time>2022-08-06T07:23:06Z</time>
      </trkpt>
      <trkpt lat="47.23738" lon="-1.47713">
        <ele>55</ele>
        <time>2022-08-06T07:23:08Z</time>
      </trkpt>
      <trkpt lat="47.23747" lon="-1.47703">
        <ele>56</ele>
        <time>2022-08-06T07:23:10Z</time>
      </trkpt>
      <trkpt lat="47.23757" lon="-1.47693">
        <ele>56</ele>
        <time>2022-08-06T07:23:12Z</time>
      </trkpt>
      <trkpt lat="47.23767" lon="-1.47683">
        <ele>56</ele>
        <time>2022-08-06T07:23:14Z</time>
      </trkpt>
      <trkpt lat="47.23778" lon="-1.47676">
        <ele>56</ele>
        <time>2022-08-06T07:23:16Z</time>
      </trkpt>
      <trkpt lat="47.23789" lon="-1.4767">
        <ele>56</ele>
        <time>2022-08-06T07:23:18Z</time>
      </trkpt>
      <trkpt lat="47.238" lon="-1.47661">
        <ele>56</ele>
        <time>2022-08-06T07:23:20Z</time>
      </trkpt>
      <trkpt lat="47.23811" lon="-1.47653">
        <ele>55</ele>
        <time>2022-08-06T07:23:22Z</time>
      </trkpt>
      <trkpt lat="47.23822" lon="-1.47649">
        <ele>55</ele>
        <time>2022-08-06T07:23:24Z</time>
      </trkpt>
      <trkpt lat="47.23834" lon="-1.47646">
        <ele>56</ele>
        <time>2022-08-06T07:23:26Z</time>
      </trkpt>
      <trkpt lat="47.23846" lon="-1.47641">
        <ele>56</ele>
        <time>2022-08-06T07:23:28Z</time>
      </trkpt>
      <trkpt lat="47.23858" lon="-1.47636">
        <ele>57</ele>
        <time>2022-08-06T07:23:30Z</time>
      </trkpt>
      <trkpt lat="47.23869" lon="-1.4763">
        <ele>57</ele>
        <time>2022-08-06T07:23:32Z</time>
      </trkpt>
      <trkpt lat="47.23882" lon="-1.47627">
        <ele>57</ele>
        <time>2022-08-06T07:23:34Z</time>
      </trkpt>
      <trkpt lat="47.23894" lon="-1.47626">
        <ele>58</ele>
        <time>2022-08-06T07:23:36Z</time>
      </trkpt>
      <trkpt lat="47.23907" lon="-1.47629">
        <ele>58</ele>
        <time>2022-08-06T07:23:38Z</time>
      </trkpt>
      <trkpt lat="47.23919" lon="-1.47633">
        <ele>59</ele>
        <time>2022-08-06T07:23:40Z</time>
      </trkpt>
      <trkpt lat="47.2393" lon="-1.4764">
        <ele>59</ele>
        <time>2022-08-06T07:23:42Z</time>
      </trkpt>
      <trkpt lat="47.2394" lon="-1.47649">
        <ele>59</ele>
        <time>2022-08-06T07:23:44Z</time>
      </trkpt>
      <trkpt lat="47.2395" lon="-1.47661">
        <ele>59</ele>
        <time>2022-08-06T07:23:46Z</time>
      </trkpt>
      <trkpt lat="47.23959" lon="-1.47672">
        <ele>58</ele>
        <time>2022-08-06T07:23:48Z</time>
      </trkpt>
      <trkpt lat="47.23968" lon="-1.47686">
        <ele>58</ele>
        <time>2022-08-06T07:23:50Z</time>
      </trkpt>
      <trkpt lat="47.23976" lon="-1.47702">
        <ele>58</ele>
        <time>2022-08-06T07:23:52Z</time>
      </trkpt>
      <trkpt lat="47.23983" lon="-1.47719">
        <ele>57</ele>
        <time>2022-08-06T07:23:54Z</time>
      </trkpt>
      <trkpt lat="47.2399" lon="-1.47736">
        <ele>56</ele>
        <time>2022-08-06T07:23:56Z</time>
      </trkpt>
      <trkpt lat="47.23997" lon="-1.47751">
        <ele>56</ele>
        <time>2022-08-06T07:23:58Z</time>
      </trkpt>
      <trkpt lat="47.2401" lon="-1.47777">
        <ele>56</ele>
        <time>2022-08-06T07:24:01Z</time>
      </trkpt>
      <trkpt lat="47.24017" lon="-1.47786">
        <ele>56</ele>
        <time>2022-08-06T07:24:02Z</time>
      </trkpt>
      <trkpt lat="47.2402" lon="-1.47802">
        <ele>56</ele>
        <time>2022-08-06T07:24:04Z</time>
      </trkpt>
      <trkpt lat="47.24027" lon="-1.47818">
        <ele>56</ele>
        <time>2022-08-06T07:24:06Z</time>
      </trkpt>
      <trkpt lat="47.24032" lon="-1.47836">
        <ele>55</ele>
        <time>2022-08-06T07:24:08Z</time>
      </trkpt>
      <trkpt lat="47.24039" lon="-1.47854">
        <ele>54</ele>
        <time>2022-08-06T07:24:10Z</time>
      </trkpt>
      <trkpt lat="47.24044" lon="-1.47871">
        <ele>54</ele>
        <time>2022-08-06T07:24:12Z</time>
      </trkpt>
      <trkpt lat="47.24051" lon="-1.47889">
        <ele>53</ele>
        <time>2022-08-06T07:24:14Z</time>
      </trkpt>
      <trkpt lat="47.24056" lon="-1.47907">
        <ele>53</ele>
        <time>2022-08-06T07:24:16Z</time>
      </trkpt>
      <trkpt lat="47.24062" lon="-1.47925">
        <ele>53</ele>
        <time>2022-08-06T07:24:18Z</time>
      </trkpt>
      <trkpt lat="47.24068" lon="-1.47944">
        <ele>53</ele>
        <time>2022-08-06T07:24:20Z</time>
      </trkpt>
      <trkpt lat="47.24073" lon="-1.47963">
        <ele>52</ele>
        <time>2022-08-06T07:24:22Z</time>
      </trkpt>
      <trkpt lat="47.2408" lon="-1.47982">
        <ele>52</ele>
        <time>2022-08-06T07:24:24Z</time>
      </trkpt>
      <trkpt lat="47.24087" lon="-1.48002">
        <ele>51</ele>
        <time>2022-08-06T07:24:26Z</time>
      </trkpt>
      <trkpt lat="47.24095" lon="-1.48021">
        <ele>50</ele>
        <time>2022-08-06T07:24:28Z</time>
      </trkpt>
      <trkpt lat="47.24104" lon="-1.4804">
        <ele>51</ele>
        <time>2022-08-06T07:24:30Z</time>
      </trkpt>
      <trkpt lat="47.24113" lon="-1.48057">
        <ele>51</ele>
        <time>2022-08-06T07:24:32Z</time>
      </trkpt>
      <trkpt lat="47.24122" lon="-1.48073">
        <ele>51</ele>
        <time>2022-08-06T07:24:34Z</time>
      </trkpt>
      <trkpt lat="47.24132" lon="-1.48087">
        <ele>51</ele>
        <time>2022-08-06T07:24:36Z</time>
      </trkpt>
      <trkpt lat="47.24142" lon="-1.481">
        <ele>52</ele>
        <time>2022-08-06T07:24:38Z</time>
      </trkpt>
      <trkpt lat="47.24153" lon="-1.48111">
        <ele>52</ele>
        <time>2022-08-06T07:24:40Z</time>
      </trkpt>
      <trkpt lat="47.24163" lon="-1.4812">
        <ele>53</ele>
        <time>2022-08-06T07:24:42Z</time>
      </trkpt>
      <trkpt lat="47.24174" lon="-1.4813">
        <ele>53</ele>
        <time>2022-08-06T07:24:44Z</time>
      </trkpt>
      <trkpt lat="47.24184" lon="-1.48139">
        <ele>53</ele>
        <time>2022-08-06T07:24:46Z</time>
      </trkpt>
      <trkpt lat="47.24195" lon="-1.48149">
        <ele>53</ele>
        <time>2022-08-06T07:24:48Z</time>
      </trkpt>
      <trkpt lat="47.24205" lon="-1.48157">
        <ele>53</ele>
        <time>2022-08-06T07:24:50Z</time>
      </trkpt>
      <trkpt lat="47.24216" lon="-1.48165">
        <ele>54</ele>
        <time>2022-08-06T07:24:52Z</time>
      </trkpt>
      <trkpt lat="47.24228" lon="-1.48172">
        <ele>54</ele>
        <time>2022-08-06T07:24:54Z</time>
      </trkpt>
      <trkpt lat="47.2424" lon="-1.48179">
        <ele>55</ele>
        <time>2022-08-06T07:24:56Z</time>
      </trkpt>
      <trkpt lat="47.24252" lon="-1.48183">
        <ele>55</ele>
        <time>2022-08-06T07:24:58Z</time>
      </trkpt>
      <trkpt lat="47.24266" lon="-1.48189">
        <ele>54</ele>
        <time>2022-08-06T07:25:00Z</time>
      </trkpt>
      <trkpt lat="47.24278" lon="-1.48197">
        <ele>54</ele>
        <time>2022-08-06T07:25:02Z</time>
      </trkpt>
      <trkpt lat="47.24289" lon="-1.48206">
        <ele>54</ele>
        <time>2022-08-06T07:25:04Z</time>
      </trkpt>
      <trkpt lat="47.24301" lon="-1.48215">
        <ele>54</ele>
        <time>2022-08-06T07:25:06Z</time>
      </trkpt>
      <trkpt lat="47.24311" lon="-1.48224">
        <ele>54</ele>
        <time>2022-08-06T07:25:08Z</time>
      </trkpt>
      <trkpt lat="47.24321" lon="-1.48234">
        <ele>54</ele>
        <time>2022-08-06T07:25:10Z</time>
      </trkpt>
      <trkpt lat="47.24332" lon="-1.48242">
        <ele>54</ele>
        <time>2022-08-06T07:25:12Z</time>
      </trkpt>
      <trkpt lat="47.24343" lon="-1.48247">
        <ele>54</ele>
        <time>2022-08-06T07:25:14Z</time>
      </trkpt>
      <trkpt lat="47.24352" lon="-1.48257">
        <ele>54</ele>
        <time>2022-08-06T07:25:16Z</time>
      </trkpt>
      <trkpt lat="47.2436" lon="-1.48271">
        <ele>54</ele>
        <time>2022-08-06T07:25:18Z</time>
      </trkpt>
      <trkpt lat="47.24368" lon="-1.48285">
        <ele>53</ele>
        <time>2022-08-06T07:25:20Z</time>
      </trkpt>
      <trkpt lat="47.24377" lon="-1.48298">
        <ele>53</ele>
        <time>2022-08-06T07:25:22Z</time>
      </trkpt>
      <trkpt lat="47.24387" lon="-1.48311">
        <ele>53</ele>
        <time>2022-08-06T07:25:24Z</time>
      </trkpt>
      <trkpt lat="47.24396" lon="-1.48324">
        <ele>52</ele>
        <time>2022-08-06T07:25:26Z</time>
      </trkpt>
      <trkpt lat="47.24406" lon="-1.48336">
        <ele>52</ele>
        <time>2022-08-06T07:25:28Z</time>
      </trkpt>
      <trkpt lat="47.24415" lon="-1.48347">
        <ele>52</ele>
        <time>2022-08-06T07:25:30Z</time>
      </trkpt>
      <trkpt lat="47.24426" lon="-1.48355">
        <ele>52</ele>
        <time>2022-08-06T07:25:32Z</time>
      </trkpt>
      <trkpt lat="47.24437" lon="-1.48362">
        <ele>52</ele>
        <time>2022-08-06T07:25:34Z</time>
      </trkpt>
      <trkpt lat="47.24449" lon="-1.48368">
        <ele>53</ele>
        <time>2022-08-06T07:25:36Z</time>
      </trkpt>
      <trkpt lat="47.24461" lon="-1.48374">
        <ele>53</ele>
        <time>2022-08-06T07:25:38Z</time>
      </trkpt>
      <trkpt lat="47.24473" lon="-1.48383">
        <ele>53</ele>
        <time>2022-08-06T07:25:40Z</time>
      </trkpt>
      <trkpt lat="47.24484" lon="-1.48392">
        <ele>53</ele>
        <time>2022-08-06T07:25:42Z</time>
      </trkpt>
      <trkpt lat="47.24496" lon="-1.484">
        <ele>53</ele>
        <time>2022-08-06T07:25:44Z</time>
      </trkpt>
      <trkpt lat="47.24507" lon="-1.48408">
        <ele>53</ele>
        <time>2022-08-06T07:25:46Z</time>
      </trkpt>
      <trkpt lat="47.2452" lon="-1.48418">
        <ele>53</ele>
        <time>2022-08-06T07:25:48Z</time>
      </trkpt>
      <trkpt lat="47.24531" lon="-1.48427">
        <ele>52</ele>
        <time>2022-08-06T07:25:50Z</time>
      </trkpt>
      <trkpt lat="47.24542" lon="-1.48438">
        <ele>52</ele>
        <time>2022-08-06T07:25:52Z</time>
      </trkpt>
      <trkpt lat="47.24553" lon="-1.4845">
        <ele>52</ele>
        <time>2022-08-06T07:25:54Z</time>
      </trkpt>
      <trkpt lat="47.24563" lon="-1.48461">
        <ele>52</ele>
        <time>2022-08-06T07:25:56Z</time>
      </trkpt>
      <trkpt lat="47.24573" lon="-1.48473">
        <ele>52</ele>
        <time>2022-08-06T07:25:58Z</time>
      </trkpt>
      <trkpt lat="47.24583" lon="-1.48484">
        <ele>52</ele>
        <time>2022-08-06T07:26:00Z</time>
      </trkpt>
      <trkpt lat="47.24593" lon="-1.48495">
        <ele>53</ele>
        <time>2022-08-06T07:26:02Z</time>
      </trkpt>
      <trkpt lat="47.24603" lon="-1.48507">
        <ele>53</ele>
        <time>2022-08-06T07:26:04Z</time>
      </trkpt>
      <trkpt lat="47.24613" lon="-1.48519">
        <ele>53</ele>
        <time>2022-08-06T07:26:06Z</time>
      </trkpt>
      <trkpt lat="47.24623" lon="-1.48531">
        <ele>53</ele>
        <time>2022-08-06T07:26:08Z</time>
      </trkpt>
      <trkpt lat="47.24632" lon="-1.48542">
        <ele>53</ele>
        <time>2022-08-06T07:26:10Z</time>
      </trkpt>
      <trkpt lat="47.24642" lon="-1.48553">
        <ele>53</ele>
        <time>2022-08-06T07:26:12Z</time>
      </trkpt>
      <trkpt lat="47.24651" lon="-1.48563">
        <ele>53</ele>
        <time>2022-08-06T07:26:14Z</time>
      </trkpt>
      <trkpt lat="47.24662" lon="-1.48572">
        <ele>54</ele>
        <time>2022-08-06T07:26:16Z</time>
      </trkpt>
      <trkpt lat="47.24672" lon="-1.48582">
        <ele>54</ele>
        <time>2022-08-06T07:26:18Z</time>
      </trkpt>
      <trkpt lat="47.24681" lon="-1.48592">
        <ele>54</ele>
        <time>2022-08-06T07:26:20Z</time>
      </trkpt>
      <trkpt lat="47.24691" lon="-1.48602">
        <ele>54</ele>
        <time>2022-08-06T07:26:22Z</time>
      </trkpt>
      <trkpt lat="47.247" lon="-1.4861">
        <ele>54</ele>
        <time>2022-08-06T07:26:24Z</time>
      </trkpt>
      <trkpt lat="47.2471" lon="-1.48619">
        <ele>55</ele>
        <time>2022-08-06T07:26:26Z</time>
      </trkpt>
      <trkpt lat="47.24719" lon="-1.48627">
        <ele>55</ele>
        <time>2022-08-06T07:26:28Z</time>
      </trkpt>
      <trkpt lat="47.2473" lon="-1.48632">
        <ele>55</ele>
        <time>2022-08-06T07:26:30Z</time>
      </trkpt>
      <trkpt lat="47.24741" lon="-1.48631">
        <ele>55</ele>
        <time>2022-08-06T07:26:32Z</time>
      </trkpt>
      <trkpt lat="47.24752" lon="-1.48629">
        <ele>56</ele>
        <time>2022-08-06T07:26:34Z</time>
      </trkpt>
      <trkpt lat="47.24762" lon="-1.48636">
        <ele>56</ele>
        <time>2022-08-06T07:26:36Z</time>
      </trkpt>
      <trkpt lat="47.24771" lon="-1.48647">
        <ele>56</ele>
        <time>2022-08-06T07:26:38Z</time>
      </trkpt>
      <trkpt lat="47.24782" lon="-1.48651">
        <ele>56</ele>
        <time>2022-08-06T07:26:40Z</time>
      </trkpt>
      <trkpt lat="47.24793" lon="-1.4865">
        <ele>57</ele>
        <time>2022-08-06T07:26:42Z</time>
      </trkpt>
      <trkpt lat="47.24805" lon="-1.48651">
        <ele>57</ele>
        <time>2022-08-06T07:26:44Z</time>
      </trkpt>
      <trkpt lat="47.24817" lon="-1.48652">
        <ele>57</ele>
        <time>2022-08-06T07:26:46Z</time>
      </trkpt>
      <trkpt lat="47.2483" lon="-1.48652">
        <ele>57</ele>
        <time>2022-08-06T07:26:48Z</time>
      </trkpt>
      <trkpt lat="47.24841" lon="-1.48653">
        <ele>57</ele>
        <time>2022-08-06T07:26:50Z</time>
      </trkpt>
      <trkpt lat="47.24852" lon="-1.48656">
        <ele>58</ele>
        <time>2022-08-06T07:26:52Z</time>
      </trkpt>
      <trkpt lat="47.24863" lon="-1.48659">
        <ele>58</ele>
        <time>2022-08-06T07:26:54Z</time>
      </trkpt>
      <trkpt lat="47.24873" lon="-1.48661">
        <ele>59</ele>
        <time>2022-08-06T07:26:56Z</time>
      </trkpt>
      <trkpt lat="47.24884" lon="-1.48663">
        <ele>59</ele>
        <time>2022-08-06T07:26:58Z</time>
      </trkpt>
      <trkpt lat="47.24895" lon="-1.48666">
        <ele>59</ele>
        <time>2022-08-06T07:27:00Z</time>
      </trkpt>
      <trkpt lat="47.24905" lon="-1.48671">
        <ele>59</ele>
        <time>2022-08-06T07:27:02Z</time>
      </trkpt>
      <trkpt lat="47.24916" lon="-1.48676">
        <ele>59</ele>
        <time>2022-08-06T07:27:04Z</time>
      </trkpt>
      <trkpt lat="47.24926" lon="-1.48681">
        <ele>60</ele>
        <time>2022-08-06T07:27:06Z</time>
      </trkpt>
      <trkpt lat="47.24934" lon="-1.48684">
        <ele>60</ele>
        <time>2022-08-06T07:27:08Z</time>
      </trkpt>
      <trkpt lat="47.24944" lon="-1.48686">
        <ele>61</ele>
        <time>2022-08-06T07:27:12Z</time>
      </trkpt>
      <trkpt lat="47.24954" lon="-1.48688">
        <ele>62</ele>
        <time>2022-08-06T07:27:15Z</time>
      </trkpt>
      <trkpt lat="47.24962" lon="-1.48695">
        <ele>63</ele>
        <time>2022-08-06T07:27:21Z</time>
      </trkpt>
      <trkpt lat="47.24969" lon="-1.48704">
        <ele>64</ele>
        <time>2022-08-06T07:27:24Z</time>
      </trkpt>
      <trkpt lat="47.24978" lon="-1.4871">
        <ele>65</ele>
        <time>2022-08-06T07:27:26Z</time>
      </trkpt>
      <trkpt lat="47.24989" lon="-1.48715">
        <ele>66</ele>
        <time>2022-08-06T07:27:28Z</time>
      </trkpt>
      <trkpt lat="47.25001" lon="-1.48721">
        <ele>67</ele>
        <time>2022-08-06T07:27:30Z</time>
      </trkpt>
      <trkpt lat="47.25013" lon="-1.48728">
        <ele>68</ele>
        <time>2022-08-06T07:27:32Z</time>
      </trkpt>
      <trkpt lat="47.25025" lon="-1.48735">
        <ele>69</ele>
        <time>2022-08-06T07:27:34Z</time>
      </trkpt>
      <trkpt lat="47.25037" lon="-1.48739">
        <ele>69</ele>
        <time>2022-08-06T07:27:36Z</time>
      </trkpt>
      <trkpt lat="47.25051" lon="-1.48741">
        <ele>67</ele>
        <time>2022-08-06T07:27:38Z</time>
      </trkpt>
      <trkpt lat="47.25063" lon="-1.48744">
        <ele>66</ele>
        <time>2022-08-06T07:27:40Z</time>
      </trkpt>
      <trkpt lat="47.25075" lon="-1.48745">
        <ele>67</ele>
        <time>2022-08-06T07:27:42Z</time>
      </trkpt>
      <trkpt lat="47.25088" lon="-1.48748">
        <ele>68</ele>
        <time>2022-08-06T07:27:44Z</time>
      </trkpt>
      <trkpt lat="47.25102" lon="-1.48752">
        <ele>67</ele>
        <time>2022-08-06T07:27:46Z</time>
      </trkpt>
      <trkpt lat="47.25115" lon="-1.48755">
        <ele>67</ele>
        <time>2022-08-06T07:27:48Z</time>
      </trkpt>
      <trkpt lat="47.25128" lon="-1.48753">
        <ele>67</ele>
        <time>2022-08-06T07:27:50Z</time>
      </trkpt>
      <trkpt lat="47.25141" lon="-1.4875">
        <ele>66</ele>
        <time>2022-08-06T07:27:52Z</time>
      </trkpt>
      <trkpt lat="47.25154" lon="-1.48748">
        <ele>66</ele>
        <time>2022-08-06T07:27:54Z</time>
      </trkpt>
      <trkpt lat="47.25167" lon="-1.48746">
        <ele>65</ele>
        <time>2022-08-06T07:27:56Z</time>
      </trkpt>
      <trkpt lat="47.2518" lon="-1.48745">
        <ele>65</ele>
        <time>2022-08-06T07:27:58Z</time>
      </trkpt>
      <trkpt lat="47.25192" lon="-1.48744">
        <ele>65</ele>
        <time>2022-08-06T07:28:00Z</time>
      </trkpt>
      <trkpt lat="47.25205" lon="-1.48742">
        <ele>65</ele>
        <time>2022-08-06T07:28:02Z</time>
      </trkpt>
      <trkpt lat="47.25217" lon="-1.48738">
        <ele>65</ele>
        <time>2022-08-06T07:28:04Z</time>
      </trkpt>
      <trkpt lat="47.25229" lon="-1.48736">
        <ele>65</ele>
        <time>2022-08-06T07:28:06Z</time>
      </trkpt>
      <trkpt lat="47.2524" lon="-1.48736">
        <ele>66</ele>
        <time>2022-08-06T07:28:08Z</time>
      </trkpt>
      <trkpt lat="47.25252" lon="-1.48736">
        <ele>66</ele>
        <time>2022-08-06T07:28:10Z</time>
      </trkpt>
      <trkpt lat="47.25263" lon="-1.48737">
        <ele>65</ele>
        <time>2022-08-06T07:28:12Z</time>
      </trkpt>
      <trkpt lat="47.25274" lon="-1.48735">
        <ele>64</ele>
        <time>2022-08-06T07:28:14Z</time>
      </trkpt>
      <trkpt lat="47.25286" lon="-1.48734">
        <ele>64</ele>
        <time>2022-08-06T07:28:16Z</time>
      </trkpt>
      <trkpt lat="47.25294" lon="-1.48745">
        <ele>65</ele>
        <time>2022-08-06T07:28:18Z</time>
      </trkpt>
      <trkpt lat="47.25305" lon="-1.48752">
        <ele>66</ele>
        <time>2022-08-06T07:28:20Z</time>
      </trkpt>
      <trkpt lat="47.25316" lon="-1.48756">
        <ele>66</ele>
        <time>2022-08-06T07:28:22Z</time>
      </trkpt>
      <trkpt lat="47.25328" lon="-1.48759">
        <ele>67</ele>
        <time>2022-08-06T07:28:24Z</time>
      </trkpt>
      <trkpt lat="47.2534" lon="-1.48762">
        <ele>66</ele>
        <time>2022-08-06T07:28:26Z</time>
      </trkpt>
      <trkpt lat="47.25351" lon="-1.48765">
        <ele>67</ele>
        <time>2022-08-06T07:28:28Z</time>
      </trkpt>
      <trkpt lat="47.25363" lon="-1.48769">
        <ele>66</ele>
        <time>2022-08-06T07:28:30Z</time>
      </trkpt>
      <trkpt lat="47.25373" lon="-1.48771">
        <ele>67</ele>
        <time>2022-08-06T07:28:32Z</time>
      </trkpt>
      <trkpt lat="47.25384" lon="-1.48773">
        <ele>67</ele>
        <time>2022-08-06T07:28:34Z</time>
      </trkpt>
      <trkpt lat="47.25394" lon="-1.48774">
        <ele>68</ele>
        <time>2022-08-06T07:28:36Z</time>
      </trkpt>
      <trkpt lat="47.25405" lon="-1.48775">
        <ele>68</ele>
        <time>2022-08-06T07:28:38Z</time>
      </trkpt>
      <trkpt lat="47.25416" lon="-1.48777">
        <ele>68</ele>
        <time>2022-08-06T07:28:40Z</time>
      </trkpt>
      <trkpt lat="47.25427" lon="-1.48777">
        <ele>68</ele>
        <time>2022-08-06T07:28:42Z</time>
      </trkpt>
      <trkpt lat="47.25438" lon="-1.48777">
        <ele>68</ele>
        <time>2022-08-06T07:28:44Z</time>
      </trkpt>
      <trkpt lat="47.25449" lon="-1.48777">
        <ele>68</ele>
        <time>2022-08-06T07:28:46Z</time>
      </trkpt>
      <trkpt lat="47.2546" lon="-1.48777">
        <ele>68</ele>
        <time>2022-08-06T07:28:48Z</time>
      </trkpt>
      <trkpt lat="47.25471" lon="-1.48776">
        <ele>68</ele>
        <time>2022-08-06T07:28:50Z</time>
      </trkpt>
      <trkpt lat="47.25482" lon="-1.48775">
        <ele>68</ele>
        <time>2022-08-06T07:28:52Z</time>
      </trkpt>
      <trkpt lat="47.25493" lon="-1.48772">
        <ele>68</ele>
        <time>2022-08-06T07:28:54Z</time>
      </trkpt>
      <trkpt lat="47.25504" lon="-1.48769">
        <ele>68</ele>
        <time>2022-08-06T07:28:56Z</time>
      </trkpt>
      <trkpt lat="47.25515" lon="-1.48766">
        <ele>69</ele>
        <time>2022-08-06T07:28:58Z</time>
      </trkpt>
      <trkpt lat="47.25525" lon="-1.48763">
        <ele>69</ele>
        <time>2022-08-06T07:29:00Z</time>
      </trkpt>
      <trkpt lat="47.25536" lon="-1.4876">
        <ele>69</ele>
        <time>2022-08-06T07:29:02Z</time>
      </trkpt>
      <trkpt lat="47.25547" lon="-1.48758">
        <ele>69</ele>
        <time>2022-08-06T07:29:04Z</time>
      </trkpt>
      <trkpt lat="47.25558" lon="-1.48754">
        <ele>69</ele>
        <time>2022-08-06T07:29:06Z</time>
      </trkpt>
      <trkpt lat="47.25568" lon="-1.48751">
        <ele>70</ele>
        <time>2022-08-06T07:29:08Z</time>
      </trkpt>
      <trkpt lat="47.25579" lon="-1.48747">
        <ele>71</ele>
        <time>2022-08-06T07:29:10Z</time>
      </trkpt>
      <trkpt lat="47.25589" lon="-1.48745">
        <ele>71</ele>
        <time>2022-08-06T07:29:12Z</time>
      </trkpt>
      <trkpt lat="47.256" lon="-1.48745">
        <ele>72</ele>
        <time>2022-08-06T07:29:14Z</time>
      </trkpt>
      <trkpt lat="47.25611" lon="-1.48746">
        <ele>72</ele>
        <time>2022-08-06T07:29:16Z</time>
      </trkpt>
      <trkpt lat="47.25622" lon="-1.48747">
        <ele>72</ele>
        <time>2022-08-06T07:29:18Z</time>
      </trkpt>
      <trkpt lat="47.25632" lon="-1.48749">
        <ele>72</ele>
        <time>2022-08-06T07:29:20Z</time>
      </trkpt>
      <trkpt lat="47.25643" lon="-1.4875">
        <ele>72</ele>
        <time>2022-08-06T07:29:22Z</time>
      </trkpt>
      <trkpt lat="47.25652" lon="-1.48754">
        <ele>74</ele>
        <time>2022-08-06T07:29:24Z</time>
      </trkpt>
      <trkpt lat="47.25662" lon="-1.48756">
        <ele>75</ele>
        <time>2022-08-06T07:29:26Z</time>
      </trkpt>
      <trkpt lat="47.25673" lon="-1.48756">
        <ele>75</ele>
        <time>2022-08-06T07:29:28Z</time>
      </trkpt>
      <trkpt lat="47.25683" lon="-1.48757">
        <ele>75</ele>
        <time>2022-08-06T07:29:30Z</time>
      </trkpt>
      <trkpt lat="47.25694" lon="-1.4876">
        <ele>74</ele>
        <time>2022-08-06T07:29:32Z</time>
      </trkpt>
      <trkpt lat="47.25706" lon="-1.4876">
        <ele>73</ele>
        <time>2022-08-06T07:29:34Z</time>
      </trkpt>
      <trkpt lat="47.25716" lon="-1.4876">
        <ele>73</ele>
        <time>2022-08-06T07:29:36Z</time>
      </trkpt>
      <trkpt lat="47.25727" lon="-1.48759">
        <ele>73</ele>
        <time>2022-08-06T07:29:38Z</time>
      </trkpt>
      <trkpt lat="47.25738" lon="-1.48757">
        <ele>74</ele>
        <time>2022-08-06T07:29:40Z</time>
      </trkpt>
      <trkpt lat="47.25748" lon="-1.48754">
        <ele>74</ele>
        <time>2022-08-06T07:29:42Z</time>
      </trkpt>
      <trkpt lat="47.25759" lon="-1.48751">
        <ele>75</ele>
        <time>2022-08-06T07:29:44Z</time>
      </trkpt>
      <trkpt lat="47.2577" lon="-1.48748">
        <ele>75</ele>
        <time>2022-08-06T07:29:46Z</time>
      </trkpt>
      <trkpt lat="47.2578" lon="-1.48746">
        <ele>75</ele>
        <time>2022-08-06T07:29:48Z</time>
      </trkpt>
      <trkpt lat="47.25791" lon="-1.48745">
        <ele>75</ele>
        <time>2022-08-06T07:29:50Z</time>
      </trkpt>
      <trkpt lat="47.25801" lon="-1.48744">
        <ele>75</ele>
        <time>2022-08-06T07:29:52Z</time>
      </trkpt>
      <trkpt lat="47.25812" lon="-1.48745">
        <ele>75</ele>
        <time>2022-08-06T07:29:54Z</time>
      </trkpt>
      <trkpt lat="47.25824" lon="-1.48745">
        <ele>74</ele>
        <time>2022-08-06T07:29:56Z</time>
      </trkpt>
      <trkpt lat="47.25836" lon="-1.48745">
        <ele>74</ele>
        <time>2022-08-06T07:29:58Z</time>
      </trkpt>
      <trkpt lat="47.25848" lon="-1.48746">
        <ele>73</ele>
        <time>2022-08-06T07:30:00Z</time>
      </trkpt>
      <trkpt lat="47.25859" lon="-1.48746">
        <ele>73</ele>
        <time>2022-08-06T07:30:02Z</time>
      </trkpt>
      <trkpt lat="47.25871" lon="-1.48746">
        <ele>72</ele>
        <time>2022-08-06T07:30:04Z</time>
      </trkpt>
      <trkpt lat="47.25883" lon="-1.48747">
        <ele>72</ele>
        <time>2022-08-06T07:30:06Z</time>
      </trkpt>
      <trkpt lat="47.25894" lon="-1.48748">
        <ele>72</ele>
        <time>2022-08-06T07:30:08Z</time>
      </trkpt>
      <trkpt lat="47.25906" lon="-1.48748">
        <ele>71</ele>
        <time>2022-08-06T07:30:10Z</time>
      </trkpt>
      <trkpt lat="47.25918" lon="-1.48749">
        <ele>71</ele>
        <time>2022-08-06T07:30:12Z</time>
      </trkpt>
      <trkpt lat="47.2593" lon="-1.4875">
        <ele>71</ele>
        <time>2022-08-06T07:30:14Z</time>
      </trkpt>
      <trkpt lat="47.25942" lon="-1.48751">
        <ele>71</ele>
        <time>2022-08-06T07:30:16Z</time>
      </trkpt>
      <trkpt lat="47.25953" lon="-1.48752">
        <ele>71</ele>
        <time>2022-08-06T07:30:18Z</time>
      </trkpt>
      <trkpt lat="47.25965" lon="-1.48752">
        <ele>71</ele>
        <time>2022-08-06T07:30:20Z</time>
      </trkpt>
      <trkpt lat="47.25977" lon="-1.48752">
        <ele>71</ele>
        <time>2022-08-06T07:30:22Z</time>
      </trkpt>
      <trkpt lat="47.25988" lon="-1.48753">
        <ele>71</ele>
        <time>2022-08-06T07:30:24Z</time>
      </trkpt>
      <trkpt lat="47.26001" lon="-1.48752">
        <ele>70</ele>
        <time>2022-08-06T07:30:26Z</time>
      </trkpt>
      <trkpt lat="47.26013" lon="-1.48751">
        <ele>70</ele>
        <time>2022-08-06T07:30:28Z</time>
      </trkpt>
      <trkpt lat="47.26025" lon="-1.48749">
        <ele>70</ele>
        <time>2022-08-06T07:30:30Z</time>
      </trkpt>
      <trkpt lat="47.26038" lon="-1.48748">
        <ele>70</ele>
        <time>2022-08-06T07:30:32Z</time>
      </trkpt>
      <trkpt lat="47.2605" lon="-1.48746">
        <ele>70</ele>
        <time>2022-08-06T07:30:34Z</time>
      </trkpt>
      <trkpt lat="47.26062" lon="-1.48743">
        <ele>71</ele>
        <time>2022-08-06T07:30:36Z</time>
      </trkpt>
      <trkpt lat="47.26074" lon="-1.4874">
        <ele>71</ele>
        <time>2022-08-06T07:30:38Z</time>
      </trkpt>
      <trkpt lat="47.26086" lon="-1.48737">
        <ele>71</ele>
        <time>2022-08-06T07:30:40Z</time>
      </trkpt>
      <trkpt lat="47.26098" lon="-1.48734">
        <ele>71</ele>
        <time>2022-08-06T07:30:42Z</time>
      </trkpt>
      <trkpt lat="47.26109" lon="-1.48732">
        <ele>71</ele>
        <time>2022-08-06T07:30:44Z</time>
      </trkpt>
      <trkpt lat="47.2612" lon="-1.48729">
        <ele>70</ele>
        <time>2022-08-06T07:30:46Z</time>
      </trkpt>
      <trkpt lat="47.26132" lon="-1.48724">
        <ele>71</ele>
        <time>2022-08-06T07:30:48Z</time>
      </trkpt>
      <trkpt lat="47.26142" lon="-1.48718">
        <ele>71</ele>
        <time>2022-08-06T07:30:50Z</time>
      </trkpt>
      <trkpt lat="47.26153" lon="-1.48712">
        <ele>71</ele>
        <time>2022-08-06T07:30:52Z</time>
      </trkpt>
      <trkpt lat="47.26164" lon="-1.48709">
        <ele>71</ele>
        <time>2022-08-06T07:30:54Z</time>
      </trkpt>
      <trkpt lat="47.26174" lon="-1.48704">
        <ele>71</ele>
        <time>2022-08-06T07:30:56Z</time>
      </trkpt>
      <trkpt lat="47.26184" lon="-1.48699">
        <ele>72</ele>
        <time>2022-08-06T07:30:58Z</time>
      </trkpt>
      <trkpt lat="47.26194" lon="-1.48695">
        <ele>73</ele>
        <time>2022-08-06T07:31:00Z</time>
      </trkpt>
      <trkpt lat="47.26205" lon="-1.4869">
        <ele>73</ele>
        <time>2022-08-06T07:31:02Z</time>
      </trkpt>
      <trkpt lat="47.26215" lon="-1.48686">
        <ele>73</ele>
        <time>2022-08-06T07:31:04Z</time>
      </trkpt>
      <trkpt lat="47.26224" lon="-1.48682">
        <ele>73</ele>
        <time>2022-08-06T07:31:06Z</time>
      </trkpt>
      <trkpt lat="47.26233" lon="-1.48676">
        <ele>74</ele>
        <time>2022-08-06T07:31:08Z</time>
      </trkpt>
      <trkpt lat="47.26243" lon="-1.48674">
        <ele>74</ele>
        <time>2022-08-06T07:31:10Z</time>
      </trkpt>
      <trkpt lat="47.26253" lon="-1.48673">
        <ele>75</ele>
        <time>2022-08-06T07:31:12Z</time>
      </trkpt>
      <trkpt lat="47.26262" lon="-1.48671">
        <ele>75</ele>
        <time>2022-08-06T07:31:14Z</time>
      </trkpt>
      <trkpt lat="47.26272" lon="-1.48669">
        <ele>75</ele>
        <time>2022-08-06T07:31:16Z</time>
      </trkpt>
      <trkpt lat="47.26283" lon="-1.48668">
        <ele>76</ele>
        <time>2022-08-06T07:31:18Z</time>
      </trkpt>
      <trkpt lat="47.26293" lon="-1.48666">
        <ele>76</ele>
        <time>2022-08-06T07:31:20Z</time>
      </trkpt>
      <trkpt lat="47.26304" lon="-1.48665">
        <ele>75</ele>
        <time>2022-08-06T07:31:22Z</time>
      </trkpt>
      <trkpt lat="47.26314" lon="-1.48665">
        <ele>76</ele>
        <time>2022-08-06T07:31:24Z</time>
      </trkpt>
      <trkpt lat="47.26324" lon="-1.48664">
        <ele>76</ele>
        <time>2022-08-06T07:31:26Z</time>
      </trkpt>
      <trkpt lat="47.26334" lon="-1.48665">
        <ele>77</ele>
        <time>2022-08-06T07:31:28Z</time>
      </trkpt>
      <trkpt lat="47.26344" lon="-1.48664">
        <ele>77</ele>
        <time>2022-08-06T07:31:30Z</time>
      </trkpt>
      <trkpt lat="47.26354" lon="-1.48666">
        <ele>77</ele>
        <time>2022-08-06T07:31:32Z</time>
      </trkpt>
      <trkpt lat="47.26364" lon="-1.48667">
        <ele>77</ele>
        <time>2022-08-06T07:31:34Z</time>
      </trkpt>
      <trkpt lat="47.26374" lon="-1.48668">
        <ele>77</ele>
        <time>2022-08-06T07:31:36Z</time>
      </trkpt>
      <trkpt lat="47.26384" lon="-1.4867">
        <ele>76</ele>
        <time>2022-08-06T07:31:38Z</time>
      </trkpt>
      <trkpt lat="47.26394" lon="-1.4867">
        <ele>76</ele>
        <time>2022-08-06T07:31:40Z</time>
      </trkpt>
      <trkpt lat="47.26405" lon="-1.48671">
        <ele>76</ele>
        <time>2022-08-06T07:31:42Z</time>
      </trkpt>
      <trkpt lat="47.26414" lon="-1.48672">
        <ele>77</ele>
        <time>2022-08-06T07:31:44Z</time>
      </trkpt>
      <trkpt lat="47.26425" lon="-1.48674">
        <ele>77</ele>
        <time>2022-08-06T07:31:46Z</time>
      </trkpt>
      <trkpt lat="47.26435" lon="-1.48675">
        <ele>78</ele>
        <time>2022-08-06T07:31:48Z</time>
      </trkpt>
      <trkpt lat="47.26446" lon="-1.48677">
        <ele>78</ele>
        <time>2022-08-06T07:31:50Z</time>
      </trkpt>
      <trkpt lat="47.26456" lon="-1.4868">
        <ele>78</ele>
        <time>2022-08-06T07:31:52Z</time>
      </trkpt>
      <trkpt lat="47.26466" lon="-1.48683">
        <ele>78</ele>
        <time>2022-08-06T07:31:54Z</time>
      </trkpt>
      <trkpt lat="47.26477" lon="-1.48686">
        <ele>78</ele>
        <time>2022-08-06T07:31:56Z</time>
      </trkpt>
      <trkpt lat="47.26487" lon="-1.48688">
        <ele>78</ele>
        <time>2022-08-06T07:31:58Z</time>
      </trkpt>
      <trkpt lat="47.26497" lon="-1.48692">
        <ele>78</ele>
        <time>2022-08-06T07:32:00Z</time>
      </trkpt>
      <trkpt lat="47.26508" lon="-1.48695">
        <ele>78</ele>
        <time>2022-08-06T07:32:02Z</time>
      </trkpt>
      <trkpt lat="47.26518" lon="-1.48698">
        <ele>79</ele>
        <time>2022-08-06T07:32:04Z</time>
      </trkpt>
      <trkpt lat="47.26528" lon="-1.48701">
        <ele>79</ele>
        <time>2022-08-06T07:32:06Z</time>
      </trkpt>
      <trkpt lat="47.26539" lon="-1.48705">
        <ele>79</ele>
        <time>2022-08-06T07:32:08Z</time>
      </trkpt>
      <trkpt lat="47.26548" lon="-1.48709">
        <ele>79</ele>
        <time>2022-08-06T07:32:10Z</time>
      </trkpt>
      <trkpt lat="47.26558" lon="-1.48713">
        <ele>79</ele>
        <time>2022-08-06T07:32:12Z</time>
      </trkpt>
      <trkpt lat="47.2657" lon="-1.48718">
        <ele>80</ele>
        <time>2022-08-06T07:32:15Z</time>
      </trkpt>
      <trkpt lat="47.26582" lon="-1.48714">
        <ele>80</ele>
        <time>2022-08-06T07:32:18Z</time>
      </trkpt>
      <trkpt lat="47.26593" lon="-1.4871">
        <ele>80</ele>
        <time>2022-08-06T07:32:21Z</time>
      </trkpt>
      <trkpt lat="47.26602" lon="-1.48712">
        <ele>80</ele>
        <time>2022-08-06T07:32:26Z</time>
      </trkpt>
      <trkpt lat="47.2661" lon="-1.4872">
        <ele>80</ele>
        <time>2022-08-06T07:32:36Z</time>
      </trkpt>
      <trkpt lat="47.26621" lon="-1.48732">
        <ele>81</ele>
        <time>2022-08-06T07:32:39Z</time>
      </trkpt>
      <trkpt lat="47.26629" lon="-1.48744">
        <ele>80</ele>
        <time>2022-08-06T07:32:41Z</time>
      </trkpt>
      <trkpt lat="47.26633" lon="-1.4876">
        <ele>80</ele>
        <time>2022-08-06T07:32:43Z</time>
      </trkpt>
      <trkpt lat="47.26639" lon="-1.48776">
        <ele>80</ele>
        <time>2022-08-06T07:32:45Z</time>
      </trkpt>
      <trkpt lat="47.26649" lon="-1.48787">
        <ele>80</ele>
        <time>2022-08-06T07:32:47Z</time>
      </trkpt>
      <trkpt lat="47.2666" lon="-1.48797">
        <ele>81</ele>
        <time>2022-08-06T07:32:49Z</time>
      </trkpt>
      <trkpt lat="47.2667" lon="-1.48807">
        <ele>81</ele>
        <time>2022-08-06T07:32:51Z</time>
      </trkpt>
      <trkpt lat="47.26681" lon="-1.48817">
        <ele>82</ele>
        <time>2022-08-06T07:32:53Z</time>
      </trkpt>
      <trkpt lat="47.26692" lon="-1.48824">
        <ele>84</ele>
        <time>2022-08-06T07:32:55Z</time>
      </trkpt>
      <trkpt lat="47.26701" lon="-1.48837">
        <ele>84</ele>
        <time>2022-08-06T07:32:57Z</time>
      </trkpt>
      <trkpt lat="47.26709" lon="-1.4885">
        <ele>84</ele>
        <time>2022-08-06T07:32:59Z</time>
      </trkpt>
      <trkpt lat="47.26718" lon="-1.4886">
        <ele>83</ele>
        <time>2022-08-06T07:33:01Z</time>
      </trkpt>
      <trkpt lat="47.26729" lon="-1.48867">
        <ele>83</ele>
        <time>2022-08-06T07:33:03Z</time>
      </trkpt>
      <trkpt lat="47.2674" lon="-1.48865">
        <ele>82</ele>
        <time>2022-08-06T07:33:05Z</time>
      </trkpt>
      <trkpt lat="47.2675" lon="-1.48857">
        <ele>81</ele>
        <time>2022-08-06T07:33:07Z</time>
      </trkpt>
      <trkpt lat="47.26757" lon="-1.48845">
        <ele>81</ele>
        <time>2022-08-06T07:33:09Z</time>
      </trkpt>
      <trkpt lat="47.26766" lon="-1.48834">
        <ele>81</ele>
        <time>2022-08-06T07:33:11Z</time>
      </trkpt>
      <trkpt lat="47.26774" lon="-1.48822">
        <ele>82</ele>
        <time>2022-08-06T07:33:13Z</time>
      </trkpt>
      <trkpt lat="47.26782" lon="-1.4881">
        <ele>82</ele>
        <time>2022-08-06T07:33:15Z</time>
      </trkpt>
      <trkpt lat="47.2679" lon="-1.48799">
        <ele>82</ele>
        <time>2022-08-06T07:33:17Z</time>
      </trkpt>
      <trkpt lat="47.26799" lon="-1.48788">
        <ele>83</ele>
        <time>2022-08-06T07:33:19Z</time>
      </trkpt>
      <trkpt lat="47.26807" lon="-1.48777">
        <ele>83</ele>
        <time>2022-08-06T07:33:21Z</time>
      </trkpt>
      <trkpt lat="47.26815" lon="-1.48766">
        <ele>83</ele>
        <time>2022-08-06T07:33:23Z</time>
      </trkpt>
      <trkpt lat="47.26823" lon="-1.48754">
        <ele>84</ele>
        <time>2022-08-06T07:33:25Z</time>
      </trkpt>
      <trkpt lat="47.26832" lon="-1.48743">
        <ele>84</ele>
        <time>2022-08-06T07:33:27Z</time>
      </trkpt>
      <trkpt lat="47.2684" lon="-1.4873">
        <ele>85</ele>
        <time>2022-08-06T07:33:29Z</time>
      </trkpt>
      <trkpt lat="47.26848" lon="-1.48719">
        <ele>85</ele>
        <time>2022-08-06T07:33:31Z</time>
      </trkpt>
      <trkpt lat="47.26857" lon="-1.48708">
        <ele>85</ele>
        <time>2022-08-06T07:33:33Z</time>
      </trkpt>
      <trkpt lat="47.26866" lon="-1.48697">
        <ele>86</ele>
        <time>2022-08-06T07:33:35Z</time>
      </trkpt>
      <trkpt lat="47.26875" lon="-1.48686">
        <ele>86</ele>
        <time>2022-08-06T07:33:37Z</time>
      </trkpt>
      <trkpt lat="47.26886" lon="-1.48675">
        <ele>85</ele>
        <time>2022-08-06T07:33:39Z</time>
      </trkpt>
      <trkpt lat="47.26896" lon="-1.48667">
        <ele>85</ele>
        <time>2022-08-06T07:33:41Z</time>
      </trkpt>
      <trkpt lat="47.26906" lon="-1.48658">
        <ele>85</ele>
        <time>2022-08-06T07:33:43Z</time>
      </trkpt>
      <trkpt lat="47.26916" lon="-1.48649">
        <ele>85</ele>
        <time>2022-08-06T07:33:45Z</time>
      </trkpt>
      <trkpt lat="47.26927" lon="-1.4864">
        <ele>85</ele>
        <time>2022-08-06T07:33:47Z</time>
      </trkpt>
      <trkpt lat="47.26937" lon="-1.48632">
        <ele>85</ele>
        <time>2022-08-06T07:33:49Z</time>
      </trkpt>
      <trkpt lat="47.26948" lon="-1.48624">
        <ele>85</ele>
        <time>2022-08-06T07:33:51Z</time>
      </trkpt>
      <trkpt lat="47.26958" lon="-1.48616">
        <ele>86</ele>
        <time>2022-08-06T07:33:53Z</time>
      </trkpt>
      <trkpt lat="47.26969" lon="-1.48607">
        <ele>86</ele>
        <time>2022-08-06T07:33:55Z</time>
      </trkpt>
      <trkpt lat="47.26979" lon="-1.48599">
        <ele>86</ele>
        <time>2022-08-06T07:33:57Z</time>
      </trkpt>
      <trkpt lat="47.2699" lon="-1.48591">
        <ele>85</ele>
        <time>2022-08-06T07:33:59Z</time>
      </trkpt>
      <trkpt lat="47.27002" lon="-1.48583">
        <ele>84</ele>
        <time>2022-08-06T07:34:01Z</time>
      </trkpt>
      <trkpt lat="47.27013" lon="-1.48575">
        <ele>84</ele>
        <time>2022-08-06T07:34:03Z</time>
      </trkpt>
      <trkpt lat="47.27024" lon="-1.48568">
        <ele>83</ele>
        <time>2022-08-06T07:34:05Z</time>
      </trkpt>
      <trkpt lat="47.27036" lon="-1.4856">
        <ele>83</ele>
        <time>2022-08-06T07:34:07Z</time>
      </trkpt>
      <trkpt lat="47.27046" lon="-1.48553">
        <ele>83</ele>
        <time>2022-08-06T07:34:09Z</time>
      </trkpt>
      <trkpt lat="47.27056" lon="-1.48546">
        <ele>83</ele>
        <time>2022-08-06T07:34:11Z</time>
      </trkpt>
      <trkpt lat="47.27065" lon="-1.48536">
        <ele>84</ele>
        <time>2022-08-06T07:34:13Z</time>
      </trkpt>
      <trkpt lat="47.27074" lon="-1.48529">
        <ele>84</ele>
        <time>2022-08-06T07:34:15Z</time>
      </trkpt>
      <trkpt lat="47.27084" lon="-1.48521">
        <ele>84</ele>
        <time>2022-08-06T07:34:17Z</time>
      </trkpt>
      <trkpt lat="47.27094" lon="-1.48512">
        <ele>84</ele>
        <time>2022-08-06T07:34:19Z</time>
      </trkpt>
      <trkpt lat="47.27105" lon="-1.48504">
        <ele>84</ele>
        <time>2022-08-06T07:34:21Z</time>
      </trkpt>
      <trkpt lat="47.27117" lon="-1.48496">
        <ele>84</ele>
        <time>2022-08-06T07:34:23Z</time>
      </trkpt>
      <trkpt lat="47.27128" lon="-1.48488">
        <ele>84</ele>
        <time>2022-08-06T07:34:25Z</time>
      </trkpt>
      <trkpt lat="47.27139" lon="-1.4848">
        <ele>84</ele>
        <time>2022-08-06T07:34:27Z</time>
      </trkpt>
      <trkpt lat="47.2715" lon="-1.48472">
        <ele>85</ele>
        <time>2022-08-06T07:34:29Z</time>
      </trkpt>
      <trkpt lat="47.2716" lon="-1.48463">
        <ele>85</ele>
        <time>2022-08-06T07:34:31Z</time>
      </trkpt>
      <trkpt lat="47.2717" lon="-1.48456">
        <ele>85</ele>
        <time>2022-08-06T07:34:33Z</time>
      </trkpt>
      <trkpt lat="47.2718" lon="-1.48448">
        <ele>85</ele>
        <time>2022-08-06T07:34:35Z</time>
      </trkpt>
      <trkpt lat="47.2719" lon="-1.48439">
        <ele>86</ele>
        <time>2022-08-06T07:34:37Z</time>
      </trkpt>
      <trkpt lat="47.272" lon="-1.4843">
        <ele>86</ele>
        <time>2022-08-06T07:34:39Z</time>
      </trkpt>
      <trkpt lat="47.2721" lon="-1.48421">
        <ele>86</ele>
        <time>2022-08-06T07:34:41Z</time>
      </trkpt>
      <trkpt lat="47.27221" lon="-1.48412">
        <ele>86</ele>
        <time>2022-08-06T07:34:43Z</time>
      </trkpt>
      <trkpt lat="47.27232" lon="-1.48404">
        <ele>86</ele>
        <time>2022-08-06T07:34:45Z</time>
      </trkpt>
      <trkpt lat="47.27242" lon="-1.48396">
        <ele>86</ele>
        <time>2022-08-06T07:34:47Z</time>
      </trkpt>
      <trkpt lat="47.27253" lon="-1.48388">
        <ele>86</ele>
        <time>2022-08-06T07:34:49Z</time>
      </trkpt>
      <trkpt lat="47.27262" lon="-1.4838">
        <ele>87</ele>
        <time>2022-08-06T07:34:51Z</time>
      </trkpt>
      <trkpt lat="47.27272" lon="-1.48372">
        <ele>87</ele>
        <time>2022-08-06T07:34:53Z</time>
      </trkpt>
      <trkpt lat="47.27281" lon="-1.48363">
        <ele>87</ele>
        <time>2022-08-06T07:34:55Z</time>
      </trkpt>
      <trkpt lat="47.27292" lon="-1.48356">
        <ele>86</ele>
        <time>2022-08-06T07:34:57Z</time>
      </trkpt>
      <trkpt lat="47.27302" lon="-1.4835">
        <ele>87</ele>
        <time>2022-08-06T07:34:59Z</time>
      </trkpt>
      <trkpt lat="47.27313" lon="-1.48344">
        <ele>87</ele>
        <time>2022-08-06T07:35:01Z</time>
      </trkpt>
      <trkpt lat="47.27323" lon="-1.48337">
        <ele>87</ele>
        <time>2022-08-06T07:35:03Z</time>
      </trkpt>
      <trkpt lat="47.27335" lon="-1.48332">
        <ele>88</ele>
        <time>2022-08-06T07:35:05Z</time>
      </trkpt>
      <trkpt lat="47.27346" lon="-1.48327">
        <ele>88</ele>
        <time>2022-08-06T07:35:07Z</time>
      </trkpt>
      <trkpt lat="47.27357" lon="-1.48324">
        <ele>89</ele>
        <time>2022-08-06T07:35:09Z</time>
      </trkpt>
      <trkpt lat="47.27368" lon="-1.48323">
        <ele>89</ele>
        <time>2022-08-06T07:35:11Z</time>
      </trkpt>
      <trkpt lat="47.27382" lon="-1.48322">
        <ele>88</ele>
        <time>2022-08-06T07:35:13Z</time>
      </trkpt>
      <trkpt lat="47.27394" lon="-1.48324">
        <ele>87</ele>
        <time>2022-08-06T07:35:15Z</time>
      </trkpt>
      <trkpt lat="47.27405" lon="-1.48327">
        <ele>87</ele>
        <time>2022-08-06T07:35:17Z</time>
      </trkpt>
      <trkpt lat="47.27416" lon="-1.48329">
        <ele>87</ele>
        <time>2022-08-06T07:35:19Z</time>
      </trkpt>
      <trkpt lat="47.27427" lon="-1.48331">
        <ele>87</ele>
        <time>2022-08-06T07:35:21Z</time>
      </trkpt>
      <trkpt lat="47.27438" lon="-1.48333">
        <ele>86</ele>
        <time>2022-08-06T07:35:23Z</time>
      </trkpt>
      <trkpt lat="47.2745" lon="-1.48333">
        <ele>86</ele>
        <time>2022-08-06T07:35:25Z</time>
      </trkpt>
      <trkpt lat="47.27461" lon="-1.48335">
        <ele>86</ele>
        <time>2022-08-06T07:35:27Z</time>
      </trkpt>
      <trkpt lat="47.27472" lon="-1.48336">
        <ele>86</ele>
        <time>2022-08-06T07:35:29Z</time>
      </trkpt>
      <trkpt lat="47.27484" lon="-1.48338">
        <ele>87</ele>
        <time>2022-08-06T07:35:31Z</time>
      </trkpt>
      <trkpt lat="47.27495" lon="-1.48339">
        <ele>87</ele>
        <time>2022-08-06T07:35:33Z</time>
      </trkpt>
      <trkpt lat="47.27509" lon="-1.48342">
        <ele>87</ele>
        <time>2022-08-06T07:35:35Z</time>
      </trkpt>
      <trkpt lat="47.27521" lon="-1.48343">
        <ele>88</ele>
        <time>2022-08-06T07:35:37Z</time>
      </trkpt>
      <trkpt lat="47.27533" lon="-1.48344">
        <ele>88</ele>
        <time>2022-08-06T07:35:39Z</time>
      </trkpt>
      <trkpt lat="47.27544" lon="-1.48346">
        <ele>87</ele>
        <time>2022-08-06T07:35:41Z</time>
      </trkpt>
      <trkpt lat="47.27555" lon="-1.48348">
        <ele>88</ele>
        <time>2022-08-06T07:35:43Z</time>
      </trkpt>
      <trkpt lat="47.27569" lon="-1.48347">
        <ele>88</ele>
        <time>2022-08-06T07:35:45Z</time>
      </trkpt>
      <trkpt lat="47.27582" lon="-1.48346">
        <ele>88</ele>
        <time>2022-08-06T07:35:47Z</time>
      </trkpt>
      <trkpt lat="47.27593" lon="-1.48344">
        <ele>88</ele>
        <time>2022-08-06T07:35:49Z</time>
      </trkpt>
      <trkpt lat="47.27606" lon="-1.48341">
        <ele>89</ele>
        <time>2022-08-06T07:35:51Z</time>
      </trkpt>
      <trkpt lat="47.27618" lon="-1.48338">
        <ele>89</ele>
        <time>2022-08-06T07:35:53Z</time>
      </trkpt>
      <trkpt lat="47.2763" lon="-1.48336">
        <ele>89</ele>
        <time>2022-08-06T07:35:55Z</time>
      </trkpt>
      <trkpt lat="47.27642" lon="-1.48332">
        <ele>89</ele>
        <time>2022-08-06T07:35:57Z</time>
      </trkpt>
      <trkpt lat="47.27654" lon="-1.4833">
        <ele>88</ele>
        <time>2022-08-06T07:35:59Z</time>
      </trkpt>
      <trkpt lat="47.27666" lon="-1.48331">
        <ele>87</ele>
        <time>2022-08-06T07:36:01Z</time>
      </trkpt>
      <trkpt lat="47.27679" lon="-1.48332">
        <ele>87</ele>
        <time>2022-08-06T07:36:03Z</time>
      </trkpt>
      <trkpt lat="47.27692" lon="-1.48336">
        <ele>86</ele>
        <time>2022-08-06T07:36:05Z</time>
      </trkpt>
      <trkpt lat="47.27705" lon="-1.48343">
        <ele>85</ele>
        <time>2022-08-06T07:36:07Z</time>
      </trkpt>
      <trkpt lat="47.27718" lon="-1.48351">
        <ele>83</ele>
        <time>2022-08-06T07:36:09Z</time>
      </trkpt>
      <trkpt lat="47.2773" lon="-1.48361">
        <ele>83</ele>
        <time>2022-08-06T07:36:11Z</time>
      </trkpt>
      <trkpt lat="47.27742" lon="-1.48372">
        <ele>82</ele>
        <time>2022-08-06T07:36:13Z</time>
      </trkpt>
      <trkpt lat="47.27755" lon="-1.48383">
        <ele>81</ele>
        <time>2022-08-06T07:36:15Z</time>
      </trkpt>
      <trkpt lat="47.27768" lon="-1.48394">
        <ele>81</ele>
        <time>2022-08-06T07:36:17Z</time>
      </trkpt>
      <trkpt lat="47.27779" lon="-1.48406">
        <ele>80</ele>
        <time>2022-08-06T07:36:19Z</time>
      </trkpt>
      <trkpt lat="47.27792" lon="-1.48418">
        <ele>80</ele>
        <time>2022-08-06T07:36:21Z</time>
      </trkpt>
      <trkpt lat="47.27805" lon="-1.4843">
        <ele>79</ele>
        <time>2022-08-06T07:36:23Z</time>
      </trkpt>
      <trkpt lat="47.27818" lon="-1.4844">
        <ele>79</ele>
        <time>2022-08-06T07:36:25Z</time>
      </trkpt>
      <trkpt lat="47.27831" lon="-1.48449">
        <ele>79</ele>
        <time>2022-08-06T07:36:27Z</time>
      </trkpt>
      <trkpt lat="47.27845" lon="-1.48456">
        <ele>79</ele>
        <time>2022-08-06T07:36:29Z</time>
      </trkpt>
      <trkpt lat="47.27858" lon="-1.48462">
        <ele>78</ele>
        <time>2022-08-06T07:36:31Z</time>
      </trkpt>
      <trkpt lat="47.27873" lon="-1.48467">
        <ele>77</ele>
        <time>2022-08-06T07:36:33Z</time>
      </trkpt>
      <trkpt lat="47.27887" lon="-1.48473">
        <ele>77</ele>
        <time>2022-08-06T07:36:35Z</time>
      </trkpt>
      <trkpt lat="47.27901" lon="-1.4848">
        <ele>76</ele>
        <time>2022-08-06T07:36:37Z</time>
      </trkpt>
      <trkpt lat="47.27915" lon="-1.48487">
        <ele>75</ele>
        <time>2022-08-06T07:36:39Z</time>
      </trkpt>
      <trkpt lat="47.27937" lon="-1.48496">
        <ele>74</ele>
        <time>2022-08-06T07:36:42Z</time>
      </trkpt>
      <trkpt lat="47.27951" lon="-1.48502">
        <ele>74</ele>
        <time>2022-08-06T07:36:44Z</time>
      </trkpt>
      <trkpt lat="47.27964" lon="-1.48508">
        <ele>74</ele>
        <time>2022-08-06T07:36:46Z</time>
      </trkpt>
      <trkpt lat="47.27977" lon="-1.48514">
        <ele>73</ele>
        <time>2022-08-06T07:36:48Z</time>
      </trkpt>
      <trkpt lat="47.27988" lon="-1.48511">
        <ele>73</ele>
        <time>2022-08-06T07:36:50Z</time>
      </trkpt>
      <trkpt lat="47.27997" lon="-1.48519">
        <ele>73</ele>
        <time>2022-08-06T07:36:52Z</time>
      </trkpt>
      <trkpt lat="47.28006" lon="-1.48527">
        <ele>73</ele>
        <time>2022-08-06T07:36:54Z</time>
      </trkpt>
      <trkpt lat="47.2802" lon="-1.4853">
        <ele>73</ele>
        <time>2022-08-06T07:36:56Z</time>
      </trkpt>
      <trkpt lat="47.28035" lon="-1.48532">
        <ele>71</ele>
        <time>2022-08-06T07:36:58Z</time>
      </trkpt>
      <trkpt lat="47.28056" lon="-1.48537">
        <ele>71</ele>
        <time>2022-08-06T07:37:01Z</time>
      </trkpt>
      <trkpt lat="47.2807" lon="-1.48535">
        <ele>71</ele>
        <time>2022-08-06T07:37:03Z</time>
      </trkpt>
      <trkpt lat="47.28084" lon="-1.48534">
        <ele>71</ele>
        <time>2022-08-06T07:37:05Z</time>
      </trkpt>
      <trkpt lat="47.28098" lon="-1.48534">
        <ele>70</ele>
        <time>2022-08-06T07:37:07Z</time>
      </trkpt>
      <trkpt lat="47.28113" lon="-1.48533">
        <ele>71</ele>
        <time>2022-08-06T07:37:09Z</time>
      </trkpt>
      <trkpt lat="47.28128" lon="-1.48532">
        <ele>71</ele>
        <time>2022-08-06T07:37:11Z</time>
      </trkpt>
      <trkpt lat="47.28142" lon="-1.48531">
        <ele>72</ele>
        <time>2022-08-06T07:37:13Z</time>
      </trkpt>
      <trkpt lat="47.28156" lon="-1.4853">
        <ele>72</ele>
        <time>2022-08-06T07:37:15Z</time>
      </trkpt>
      <trkpt lat="47.2817" lon="-1.4853">
        <ele>72</ele>
        <time>2022-08-06T07:37:17Z</time>
      </trkpt>
      <trkpt lat="47.28191" lon="-1.48529">
        <ele>72</ele>
        <time>2022-08-06T07:37:20Z</time>
      </trkpt>
      <trkpt lat="47.28203" lon="-1.48522">
        <ele>71</ele>
        <time>2022-08-06T07:37:22Z</time>
      </trkpt>
      <trkpt lat="47.28206" lon="-1.48504">
        <ele>70</ele>
        <time>2022-08-06T07:37:24Z</time>
      </trkpt>
      <trkpt lat="47.28215" lon="-1.48497">
        <ele>71</ele>
        <time>2022-08-06T07:37:26Z</time>
      </trkpt>
      <trkpt lat="47.28228" lon="-1.48503">
        <ele>70</ele>
        <time>2022-08-06T07:37:28Z</time>
      </trkpt>
      <trkpt lat="47.28238" lon="-1.48516">
        <ele>70</ele>
        <time>2022-08-06T07:37:30Z</time>
      </trkpt>
      <trkpt lat="47.28249" lon="-1.48528">
        <ele>69</ele>
        <time>2022-08-06T07:37:32Z</time>
      </trkpt>
      <trkpt lat="47.28262" lon="-1.48538">
        <ele>69</ele>
        <time>2022-08-06T07:37:34Z</time>
      </trkpt>
      <trkpt lat="47.28274" lon="-1.48548">
        <ele>69</ele>
        <time>2022-08-06T07:37:36Z</time>
      </trkpt>
      <trkpt lat="47.28285" lon="-1.48558">
        <ele>70</ele>
        <time>2022-08-06T07:37:38Z</time>
      </trkpt>
      <trkpt lat="47.28295" lon="-1.4857">
        <ele>71</ele>
        <time>2022-08-06T07:37:40Z</time>
      </trkpt>
      <trkpt lat="47.28303" lon="-1.48588">
        <ele>71</ele>
        <time>2022-08-06T07:37:42Z</time>
      </trkpt>
      <trkpt lat="47.28313" lon="-1.48605">
        <ele>71</ele>
        <time>2022-08-06T07:37:44Z</time>
      </trkpt>
      <trkpt lat="47.28325" lon="-1.48614">
        <ele>71</ele>
        <time>2022-08-06T07:37:46Z</time>
      </trkpt>
      <trkpt lat="47.28337" lon="-1.48617">
        <ele>72</ele>
        <time>2022-08-06T07:37:48Z</time>
      </trkpt>
      <trkpt lat="47.28349" lon="-1.48621">
        <ele>72</ele>
        <time>2022-08-06T07:37:50Z</time>
      </trkpt>
      <trkpt lat="47.28361" lon="-1.48629">
        <ele>71</ele>
        <time>2022-08-06T07:37:52Z</time>
      </trkpt>
      <trkpt lat="47.28372" lon="-1.4864">
        <ele>71</ele>
        <time>2022-08-06T07:37:54Z</time>
      </trkpt>
      <trkpt lat="47.28384" lon="-1.48646">
        <ele>71</ele>
        <time>2022-08-06T07:37:56Z</time>
      </trkpt>
      <trkpt lat="47.28396" lon="-1.48644">
        <ele>71</ele>
        <time>2022-08-06T07:37:58Z</time>
      </trkpt>
      <trkpt lat="47.28408" lon="-1.48639">
        <ele>72</ele>
        <time>2022-08-06T07:38:00Z</time>
      </trkpt>
      <trkpt lat="47.28419" lon="-1.48633">
        <ele>73</ele>
        <time>2022-08-06T07:38:02Z</time>
      </trkpt>
      <trkpt lat="47.28429" lon="-1.48625">
        <ele>75</ele>
        <time>2022-08-06T07:38:04Z</time>
      </trkpt>
      <trkpt lat="47.28438" lon="-1.48617">
        <ele>76</ele>
        <time>2022-08-06T07:38:06Z</time>
      </trkpt>
      <trkpt lat="47.28447" lon="-1.48608">
        <ele>77</ele>
        <time>2022-08-06T07:38:08Z</time>
      </trkpt>
      <trkpt lat="47.28457" lon="-1.486">
        <ele>78</ele>
        <time>2022-08-06T07:38:10Z</time>
      </trkpt>
      <trkpt lat="47.28467" lon="-1.48592">
        <ele>79</ele>
        <time>2022-08-06T07:38:12Z</time>
      </trkpt>
      <trkpt lat="47.28477" lon="-1.48584">
        <ele>80</ele>
        <time>2022-08-06T07:38:14Z</time>
      </trkpt>
      <trkpt lat="47.28487" lon="-1.48576">
        <ele>81</ele>
        <time>2022-08-06T07:38:16Z</time>
      </trkpt>
      <trkpt lat="47.28495" lon="-1.48569">
        <ele>81</ele>
        <time>2022-08-06T07:38:18Z</time>
      </trkpt>
      <trkpt lat="47.28505" lon="-1.48561">
        <ele>82</ele>
        <time>2022-08-06T07:38:20Z</time>
      </trkpt>
      <trkpt lat="47.28514" lon="-1.48554">
        <ele>82</ele>
        <time>2022-08-06T07:38:22Z</time>
      </trkpt>
      <trkpt lat="47.28523" lon="-1.48545">
        <ele>82</ele>
        <time>2022-08-06T07:38:24Z</time>
      </trkpt>
      <trkpt lat="47.28533" lon="-1.48536">
        <ele>82</ele>
        <time>2022-08-06T07:38:26Z</time>
      </trkpt>
      <trkpt lat="47.28543" lon="-1.48528">
        <ele>82</ele>
        <time>2022-08-06T07:38:28Z</time>
      </trkpt>
      <trkpt lat="47.28553" lon="-1.48519">
        <ele>82</ele>
        <time>2022-08-06T07:38:30Z</time>
      </trkpt>
      <trkpt lat="47.28563" lon="-1.48511">
        <ele>82</ele>
        <time>2022-08-06T07:38:32Z</time>
      </trkpt>
      <trkpt lat="47.28572" lon="-1.48504">
        <ele>82</ele>
        <time>2022-08-06T07:38:34Z</time>
      </trkpt>
      <trkpt lat="47.28581" lon="-1.48496">
        <ele>83</ele>
        <time>2022-08-06T07:38:36Z</time>
      </trkpt>
      <trkpt lat="47.2859" lon="-1.48488">
        <ele>83</ele>
        <time>2022-08-06T07:38:38Z</time>
      </trkpt>
      <trkpt lat="47.286" lon="-1.48481">
        <ele>83</ele>
        <time>2022-08-06T07:38:40Z</time>
      </trkpt>
      <trkpt lat="47.28609" lon="-1.48474">
        <ele>83</ele>
        <time>2022-08-06T07:38:42Z</time>
      </trkpt>
      <trkpt lat="47.28618" lon="-1.48466">
        <ele>83</ele>
        <time>2022-08-06T07:38:44Z</time>
      </trkpt>
      <trkpt lat="47.28628" lon="-1.48459">
        <ele>83</ele>
        <time>2022-08-06T07:38:46Z</time>
      </trkpt>
      <trkpt lat="47.28638" lon="-1.48453">
        <ele>83</ele>
        <time>2022-08-06T07:38:48Z</time>
      </trkpt>
      <trkpt lat="47.28648" lon="-1.48447">
        <ele>83</ele>
        <time>2022-08-06T07:38:50Z</time>
      </trkpt>
      <trkpt lat="47.28658" lon="-1.48441">
        <ele>83</ele>
        <time>2022-08-06T07:38:52Z</time>
      </trkpt>
      <trkpt lat="47.28668" lon="-1.48437">
        <ele>83</ele>
        <time>2022-08-06T07:38:54Z</time>
      </trkpt>
      <trkpt lat="47.28678" lon="-1.48432">
        <ele>83</ele>
        <time>2022-08-06T07:38:56Z</time>
      </trkpt>
      <trkpt lat="47.28689" lon="-1.48428">
        <ele>83</ele>
        <time>2022-08-06T07:38:58Z</time>
      </trkpt>
      <trkpt lat="47.28699" lon="-1.48424">
        <ele>84</ele>
        <time>2022-08-06T07:39:00Z</time>
      </trkpt>
      <trkpt lat="47.28709" lon="-1.48421">
        <ele>85</ele>
        <time>2022-08-06T07:39:02Z</time>
      </trkpt>
      <trkpt lat="47.28719" lon="-1.48417">
        <ele>85</ele>
        <time>2022-08-06T07:39:04Z</time>
      </trkpt>
      <trkpt lat="47.2873" lon="-1.48414">
        <ele>85</ele>
        <time>2022-08-06T07:39:06Z</time>
      </trkpt>
      <trkpt lat="47.2874" lon="-1.4841">
        <ele>86</ele>
        <time>2022-08-06T07:39:08Z</time>
      </trkpt>
      <trkpt lat="47.2875" lon="-1.48407">
        <ele>86</ele>
        <time>2022-08-06T07:39:10Z</time>
      </trkpt>
      <trkpt lat="47.28761" lon="-1.48399">
        <ele>87</ele>
        <time>2022-08-06T07:39:13Z</time>
      </trkpt>
      <trkpt lat="47.28769" lon="-1.48383">
        <ele>85</ele>
        <time>2022-08-06T07:39:16Z</time>
      </trkpt>
      <trkpt lat="47.28779" lon="-1.48377">
        <ele>84</ele>
        <time>2022-08-06T07:39:18Z</time>
      </trkpt>
      <trkpt lat="47.2879" lon="-1.48378">
        <ele>83</ele>
        <time>2022-08-06T07:39:20Z</time>
      </trkpt>
      <trkpt lat="47.28801" lon="-1.48384">
        <ele>81</ele>
        <time>2022-08-06T07:39:22Z</time>
      </trkpt>
      <trkpt lat="47.28811" lon="-1.48395">
        <ele>81</ele>
        <time>2022-08-06T07:39:24Z</time>
      </trkpt>
      <trkpt lat="47.28821" lon="-1.48403">
        <ele>80</ele>
        <time>2022-08-06T07:39:26Z</time>
      </trkpt>
      <trkpt lat="47.28832" lon="-1.48407">
        <ele>80</ele>
        <time>2022-08-06T07:39:28Z</time>
      </trkpt>
      <trkpt lat="47.28844" lon="-1.48413">
        <ele>80</ele>
        <time>2022-08-06T07:39:30Z</time>
      </trkpt>
      <trkpt lat="47.28855" lon="-1.48419">
        <ele>80</ele>
        <time>2022-08-06T07:39:32Z</time>
      </trkpt>
      <trkpt lat="47.28867" lon="-1.48424">
        <ele>80</ele>
        <time>2022-08-06T07:39:34Z</time>
      </trkpt>
      <trkpt lat="47.28879" lon="-1.48429">
        <ele>80</ele>
        <time>2022-08-06T07:39:36Z</time>
      </trkpt>
      <trkpt lat="47.28891" lon="-1.48435">
        <ele>79</ele>
        <time>2022-08-06T07:39:38Z</time>
      </trkpt>
      <trkpt lat="47.28903" lon="-1.48442">
        <ele>80</ele>
        <time>2022-08-06T07:39:40Z</time>
      </trkpt>
      <trkpt lat="47.28915" lon="-1.48448">
        <ele>80</ele>
        <time>2022-08-06T07:39:42Z</time>
      </trkpt>
      <trkpt lat="47.28926" lon="-1.48456">
        <ele>80</ele>
        <time>2022-08-06T07:39:44Z</time>
      </trkpt>
      <trkpt lat="47.28937" lon="-1.48465">
        <ele>81</ele>
        <time>2022-08-06T07:39:46Z</time>
      </trkpt>
      <trkpt lat="47.28949" lon="-1.48471">
        <ele>80</ele>
        <time>2022-08-06T07:39:48Z</time>
      </trkpt>
      <trkpt lat="47.2896" lon="-1.4848">
        <ele>79</ele>
        <time>2022-08-06T07:39:50Z</time>
      </trkpt>
      <trkpt lat="47.28971" lon="-1.48489">
        <ele>80</ele>
        <time>2022-08-06T07:39:52Z</time>
      </trkpt>
      <trkpt lat="47.28984" lon="-1.48498">
        <ele>79</ele>
        <time>2022-08-06T07:39:54Z</time>
      </trkpt>
      <trkpt lat="47.28996" lon="-1.48507">
        <ele>79</ele>
        <time>2022-08-06T07:39:56Z</time>
      </trkpt>
      <trkpt lat="47.29008" lon="-1.48516">
        <ele>79</ele>
        <time>2022-08-06T07:39:58Z</time>
      </trkpt>
      <trkpt lat="47.2902" lon="-1.48524">
        <ele>79</ele>
        <time>2022-08-06T07:40:00Z</time>
      </trkpt>
      <trkpt lat="47.29033" lon="-1.48534">
        <ele>79</ele>
        <time>2022-08-06T07:40:02Z</time>
      </trkpt>
      <trkpt lat="47.29045" lon="-1.48543">
        <ele>79</ele>
        <time>2022-08-06T07:40:04Z</time>
      </trkpt>
      <trkpt lat="47.29057" lon="-1.4855">
        <ele>79</ele>
        <time>2022-08-06T07:40:06Z</time>
      </trkpt>
      <trkpt lat="47.2907" lon="-1.48557">
        <ele>77</ele>
        <time>2022-08-06T07:40:08Z</time>
      </trkpt>
      <trkpt lat="47.2908" lon="-1.48569">
        <ele>76</ele>
        <time>2022-08-06T07:40:10Z</time>
      </trkpt>
      <trkpt lat="47.29092" lon="-1.48577">
        <ele>76</ele>
        <time>2022-08-06T07:40:12Z</time>
      </trkpt>
      <trkpt lat="47.29104" lon="-1.48585">
        <ele>75</ele>
        <time>2022-08-06T07:40:14Z</time>
      </trkpt>
      <trkpt lat="47.29115" lon="-1.48593">
        <ele>76</ele>
        <time>2022-08-06T07:40:16Z</time>
      </trkpt>
      <trkpt lat="47.29127" lon="-1.48602">
        <ele>76</ele>
        <time>2022-08-06T07:40:18Z</time>
      </trkpt>
      <trkpt lat="47.29138" lon="-1.4861">
        <ele>75</ele>
        <time>2022-08-06T07:40:20Z</time>
      </trkpt>
      <trkpt lat="47.2915" lon="-1.48619">
        <ele>74</ele>
        <time>2022-08-06T07:40:22Z</time>
      </trkpt>
      <trkpt lat="47.29161" lon="-1.48628">
        <ele>74</ele>
        <time>2022-08-06T07:40:24Z</time>
      </trkpt>
      <trkpt lat="47.29172" lon="-1.48637">
        <ele>74</ele>
        <time>2022-08-06T07:40:26Z</time>
      </trkpt>
      <trkpt lat="47.29184" lon="-1.48646">
        <ele>74</ele>
        <time>2022-08-06T07:40:28Z</time>
      </trkpt>
      <trkpt lat="47.29195" lon="-1.48654">
        <ele>74</ele>
        <time>2022-08-06T07:40:30Z</time>
      </trkpt>
      <trkpt lat="47.29206" lon="-1.48663">
        <ele>74</ele>
        <time>2022-08-06T07:40:32Z</time>
      </trkpt>
      <trkpt lat="47.29218" lon="-1.48672">
        <ele>74</ele>
        <time>2022-08-06T07:40:34Z</time>
      </trkpt>
      <trkpt lat="47.29228" lon="-1.4868">
        <ele>74</ele>
        <time>2022-08-06T07:40:36Z</time>
      </trkpt>
      <trkpt lat="47.29237" lon="-1.48687">
        <ele>74</ele>
        <time>2022-08-06T07:40:38Z</time>
      </trkpt>
      <trkpt lat="47.29246" lon="-1.48685">
        <ele>74</ele>
        <time>2022-08-06T07:40:40Z</time>
      </trkpt>
      <trkpt lat="47.29259" lon="-1.48681">
        <ele>74</ele>
        <time>2022-08-06T07:40:43Z</time>
      </trkpt>
      <trkpt lat="47.29271" lon="-1.48689">
        <ele>73</ele>
        <time>2022-08-06T07:40:45Z</time>
      </trkpt>
      <trkpt lat="47.29275" lon="-1.48702">
        <ele>73</ele>
        <time>2022-08-06T07:40:47Z</time>
      </trkpt>
      <trkpt lat="47.29277" lon="-1.48718">
        <ele>74</ele>
        <time>2022-08-06T07:40:49Z</time>
      </trkpt>
      <trkpt lat="47.29285" lon="-1.48729">
        <ele>74</ele>
        <time>2022-08-06T07:40:51Z</time>
      </trkpt>
      <trkpt lat="47.29295" lon="-1.48737">
        <ele>75</ele>
        <time>2022-08-06T07:40:53Z</time>
      </trkpt>
      <trkpt lat="47.29305" lon="-1.48745">
        <ele>76</ele>
        <time>2022-08-06T07:40:55Z</time>
      </trkpt>
      <trkpt lat="47.29316" lon="-1.48754">
        <ele>76</ele>
        <time>2022-08-06T07:40:57Z</time>
      </trkpt>
      <trkpt lat="47.29326" lon="-1.48761">
        <ele>77</ele>
        <time>2022-08-06T07:40:59Z</time>
      </trkpt>
      <trkpt lat="47.29335" lon="-1.48769">
        <ele>78</ele>
        <time>2022-08-06T07:41:01Z</time>
      </trkpt>
      <trkpt lat="47.29346" lon="-1.48778">
        <ele>78</ele>
        <time>2022-08-06T07:41:03Z</time>
      </trkpt>
      <trkpt lat="47.29357" lon="-1.48784">
        <ele>78</ele>
        <time>2022-08-06T07:41:05Z</time>
      </trkpt>
      <trkpt lat="47.29369" lon="-1.48787">
        <ele>77</ele>
        <time>2022-08-06T07:41:07Z</time>
      </trkpt>
      <trkpt lat="47.29379" lon="-1.48789">
        <ele>77</ele>
        <time>2022-08-06T07:41:09Z</time>
      </trkpt>
      <trkpt lat="47.2939" lon="-1.48786">
        <ele>77</ele>
        <time>2022-08-06T07:41:11Z</time>
      </trkpt>
      <trkpt lat="47.294" lon="-1.48781">
        <ele>76</ele>
        <time>2022-08-06T07:41:13Z</time>
      </trkpt>
      <trkpt lat="47.29411" lon="-1.4878">
        <ele>76</ele>
        <time>2022-08-06T07:41:15Z</time>
      </trkpt>
      <trkpt lat="47.2942" lon="-1.48773">
        <ele>77</ele>
        <time>2022-08-06T07:41:17Z</time>
      </trkpt>
      <trkpt lat="47.29429" lon="-1.48766">
        <ele>77</ele>
        <time>2022-08-06T07:41:19Z</time>
      </trkpt>
      <trkpt lat="47.29439" lon="-1.48758">
        <ele>78</ele>
        <time>2022-08-06T07:41:21Z</time>
      </trkpt>
      <trkpt lat="47.29449" lon="-1.48748">
        <ele>79</ele>
        <time>2022-08-06T07:41:23Z</time>
      </trkpt>
      <trkpt lat="47.29459" lon="-1.4874">
        <ele>79</ele>
        <time>2022-08-06T07:41:25Z</time>
      </trkpt>
      <trkpt lat="47.29469" lon="-1.48732">
        <ele>79</ele>
        <time>2022-08-06T07:41:27Z</time>
      </trkpt>
      <trkpt lat="47.29478" lon="-1.48724">
        <ele>80</ele>
        <time>2022-08-06T07:41:29Z</time>
      </trkpt>
      <trkpt lat="47.29488" lon="-1.48716">
        <ele>81</ele>
        <time>2022-08-06T07:41:31Z</time>
      </trkpt>
      <trkpt lat="47.29497" lon="-1.48708">
        <ele>83</ele>
        <time>2022-08-06T07:41:33Z</time>
      </trkpt>
      <trkpt lat="47.29507" lon="-1.48701">
        <ele>83</ele>
        <time>2022-08-06T07:41:35Z</time>
      </trkpt>
      <trkpt lat="47.29516" lon="-1.48694">
        <ele>84</ele>
        <time>2022-08-06T07:41:37Z</time>
      </trkpt>
      <trkpt lat="47.29526" lon="-1.48687">
        <ele>85</ele>
        <time>2022-08-06T07:41:39Z</time>
      </trkpt>
      <trkpt lat="47.29537" lon="-1.48682">
        <ele>84</ele>
        <time>2022-08-06T07:41:41Z</time>
      </trkpt>
      <trkpt lat="47.29548" lon="-1.48677">
        <ele>84</ele>
        <time>2022-08-06T07:41:43Z</time>
      </trkpt>
      <trkpt lat="47.2956" lon="-1.48672">
        <ele>83</ele>
        <time>2022-08-06T07:41:45Z</time>
      </trkpt>
      <trkpt lat="47.29572" lon="-1.48666">
        <ele>82</ele>
        <time>2022-08-06T07:41:47Z</time>
      </trkpt>
      <trkpt lat="47.29584" lon="-1.48662">
        <ele>81</ele>
        <time>2022-08-06T07:41:49Z</time>
      </trkpt>
      <trkpt lat="47.29596" lon="-1.48657">
        <ele>80</ele>
        <time>2022-08-06T07:41:51Z</time>
      </trkpt>
      <trkpt lat="47.29607" lon="-1.48653">
        <ele>80</ele>
        <time>2022-08-06T07:41:53Z</time>
      </trkpt>
      <trkpt lat="47.29619" lon="-1.48648">
        <ele>79</ele>
        <time>2022-08-06T07:41:55Z</time>
      </trkpt>
      <trkpt lat="47.29629" lon="-1.48637">
        <ele>78</ele>
        <time>2022-08-06T07:41:57Z</time>
      </trkpt>
      <trkpt lat="47.29638" lon="-1.48624">
        <ele>78</ele>
        <time>2022-08-06T07:41:59Z</time>
      </trkpt>
      <trkpt lat="47.29648" lon="-1.48615">
        <ele>78</ele>
        <time>2022-08-06T07:42:01Z</time>
      </trkpt>
      <trkpt lat="47.29659" lon="-1.48609">
        <ele>78</ele>
        <time>2022-08-06T07:42:03Z</time>
      </trkpt>
      <trkpt lat="47.2967" lon="-1.48605">
        <ele>78</ele>
        <time>2022-08-06T07:42:05Z</time>
      </trkpt>
      <trkpt lat="47.29681" lon="-1.48599">
        <ele>78</ele>
        <time>2022-08-06T07:42:07Z</time>
      </trkpt>
      <trkpt lat="47.29693" lon="-1.48599">
        <ele>78</ele>
        <time>2022-08-06T07:42:09Z</time>
      </trkpt>
      <trkpt lat="47.29705" lon="-1.48603">
        <ele>78</ele>
        <time>2022-08-06T07:42:11Z</time>
      </trkpt>
      <trkpt lat="47.29716" lon="-1.48608">
        <ele>78</ele>
        <time>2022-08-06T07:42:13Z</time>
      </trkpt>
      <trkpt lat="47.29729" lon="-1.48612">
        <ele>78</ele>
        <time>2022-08-06T07:42:15Z</time>
      </trkpt>
      <trkpt lat="47.29741" lon="-1.48615">
        <ele>78</ele>
        <time>2022-08-06T07:42:17Z</time>
      </trkpt>
      <trkpt lat="47.29752" lon="-1.48617">
        <ele>77</ele>
        <time>2022-08-06T07:42:19Z</time>
      </trkpt>
      <trkpt lat="47.29763" lon="-1.48619">
        <ele>77</ele>
        <time>2022-08-06T07:42:21Z</time>
      </trkpt>
      <trkpt lat="47.29775" lon="-1.4862">
        <ele>77</ele>
        <time>2022-08-06T07:42:24Z</time>
      </trkpt>
      <trkpt lat="47.29788" lon="-1.48619">
        <ele>77</ele>
        <time>2022-08-06T07:42:27Z</time>
      </trkpt>
      <trkpt lat="47.298" lon="-1.4862">
        <ele>77</ele>
        <time>2022-08-06T07:42:29Z</time>
      </trkpt>
      <trkpt lat="47.29812" lon="-1.48622">
        <ele>78</ele>
        <time>2022-08-06T07:42:31Z</time>
      </trkpt>
      <trkpt lat="47.29825" lon="-1.48624">
        <ele>78</ele>
        <time>2022-08-06T07:42:33Z</time>
      </trkpt>
      <trkpt lat="47.29838" lon="-1.48625">
        <ele>78</ele>
        <time>2022-08-06T07:42:35Z</time>
      </trkpt>
      <trkpt lat="47.29851" lon="-1.48627">
        <ele>78</ele>
        <time>2022-08-06T07:42:37Z</time>
      </trkpt>
      <trkpt lat="47.29864" lon="-1.48628">
        <ele>78</ele>
        <time>2022-08-06T07:42:39Z</time>
      </trkpt>
      <trkpt lat="47.29877" lon="-1.48629">
        <ele>79</ele>
        <time>2022-08-06T07:42:41Z</time>
      </trkpt>
      <trkpt lat="47.2989" lon="-1.48628">
        <ele>79</ele>
        <time>2022-08-06T07:42:43Z</time>
      </trkpt>
      <trkpt lat="47.29903" lon="-1.48627">
        <ele>79</ele>
        <time>2022-08-06T07:42:45Z</time>
      </trkpt>
      <trkpt lat="47.29916" lon="-1.48627">
        <ele>79</ele>
        <time>2022-08-06T07:42:47Z</time>
      </trkpt>
      <trkpt lat="47.29929" lon="-1.48626">
        <ele>78</ele>
        <time>2022-08-06T07:42:49Z</time>
      </trkpt>
      <trkpt lat="47.29942" lon="-1.48626">
        <ele>78</ele>
        <time>2022-08-06T07:42:51Z</time>
      </trkpt>
      <trkpt lat="47.29955" lon="-1.48625">
        <ele>77</ele>
        <time>2022-08-06T07:42:53Z</time>
      </trkpt>
      <trkpt lat="47.29968" lon="-1.48624">
        <ele>77</ele>
        <time>2022-08-06T07:42:55Z</time>
      </trkpt>
      <trkpt lat="47.2998" lon="-1.48622">
        <ele>77</ele>
        <time>2022-08-06T07:42:57Z</time>
      </trkpt>
      <trkpt lat="47.29991" lon="-1.48618">
        <ele>78</ele>
        <time>2022-08-06T07:42:59Z</time>
      </trkpt>
      <trkpt lat="47.30006" lon="-1.48614">
        <ele>80</ele>
        <time>2022-08-06T07:43:01Z</time>
      </trkpt>
      <trkpt lat="47.3002" lon="-1.48611">
        <ele>80</ele>
        <time>2022-08-06T07:43:03Z</time>
      </trkpt>
      <trkpt lat="47.30034" lon="-1.48608">
        <ele>81</ele>
        <time>2022-08-06T07:43:05Z</time>
      </trkpt>
      <trkpt lat="47.30046" lon="-1.48606">
        <ele>81</ele>
        <time>2022-08-06T07:43:07Z</time>
      </trkpt>
      <trkpt lat="47.30059" lon="-1.48603">
        <ele>80</ele>
        <time>2022-08-06T07:43:09Z</time>
      </trkpt>
      <trkpt lat="47.30072" lon="-1.48599">
        <ele>80</ele>
        <time>2022-08-06T07:43:11Z</time>
      </trkpt>
      <trkpt lat="47.30085" lon="-1.48594">
        <ele>79</ele>
        <time>2022-08-06T07:43:13Z</time>
      </trkpt>
      <trkpt lat="47.30099" lon="-1.48589">
        <ele>79</ele>
        <time>2022-08-06T07:43:15Z</time>
      </trkpt>
      <trkpt lat="47.30112" lon="-1.48585">
        <ele>78</ele>
        <time>2022-08-06T07:43:17Z</time>
      </trkpt>
      <trkpt lat="47.30126" lon="-1.4858">
        <ele>78</ele>
        <time>2022-08-06T07:43:19Z</time>
      </trkpt>
      <trkpt lat="47.30139" lon="-1.48574">
        <ele>78</ele>
        <time>2022-08-06T07:43:21Z</time>
      </trkpt>
      <trkpt lat="47.30152" lon="-1.48568">
        <ele>78</ele>
        <time>2022-08-06T07:43:23Z</time>
      </trkpt>
      <trkpt lat="47.30165" lon="-1.48563">
        <ele>77</ele>
        <time>2022-08-06T07:43:25Z</time>
      </trkpt>
      <trkpt lat="47.30178" lon="-1.48557">
        <ele>77</ele>
        <time>2022-08-06T07:43:27Z</time>
      </trkpt>
      <trkpt lat="47.30192" lon="-1.4855">
        <ele>77</ele>
        <time>2022-08-06T07:43:29Z</time>
      </trkpt>
      <trkpt lat="47.30205" lon="-1.48543">
        <ele>75</ele>
        <time>2022-08-06T07:43:31Z</time>
      </trkpt>
      <trkpt lat="47.30218" lon="-1.48536">
        <ele>75</ele>
        <time>2022-08-06T07:43:33Z</time>
      </trkpt>
      <trkpt lat="47.30231" lon="-1.48528">
        <ele>74</ele>
        <time>2022-08-06T07:43:35Z</time>
      </trkpt>
      <trkpt lat="47.30243" lon="-1.4852">
        <ele>74</ele>
        <time>2022-08-06T07:43:37Z</time>
      </trkpt>
      <trkpt lat="47.30255" lon="-1.48511">
        <ele>73</ele>
        <time>2022-08-06T07:43:39Z</time>
      </trkpt>
      <trkpt lat="47.30267" lon="-1.48502">
        <ele>73</ele>
        <time>2022-08-06T07:43:41Z</time>
      </trkpt>
      <trkpt lat="47.3028" lon="-1.48493">
        <ele>73</ele>
        <time>2022-08-06T07:43:43Z</time>
      </trkpt>
      <trkpt lat="47.30291" lon="-1.48484">
        <ele>73</ele>
        <time>2022-08-06T07:43:45Z</time>
      </trkpt>
      <trkpt lat="47.30303" lon="-1.48474">
        <ele>73</ele>
        <time>2022-08-06T07:43:47Z</time>
      </trkpt>
      <trkpt lat="47.30314" lon="-1.48466">
        <ele>74</ele>
        <time>2022-08-06T07:43:49Z</time>
      </trkpt>
      <trkpt lat="47.30324" lon="-1.48457">
        <ele>73</ele>
        <time>2022-08-06T07:43:51Z</time>
      </trkpt>
      <trkpt lat="47.30334" lon="-1.4845">
        <ele>73</ele>
        <time>2022-08-06T07:43:53Z</time>
      </trkpt>
      <trkpt lat="47.30343" lon="-1.48445">
        <ele>72</ele>
        <time>2022-08-06T07:43:55Z</time>
      </trkpt>
      <trkpt lat="47.30352" lon="-1.48438">
        <ele>72</ele>
        <time>2022-08-06T07:43:58Z</time>
      </trkpt>
      <trkpt lat="47.30359" lon="-1.48426">
        <ele>73</ele>
        <time>2022-08-06T07:44:01Z</time>
      </trkpt>
      <trkpt lat="47.30367" lon="-1.48419">
        <ele>74</ele>
        <time>2022-08-06T07:44:03Z</time>
      </trkpt>
      <trkpt lat="47.30377" lon="-1.4841">
        <ele>74</ele>
        <time>2022-08-06T07:44:06Z</time>
      </trkpt>
      <trkpt lat="47.30385" lon="-1.48401">
        <ele>74</ele>
        <time>2022-08-06T07:44:08Z</time>
      </trkpt>
      <trkpt lat="47.30395" lon="-1.48392">
        <ele>74</ele>
        <time>2022-08-06T07:44:10Z</time>
      </trkpt>
      <trkpt lat="47.30406" lon="-1.48382">
        <ele>73</ele>
        <time>2022-08-06T07:44:12Z</time>
      </trkpt>
      <trkpt lat="47.30418" lon="-1.4837">
        <ele>72</ele>
        <time>2022-08-06T07:44:14Z</time>
      </trkpt>
      <trkpt lat="47.30429" lon="-1.4836">
        <ele>71</ele>
        <time>2022-08-06T07:44:16Z</time>
      </trkpt>
      <trkpt lat="47.3044" lon="-1.48348">
        <ele>71</ele>
        <time>2022-08-06T07:44:18Z</time>
      </trkpt>
      <trkpt lat="47.30451" lon="-1.48336">
        <ele>70</ele>
        <time>2022-08-06T07:44:20Z</time>
      </trkpt>
      <trkpt lat="47.30461" lon="-1.48324">
        <ele>69</ele>
        <time>2022-08-06T07:44:22Z</time>
      </trkpt>
      <trkpt lat="47.30472" lon="-1.48313">
        <ele>69</ele>
        <time>2022-08-06T07:44:24Z</time>
      </trkpt>
      <trkpt lat="47.30481" lon="-1.483">
        <ele>69</ele>
        <time>2022-08-06T07:44:26Z</time>
      </trkpt>
      <trkpt lat="47.30492" lon="-1.48287">
        <ele>69</ele>
        <time>2022-08-06T07:44:28Z</time>
      </trkpt>
      <trkpt lat="47.30502" lon="-1.48274">
        <ele>68</ele>
        <time>2022-08-06T07:44:30Z</time>
      </trkpt>
      <trkpt lat="47.30512" lon="-1.4826">
        <ele>68</ele>
        <time>2022-08-06T07:44:32Z</time>
      </trkpt>
      <trkpt lat="47.30521" lon="-1.48246">
        <ele>68</ele>
        <time>2022-08-06T07:44:34Z</time>
      </trkpt>
      <trkpt lat="47.30531" lon="-1.48231">
        <ele>67</ele>
        <time>2022-08-06T07:44:36Z</time>
      </trkpt>
      <trkpt lat="47.3054" lon="-1.48216">
        <ele>67</ele>
        <time>2022-08-06T07:44:38Z</time>
      </trkpt>
      <trkpt lat="47.30548" lon="-1.48201">
        <ele>67</ele>
        <time>2022-08-06T07:44:40Z</time>
      </trkpt>
      <trkpt lat="47.30557" lon="-1.48186">
        <ele>67</ele>
        <time>2022-08-06T07:44:42Z</time>
      </trkpt>
      <trkpt lat="47.30566" lon="-1.48171">
        <ele>67</ele>
        <time>2022-08-06T07:44:44Z</time>
      </trkpt>
      <trkpt lat="47.30575" lon="-1.48155">
        <ele>68</ele>
        <time>2022-08-06T07:44:46Z</time>
      </trkpt>
      <trkpt lat="47.30584" lon="-1.4814">
        <ele>68</ele>
        <time>2022-08-06T07:44:48Z</time>
      </trkpt>
      <trkpt lat="47.30593" lon="-1.48126">
        <ele>68</ele>
        <time>2022-08-06T07:44:50Z</time>
      </trkpt>
      <trkpt lat="47.30602" lon="-1.48111">
        <ele>68</ele>
        <time>2022-08-06T07:44:52Z</time>
      </trkpt>
      <trkpt lat="47.3061" lon="-1.48097">
        <ele>68</ele>
        <time>2022-08-06T07:44:54Z</time>
      </trkpt>
      <trkpt lat="47.3062" lon="-1.48084">
        <ele>67</ele>
        <time>2022-08-06T07:44:56Z</time>
      </trkpt>
      <trkpt lat="47.30631" lon="-1.48082">
        <ele>67</ele>
        <time>2022-08-06T07:44:58Z</time>
      </trkpt>
      <trkpt lat="47.30645" lon="-1.48088">
        <ele>66</ele>
        <time>2022-08-06T07:45:00Z</time>
      </trkpt>
      <trkpt lat="47.30657" lon="-1.48096">
        <ele>65</ele>
        <time>2022-08-06T07:45:02Z</time>
      </trkpt>
      <trkpt lat="47.30667" lon="-1.48107">
        <ele>64</ele>
        <time>2022-08-06T07:45:04Z</time>
      </trkpt>
      <trkpt lat="47.30677" lon="-1.48118">
        <ele>64</ele>
        <time>2022-08-06T07:45:06Z</time>
      </trkpt>
      <trkpt lat="47.30687" lon="-1.48128">
        <ele>64</ele>
        <time>2022-08-06T07:45:08Z</time>
      </trkpt>
      <trkpt lat="47.30697" lon="-1.48139">
        <ele>64</ele>
        <time>2022-08-06T07:45:10Z</time>
      </trkpt>
      <trkpt lat="47.30706" lon="-1.4815">
        <ele>64</ele>
        <time>2022-08-06T07:45:12Z</time>
      </trkpt>
      <trkpt lat="47.30711" lon="-1.48162">
        <ele>64</ele>
        <time>2022-08-06T07:45:14Z</time>
      </trkpt>
      <trkpt lat="47.30714" lon="-1.48177">
        <ele>64</ele>
        <time>2022-08-06T07:45:16Z</time>
      </trkpt>
      <trkpt lat="47.30717" lon="-1.48192">
        <ele>63</ele>
        <time>2022-08-06T07:45:18Z</time>
      </trkpt>
      <trkpt lat="47.3072" lon="-1.48206">
        <ele>62</ele>
        <time>2022-08-06T07:45:20Z</time>
      </trkpt>
      <trkpt lat="47.3073" lon="-1.48212">
        <ele>61</ele>
        <time>2022-08-06T07:45:22Z</time>
      </trkpt>
      <trkpt lat="47.30741" lon="-1.48208">
        <ele>61</ele>
        <time>2022-08-06T07:45:24Z</time>
      </trkpt>
      <trkpt lat="47.30749" lon="-1.48198">
        <ele>60</ele>
        <time>2022-08-06T07:45:26Z</time>
      </trkpt>
      <trkpt lat="47.30757" lon="-1.48186">
        <ele>61</ele>
        <time>2022-08-06T07:45:28Z</time>
      </trkpt>
      <trkpt lat="47.30756" lon="-1.48171">
        <ele>62</ele>
        <time>2022-08-06T07:45:31Z</time>
      </trkpt>
      <trkpt lat="47.30746" lon="-1.48166">
        <ele>62</ele>
        <time>2022-08-06T07:45:34Z</time>
      </trkpt>
      <trkpt lat="47.30736" lon="-1.48157">
        <ele>64</ele>
        <time>2022-08-06T07:45:37Z</time>
      </trkpt>
      <trkpt lat="47.30735" lon="-1.48174">
        <ele>65</ele>
        <time>2022-08-06T07:45:44Z</time>
      </trkpt>
      <trkpt lat="47.3074" lon="-1.48186">
        <ele>65</ele>
        <time>2022-08-06T07:45:46Z</time>
      </trkpt>
      <trkpt lat="47.30745" lon="-1.48198">
        <ele>65</ele>
        <time>2022-08-06T07:45:48Z</time>
      </trkpt>
      <trkpt lat="47.30754" lon="-1.48211">
        <ele>65</ele>
        <time>2022-08-06T07:45:51Z</time>
      </trkpt>
      <trkpt lat="47.30764" lon="-1.48212">
        <ele>65</ele>
        <time>2022-08-06T07:45:54Z</time>
      </trkpt>
      <trkpt lat="47.30769" lon="-1.48199">
        <ele>66</ele>
        <time>2022-08-06T07:46:03Z</time>
      </trkpt>
      <trkpt lat="47.30773" lon="-1.48184">
        <ele>66</ele>
        <time>2022-08-06T07:46:06Z</time>
      </trkpt>
      <trkpt lat="47.30776" lon="-1.48169">
        <ele>66</ele>
        <time>2022-08-06T07:46:08Z</time>
      </trkpt>
      <trkpt lat="47.30779" lon="-1.48153">
        <ele>66</ele>
        <time>2022-08-06T07:46:10Z</time>
      </trkpt>
      <trkpt lat="47.30783" lon="-1.48137">
        <ele>66</ele>
        <time>2022-08-06T07:46:12Z</time>
      </trkpt>
      <trkpt lat="47.30787" lon="-1.4812">
        <ele>66</ele>
        <time>2022-08-06T07:46:14Z</time>
      </trkpt>
      <trkpt lat="47.30791" lon="-1.48104">
        <ele>65</ele>
        <time>2022-08-06T07:46:16Z</time>
      </trkpt>
      <trkpt lat="47.30796" lon="-1.48087">
        <ele>65</ele>
        <time>2022-08-06T07:46:18Z</time>
      </trkpt>
      <trkpt lat="47.30798" lon="-1.4807">
        <ele>65</ele>
        <time>2022-08-06T07:46:20Z</time>
      </trkpt>
      <trkpt lat="47.30796" lon="-1.48054">
        <ele>64</ele>
        <time>2022-08-06T07:46:22Z</time>
      </trkpt>
      <trkpt lat="47.30789" lon="-1.48042">
        <ele>64</ele>
        <time>2022-08-06T07:46:24Z</time>
      </trkpt>
      <trkpt lat="47.30781" lon="-1.48038">
        <ele>64</ele>
        <time>2022-08-06T07:46:27Z</time>
      </trkpt>
      <trkpt lat="47.30777" lon="-1.48054">
        <ele>63</ele>
        <time>2022-08-06T07:46:30Z</time>
      </trkpt>
      <trkpt lat="47.30777" lon="-1.48068">
        <ele>62</ele>
        <time>2022-08-06T07:46:32Z</time>
      </trkpt>
      <trkpt lat="47.30776" lon="-1.48083">
        <ele>61</ele>
        <time>2022-08-06T07:46:34Z</time>
      </trkpt>
      <trkpt lat="47.30765" lon="-1.48092">
        <ele>61</ele>
        <time>2022-08-06T07:46:37Z</time>
      </trkpt>
      <trkpt lat="47.30761" lon="-1.48075">
        <ele>61</ele>
        <time>2022-08-06T07:46:40Z</time>
      </trkpt>
      <trkpt lat="47.30761" lon="-1.48059">
        <ele>61</ele>
        <time>2022-08-06T07:46:42Z</time>
      </trkpt>
      <trkpt lat="47.30763" lon="-1.48043">
        <ele>60</ele>
        <time>2022-08-06T07:46:44Z</time>
      </trkpt>
      <trkpt lat="47.30768" lon="-1.48028">
        <ele>60</ele>
        <time>2022-08-06T07:46:46Z</time>
      </trkpt>
      <trkpt lat="47.30774" lon="-1.48014">
        <ele>60</ele>
        <time>2022-08-06T07:46:48Z</time>
      </trkpt>
      <trkpt lat="47.30782" lon="-1.48002">
        <ele>59</ele>
        <time>2022-08-06T07:46:50Z</time>
      </trkpt>
      <trkpt lat="47.30789" lon="-1.47991">
        <ele>59</ele>
        <time>2022-08-06T07:46:52Z</time>
      </trkpt>
      <trkpt lat="47.30795" lon="-1.47973">
        <ele>60</ele>
        <time>2022-08-06T07:46:55Z</time>
      </trkpt>
      <trkpt lat="47.30795" lon="-1.47957">
        <ele>61</ele>
        <time>2022-08-06T07:46:58Z</time>
      </trkpt>
      <trkpt lat="47.30785" lon="-1.47953">
        <ele>60</ele>
        <time>2022-08-06T07:47:00Z</time>
      </trkpt>
      <trkpt lat="47.30772" lon="-1.47949">
        <ele>61</ele>
        <time>2022-08-06T07:47:02Z</time>
      </trkpt>
      <trkpt lat="47.30759" lon="-1.47948">
        <ele>60</ele>
        <time>2022-08-06T07:47:04Z</time>
      </trkpt>
      <trkpt lat="47.30746" lon="-1.4795">
        <ele>61</ele>
        <time>2022-08-06T07:47:06Z</time>
      </trkpt>
      <trkpt lat="47.30733" lon="-1.47953">
        <ele>61</ele>
        <time>2022-08-06T07:47:08Z</time>
      </trkpt>
      <trkpt lat="47.30719" lon="-1.47954">
        <ele>62</ele>
        <time>2022-08-06T07:47:10Z</time>
      </trkpt>
      <trkpt lat="47.30711" lon="-1.47949">
        <ele>62</ele>
        <time>2022-08-06T07:47:12Z</time>
      </trkpt>
      <trkpt lat="47.30713" lon="-1.47929">
        <ele>63</ele>
        <time>2022-08-06T07:47:15Z</time>
      </trkpt>
      <trkpt lat="47.30721" lon="-1.47916">
        <ele>63</ele>
        <time>2022-08-06T07:47:17Z</time>
      </trkpt>
      <trkpt lat="47.3073" lon="-1.47901">
        <ele>64</ele>
        <time>2022-08-06T07:47:19Z</time>
      </trkpt>
      <trkpt lat="47.30737" lon="-1.47886">
        <ele>64</ele>
        <time>2022-08-06T07:47:21Z</time>
      </trkpt>
      <trkpt lat="47.30745" lon="-1.47871">
        <ele>64</ele>
        <time>2022-08-06T07:47:23Z</time>
      </trkpt>
      <trkpt lat="47.30753" lon="-1.47856">
        <ele>64</ele>
        <time>2022-08-06T07:47:25Z</time>
      </trkpt>
      <trkpt lat="47.30763" lon="-1.47839">
        <ele>64</ele>
        <time>2022-08-06T07:47:27Z</time>
      </trkpt>
      <trkpt lat="47.30772" lon="-1.47824">
        <ele>65</ele>
        <time>2022-08-06T07:47:29Z</time>
      </trkpt>
      <trkpt lat="47.30782" lon="-1.47808">
        <ele>65</ele>
        <time>2022-08-06T07:47:31Z</time>
      </trkpt>
      <trkpt lat="47.30792" lon="-1.47793">
        <ele>64</ele>
        <time>2022-08-06T07:47:33Z</time>
      </trkpt>
      <trkpt lat="47.30801" lon="-1.47776">
        <ele>64</ele>
        <time>2022-08-06T07:47:35Z</time>
      </trkpt>
      <trkpt lat="47.3081" lon="-1.4776">
        <ele>65</ele>
        <time>2022-08-06T07:47:37Z</time>
      </trkpt>
      <trkpt lat="47.30818" lon="-1.47744">
        <ele>66</ele>
        <time>2022-08-06T07:47:39Z</time>
      </trkpt>
      <trkpt lat="47.30826" lon="-1.47729">
        <ele>67</ele>
        <time>2022-08-06T07:47:41Z</time>
      </trkpt>
      <trkpt lat="47.30835" lon="-1.47715">
        <ele>67</ele>
        <time>2022-08-06T07:47:43Z</time>
      </trkpt>
      <trkpt lat="47.30844" lon="-1.47699">
        <ele>67</ele>
        <time>2022-08-06T07:47:45Z</time>
      </trkpt>
      <trkpt lat="47.30852" lon="-1.47685">
        <ele>67</ele>
        <time>2022-08-06T07:47:47Z</time>
      </trkpt>
      <trkpt lat="47.30861" lon="-1.47673">
        <ele>68</ele>
        <time>2022-08-06T07:47:49Z</time>
      </trkpt>
      <trkpt lat="47.30869" lon="-1.47658">
        <ele>68</ele>
        <time>2022-08-06T07:47:51Z</time>
      </trkpt>
      <trkpt lat="47.30878" lon="-1.47644">
        <ele>67</ele>
        <time>2022-08-06T07:47:53Z</time>
      </trkpt>
      <trkpt lat="47.30886" lon="-1.4763">
        <ele>68</ele>
        <time>2022-08-06T07:47:55Z</time>
      </trkpt>
      <trkpt lat="47.30894" lon="-1.47615">
        <ele>69</ele>
        <time>2022-08-06T07:47:57Z</time>
      </trkpt>
      <trkpt lat="47.30903" lon="-1.47599">
        <ele>69</ele>
        <time>2022-08-06T07:47:59Z</time>
      </trkpt>
      <trkpt lat="47.30912" lon="-1.47583">
        <ele>69</ele>
        <time>2022-08-06T07:48:01Z</time>
      </trkpt>
      <trkpt lat="47.30921" lon="-1.47569">
        <ele>69</ele>
        <time>2022-08-06T07:48:03Z</time>
      </trkpt>
      <trkpt lat="47.3093" lon="-1.47554">
        <ele>70</ele>
        <time>2022-08-06T07:48:05Z</time>
      </trkpt>
      <trkpt lat="47.30939" lon="-1.47539">
        <ele>70</ele>
        <time>2022-08-06T07:48:07Z</time>
      </trkpt>
      <trkpt lat="47.3095" lon="-1.47524">
        <ele>70</ele>
        <time>2022-08-06T07:48:09Z</time>
      </trkpt>
      <trkpt lat="47.3096" lon="-1.47507">
        <ele>70</ele>
        <time>2022-08-06T07:48:11Z</time>
      </trkpt>
      <trkpt lat="47.30969" lon="-1.47491">
        <ele>69</ele>
        <time>2022-08-06T07:48:13Z</time>
      </trkpt>
      <trkpt lat="47.30979" lon="-1.47477">
        <ele>69</ele>
        <time>2022-08-06T07:48:15Z</time>
      </trkpt>
      <trkpt lat="47.30987" lon="-1.47462">
        <ele>68</ele>
        <time>2022-08-06T07:48:17Z</time>
      </trkpt>
      <trkpt lat="47.30997" lon="-1.47447">
        <ele>68</ele>
        <time>2022-08-06T07:48:19Z</time>
      </trkpt>
      <trkpt lat="47.31007" lon="-1.47432">
        <ele>68</ele>
        <time>2022-08-06T07:48:21Z</time>
      </trkpt>
      <trkpt lat="47.31015" lon="-1.47417">
        <ele>68</ele>
        <time>2022-08-06T07:48:23Z</time>
      </trkpt>
      <trkpt lat="47.31024" lon="-1.47402">
        <ele>69</ele>
        <time>2022-08-06T07:48:25Z</time>
      </trkpt>
      <trkpt lat="47.31032" lon="-1.47388">
        <ele>69</ele>
        <time>2022-08-06T07:48:27Z</time>
      </trkpt>
      <trkpt lat="47.31041" lon="-1.47374">
        <ele>69</ele>
        <time>2022-08-06T07:48:29Z</time>
      </trkpt>
      <trkpt lat="47.3105" lon="-1.4736">
        <ele>69</ele>
        <time>2022-08-06T07:48:31Z</time>
      </trkpt>
      <trkpt lat="47.31058" lon="-1.47346">
        <ele>69</ele>
        <time>2022-08-06T07:48:33Z</time>
      </trkpt>
      <trkpt lat="47.31066" lon="-1.47331">
        <ele>69</ele>
        <time>2022-08-06T07:48:35Z</time>
      </trkpt>
      <trkpt lat="47.31073" lon="-1.47317">
        <ele>69</ele>
        <time>2022-08-06T07:48:37Z</time>
      </trkpt>
      <trkpt lat="47.31079" lon="-1.47304">
        <ele>70</ele>
        <time>2022-08-06T07:48:39Z</time>
      </trkpt>
      <trkpt lat="47.31084" lon="-1.47293">
        <ele>69</ele>
        <time>2022-08-06T07:48:41Z</time>
      </trkpt>
      <trkpt lat="47.3109" lon="-1.47282">
        <ele>69</ele>
        <time>2022-08-06T07:48:43Z</time>
      </trkpt>
      <trkpt lat="47.31096" lon="-1.47272">
        <ele>70</ele>
        <time>2022-08-06T07:48:46Z</time>
      </trkpt>
      <trkpt lat="47.31104" lon="-1.47266">
        <ele>69</ele>
        <time>2022-08-06T07:48:49Z</time>
      </trkpt>
      <trkpt lat="47.31112" lon="-1.47256">
        <ele>69</ele>
        <time>2022-08-06T07:48:51Z</time>
      </trkpt>
      <trkpt lat="47.31119" lon="-1.47242">
        <ele>69</ele>
        <time>2022-08-06T07:48:53Z</time>
      </trkpt>
      <trkpt lat="47.31126" lon="-1.4723">
        <ele>69</ele>
        <time>2022-08-06T07:48:55Z</time>
      </trkpt>
      <trkpt lat="47.31133" lon="-1.47215">
        <ele>69</ele>
        <time>2022-08-06T07:48:58Z</time>
      </trkpt>
      <trkpt lat="47.31143" lon="-1.47202">
        <ele>69</ele>
        <time>2022-08-06T07:49:01Z</time>
      </trkpt>
      <trkpt lat="47.3115" lon="-1.47189">
        <ele>68</ele>
        <time>2022-08-06T07:49:03Z</time>
      </trkpt>
      <trkpt lat="47.31157" lon="-1.47177">
        <ele>68</ele>
        <time>2022-08-06T07:49:05Z</time>
      </trkpt>
      <trkpt lat="47.31166" lon="-1.47164">
        <ele>69</ele>
        <time>2022-08-06T07:49:07Z</time>
      </trkpt>
      <trkpt lat="47.31173" lon="-1.47151">
        <ele>68</ele>
        <time>2022-08-06T07:49:09Z</time>
      </trkpt>
      <trkpt lat="47.31181" lon="-1.47138">
        <ele>68</ele>
        <time>2022-08-06T07:49:11Z</time>
      </trkpt>
      <trkpt lat="47.31189" lon="-1.47125">
        <ele>68</ele>
        <time>2022-08-06T07:49:13Z</time>
      </trkpt>
      <trkpt lat="47.31197" lon="-1.47111">
        <ele>68</ele>
        <time>2022-08-06T07:49:15Z</time>
      </trkpt>
      <trkpt lat="47.31204" lon="-1.47097">
        <ele>69</ele>
        <time>2022-08-06T07:49:17Z</time>
      </trkpt>
      <trkpt lat="47.31213" lon="-1.47085">
        <ele>70</ele>
        <time>2022-08-06T07:49:19Z</time>
      </trkpt>
      <trkpt lat="47.31221" lon="-1.47071">
        <ele>70</ele>
        <time>2022-08-06T07:49:21Z</time>
      </trkpt>
      <trkpt lat="47.31229" lon="-1.47058">
        <ele>70</ele>
        <time>2022-08-06T07:49:23Z</time>
      </trkpt>
      <trkpt lat="47.31237" lon="-1.47044">
        <ele>71</ele>
        <time>2022-08-06T07:49:25Z</time>
      </trkpt>
      <trkpt lat="47.31244" lon="-1.4703">
        <ele>72</ele>
        <time>2022-08-06T07:49:27Z</time>
      </trkpt>
      <trkpt lat="47.31252" lon="-1.47016">
        <ele>73</ele>
        <time>2022-08-06T07:49:29Z</time>
      </trkpt>
      <trkpt lat="47.31261" lon="-1.47003">
        <ele>73</ele>
        <time>2022-08-06T07:49:31Z</time>
      </trkpt>
      <trkpt lat="47.31268" lon="-1.4699">
        <ele>73</ele>
        <time>2022-08-06T07:49:33Z</time>
      </trkpt>
      <trkpt lat="47.31277" lon="-1.46976">
        <ele>74</ele>
        <time>2022-08-06T07:49:35Z</time>
      </trkpt>
      <trkpt lat="47.31286" lon="-1.46963">
        <ele>74</ele>
        <time>2022-08-06T07:49:37Z</time>
      </trkpt>
      <trkpt lat="47.31294" lon="-1.4695">
        <ele>75</ele>
        <time>2022-08-06T07:49:39Z</time>
      </trkpt>
      <trkpt lat="47.31301" lon="-1.46937">
        <ele>74</ele>
        <time>2022-08-06T07:49:41Z</time>
      </trkpt>
      <trkpt lat="47.31309" lon="-1.46923">
        <ele>74</ele>
        <time>2022-08-06T07:49:43Z</time>
      </trkpt>
      <trkpt lat="47.31316" lon="-1.4691">
        <ele>73</ele>
        <time>2022-08-06T07:49:45Z</time>
      </trkpt>
      <trkpt lat="47.31324" lon="-1.46897">
        <ele>73</ele>
        <time>2022-08-06T07:49:47Z</time>
      </trkpt>
      <trkpt lat="47.31332" lon="-1.46885">
        <ele>73</ele>
        <time>2022-08-06T07:49:49Z</time>
      </trkpt>
      <trkpt lat="47.31339" lon="-1.46872">
        <ele>73</ele>
        <time>2022-08-06T07:49:51Z</time>
      </trkpt>
      <trkpt lat="47.31347" lon="-1.46859">
        <ele>73</ele>
        <time>2022-08-06T07:49:53Z</time>
      </trkpt>
      <trkpt lat="47.31355" lon="-1.46845">
        <ele>73</ele>
        <time>2022-08-06T07:49:55Z</time>
      </trkpt>
      <trkpt lat="47.31363" lon="-1.46832">
        <ele>73</ele>
        <time>2022-08-06T07:49:57Z</time>
      </trkpt>
      <trkpt lat="47.31371" lon="-1.46819">
        <ele>73</ele>
        <time>2022-08-06T07:49:59Z</time>
      </trkpt>
      <trkpt lat="47.31379" lon="-1.46806">
        <ele>74</ele>
        <time>2022-08-06T07:50:01Z</time>
      </trkpt>
      <trkpt lat="47.31387" lon="-1.46791">
        <ele>74</ele>
        <time>2022-08-06T07:50:03Z</time>
      </trkpt>
      <trkpt lat="47.31394" lon="-1.46778">
        <ele>74</ele>
        <time>2022-08-06T07:50:05Z</time>
      </trkpt>
      <trkpt lat="47.31402" lon="-1.46765">
        <ele>74</ele>
        <time>2022-08-06T07:50:07Z</time>
      </trkpt>
      <trkpt lat="47.31409" lon="-1.46752">
        <ele>75</ele>
        <time>2022-08-06T07:50:09Z</time>
      </trkpt>
      <trkpt lat="47.31418" lon="-1.4674">
        <ele>75</ele>
        <time>2022-08-06T07:50:11Z</time>
      </trkpt>
      <trkpt lat="47.31426" lon="-1.46728">
        <ele>75</ele>
        <time>2022-08-06T07:50:13Z</time>
      </trkpt>
      <trkpt lat="47.31434" lon="-1.46717">
        <ele>75</ele>
        <time>2022-08-06T07:50:15Z</time>
      </trkpt>
      <trkpt lat="47.31441" lon="-1.46707">
        <ele>74</ele>
        <time>2022-08-06T07:50:17Z</time>
      </trkpt>
      <trkpt lat="47.31449" lon="-1.46694">
        <ele>75</ele>
        <time>2022-08-06T07:50:19Z</time>
      </trkpt>
      <trkpt lat="47.31457" lon="-1.46681">
        <ele>75</ele>
        <time>2022-08-06T07:50:21Z</time>
      </trkpt>
      <trkpt lat="47.31464" lon="-1.46668">
        <ele>75</ele>
        <time>2022-08-06T07:50:23Z</time>
      </trkpt>
      <trkpt lat="47.31471" lon="-1.46654">
        <ele>75</ele>
        <time>2022-08-06T07:50:25Z</time>
      </trkpt>
      <trkpt lat="47.31479" lon="-1.46642">
        <ele>74</ele>
        <time>2022-08-06T07:50:27Z</time>
      </trkpt>
      <trkpt lat="47.31487" lon="-1.46629">
        <ele>74</ele>
        <time>2022-08-06T07:50:29Z</time>
      </trkpt>
      <trkpt lat="47.31495" lon="-1.46615">
        <ele>74</ele>
        <time>2022-08-06T07:50:31Z</time>
      </trkpt>
      <trkpt lat="47.31503" lon="-1.46602">
        <ele>74</ele>
        <time>2022-08-06T07:50:33Z</time>
      </trkpt>
      <trkpt lat="47.31511" lon="-1.46588">
        <ele>75</ele>
        <time>2022-08-06T07:50:35Z</time>
      </trkpt>
      <trkpt lat="47.31518" lon="-1.46575">
        <ele>75</ele>
        <time>2022-08-06T07:50:37Z</time>
      </trkpt>
      <trkpt lat="47.3153" lon="-1.46555">
        <ele>75</ele>
        <time>2022-08-06T07:50:40Z</time>
      </trkpt>
      <trkpt lat="47.31538" lon="-1.46541">
        <ele>74</ele>
        <time>2022-08-06T07:50:42Z</time>
      </trkpt>
      <trkpt lat="47.31546" lon="-1.46526">
        <ele>73</ele>
        <time>2022-08-06T07:50:44Z</time>
      </trkpt>
      <trkpt lat="47.31554" lon="-1.46514">
        <ele>73</ele>
        <time>2022-08-06T07:50:46Z</time>
      </trkpt>
      <trkpt lat="47.31562" lon="-1.46502">
        <ele>74</ele>
        <time>2022-08-06T07:50:48Z</time>
      </trkpt>
      <trkpt lat="47.31569" lon="-1.4649">
        <ele>74</ele>
        <time>2022-08-06T07:50:50Z</time>
      </trkpt>
      <trkpt lat="47.31577" lon="-1.46477">
        <ele>74</ele>
        <time>2022-08-06T07:50:52Z</time>
      </trkpt>
      <trkpt lat="47.31585" lon="-1.46464">
        <ele>74</ele>
        <time>2022-08-06T07:50:54Z</time>
      </trkpt>
      <trkpt lat="47.31593" lon="-1.46451">
        <ele>74</ele>
        <time>2022-08-06T07:50:56Z</time>
      </trkpt>
      <trkpt lat="47.31601" lon="-1.46438">
        <ele>75</ele>
        <time>2022-08-06T07:50:58Z</time>
      </trkpt>
      <trkpt lat="47.3161" lon="-1.46426">
        <ele>75</ele>
        <time>2022-08-06T07:51:00Z</time>
      </trkpt>
      <trkpt lat="47.31619" lon="-1.46414">
        <ele>75</ele>
        <time>2022-08-06T07:51:02Z</time>
      </trkpt>
      <trkpt lat="47.31627" lon="-1.46401">
        <ele>75</ele>
        <time>2022-08-06T07:51:04Z</time>
      </trkpt>
      <trkpt lat="47.31636" lon="-1.46388">
        <ele>75</ele>
        <time>2022-08-06T07:51:06Z</time>
      </trkpt>
      <trkpt lat="47.31645" lon="-1.46376">
        <ele>75</ele>
        <time>2022-08-06T07:51:08Z</time>
      </trkpt>
      <trkpt lat="47.31654" lon="-1.46364">
        <ele>75</ele>
        <time>2022-08-06T07:51:10Z</time>
      </trkpt>
      <trkpt lat="47.31664" lon="-1.46352">
        <ele>75</ele>
        <time>2022-08-06T07:51:12Z</time>
      </trkpt>
      <trkpt lat="47.31673" lon="-1.46341">
        <ele>76</ele>
        <time>2022-08-06T07:51:14Z</time>
      </trkpt>
      <trkpt lat="47.31683" lon="-1.46332">
        <ele>76</ele>
        <time>2022-08-06T07:51:16Z</time>
      </trkpt>
      <trkpt lat="47.31693" lon="-1.46323">
        <ele>77</ele>
        <time>2022-08-06T07:51:18Z</time>
      </trkpt>
      <trkpt lat="47.31703" lon="-1.46313">
        <ele>78</ele>
        <time>2022-08-06T07:51:20Z</time>
      </trkpt>
      <trkpt lat="47.31713" lon="-1.46302">
        <ele>78</ele>
        <time>2022-08-06T07:51:22Z</time>
      </trkpt>
      <trkpt lat="47.31723" lon="-1.46291">
        <ele>78</ele>
        <time>2022-08-06T07:51:24Z</time>
      </trkpt>
      <trkpt lat="47.31732" lon="-1.46281">
        <ele>79</ele>
        <time>2022-08-06T07:51:26Z</time>
      </trkpt>
      <trkpt lat="47.31742" lon="-1.46272">
        <ele>79</ele>
        <time>2022-08-06T07:51:28Z</time>
      </trkpt>
      <trkpt lat="47.31753" lon="-1.46265">
        <ele>80</ele>
        <time>2022-08-06T07:51:30Z</time>
      </trkpt>
      <trkpt lat="47.31765" lon="-1.46257">
        <ele>81</ele>
        <time>2022-08-06T07:51:32Z</time>
      </trkpt>
      <trkpt lat="47.31778" lon="-1.46249">
        <ele>81</ele>
        <time>2022-08-06T07:51:34Z</time>
      </trkpt>
      <trkpt lat="47.31789" lon="-1.46241">
        <ele>81</ele>
        <time>2022-08-06T07:51:36Z</time>
      </trkpt>
      <trkpt lat="47.318" lon="-1.46232">
        <ele>80</ele>
        <time>2022-08-06T07:51:38Z</time>
      </trkpt>
      <trkpt lat="47.3181" lon="-1.46224">
        <ele>80</ele>
        <time>2022-08-06T07:51:40Z</time>
      </trkpt>
      <trkpt lat="47.31822" lon="-1.46217">
        <ele>79</ele>
        <time>2022-08-06T07:51:42Z</time>
      </trkpt>
      <trkpt lat="47.31834" lon="-1.46212">
        <ele>78</ele>
        <time>2022-08-06T07:51:44Z</time>
      </trkpt>
      <trkpt lat="47.31847" lon="-1.46207">
        <ele>78</ele>
        <time>2022-08-06T07:51:46Z</time>
      </trkpt>
      <trkpt lat="47.31858" lon="-1.46201">
        <ele>78</ele>
        <time>2022-08-06T07:51:48Z</time>
      </trkpt>
      <trkpt lat="47.3187" lon="-1.46195">
        <ele>76</ele>
        <time>2022-08-06T07:51:50Z</time>
      </trkpt>
      <trkpt lat="47.31881" lon="-1.4619">
        <ele>76</ele>
        <time>2022-08-06T07:51:52Z</time>
      </trkpt>
      <trkpt lat="47.31892" lon="-1.46185">
        <ele>75</ele>
        <time>2022-08-06T07:51:54Z</time>
      </trkpt>
      <trkpt lat="47.31902" lon="-1.46182">
        <ele>75</ele>
        <time>2022-08-06T07:51:56Z</time>
      </trkpt>
      <trkpt lat="47.31912" lon="-1.46179">
        <ele>74</ele>
        <time>2022-08-06T07:51:58Z</time>
      </trkpt>
      <trkpt lat="47.31924" lon="-1.46174">
        <ele>74</ele>
        <time>2022-08-06T07:52:01Z</time>
      </trkpt>
      <trkpt lat="47.31937" lon="-1.46173">
        <ele>74</ele>
        <time>2022-08-06T07:52:04Z</time>
      </trkpt>
      <trkpt lat="47.31947" lon="-1.4617">
        <ele>75</ele>
        <time>2022-08-06T07:52:06Z</time>
      </trkpt>
      <trkpt lat="47.31958" lon="-1.46165">
        <ele>75</ele>
        <time>2022-08-06T07:52:09Z</time>
      </trkpt>
      <trkpt lat="47.31968" lon="-1.46157">
        <ele>76</ele>
        <time>2022-08-06T07:52:12Z</time>
      </trkpt>
      <trkpt lat="47.3198" lon="-1.46159">
        <ele>77</ele>
        <time>2022-08-06T07:52:15Z</time>
      </trkpt>
      <trkpt lat="47.31991" lon="-1.46157">
        <ele>78</ele>
        <time>2022-08-06T07:52:17Z</time>
      </trkpt>
      <trkpt lat="47.32003" lon="-1.46156">
        <ele>79</ele>
        <time>2022-08-06T07:52:19Z</time>
      </trkpt>
      <trkpt lat="47.32014" lon="-1.46154">
        <ele>79</ele>
        <time>2022-08-06T07:52:21Z</time>
      </trkpt>
      <trkpt lat="47.32026" lon="-1.46154">
        <ele>79</ele>
        <time>2022-08-06T07:52:23Z</time>
      </trkpt>
      <trkpt lat="47.32038" lon="-1.46154">
        <ele>81</ele>
        <time>2022-08-06T07:52:25Z</time>
      </trkpt>
      <trkpt lat="47.3205" lon="-1.46153">
        <ele>81</ele>
        <time>2022-08-06T07:52:27Z</time>
      </trkpt>
      <trkpt lat="47.32062" lon="-1.46153">
        <ele>81</ele>
        <time>2022-08-06T07:52:29Z</time>
      </trkpt>
      <trkpt lat="47.32073" lon="-1.46153">
        <ele>80</ele>
        <time>2022-08-06T07:52:31Z</time>
      </trkpt>
      <trkpt lat="47.32086" lon="-1.46153">
        <ele>80</ele>
        <time>2022-08-06T07:52:33Z</time>
      </trkpt>
      <trkpt lat="47.32098" lon="-1.46155">
        <ele>80</ele>
        <time>2022-08-06T07:52:35Z</time>
      </trkpt>
      <trkpt lat="47.32109" lon="-1.46155">
        <ele>79</ele>
        <time>2022-08-06T07:52:37Z</time>
      </trkpt>
      <trkpt lat="47.32122" lon="-1.46158">
        <ele>78</ele>
        <time>2022-08-06T07:52:39Z</time>
      </trkpt>
      <trkpt lat="47.32133" lon="-1.46161">
        <ele>78</ele>
        <time>2022-08-06T07:52:41Z</time>
      </trkpt>
      <trkpt lat="47.32145" lon="-1.46163">
        <ele>78</ele>
        <time>2022-08-06T07:52:43Z</time>
      </trkpt>
      <trkpt lat="47.32157" lon="-1.46165">
        <ele>78</ele>
        <time>2022-08-06T07:52:45Z</time>
      </trkpt>
      <trkpt lat="47.32169" lon="-1.46167">
        <ele>79</ele>
        <time>2022-08-06T07:52:47Z</time>
      </trkpt>
      <trkpt lat="47.3218" lon="-1.46168">
        <ele>79</ele>
        <time>2022-08-06T07:52:49Z</time>
      </trkpt>
      <trkpt lat="47.32192" lon="-1.46169">
        <ele>80</ele>
        <time>2022-08-06T07:52:51Z</time>
      </trkpt>
      <trkpt lat="47.32204" lon="-1.46169">
        <ele>80</ele>
        <time>2022-08-06T07:52:53Z</time>
      </trkpt>
      <trkpt lat="47.32214" lon="-1.4617">
        <ele>81</ele>
        <time>2022-08-06T07:52:55Z</time>
      </trkpt>
      <trkpt lat="47.32226" lon="-1.46172">
        <ele>81</ele>
        <time>2022-08-06T07:52:57Z</time>
      </trkpt>
      <trkpt lat="47.32237" lon="-1.46173">
        <ele>81</ele>
        <time>2022-08-06T07:52:59Z</time>
      </trkpt>
      <trkpt lat="47.32249" lon="-1.46174">
        <ele>81</ele>
        <time>2022-08-06T07:53:01Z</time>
      </trkpt>
      <trkpt lat="47.32262" lon="-1.46176">
        <ele>82</ele>
        <time>2022-08-06T07:53:03Z</time>
      </trkpt>
      <trkpt lat="47.32274" lon="-1.46177">
        <ele>82</ele>
        <time>2022-08-06T07:53:05Z</time>
      </trkpt>
      <trkpt lat="47.32286" lon="-1.46178">
        <ele>82</ele>
        <time>2022-08-06T07:53:07Z</time>
      </trkpt>
      <trkpt lat="47.32298" lon="-1.46179">
        <ele>83</ele>
        <time>2022-08-06T07:53:09Z</time>
      </trkpt>
      <trkpt lat="47.32309" lon="-1.46181">
        <ele>83</ele>
        <time>2022-08-06T07:53:11Z</time>
      </trkpt>
      <trkpt lat="47.32322" lon="-1.46183">
        <ele>83</ele>
        <time>2022-08-06T07:53:13Z</time>
      </trkpt>
      <trkpt lat="47.32334" lon="-1.46184">
        <ele>83</ele>
        <time>2022-08-06T07:53:15Z</time>
      </trkpt>
      <trkpt lat="47.32346" lon="-1.46187">
        <ele>82</ele>
        <time>2022-08-06T07:53:17Z</time>
      </trkpt>
      <trkpt lat="47.32358" lon="-1.46188">
        <ele>82</ele>
        <time>2022-08-06T07:53:19Z</time>
      </trkpt>
      <trkpt lat="47.3237" lon="-1.4619">
        <ele>82</ele>
        <time>2022-08-06T07:53:21Z</time>
      </trkpt>
      <trkpt lat="47.32382" lon="-1.46191">
        <ele>81</ele>
        <time>2022-08-06T07:53:23Z</time>
      </trkpt>
      <trkpt lat="47.32394" lon="-1.46192">
        <ele>81</ele>
        <time>2022-08-06T07:53:25Z</time>
      </trkpt>
      <trkpt lat="47.32405" lon="-1.46192">
        <ele>81</ele>
        <time>2022-08-06T07:53:27Z</time>
      </trkpt>
      <trkpt lat="47.32417" lon="-1.46193">
        <ele>81</ele>
        <time>2022-08-06T07:53:29Z</time>
      </trkpt>
      <trkpt lat="47.32429" lon="-1.46194">
        <ele>81</ele>
        <time>2022-08-06T07:53:31Z</time>
      </trkpt>
      <trkpt lat="47.3244" lon="-1.46194">
        <ele>81</ele>
        <time>2022-08-06T07:53:33Z</time>
      </trkpt>
      <trkpt lat="47.32452" lon="-1.46193">
        <ele>81</ele>
        <time>2022-08-06T07:53:35Z</time>
      </trkpt>
      <trkpt lat="47.32463" lon="-1.46192">
        <ele>81</ele>
        <time>2022-08-06T07:53:37Z</time>
      </trkpt>
      <trkpt lat="47.32474" lon="-1.4619">
        <ele>81</ele>
        <time>2022-08-06T07:53:39Z</time>
      </trkpt>
      <trkpt lat="47.32486" lon="-1.46189">
        <ele>81</ele>
        <time>2022-08-06T07:53:41Z</time>
      </trkpt>
      <trkpt lat="47.32497" lon="-1.46187">
        <ele>81</ele>
        <time>2022-08-06T07:53:43Z</time>
      </trkpt>
      <trkpt lat="47.32508" lon="-1.46185">
        <ele>81</ele>
        <time>2022-08-06T07:53:45Z</time>
      </trkpt>
      <trkpt lat="47.3252" lon="-1.46183">
        <ele>82</ele>
        <time>2022-08-06T07:53:47Z</time>
      </trkpt>
      <trkpt lat="47.32532" lon="-1.46181">
        <ele>82</ele>
        <time>2022-08-06T07:53:49Z</time>
      </trkpt>
      <trkpt lat="47.32544" lon="-1.4618">
        <ele>83</ele>
        <time>2022-08-06T07:53:51Z</time>
      </trkpt>
      <trkpt lat="47.32556" lon="-1.46177">
        <ele>83</ele>
        <time>2022-08-06T07:53:53Z</time>
      </trkpt>
      <trkpt lat="47.32567" lon="-1.46176">
        <ele>84</ele>
        <time>2022-08-06T07:53:55Z</time>
      </trkpt>
      <trkpt lat="47.32577" lon="-1.46173">
        <ele>84</ele>
        <time>2022-08-06T07:53:57Z</time>
      </trkpt>
      <trkpt lat="47.32589" lon="-1.4617">
        <ele>85</ele>
        <time>2022-08-06T07:53:59Z</time>
      </trkpt>
      <trkpt lat="47.32601" lon="-1.46166">
        <ele>86</ele>
        <time>2022-08-06T07:54:01Z</time>
      </trkpt>
      <trkpt lat="47.32614" lon="-1.46163">
        <ele>86</ele>
        <time>2022-08-06T07:54:03Z</time>
      </trkpt>
      <trkpt lat="47.32627" lon="-1.4616">
        <ele>87</ele>
        <time>2022-08-06T07:54:05Z</time>
      </trkpt>
      <trkpt lat="47.32638" lon="-1.46156">
        <ele>88</ele>
        <time>2022-08-06T07:54:07Z</time>
      </trkpt>
      <trkpt lat="47.32651" lon="-1.46151">
        <ele>89</ele>
        <time>2022-08-06T07:54:09Z</time>
      </trkpt>
      <trkpt lat="47.32662" lon="-1.46145">
        <ele>90</ele>
        <time>2022-08-06T07:54:11Z</time>
      </trkpt>
      <trkpt lat="47.32674" lon="-1.4614">
        <ele>90</ele>
        <time>2022-08-06T07:54:13Z</time>
      </trkpt>
      <trkpt lat="47.32685" lon="-1.46134">
        <ele>90</ele>
        <time>2022-08-06T07:54:15Z</time>
      </trkpt>
      <trkpt lat="47.32697" lon="-1.46129">
        <ele>90</ele>
        <time>2022-08-06T07:54:17Z</time>
      </trkpt>
      <trkpt lat="47.32708" lon="-1.46124">
        <ele>90</ele>
        <time>2022-08-06T07:54:19Z</time>
      </trkpt>
      <trkpt lat="47.32719" lon="-1.46119">
        <ele>89</ele>
        <time>2022-08-06T07:54:21Z</time>
      </trkpt>
      <trkpt lat="47.3273" lon="-1.46115">
        <ele>90</ele>
        <time>2022-08-06T07:54:23Z</time>
      </trkpt>
      <trkpt lat="47.3274" lon="-1.46111">
        <ele>90</ele>
        <time>2022-08-06T07:54:25Z</time>
      </trkpt>
      <trkpt lat="47.32753" lon="-1.46108">
        <ele>91</ele>
        <time>2022-08-06T07:54:28Z</time>
      </trkpt>
      <trkpt lat="47.32763" lon="-1.46102">
        <ele>91</ele>
        <time>2022-08-06T07:54:32Z</time>
      </trkpt>
      <trkpt lat="47.32772" lon="-1.46098">
        <ele>90</ele>
        <time>2022-08-06T07:54:34Z</time>
      </trkpt>
      <trkpt lat="47.32782" lon="-1.46096">
        <ele>90</ele>
        <time>2022-08-06T07:54:36Z</time>
      </trkpt>
      <trkpt lat="47.32793" lon="-1.46093">
        <ele>90</ele>
        <time>2022-08-06T07:54:38Z</time>
      </trkpt>
      <trkpt lat="47.32803" lon="-1.46088">
        <ele>91</ele>
        <time>2022-08-06T07:54:40Z</time>
      </trkpt>
      <trkpt lat="47.32814" lon="-1.46083">
        <ele>91</ele>
        <time>2022-08-06T07:54:42Z</time>
      </trkpt>
      <trkpt lat="47.32825" lon="-1.46078">
        <ele>92</ele>
        <time>2022-08-06T07:54:44Z</time>
      </trkpt>
      <trkpt lat="47.32835" lon="-1.46074">
        <ele>92</ele>
        <time>2022-08-06T07:54:46Z</time>
      </trkpt>
      <trkpt lat="47.32846" lon="-1.46069">
        <ele>91</ele>
        <time>2022-08-06T07:54:48Z</time>
      </trkpt>
      <trkpt lat="47.32857" lon="-1.46064">
        <ele>91</ele>
        <time>2022-08-06T07:54:50Z</time>
      </trkpt>
      <trkpt lat="47.32868" lon="-1.4606">
        <ele>91</ele>
        <time>2022-08-06T07:54:52Z</time>
      </trkpt>
      <trkpt lat="47.32878" lon="-1.46056">
        <ele>91</ele>
        <time>2022-08-06T07:54:54Z</time>
      </trkpt>
      <trkpt lat="47.32889" lon="-1.46051">
        <ele>91</ele>
        <time>2022-08-06T07:54:56Z</time>
      </trkpt>
      <trkpt lat="47.329" lon="-1.46047">
        <ele>91</ele>
        <time>2022-08-06T07:54:58Z</time>
      </trkpt>
      <trkpt lat="47.32911" lon="-1.46043">
        <ele>92</ele>
        <time>2022-08-06T07:55:00Z</time>
      </trkpt>
      <trkpt lat="47.32922" lon="-1.46039">
        <ele>92</ele>
        <time>2022-08-06T07:55:02Z</time>
      </trkpt>
      <trkpt lat="47.32933" lon="-1.46034">
        <ele>92</ele>
        <time>2022-08-06T07:55:04Z</time>
      </trkpt>
      <trkpt lat="47.32945" lon="-1.4603">
        <ele>92</ele>
        <time>2022-08-06T07:55:06Z</time>
      </trkpt>
      <trkpt lat="47.32956" lon="-1.46025">
        <ele>92</ele>
        <time>2022-08-06T07:55:08Z</time>
      </trkpt>
      <trkpt lat="47.32967" lon="-1.4602">
        <ele>92</ele>
        <time>2022-08-06T07:55:10Z</time>
      </trkpt>
      <trkpt lat="47.32978" lon="-1.46017">
        <ele>92</ele>
        <time>2022-08-06T07:55:12Z</time>
      </trkpt>
      <trkpt lat="47.32989" lon="-1.46013">
        <ele>92</ele>
        <time>2022-08-06T07:55:14Z</time>
      </trkpt>
      <trkpt lat="47.33" lon="-1.46008">
        <ele>93</ele>
        <time>2022-08-06T07:55:16Z</time>
      </trkpt>
      <trkpt lat="47.33011" lon="-1.46003">
        <ele>93</ele>
        <time>2022-08-06T07:55:18Z</time>
      </trkpt>
      <trkpt lat="47.33019" lon="-1.45999">
        <ele>93</ele>
        <time>2022-08-06T07:55:20Z</time>
      </trkpt>
      <trkpt lat="47.3303" lon="-1.45995">
        <ele>94</ele>
        <time>2022-08-06T07:55:23Z</time>
      </trkpt>
      <trkpt lat="47.3304" lon="-1.45989">
        <ele>95</ele>
        <time>2022-08-06T07:55:26Z</time>
      </trkpt>
      <trkpt lat="47.33054" lon="-1.45988">
        <ele>95</ele>
        <time>2022-08-06T07:55:29Z</time>
      </trkpt>
      <trkpt lat="47.33064" lon="-1.45985">
        <ele>95</ele>
        <time>2022-08-06T07:55:31Z</time>
      </trkpt>
      <trkpt lat="47.33075" lon="-1.45979">
        <ele>95</ele>
        <time>2022-08-06T07:55:33Z</time>
      </trkpt>
      <trkpt lat="47.33086" lon="-1.45973">
        <ele>95</ele>
        <time>2022-08-06T07:55:35Z</time>
      </trkpt>
      <trkpt lat="47.33098" lon="-1.45968">
        <ele>95</ele>
        <time>2022-08-06T07:55:37Z</time>
      </trkpt>
      <trkpt lat="47.33109" lon="-1.45963">
        <ele>94</ele>
        <time>2022-08-06T07:55:39Z</time>
      </trkpt>
      <trkpt lat="47.33121" lon="-1.45959">
        <ele>94</ele>
        <time>2022-08-06T07:55:41Z</time>
      </trkpt>
      <trkpt lat="47.33131" lon="-1.45954">
        <ele>95</ele>
        <time>2022-08-06T07:55:43Z</time>
      </trkpt>
      <trkpt lat="47.33142" lon="-1.45949">
        <ele>96</ele>
        <time>2022-08-06T07:55:45Z</time>
      </trkpt>
      <trkpt lat="47.33153" lon="-1.45943">
        <ele>96</ele>
        <time>2022-08-06T07:55:47Z</time>
      </trkpt>
      <trkpt lat="47.33163" lon="-1.45937">
        <ele>96</ele>
        <time>2022-08-06T07:55:49Z</time>
      </trkpt>
      <trkpt lat="47.33173" lon="-1.45931">
        <ele>96</ele>
        <time>2022-08-06T07:55:51Z</time>
      </trkpt>
      <trkpt lat="47.33183" lon="-1.45926">
        <ele>97</ele>
        <time>2022-08-06T07:55:53Z</time>
      </trkpt>
      <trkpt lat="47.33193" lon="-1.4592">
        <ele>97</ele>
        <time>2022-08-06T07:55:55Z</time>
      </trkpt>
      <trkpt lat="47.33204" lon="-1.45914">
        <ele>98</ele>
        <time>2022-08-06T07:55:57Z</time>
      </trkpt>
      <trkpt lat="47.33215" lon="-1.45907">
        <ele>99</ele>
        <time>2022-08-06T07:55:59Z</time>
      </trkpt>
      <trkpt lat="47.33226" lon="-1.459">
        <ele>100</ele>
        <time>2022-08-06T07:56:01Z</time>
      </trkpt>
      <trkpt lat="47.33237" lon="-1.45892">
        <ele>101</ele>
        <time>2022-08-06T07:56:03Z</time>
      </trkpt>
      <trkpt lat="47.33248" lon="-1.45885">
        <ele>101</ele>
        <time>2022-08-06T07:56:05Z</time>
      </trkpt>
      <trkpt lat="47.33259" lon="-1.45878">
        <ele>101</ele>
        <time>2022-08-06T07:56:07Z</time>
      </trkpt>
      <trkpt lat="47.33269" lon="-1.45871">
        <ele>102</ele>
        <time>2022-08-06T07:56:09Z</time>
      </trkpt>
      <trkpt lat="47.33279" lon="-1.45863">
        <ele>102</ele>
        <time>2022-08-06T07:56:11Z</time>
      </trkpt>
      <trkpt lat="47.33289" lon="-1.45855">
        <ele>102</ele>
        <time>2022-08-06T07:56:13Z</time>
      </trkpt>
      <trkpt lat="47.333" lon="-1.45847">
        <ele>103</ele>
        <time>2022-08-06T07:56:15Z</time>
      </trkpt>
      <trkpt lat="47.3331" lon="-1.45838">
        <ele>104</ele>
        <time>2022-08-06T07:56:17Z</time>
      </trkpt>
      <trkpt lat="47.3332" lon="-1.45829">
        <ele>104</ele>
        <time>2022-08-06T07:56:19Z</time>
      </trkpt>
      <trkpt lat="47.3333" lon="-1.4582">
        <ele>105</ele>
        <time>2022-08-06T07:56:21Z</time>
      </trkpt>
      <trkpt lat="47.3334" lon="-1.45811">
        <ele>106</ele>
        <time>2022-08-06T07:56:23Z</time>
      </trkpt>
      <trkpt lat="47.33349" lon="-1.45801">
        <ele>106</ele>
        <time>2022-08-06T07:56:25Z</time>
      </trkpt>
      <trkpt lat="47.33359" lon="-1.45792">
        <ele>106</ele>
        <time>2022-08-06T07:56:27Z</time>
      </trkpt>
      <trkpt lat="47.3337" lon="-1.45783">
        <ele>106</ele>
        <time>2022-08-06T07:56:29Z</time>
      </trkpt>
      <trkpt lat="47.33379" lon="-1.45773">
        <ele>107</ele>
        <time>2022-08-06T07:56:31Z</time>
      </trkpt>
      <trkpt lat="47.33389" lon="-1.45764">
        <ele>108</ele>
        <time>2022-08-06T07:56:33Z</time>
      </trkpt>
      <trkpt lat="47.33399" lon="-1.45754">
        <ele>108</ele>
        <time>2022-08-06T07:56:35Z</time>
      </trkpt>
      <trkpt lat="47.33408" lon="-1.45743">
        <ele>107</ele>
        <time>2022-08-06T07:56:37Z</time>
      </trkpt>
      <trkpt lat="47.33418" lon="-1.45733">
        <ele>108</ele>
        <time>2022-08-06T07:56:39Z</time>
      </trkpt>
      <trkpt lat="47.33427" lon="-1.45723">
        <ele>108</ele>
        <time>2022-08-06T07:56:41Z</time>
      </trkpt>
      <trkpt lat="47.33436" lon="-1.45712">
        <ele>108</ele>
        <time>2022-08-06T07:56:43Z</time>
      </trkpt>
      <trkpt lat="47.33445" lon="-1.45701">
        <ele>109</ele>
        <time>2022-08-06T07:56:45Z</time>
      </trkpt>
      <trkpt lat="47.33454" lon="-1.4569">
        <ele>108</ele>
        <time>2022-08-06T07:56:47Z</time>
      </trkpt>
      <trkpt lat="47.33463" lon="-1.45678">
        <ele>108</ele>
        <time>2022-08-06T07:56:49Z</time>
      </trkpt>
      <trkpt lat="47.33472" lon="-1.45666">
        <ele>108</ele>
        <time>2022-08-06T07:56:51Z</time>
      </trkpt>
      <trkpt lat="47.3348" lon="-1.45654">
        <ele>108</ele>
        <time>2022-08-06T07:56:53Z</time>
      </trkpt>
      <trkpt lat="47.33489" lon="-1.45642">
        <ele>108</ele>
        <time>2022-08-06T07:56:55Z</time>
      </trkpt>
      <trkpt lat="47.33497" lon="-1.4563">
        <ele>108</ele>
        <time>2022-08-06T07:56:57Z</time>
      </trkpt>
      <trkpt lat="47.33506" lon="-1.45618">
        <ele>107</ele>
        <time>2022-08-06T07:56:59Z</time>
      </trkpt>
      <trkpt lat="47.33515" lon="-1.45607">
        <ele>108</ele>
        <time>2022-08-06T07:57:01Z</time>
      </trkpt>
      <trkpt lat="47.33522" lon="-1.45596">
        <ele>108</ele>
        <time>2022-08-06T07:57:03Z</time>
      </trkpt>
      <trkpt lat="47.33531" lon="-1.45586">
        <ele>110</ele>
        <time>2022-08-06T07:57:05Z</time>
      </trkpt>
      <trkpt lat="47.33539" lon="-1.45575">
        <ele>109</ele>
        <time>2022-08-06T07:57:07Z</time>
      </trkpt>
      <trkpt lat="47.33546" lon="-1.45564">
        <ele>109</ele>
        <time>2022-08-06T07:57:09Z</time>
      </trkpt>
      <trkpt lat="47.33555" lon="-1.45552">
        <ele>109</ele>
        <time>2022-08-06T07:57:11Z</time>
      </trkpt>
      <trkpt lat="47.33564" lon="-1.45539">
        <ele>109</ele>
        <time>2022-08-06T07:57:13Z</time>
      </trkpt>
      <trkpt lat="47.33573" lon="-1.45526">
        <ele>109</ele>
        <time>2022-08-06T07:57:15Z</time>
      </trkpt>
      <trkpt lat="47.33582" lon="-1.45514">
        <ele>110</ele>
        <time>2022-08-06T07:57:17Z</time>
      </trkpt>
      <trkpt lat="47.33592" lon="-1.45502">
        <ele>110</ele>
        <time>2022-08-06T07:57:19Z</time>
      </trkpt>
      <trkpt lat="47.33601" lon="-1.4549">
        <ele>110</ele>
        <time>2022-08-06T07:57:21Z</time>
      </trkpt>
      <trkpt lat="47.3361" lon="-1.45478">
        <ele>110</ele>
        <time>2022-08-06T07:57:23Z</time>
      </trkpt>
      <trkpt lat="47.33618" lon="-1.45466">
        <ele>110</ele>
        <time>2022-08-06T07:57:25Z</time>
      </trkpt>
      <trkpt lat="47.33627" lon="-1.45454">
        <ele>110</ele>
        <time>2022-08-06T07:57:27Z</time>
      </trkpt>
      <trkpt lat="47.33636" lon="-1.45441">
        <ele>110</ele>
        <time>2022-08-06T07:57:29Z</time>
      </trkpt>
      <trkpt lat="47.33645" lon="-1.45429">
        <ele>110</ele>
        <time>2022-08-06T07:57:31Z</time>
      </trkpt>
      <trkpt lat="47.33654" lon="-1.45417">
        <ele>110</ele>
        <time>2022-08-06T07:57:33Z</time>
      </trkpt>
      <trkpt lat="47.33662" lon="-1.45405">
        <ele>110</ele>
        <time>2022-08-06T07:57:35Z</time>
      </trkpt>
      <trkpt lat="47.33671" lon="-1.45392">
        <ele>110</ele>
        <time>2022-08-06T07:57:37Z</time>
      </trkpt>
      <trkpt lat="47.3368" lon="-1.4538">
        <ele>110</ele>
        <time>2022-08-06T07:57:39Z</time>
      </trkpt>
      <trkpt lat="47.33689" lon="-1.45368">
        <ele>109</ele>
        <time>2022-08-06T07:57:41Z</time>
      </trkpt>
      <trkpt lat="47.33697" lon="-1.45356">
        <ele>109</ele>
        <time>2022-08-06T07:57:43Z</time>
      </trkpt>
      <trkpt lat="47.33706" lon="-1.45345">
        <ele>108</ele>
        <time>2022-08-06T07:57:45Z</time>
      </trkpt>
      <trkpt lat="47.33715" lon="-1.45332">
        <ele>108</ele>
        <time>2022-08-06T07:57:47Z</time>
      </trkpt>
      <trkpt lat="47.33725" lon="-1.45318">
        <ele>108</ele>
        <time>2022-08-06T07:57:49Z</time>
      </trkpt>
      <trkpt lat="47.33734" lon="-1.45305">
        <ele>108</ele>
        <time>2022-08-06T07:57:51Z</time>
      </trkpt>
      <trkpt lat="47.33743" lon="-1.45293">
        <ele>109</ele>
        <time>2022-08-06T07:57:53Z</time>
      </trkpt>
      <trkpt lat="47.33751" lon="-1.4528">
        <ele>109</ele>
        <time>2022-08-06T07:57:55Z</time>
      </trkpt>
      <trkpt lat="47.3376" lon="-1.45268">
        <ele>109</ele>
        <time>2022-08-06T07:57:57Z</time>
      </trkpt>
      <trkpt lat="47.33769" lon="-1.45255">
        <ele>109</ele>
        <time>2022-08-06T07:57:59Z</time>
      </trkpt>
      <trkpt lat="47.33778" lon="-1.45243">
        <ele>108</ele>
        <time>2022-08-06T07:58:01Z</time>
      </trkpt>
      <trkpt lat="47.33788" lon="-1.4523">
        <ele>108</ele>
        <time>2022-08-06T07:58:03Z</time>
      </trkpt>
      <trkpt lat="47.33797" lon="-1.45217">
        <ele>107</ele>
        <time>2022-08-06T07:58:05Z</time>
      </trkpt>
      <trkpt lat="47.33805" lon="-1.45206">
        <ele>106</ele>
        <time>2022-08-06T07:58:07Z</time>
      </trkpt>
      <trkpt lat="47.33814" lon="-1.45195">
        <ele>106</ele>
        <time>2022-08-06T07:58:09Z</time>
      </trkpt>
      <trkpt lat="47.33822" lon="-1.45181">
        <ele>106</ele>
        <time>2022-08-06T07:58:12Z</time>
      </trkpt>
      <trkpt lat="47.33831" lon="-1.45172">
        <ele>105</ele>
        <time>2022-08-06T07:58:15Z</time>
      </trkpt>
      <trkpt lat="47.33837" lon="-1.45162">
        <ele>105</ele>
        <time>2022-08-06T07:58:17Z</time>
      </trkpt>
      <trkpt lat="47.33848" lon="-1.4515">
        <ele>105</ele>
        <time>2022-08-06T07:58:20Z</time>
      </trkpt>
      <trkpt lat="47.33856" lon="-1.4514">
        <ele>105</ele>
        <time>2022-08-06T07:58:22Z</time>
      </trkpt>
      <trkpt lat="47.33865" lon="-1.45127">
        <ele>105</ele>
        <time>2022-08-06T07:58:24Z</time>
      </trkpt>
      <trkpt lat="47.33875" lon="-1.45113">
        <ele>104</ele>
        <time>2022-08-06T07:58:26Z</time>
      </trkpt>
      <trkpt lat="47.33885" lon="-1.45099">
        <ele>104</ele>
        <time>2022-08-06T07:58:28Z</time>
      </trkpt>
      <trkpt lat="47.33894" lon="-1.45086">
        <ele>103</ele>
        <time>2022-08-06T07:58:30Z</time>
      </trkpt>
      <trkpt lat="47.33904" lon="-1.45072">
        <ele>103</ele>
        <time>2022-08-06T07:58:32Z</time>
      </trkpt>
      <trkpt lat="47.33914" lon="-1.4506">
        <ele>103</ele>
        <time>2022-08-06T07:58:34Z</time>
      </trkpt>
      <trkpt lat="47.33924" lon="-1.45046">
        <ele>102</ele>
        <time>2022-08-06T07:58:36Z</time>
      </trkpt>
      <trkpt lat="47.33933" lon="-1.45033">
        <ele>103</ele>
        <time>2022-08-06T07:58:38Z</time>
      </trkpt>
      <trkpt lat="47.33943" lon="-1.4502">
        <ele>103</ele>
        <time>2022-08-06T07:58:40Z</time>
      </trkpt>
      <trkpt lat="47.33952" lon="-1.45007">
        <ele>103</ele>
        <time>2022-08-06T07:58:42Z</time>
      </trkpt>
      <trkpt lat="47.33962" lon="-1.44992">
        <ele>103</ele>
        <time>2022-08-06T07:58:44Z</time>
      </trkpt>
      <trkpt lat="47.33972" lon="-1.44979">
        <ele>103</ele>
        <time>2022-08-06T07:58:46Z</time>
      </trkpt>
      <trkpt lat="47.33982" lon="-1.44966">
        <ele>103</ele>
        <time>2022-08-06T07:58:48Z</time>
      </trkpt>
      <trkpt lat="47.33992" lon="-1.44952">
        <ele>103</ele>
        <time>2022-08-06T07:58:50Z</time>
      </trkpt>
      <trkpt lat="47.34001" lon="-1.44939">
        <ele>104</ele>
        <time>2022-08-06T07:58:52Z</time>
      </trkpt>
      <trkpt lat="47.34011" lon="-1.44925">
        <ele>104</ele>
        <time>2022-08-06T07:58:54Z</time>
      </trkpt>
      <trkpt lat="47.34021" lon="-1.44912">
        <ele>104</ele>
        <time>2022-08-06T07:58:56Z</time>
      </trkpt>
      <trkpt lat="47.34031" lon="-1.44899">
        <ele>104</ele>
        <time>2022-08-06T07:58:58Z</time>
      </trkpt>
      <trkpt lat="47.3404" lon="-1.44885">
        <ele>104</ele>
        <time>2022-08-06T07:59:00Z</time>
      </trkpt>
      <trkpt lat="47.3405" lon="-1.44871">
        <ele>104</ele>
        <time>2022-08-06T07:59:02Z</time>
      </trkpt>
      <trkpt lat="47.3406" lon="-1.44858">
        <ele>104</ele>
        <time>2022-08-06T07:59:04Z</time>
      </trkpt>
      <trkpt lat="47.34071" lon="-1.44844">
        <ele>104</ele>
        <time>2022-08-06T07:59:06Z</time>
      </trkpt>
      <trkpt lat="47.34081" lon="-1.44831">
        <ele>104</ele>
        <time>2022-08-06T07:59:08Z</time>
      </trkpt>
      <trkpt lat="47.34091" lon="-1.44816">
        <ele>104</ele>
        <time>2022-08-06T07:59:10Z</time>
      </trkpt>
      <trkpt lat="47.34101" lon="-1.44802">
        <ele>104</ele>
        <time>2022-08-06T07:59:12Z</time>
      </trkpt>
      <trkpt lat="47.34111" lon="-1.44789">
        <ele>104</ele>
        <time>2022-08-06T07:59:14Z</time>
      </trkpt>
      <trkpt lat="47.34121" lon="-1.44775">
        <ele>104</ele>
        <time>2022-08-06T07:59:16Z</time>
      </trkpt>
      <trkpt lat="47.3413" lon="-1.44762">
        <ele>104</ele>
        <time>2022-08-06T07:59:18Z</time>
      </trkpt>
      <trkpt lat="47.34141" lon="-1.44748">
        <ele>104</ele>
        <time>2022-08-06T07:59:20Z</time>
      </trkpt>
      <trkpt lat="47.34151" lon="-1.44735">
        <ele>104</ele>
        <time>2022-08-06T07:59:22Z</time>
      </trkpt>
      <trkpt lat="47.34161" lon="-1.44721">
        <ele>104</ele>
        <time>2022-08-06T07:59:24Z</time>
      </trkpt>
      <trkpt lat="47.34171" lon="-1.44708">
        <ele>104</ele>
        <time>2022-08-06T07:59:26Z</time>
      </trkpt>
      <trkpt lat="47.34181" lon="-1.44694">
        <ele>104</ele>
        <time>2022-08-06T07:59:28Z</time>
      </trkpt>
      <trkpt lat="47.34192" lon="-1.4468">
        <ele>103</ele>
        <time>2022-08-06T07:59:30Z</time>
      </trkpt>
      <trkpt lat="47.34202" lon="-1.44666">
        <ele>103</ele>
        <time>2022-08-06T07:59:32Z</time>
      </trkpt>
      <trkpt lat="47.34212" lon="-1.44652">
        <ele>103</ele>
        <time>2022-08-06T07:59:34Z</time>
      </trkpt>
      <trkpt lat="47.34222" lon="-1.44638">
        <ele>103</ele>
        <time>2022-08-06T07:59:36Z</time>
      </trkpt>
      <trkpt lat="47.34231" lon="-1.44624">
        <ele>103</ele>
        <time>2022-08-06T07:59:38Z</time>
      </trkpt>
      <trkpt lat="47.34241" lon="-1.44611">
        <ele>103</ele>
        <time>2022-08-06T07:59:40Z</time>
      </trkpt>
      <trkpt lat="47.34251" lon="-1.44597">
        <ele>102</ele>
        <time>2022-08-06T07:59:42Z</time>
      </trkpt>
      <trkpt lat="47.34261" lon="-1.44583">
        <ele>102</ele>
        <time>2022-08-06T07:59:44Z</time>
      </trkpt>
      <trkpt lat="47.34271" lon="-1.44569">
        <ele>102</ele>
        <time>2022-08-06T07:59:46Z</time>
      </trkpt>
      <trkpt lat="47.34279" lon="-1.44558">
        <ele>103</ele>
        <time>2022-08-06T07:59:49Z</time>
      </trkpt>
      <trkpt lat="47.34291" lon="-1.44543">
        <ele>102</ele>
        <time>2022-08-06T07:59:51Z</time>
      </trkpt>
      <trkpt lat="47.34303" lon="-1.44527">
        <ele>102</ele>
        <time>2022-08-06T07:59:53Z</time>
      </trkpt>
      <trkpt lat="47.34314" lon="-1.44511">
        <ele>103</ele>
        <time>2022-08-06T07:59:55Z</time>
      </trkpt>
      <trkpt lat="47.34324" lon="-1.44498">
        <ele>102</ele>
        <time>2022-08-06T07:59:57Z</time>
      </trkpt>
      <trkpt lat="47.34334" lon="-1.44484">
        <ele>102</ele>
        <time>2022-08-06T07:59:59Z</time>
      </trkpt>
      <trkpt lat="47.34344" lon="-1.4447">
        <ele>102</ele>
        <time>2022-08-06T08:00:01Z</time>
      </trkpt>
      <trkpt lat="47.34354" lon="-1.44456">
        <ele>102</ele>
        <time>2022-08-06T08:00:03Z</time>
      </trkpt>
      <trkpt lat="47.34364" lon="-1.44443">
        <ele>103</ele>
        <time>2022-08-06T08:00:05Z</time>
      </trkpt>
      <trkpt lat="47.34374" lon="-1.44429">
        <ele>103</ele>
        <time>2022-08-06T08:00:07Z</time>
      </trkpt>
      <trkpt lat="47.34384" lon="-1.44416">
        <ele>102</ele>
        <time>2022-08-06T08:00:09Z</time>
      </trkpt>
      <trkpt lat="47.34394" lon="-1.44403">
        <ele>102</ele>
        <time>2022-08-06T08:00:11Z</time>
      </trkpt>
      <trkpt lat="47.34403" lon="-1.44389">
        <ele>102</ele>
        <time>2022-08-06T08:00:13Z</time>
      </trkpt>
      <trkpt lat="47.34413" lon="-1.44375">
        <ele>102</ele>
        <time>2022-08-06T08:00:15Z</time>
      </trkpt>
      <trkpt lat="47.34422" lon="-1.44361">
        <ele>102</ele>
        <time>2022-08-06T08:00:17Z</time>
      </trkpt>
      <trkpt lat="47.34432" lon="-1.44346">
        <ele>101</ele>
        <time>2022-08-06T08:00:19Z</time>
      </trkpt>
      <trkpt lat="47.3444" lon="-1.44331">
        <ele>101</ele>
        <time>2022-08-06T08:00:21Z</time>
      </trkpt>
      <trkpt lat="47.34449" lon="-1.44316">
        <ele>101</ele>
        <time>2022-08-06T08:00:23Z</time>
      </trkpt>
      <trkpt lat="47.34457" lon="-1.44301">
        <ele>101</ele>
        <time>2022-08-06T08:00:25Z</time>
      </trkpt>
      <trkpt lat="47.34466" lon="-1.44286">
        <ele>101</ele>
        <time>2022-08-06T08:00:27Z</time>
      </trkpt>
      <trkpt lat="47.34474" lon="-1.44271">
        <ele>101</ele>
        <time>2022-08-06T08:00:29Z</time>
      </trkpt>
      <trkpt lat="47.34482" lon="-1.44255">
        <ele>101</ele>
        <time>2022-08-06T08:00:31Z</time>
      </trkpt>
      <trkpt lat="47.34489" lon="-1.4424">
        <ele>101</ele>
        <time>2022-08-06T08:00:33Z</time>
      </trkpt>
      <trkpt lat="47.34497" lon="-1.44225">
        <ele>101</ele>
        <time>2022-08-06T08:00:35Z</time>
      </trkpt>
      <trkpt lat="47.34503" lon="-1.4421">
        <ele>101</ele>
        <time>2022-08-06T08:00:37Z</time>
      </trkpt>
      <trkpt lat="47.3451" lon="-1.44195">
        <ele>102</ele>
        <time>2022-08-06T08:00:39Z</time>
      </trkpt>
      <trkpt lat="47.34517" lon="-1.4418">
        <ele>102</ele>
        <time>2022-08-06T08:00:41Z</time>
      </trkpt>
      <trkpt lat="47.34524" lon="-1.44165">
        <ele>102</ele>
        <time>2022-08-06T08:00:43Z</time>
      </trkpt>
      <trkpt lat="47.3453" lon="-1.44149">
        <ele>102</ele>
        <time>2022-08-06T08:00:45Z</time>
      </trkpt>
      <trkpt lat="47.34536" lon="-1.44133">
        <ele>103</ele>
        <time>2022-08-06T08:00:47Z</time>
      </trkpt>
      <trkpt lat="47.34542" lon="-1.44116">
        <ele>103</ele>
        <time>2022-08-06T08:00:49Z</time>
      </trkpt>
      <trkpt lat="47.34547" lon="-1.44101">
        <ele>103</ele>
        <time>2022-08-06T08:00:51Z</time>
      </trkpt>
      <trkpt lat="47.34553" lon="-1.44084">
        <ele>104</ele>
        <time>2022-08-06T08:00:53Z</time>
      </trkpt>
      <trkpt lat="47.34559" lon="-1.44068">
        <ele>104</ele>
        <time>2022-08-06T08:00:55Z</time>
      </trkpt>
      <trkpt lat="47.34564" lon="-1.44051">
        <ele>104</ele>
        <time>2022-08-06T08:00:57Z</time>
      </trkpt>
      <trkpt lat="47.34572" lon="-1.44026">
        <ele>104</ele>
        <time>2022-08-06T08:01:00Z</time>
      </trkpt>
      <trkpt lat="47.34576" lon="-1.44011">
        <ele>104</ele>
        <time>2022-08-06T08:01:02Z</time>
      </trkpt>
      <trkpt lat="47.34581" lon="-1.43995">
        <ele>104</ele>
        <time>2022-08-06T08:01:04Z</time>
      </trkpt>
      <trkpt lat="47.34585" lon="-1.43979">
        <ele>104</ele>
        <time>2022-08-06T08:01:06Z</time>
      </trkpt>
      <trkpt lat="47.3459" lon="-1.43963">
        <ele>104</ele>
        <time>2022-08-06T08:01:08Z</time>
      </trkpt>
      <trkpt lat="47.34595" lon="-1.43939">
        <ele>104</ele>
        <time>2022-08-06T08:01:11Z</time>
      </trkpt>
      <trkpt lat="47.34601" lon="-1.43914">
        <ele>105</ele>
        <time>2022-08-06T08:01:14Z</time>
      </trkpt>
      <trkpt lat="47.34604" lon="-1.43896">
        <ele>105</ele>
        <time>2022-08-06T08:01:16Z</time>
      </trkpt>
      <trkpt lat="47.34606" lon="-1.43878">
        <ele>106</ele>
        <time>2022-08-06T08:01:18Z</time>
      </trkpt>
      <trkpt lat="47.34611" lon="-1.43853">
        <ele>106</ele>
        <time>2022-08-06T08:01:21Z</time>
      </trkpt>
      <trkpt lat="47.34614" lon="-1.43836">
        <ele>106</ele>
        <time>2022-08-06T08:01:23Z</time>
      </trkpt>
      <trkpt lat="47.34617" lon="-1.43819">
        <ele>107</ele>
        <time>2022-08-06T08:01:25Z</time>
      </trkpt>
      <trkpt lat="47.3462" lon="-1.43802">
        <ele>107</ele>
        <time>2022-08-06T08:01:27Z</time>
      </trkpt>
      <trkpt lat="47.34622" lon="-1.43786">
        <ele>108</ele>
        <time>2022-08-06T08:01:29Z</time>
      </trkpt>
      <trkpt lat="47.34624" lon="-1.4377">
        <ele>109</ele>
        <time>2022-08-06T08:01:31Z</time>
      </trkpt>
      <trkpt lat="47.34627" lon="-1.43744">
        <ele>108</ele>
        <time>2022-08-06T08:01:34Z</time>
      </trkpt>
      <trkpt lat="47.34629" lon="-1.43727">
        <ele>108</ele>
        <time>2022-08-06T08:01:36Z</time>
      </trkpt>
      <trkpt lat="47.34631" lon="-1.4371">
        <ele>108</ele>
        <time>2022-08-06T08:01:38Z</time>
      </trkpt>
      <trkpt lat="47.34632" lon="-1.43693">
        <ele>108</ele>
        <time>2022-08-06T08:01:40Z</time>
      </trkpt>
      <trkpt lat="47.34633" lon="-1.43677">
        <ele>108</ele>
        <time>2022-08-06T08:01:42Z</time>
      </trkpt>
      <trkpt lat="47.34634" lon="-1.43661">
        <ele>109</ele>
        <time>2022-08-06T08:01:44Z</time>
      </trkpt>
      <trkpt lat="47.34635" lon="-1.43645">
        <ele>109</ele>
        <time>2022-08-06T08:01:46Z</time>
      </trkpt>
      <trkpt lat="47.34636" lon="-1.43626">
        <ele>109</ele>
        <time>2022-08-06T08:01:48Z</time>
      </trkpt>
      <trkpt lat="47.34637" lon="-1.43609">
        <ele>109</ele>
        <time>2022-08-06T08:01:50Z</time>
      </trkpt>
      <trkpt lat="47.34638" lon="-1.43593">
        <ele>109</ele>
        <time>2022-08-06T08:01:52Z</time>
      </trkpt>
      <trkpt lat="47.34638" lon="-1.43576">
        <ele>109</ele>
        <time>2022-08-06T08:01:54Z</time>
      </trkpt>
      <trkpt lat="47.34638" lon="-1.4356">
        <ele>110</ele>
        <time>2022-08-06T08:01:56Z</time>
      </trkpt>
      <trkpt lat="47.34638" lon="-1.43545">
        <ele>110</ele>
        <time>2022-08-06T08:01:58Z</time>
      </trkpt>
      <trkpt lat="47.34637" lon="-1.43531">
        <ele>110</ele>
        <time>2022-08-06T08:02:00Z</time>
      </trkpt>
      <trkpt lat="47.34636" lon="-1.43514">
        <ele>110</ele>
        <time>2022-08-06T08:02:03Z</time>
      </trkpt>
      <trkpt lat="47.34636" lon="-1.43495">
        <ele>111</ele>
        <time>2022-08-06T08:02:06Z</time>
      </trkpt>
      <trkpt lat="47.34638" lon="-1.43478">
        <ele>111</ele>
        <time>2022-08-06T08:02:09Z</time>
      </trkpt>
      <trkpt lat="47.34635" lon="-1.43463">
        <ele>111</ele>
        <time>2022-08-06T08:02:12Z</time>
      </trkpt>
      <trkpt lat="47.34634" lon="-1.43448">
        <ele>111</ele>
        <time>2022-08-06T08:02:14Z</time>
      </trkpt>
      <trkpt lat="47.34633" lon="-1.43432">
        <ele>112</ele>
        <time>2022-08-06T08:02:16Z</time>
      </trkpt>
      <trkpt lat="47.34632" lon="-1.43415">
        <ele>112</ele>
        <time>2022-08-06T08:02:18Z</time>
      </trkpt>
      <trkpt lat="47.34631" lon="-1.43395">
        <ele>112</ele>
        <time>2022-08-06T08:02:20Z</time>
      </trkpt>
      <trkpt lat="47.3463" lon="-1.43375">
        <ele>112</ele>
        <time>2022-08-06T08:02:22Z</time>
      </trkpt>
      <trkpt lat="47.34629" lon="-1.43356">
        <ele>113</ele>
        <time>2022-08-06T08:02:24Z</time>
      </trkpt>
      <trkpt lat="47.34628" lon="-1.43337">
        <ele>113</ele>
        <time>2022-08-06T08:02:26Z</time>
      </trkpt>
      <trkpt lat="47.34626" lon="-1.43319">
        <ele>112</ele>
        <time>2022-08-06T08:02:28Z</time>
      </trkpt>
      <trkpt lat="47.34624" lon="-1.43299">
        <ele>113</ele>
        <time>2022-08-06T08:02:30Z</time>
      </trkpt>
      <trkpt lat="47.34622" lon="-1.4328">
        <ele>112</ele>
        <time>2022-08-06T08:02:32Z</time>
      </trkpt>
      <trkpt lat="47.34621" lon="-1.43262">
        <ele>113</ele>
        <time>2022-08-06T08:02:34Z</time>
      </trkpt>
      <trkpt lat="47.34619" lon="-1.43244">
        <ele>113</ele>
        <time>2022-08-06T08:02:36Z</time>
      </trkpt>
      <trkpt lat="47.34618" lon="-1.43224">
        <ele>113</ele>
        <time>2022-08-06T08:02:38Z</time>
      </trkpt>
      <trkpt lat="47.34618" lon="-1.43205">
        <ele>113</ele>
        <time>2022-08-06T08:02:40Z</time>
      </trkpt>
      <trkpt lat="47.34616" lon="-1.43187">
        <ele>113</ele>
        <time>2022-08-06T08:02:42Z</time>
      </trkpt>
      <trkpt lat="47.34615" lon="-1.43169">
        <ele>113</ele>
        <time>2022-08-06T08:02:44Z</time>
      </trkpt>
      <trkpt lat="47.34614" lon="-1.43151">
        <ele>112</ele>
        <time>2022-08-06T08:02:46Z</time>
      </trkpt>
      <trkpt lat="47.34613" lon="-1.43132">
        <ele>112</ele>
        <time>2022-08-06T08:02:48Z</time>
      </trkpt>
      <trkpt lat="47.34611" lon="-1.43114">
        <ele>113</ele>
        <time>2022-08-06T08:02:50Z</time>
      </trkpt>
      <trkpt lat="47.3461" lon="-1.43096">
        <ele>114</ele>
        <time>2022-08-06T08:02:52Z</time>
      </trkpt>
      <trkpt lat="47.34608" lon="-1.43079">
        <ele>114</ele>
        <time>2022-08-06T08:02:54Z</time>
      </trkpt>
      <trkpt lat="47.34607" lon="-1.43062">
        <ele>115</ele>
        <time>2022-08-06T08:02:56Z</time>
      </trkpt>
      <trkpt lat="47.34606" lon="-1.43043">
        <ele>115</ele>
        <time>2022-08-06T08:02:58Z</time>
      </trkpt>
      <trkpt lat="47.34604" lon="-1.43024">
        <ele>116</ele>
        <time>2022-08-06T08:03:00Z</time>
      </trkpt>
      <trkpt lat="47.34603" lon="-1.43005">
        <ele>115</ele>
        <time>2022-08-06T08:03:02Z</time>
      </trkpt>
      <trkpt lat="47.34602" lon="-1.42987">
        <ele>115</ele>
        <time>2022-08-06T08:03:04Z</time>
      </trkpt>
      <trkpt lat="47.34602" lon="-1.4297">
        <ele>115</ele>
        <time>2022-08-06T08:03:06Z</time>
      </trkpt>
      <trkpt lat="47.34601" lon="-1.42954">
        <ele>116</ele>
        <time>2022-08-06T08:03:08Z</time>
      </trkpt>
      <trkpt lat="47.34599" lon="-1.42936">
        <ele>116</ele>
        <time>2022-08-06T08:03:10Z</time>
      </trkpt>
      <trkpt lat="47.34597" lon="-1.42918">
        <ele>117</ele>
        <time>2022-08-06T08:03:12Z</time>
      </trkpt>
      <trkpt lat="47.34596" lon="-1.42901">
        <ele>117</ele>
        <time>2022-08-06T08:03:14Z</time>
      </trkpt>
      <trkpt lat="47.34594" lon="-1.42885">
        <ele>117</ele>
        <time>2022-08-06T08:03:16Z</time>
      </trkpt>
      <trkpt lat="47.34593" lon="-1.42866">
        <ele>117</ele>
        <time>2022-08-06T08:03:18Z</time>
      </trkpt>
      <trkpt lat="47.34592" lon="-1.4285">
        <ele>117</ele>
        <time>2022-08-06T08:03:20Z</time>
      </trkpt>
      <trkpt lat="47.34591" lon="-1.42832">
        <ele>118</ele>
        <time>2022-08-06T08:03:22Z</time>
      </trkpt>
      <trkpt lat="47.3459" lon="-1.42812">
        <ele>118</ele>
        <time>2022-08-06T08:03:24Z</time>
      </trkpt>
      <trkpt lat="47.34589" lon="-1.42794">
        <ele>117</ele>
        <time>2022-08-06T08:03:26Z</time>
      </trkpt>
      <trkpt lat="47.34588" lon="-1.42776">
        <ele>115</ele>
        <time>2022-08-06T08:03:28Z</time>
      </trkpt>
      <trkpt lat="47.34587" lon="-1.4276">
        <ele>114</ele>
        <time>2022-08-06T08:03:30Z</time>
      </trkpt>
      <trkpt lat="47.34588" lon="-1.42746">
        <ele>114</ele>
        <time>2022-08-06T08:03:32Z</time>
      </trkpt>
      <trkpt lat="47.34586" lon="-1.42731">
        <ele>114</ele>
        <time>2022-08-06T08:03:37Z</time>
      </trkpt>
      <trkpt lat="47.34584" lon="-1.42717">
        <ele>113</ele>
        <time>2022-08-06T08:03:40Z</time>
      </trkpt>
      <trkpt lat="47.34583" lon="-1.42699">
        <ele>112</ele>
        <time>2022-08-06T08:03:43Z</time>
      </trkpt>
      <trkpt lat="47.34582" lon="-1.42678">
        <ele>112</ele>
        <time>2022-08-06T08:03:46Z</time>
      </trkpt>
      <trkpt lat="47.34581" lon="-1.42662">
        <ele>112</ele>
        <time>2022-08-06T08:03:48Z</time>
      </trkpt>
      <trkpt lat="47.34579" lon="-1.42646">
        <ele>113</ele>
        <time>2022-08-06T08:03:50Z</time>
      </trkpt>
      <trkpt lat="47.34578" lon="-1.42628">
        <ele>113</ele>
        <time>2022-08-06T08:03:52Z</time>
      </trkpt>
      <trkpt lat="47.34577" lon="-1.4261">
        <ele>114</ele>
        <time>2022-08-06T08:03:54Z</time>
      </trkpt>
      <trkpt lat="47.34576" lon="-1.42592">
        <ele>114</ele>
        <time>2022-08-06T08:03:56Z</time>
      </trkpt>
      <trkpt lat="47.34574" lon="-1.42574">
        <ele>114</ele>
        <time>2022-08-06T08:03:58Z</time>
      </trkpt>
      <trkpt lat="47.34572" lon="-1.42555">
        <ele>114</ele>
        <time>2022-08-06T08:04:00Z</time>
      </trkpt>
      <trkpt lat="47.34571" lon="-1.42536">
        <ele>115</ele>
        <time>2022-08-06T08:04:02Z</time>
      </trkpt>
      <trkpt lat="47.34569" lon="-1.42518">
        <ele>115</ele>
        <time>2022-08-06T08:04:04Z</time>
      </trkpt>
      <trkpt lat="47.34568" lon="-1.425">
        <ele>116</ele>
        <time>2022-08-06T08:04:06Z</time>
      </trkpt>
      <trkpt lat="47.34567" lon="-1.42482">
        <ele>116</ele>
        <time>2022-08-06T08:04:08Z</time>
      </trkpt>
      <trkpt lat="47.34565" lon="-1.42464">
        <ele>116</ele>
        <time>2022-08-06T08:04:10Z</time>
      </trkpt>
      <trkpt lat="47.34565" lon="-1.42445">
        <ele>115</ele>
        <time>2022-08-06T08:04:12Z</time>
      </trkpt>
      <trkpt lat="47.34564" lon="-1.42426">
        <ele>115</ele>
        <time>2022-08-06T08:04:14Z</time>
      </trkpt>
      <trkpt lat="47.34563" lon="-1.42408">
        <ele>115</ele>
        <time>2022-08-06T08:04:16Z</time>
      </trkpt>
      <trkpt lat="47.34561" lon="-1.42389">
        <ele>115</ele>
        <time>2022-08-06T08:04:18Z</time>
      </trkpt>
      <trkpt lat="47.3456" lon="-1.42371">
        <ele>115</ele>
        <time>2022-08-06T08:04:20Z</time>
      </trkpt>
      <trkpt lat="47.3456" lon="-1.42352">
        <ele>115</ele>
        <time>2022-08-06T08:04:22Z</time>
      </trkpt>
      <trkpt lat="47.34559" lon="-1.42333">
        <ele>115</ele>
        <time>2022-08-06T08:04:24Z</time>
      </trkpt>
      <trkpt lat="47.34557" lon="-1.42315">
        <ele>116</ele>
        <time>2022-08-06T08:04:26Z</time>
      </trkpt>
      <trkpt lat="47.34556" lon="-1.42298">
        <ele>116</ele>
        <time>2022-08-06T08:04:28Z</time>
      </trkpt>
      <trkpt lat="47.34553" lon="-1.42282">
        <ele>117</ele>
        <time>2022-08-06T08:04:30Z</time>
      </trkpt>
      <trkpt lat="47.34551" lon="-1.42264">
        <ele>116</ele>
        <time>2022-08-06T08:04:32Z</time>
      </trkpt>
      <trkpt lat="47.3455" lon="-1.42246">
        <ele>116</ele>
        <time>2022-08-06T08:04:34Z</time>
      </trkpt>
      <trkpt lat="47.34549" lon="-1.42228">
        <ele>116</ele>
        <time>2022-08-06T08:04:36Z</time>
      </trkpt>
      <trkpt lat="47.34548" lon="-1.42209">
        <ele>116</ele>
        <time>2022-08-06T08:04:38Z</time>
      </trkpt>
      <trkpt lat="47.34547" lon="-1.42191">
        <ele>117</ele>
        <time>2022-08-06T08:04:40Z</time>
      </trkpt>
      <trkpt lat="47.34546" lon="-1.42173">
        <ele>117</ele>
        <time>2022-08-06T08:04:42Z</time>
      </trkpt>
      <trkpt lat="47.34544" lon="-1.42154">
        <ele>118</ele>
        <time>2022-08-06T08:04:44Z</time>
      </trkpt>
      <trkpt lat="47.34542" lon="-1.42135">
        <ele>117</ele>
        <time>2022-08-06T08:04:46Z</time>
      </trkpt>
      <trkpt lat="47.34541" lon="-1.42117">
        <ele>118</ele>
        <time>2022-08-06T08:04:48Z</time>
      </trkpt>
      <trkpt lat="47.34541" lon="-1.42099">
        <ele>117</ele>
        <time>2022-08-06T08:04:50Z</time>
      </trkpt>
      <trkpt lat="47.34541" lon="-1.42082">
        <ele>117</ele>
        <time>2022-08-06T08:04:52Z</time>
      </trkpt>
      <trkpt lat="47.34541" lon="-1.42067">
        <ele>117</ele>
        <time>2022-08-06T08:04:54Z</time>
      </trkpt>
      <trkpt lat="47.34542" lon="-1.42054">
        <ele>118</ele>
        <time>2022-08-06T08:04:56Z</time>
      </trkpt>
      <trkpt lat="47.34543" lon="-1.42036">
        <ele>117</ele>
        <time>2022-08-06T08:04:59Z</time>
      </trkpt>
      <trkpt lat="47.34543" lon="-1.42022">
        <ele>117</ele>
        <time>2022-08-06T08:05:01Z</time>
      </trkpt>
      <trkpt lat="47.34544" lon="-1.42008">
        <ele>117</ele>
        <time>2022-08-06T08:05:03Z</time>
      </trkpt>
      <trkpt lat="47.34543" lon="-1.4199">
        <ele>117</ele>
        <time>2022-08-06T08:05:06Z</time>
      </trkpt>
      <trkpt lat="47.34544" lon="-1.41973">
        <ele>117</ele>
        <time>2022-08-06T08:05:08Z</time>
      </trkpt>
      <trkpt lat="47.34545" lon="-1.41957">
        <ele>117</ele>
        <time>2022-08-06T08:05:10Z</time>
      </trkpt>
      <trkpt lat="47.34546" lon="-1.41939">
        <ele>117</ele>
        <time>2022-08-06T08:05:12Z</time>
      </trkpt>
      <trkpt lat="47.34547" lon="-1.41922">
        <ele>117</ele>
        <time>2022-08-06T08:05:14Z</time>
      </trkpt>
      <trkpt lat="47.34548" lon="-1.41905">
        <ele>118</ele>
        <time>2022-08-06T08:05:16Z</time>
      </trkpt>
      <trkpt lat="47.3455" lon="-1.41888">
        <ele>118</ele>
        <time>2022-08-06T08:05:18Z</time>
      </trkpt>
      <trkpt lat="47.34552" lon="-1.41871">
        <ele>118</ele>
        <time>2022-08-06T08:05:20Z</time>
      </trkpt>
      <trkpt lat="47.34553" lon="-1.41854">
        <ele>118</ele>
        <time>2022-08-06T08:05:22Z</time>
      </trkpt>
      <trkpt lat="47.34555" lon="-1.41838">
        <ele>119</ele>
        <time>2022-08-06T08:05:24Z</time>
      </trkpt>
      <trkpt lat="47.34556" lon="-1.41821">
        <ele>120</ele>
        <time>2022-08-06T08:05:26Z</time>
      </trkpt>
      <trkpt lat="47.34558" lon="-1.41805">
        <ele>121</ele>
        <time>2022-08-06T08:05:28Z</time>
      </trkpt>
      <trkpt lat="47.3456" lon="-1.41789">
        <ele>122</ele>
        <time>2022-08-06T08:05:30Z</time>
      </trkpt>
      <trkpt lat="47.34562" lon="-1.4177">
        <ele>122</ele>
        <time>2022-08-06T08:05:32Z</time>
      </trkpt>
      <trkpt lat="47.34565" lon="-1.41753">
        <ele>123</ele>
        <time>2022-08-06T08:05:34Z</time>
      </trkpt>
      <trkpt lat="47.34567" lon="-1.41735">
        <ele>123</ele>
        <time>2022-08-06T08:05:36Z</time>
      </trkpt>
      <trkpt lat="47.3457" lon="-1.41717">
        <ele>123</ele>
        <time>2022-08-06T08:05:38Z</time>
      </trkpt>
      <trkpt lat="47.34574" lon="-1.417">
        <ele>124</ele>
        <time>2022-08-06T08:05:40Z</time>
      </trkpt>
      <trkpt lat="47.34577" lon="-1.41683">
        <ele>123</ele>
        <time>2022-08-06T08:05:42Z</time>
      </trkpt>
      <trkpt lat="47.34581" lon="-1.41665">
        <ele>123</ele>
        <time>2022-08-06T08:05:44Z</time>
      </trkpt>
      <trkpt lat="47.34585" lon="-1.41649">
        <ele>124</ele>
        <time>2022-08-06T08:05:46Z</time>
      </trkpt>
      <trkpt lat="47.34589" lon="-1.41632">
        <ele>124</ele>
        <time>2022-08-06T08:05:48Z</time>
      </trkpt>
      <trkpt lat="47.34593" lon="-1.41613">
        <ele>124</ele>
        <time>2022-08-06T08:05:50Z</time>
      </trkpt>
      <trkpt lat="47.34597" lon="-1.41594">
        <ele>124</ele>
        <time>2022-08-06T08:05:52Z</time>
      </trkpt>
      <trkpt lat="47.346" lon="-1.41577">
        <ele>124</ele>
        <time>2022-08-06T08:05:54Z</time>
      </trkpt>
      <trkpt lat="47.34605" lon="-1.4156">
        <ele>124</ele>
        <time>2022-08-06T08:05:56Z</time>
      </trkpt>
      <trkpt lat="47.3461" lon="-1.41543">
        <ele>123</ele>
        <time>2022-08-06T08:05:58Z</time>
      </trkpt>
      <trkpt lat="47.34615" lon="-1.41526">
        <ele>123</ele>
        <time>2022-08-06T08:06:00Z</time>
      </trkpt>
      <trkpt lat="47.3462" lon="-1.41509">
        <ele>124</ele>
        <time>2022-08-06T08:06:02Z</time>
      </trkpt>
      <trkpt lat="47.34626" lon="-1.41492">
        <ele>124</ele>
        <time>2022-08-06T08:06:04Z</time>
      </trkpt>
      <trkpt lat="47.34631" lon="-1.41476">
        <ele>124</ele>
        <time>2022-08-06T08:06:06Z</time>
      </trkpt>
      <trkpt lat="47.34637" lon="-1.4146">
        <ele>124</ele>
        <time>2022-08-06T08:06:08Z</time>
      </trkpt>
      <trkpt lat="47.34642" lon="-1.41442">
        <ele>124</ele>
        <time>2022-08-06T08:06:10Z</time>
      </trkpt>
      <trkpt lat="47.34649" lon="-1.41426">
        <ele>124</ele>
        <time>2022-08-06T08:06:12Z</time>
      </trkpt>
      <trkpt lat="47.34655" lon="-1.41409">
        <ele>124</ele>
        <time>2022-08-06T08:06:14Z</time>
      </trkpt>
      <trkpt lat="47.34661" lon="-1.41393">
        <ele>124</ele>
        <time>2022-08-06T08:06:16Z</time>
      </trkpt>
      <trkpt lat="47.34668" lon="-1.41377">
        <ele>124</ele>
        <time>2022-08-06T08:06:18Z</time>
      </trkpt>
      <trkpt lat="47.34673" lon="-1.41362">
        <ele>125</ele>
        <time>2022-08-06T08:06:20Z</time>
      </trkpt>
      <trkpt lat="47.3468" lon="-1.41346">
        <ele>125</ele>
        <time>2022-08-06T08:06:22Z</time>
      </trkpt>
      <trkpt lat="47.34686" lon="-1.4133">
        <ele>125</ele>
        <time>2022-08-06T08:06:24Z</time>
      </trkpt>
      <trkpt lat="47.34693" lon="-1.41315">
        <ele>125</ele>
        <time>2022-08-06T08:06:26Z</time>
      </trkpt>
      <trkpt lat="47.34701" lon="-1.413">
        <ele>125</ele>
        <time>2022-08-06T08:06:28Z</time>
      </trkpt>
      <trkpt lat="47.34708" lon="-1.41285">
        <ele>124</ele>
        <time>2022-08-06T08:06:30Z</time>
      </trkpt>
      <trkpt lat="47.34715" lon="-1.4127">
        <ele>123</ele>
        <time>2022-08-06T08:06:32Z</time>
      </trkpt>
      <trkpt lat="47.34722" lon="-1.41258">
        <ele>123</ele>
        <time>2022-08-06T08:06:34Z</time>
      </trkpt>
      <trkpt lat="47.34729" lon="-1.41244">
        <ele>122</ele>
        <time>2022-08-06T08:06:36Z</time>
      </trkpt>
      <trkpt lat="47.34735" lon="-1.4123">
        <ele>122</ele>
        <time>2022-08-06T08:06:38Z</time>
      </trkpt>
      <trkpt lat="47.34743" lon="-1.41217">
        <ele>121</ele>
        <time>2022-08-06T08:06:40Z</time>
      </trkpt>
      <trkpt lat="47.3475" lon="-1.41204">
        <ele>121</ele>
        <time>2022-08-06T08:06:42Z</time>
      </trkpt>
      <trkpt lat="47.34756" lon="-1.41193">
        <ele>121</ele>
        <time>2022-08-06T08:06:44Z</time>
      </trkpt>
      <trkpt lat="47.34764" lon="-1.41182">
        <ele>121</ele>
        <time>2022-08-06T08:06:46Z</time>
      </trkpt>
      <trkpt lat="47.34772" lon="-1.41168">
        <ele>121</ele>
        <time>2022-08-06T08:06:48Z</time>
      </trkpt>
      <trkpt lat="47.34781" lon="-1.41154">
        <ele>122</ele>
        <time>2022-08-06T08:06:50Z</time>
      </trkpt>
      <trkpt lat="47.3479" lon="-1.4114">
        <ele>122</ele>
        <time>2022-08-06T08:06:52Z</time>
      </trkpt>
      <trkpt lat="47.34799" lon="-1.41126">
        <ele>122</ele>
        <time>2022-08-06T08:06:54Z</time>
      </trkpt>
      <trkpt lat="47.34808" lon="-1.41112">
        <ele>122</ele>
        <time>2022-08-06T08:06:56Z</time>
      </trkpt>
      <trkpt lat="47.34817" lon="-1.41099">
        <ele>122</ele>
        <time>2022-08-06T08:06:58Z</time>
      </trkpt>
      <trkpt lat="47.34826" lon="-1.41086">
        <ele>123</ele>
        <time>2022-08-06T08:07:00Z</time>
      </trkpt>
      <trkpt lat="47.34836" lon="-1.41073">
        <ele>123</ele>
        <time>2022-08-06T08:07:02Z</time>
      </trkpt>
      <trkpt lat="47.34845" lon="-1.4106">
        <ele>123</ele>
        <time>2022-08-06T08:07:04Z</time>
      </trkpt>
      <trkpt lat="47.34855" lon="-1.41046">
        <ele>124</ele>
        <time>2022-08-06T08:07:06Z</time>
      </trkpt>
      <trkpt lat="47.34865" lon="-1.41034">
        <ele>124</ele>
        <time>2022-08-06T08:07:08Z</time>
      </trkpt>
      <trkpt lat="47.34874" lon="-1.41021">
        <ele>124</ele>
        <time>2022-08-06T08:07:10Z</time>
      </trkpt>
      <trkpt lat="47.34884" lon="-1.4101">
        <ele>124</ele>
        <time>2022-08-06T08:07:12Z</time>
      </trkpt>
      <trkpt lat="47.34894" lon="-1.40999">
        <ele>124</ele>
        <time>2022-08-06T08:07:14Z</time>
      </trkpt>
      <trkpt lat="47.34904" lon="-1.40987">
        <ele>124</ele>
        <time>2022-08-06T08:07:16Z</time>
      </trkpt>
      <trkpt lat="47.34915" lon="-1.40974">
        <ele>124</ele>
        <time>2022-08-06T08:07:18Z</time>
      </trkpt>
      <trkpt lat="47.34925" lon="-1.40962">
        <ele>123</ele>
        <time>2022-08-06T08:07:20Z</time>
      </trkpt>
      <trkpt lat="47.34937" lon="-1.4095">
        <ele>123</ele>
        <time>2022-08-06T08:07:22Z</time>
      </trkpt>
      <trkpt lat="47.34948" lon="-1.40939">
        <ele>123</ele>
        <time>2022-08-06T08:07:24Z</time>
      </trkpt>
      <trkpt lat="47.34958" lon="-1.40927">
        <ele>123</ele>
        <time>2022-08-06T08:07:26Z</time>
      </trkpt>
      <trkpt lat="47.3497" lon="-1.40915">
        <ele>123</ele>
        <time>2022-08-06T08:07:28Z</time>
      </trkpt>
      <trkpt lat="47.3498" lon="-1.40904">
        <ele>123</ele>
        <time>2022-08-06T08:07:30Z</time>
      </trkpt>
      <trkpt lat="47.34991" lon="-1.40892">
        <ele>123</ele>
        <time>2022-08-06T08:07:32Z</time>
      </trkpt>
      <trkpt lat="47.35001" lon="-1.40879">
        <ele>124</ele>
        <time>2022-08-06T08:07:34Z</time>
      </trkpt>
      <trkpt lat="47.3501" lon="-1.40868">
        <ele>124</ele>
        <time>2022-08-06T08:07:36Z</time>
      </trkpt>
      <trkpt lat="47.3502" lon="-1.40856">
        <ele>124</ele>
        <time>2022-08-06T08:07:38Z</time>
      </trkpt>
      <trkpt lat="47.3503" lon="-1.40844">
        <ele>124</ele>
        <time>2022-08-06T08:07:40Z</time>
      </trkpt>
      <trkpt lat="47.3504" lon="-1.40833">
        <ele>124</ele>
        <time>2022-08-06T08:07:42Z</time>
      </trkpt>
      <trkpt lat="47.35051" lon="-1.40821">
        <ele>124</ele>
        <time>2022-08-06T08:07:44Z</time>
      </trkpt>
      <trkpt lat="47.35061" lon="-1.40808">
        <ele>124</ele>
        <time>2022-08-06T08:07:46Z</time>
      </trkpt>
      <trkpt lat="47.35072" lon="-1.40795">
        <ele>124</ele>
        <time>2022-08-06T08:07:48Z</time>
      </trkpt>
      <trkpt lat="47.35082" lon="-1.40783">
        <ele>124</ele>
        <time>2022-08-06T08:07:50Z</time>
      </trkpt>
      <trkpt lat="47.35092" lon="-1.4077">
        <ele>124</ele>
        <time>2022-08-06T08:07:52Z</time>
      </trkpt>
      <trkpt lat="47.35102" lon="-1.40757">
        <ele>124</ele>
        <time>2022-08-06T08:07:54Z</time>
      </trkpt>
      <trkpt lat="47.35113" lon="-1.40745">
        <ele>124</ele>
        <time>2022-08-06T08:07:56Z</time>
      </trkpt>
      <trkpt lat="47.35124" lon="-1.40733">
        <ele>124</ele>
        <time>2022-08-06T08:07:58Z</time>
      </trkpt>
      <trkpt lat="47.35134" lon="-1.40721">
        <ele>124</ele>
        <time>2022-08-06T08:08:00Z</time>
      </trkpt>
      <trkpt lat="47.35145" lon="-1.40709">
        <ele>123</ele>
        <time>2022-08-06T08:08:02Z</time>
      </trkpt>
      <trkpt lat="47.35155" lon="-1.40696">
        <ele>123</ele>
        <time>2022-08-06T08:08:04Z</time>
      </trkpt>
      <trkpt lat="47.35165" lon="-1.40683">
        <ele>123</ele>
        <time>2022-08-06T08:08:06Z</time>
      </trkpt>
      <trkpt lat="47.35175" lon="-1.40671">
        <ele>123</ele>
        <time>2022-08-06T08:08:08Z</time>
      </trkpt>
      <trkpt lat="47.35185" lon="-1.40659">
        <ele>123</ele>
        <time>2022-08-06T08:08:10Z</time>
      </trkpt>
      <trkpt lat="47.35196" lon="-1.40647">
        <ele>123</ele>
        <time>2022-08-06T08:08:12Z</time>
      </trkpt>
      <trkpt lat="47.35205" lon="-1.40636">
        <ele>124</ele>
        <time>2022-08-06T08:08:14Z</time>
      </trkpt>
      <trkpt lat="47.35216" lon="-1.40624">
        <ele>124</ele>
        <time>2022-08-06T08:08:16Z</time>
      </trkpt>
      <trkpt lat="47.35226" lon="-1.40612">
        <ele>124</ele>
        <time>2022-08-06T08:08:18Z</time>
      </trkpt>
      <trkpt lat="47.35236" lon="-1.406">
        <ele>123</ele>
        <time>2022-08-06T08:08:20Z</time>
      </trkpt>
      <trkpt lat="47.35245" lon="-1.4059">
        <ele>123</ele>
        <time>2022-08-06T08:08:22Z</time>
      </trkpt>
      <trkpt lat="47.35253" lon="-1.40577">
        <ele>124</ele>
        <time>2022-08-06T08:08:25Z</time>
      </trkpt>
      <trkpt lat="47.35263" lon="-1.40568">
        <ele>124</ele>
        <time>2022-08-06T08:08:28Z</time>
      </trkpt>
      <trkpt lat="47.35271" lon="-1.4056">
        <ele>123</ele>
        <time>2022-08-06T08:08:30Z</time>
      </trkpt>
      <trkpt lat="47.3528" lon="-1.4055">
        <ele>123</ele>
        <time>2022-08-06T08:08:32Z</time>
      </trkpt>
      <trkpt lat="47.35287" lon="-1.4054">
        <ele>122</ele>
        <time>2022-08-06T08:08:34Z</time>
      </trkpt>
      <trkpt lat="47.35298" lon="-1.40527">
        <ele>122</ele>
        <time>2022-08-06T08:08:37Z</time>
      </trkpt>
      <trkpt lat="47.35308" lon="-1.40516">
        <ele>123</ele>
        <time>2022-08-06T08:08:39Z</time>
      </trkpt>
      <trkpt lat="47.35318" lon="-1.40505">
        <ele>123</ele>
        <time>2022-08-06T08:08:41Z</time>
      </trkpt>
      <trkpt lat="47.35327" lon="-1.40493">
        <ele>123</ele>
        <time>2022-08-06T08:08:43Z</time>
      </trkpt>
      <trkpt lat="47.35336" lon="-1.40482">
        <ele>124</ele>
        <time>2022-08-06T08:08:45Z</time>
      </trkpt>
      <trkpt lat="47.35346" lon="-1.40472">
        <ele>124</ele>
        <time>2022-08-06T08:08:47Z</time>
      </trkpt>
      <trkpt lat="47.35357" lon="-1.40461">
        <ele>124</ele>
        <time>2022-08-06T08:08:49Z</time>
      </trkpt>
      <trkpt lat="47.35367" lon="-1.4045">
        <ele>125</ele>
        <time>2022-08-06T08:08:51Z</time>
      </trkpt>
      <trkpt lat="47.35377" lon="-1.40438">
        <ele>125</ele>
        <time>2022-08-06T08:08:53Z</time>
      </trkpt>
      <trkpt lat="47.35387" lon="-1.40427">
        <ele>125</ele>
        <time>2022-08-06T08:08:55Z</time>
      </trkpt>
      <trkpt lat="47.35398" lon="-1.40414">
        <ele>125</ele>
        <time>2022-08-06T08:08:57Z</time>
      </trkpt>
      <trkpt lat="47.35408" lon="-1.40403">
        <ele>126</ele>
        <time>2022-08-06T08:08:59Z</time>
      </trkpt>
      <trkpt lat="47.35418" lon="-1.40389">
        <ele>127</ele>
        <time>2022-08-06T08:09:01Z</time>
      </trkpt>
      <trkpt lat="47.35429" lon="-1.40375">
        <ele>127</ele>
        <time>2022-08-06T08:09:03Z</time>
      </trkpt>
      <trkpt lat="47.35441" lon="-1.40361">
        <ele>127</ele>
        <time>2022-08-06T08:09:05Z</time>
      </trkpt>
      <trkpt lat="47.35453" lon="-1.40347">
        <ele>126</ele>
        <time>2022-08-06T08:09:07Z</time>
      </trkpt>
      <trkpt lat="47.35464" lon="-1.40333">
        <ele>126</ele>
        <time>2022-08-06T08:09:09Z</time>
      </trkpt>
      <trkpt lat="47.35475" lon="-1.4032">
        <ele>125</ele>
        <time>2022-08-06T08:09:11Z</time>
      </trkpt>
      <trkpt lat="47.35485" lon="-1.40307">
        <ele>126</ele>
        <time>2022-08-06T08:09:13Z</time>
      </trkpt>
      <trkpt lat="47.35496" lon="-1.40295">
        <ele>126</ele>
        <time>2022-08-06T08:09:15Z</time>
      </trkpt>
      <trkpt lat="47.35506" lon="-1.40284">
        <ele>126</ele>
        <time>2022-08-06T08:09:17Z</time>
      </trkpt>
      <trkpt lat="47.35516" lon="-1.40272">
        <ele>126</ele>
        <time>2022-08-06T08:09:19Z</time>
      </trkpt>
      <trkpt lat="47.35524" lon="-1.40262">
        <ele>126</ele>
        <time>2022-08-06T08:09:21Z</time>
      </trkpt>
      <trkpt lat="47.35534" lon="-1.40253">
        <ele>125</ele>
        <time>2022-08-06T08:09:23Z</time>
      </trkpt>
      <trkpt lat="47.3554" lon="-1.40243">
        <ele>123</ele>
        <time>2022-08-06T08:09:25Z</time>
      </trkpt>
      <trkpt lat="47.35549" lon="-1.40234">
        <ele>122</ele>
        <time>2022-08-06T08:09:28Z</time>
      </trkpt>
      <trkpt lat="47.35559" lon="-1.40222">
        <ele>121</ele>
        <time>2022-08-06T08:09:31Z</time>
      </trkpt>
      <trkpt lat="47.3557" lon="-1.4021">
        <ele>121</ele>
        <time>2022-08-06T08:09:34Z</time>
      </trkpt>
      <trkpt lat="47.35579" lon="-1.402">
        <ele>122</ele>
        <time>2022-08-06T08:09:36Z</time>
      </trkpt>
      <trkpt lat="47.35589" lon="-1.40189">
        <ele>122</ele>
        <time>2022-08-06T08:09:38Z</time>
      </trkpt>
      <trkpt lat="47.35599" lon="-1.40177">
        <ele>122</ele>
        <time>2022-08-06T08:09:40Z</time>
      </trkpt>
      <trkpt lat="47.35609" lon="-1.40165">
        <ele>122</ele>
        <time>2022-08-06T08:09:42Z</time>
      </trkpt>
      <trkpt lat="47.35619" lon="-1.40153">
        <ele>122</ele>
        <time>2022-08-06T08:09:44Z</time>
      </trkpt>
      <trkpt lat="47.35629" lon="-1.40142">
        <ele>122</ele>
        <time>2022-08-06T08:09:46Z</time>
      </trkpt>
      <trkpt lat="47.35638" lon="-1.40131">
        <ele>122</ele>
        <time>2022-08-06T08:09:48Z</time>
      </trkpt>
      <trkpt lat="47.35648" lon="-1.40119">
        <ele>123</ele>
        <time>2022-08-06T08:09:50Z</time>
      </trkpt>
      <trkpt lat="47.35658" lon="-1.40107">
        <ele>124</ele>
        <time>2022-08-06T08:09:52Z</time>
      </trkpt>
      <trkpt lat="47.35668" lon="-1.40096">
        <ele>124</ele>
        <time>2022-08-06T08:09:54Z</time>
      </trkpt>
      <trkpt lat="47.35678" lon="-1.40084">
        <ele>124</ele>
        <time>2022-08-06T08:09:56Z</time>
      </trkpt>
      <trkpt lat="47.35688" lon="-1.40072">
        <ele>124</ele>
        <time>2022-08-06T08:09:58Z</time>
      </trkpt>
      <trkpt lat="47.35698" lon="-1.4006">
        <ele>124</ele>
        <time>2022-08-06T08:10:00Z</time>
      </trkpt>
      <trkpt lat="47.35707" lon="-1.40049">
        <ele>124</ele>
        <time>2022-08-06T08:10:02Z</time>
      </trkpt>
      <trkpt lat="47.35717" lon="-1.40037">
        <ele>124</ele>
        <time>2022-08-06T08:10:04Z</time>
      </trkpt>
      <trkpt lat="47.35726" lon="-1.40025">
        <ele>124</ele>
        <time>2022-08-06T08:10:06Z</time>
      </trkpt>
      <trkpt lat="47.35736" lon="-1.40013">
        <ele>124</ele>
        <time>2022-08-06T08:10:08Z</time>
      </trkpt>
      <trkpt lat="47.35746" lon="-1.40001">
        <ele>124</ele>
        <time>2022-08-06T08:10:10Z</time>
      </trkpt>
      <trkpt lat="47.35755" lon="-1.39989">
        <ele>124</ele>
        <time>2022-08-06T08:10:12Z</time>
      </trkpt>
      <trkpt lat="47.35764" lon="-1.39979">
        <ele>125</ele>
        <time>2022-08-06T08:10:14Z</time>
      </trkpt>
      <trkpt lat="47.35774" lon="-1.39968">
        <ele>126</ele>
        <time>2022-08-06T08:10:16Z</time>
      </trkpt>
      <trkpt lat="47.35784" lon="-1.39957">
        <ele>126</ele>
        <time>2022-08-06T08:10:18Z</time>
      </trkpt>
      <trkpt lat="47.35794" lon="-1.39947">
        <ele>126</ele>
        <time>2022-08-06T08:10:20Z</time>
      </trkpt>
      <trkpt lat="47.35804" lon="-1.39936">
        <ele>126</ele>
        <time>2022-08-06T08:10:22Z</time>
      </trkpt>
      <trkpt lat="47.35814" lon="-1.39925">
        <ele>126</ele>
        <time>2022-08-06T08:10:24Z</time>
      </trkpt>
      <trkpt lat="47.35824" lon="-1.39914">
        <ele>126</ele>
        <time>2022-08-06T08:10:26Z</time>
      </trkpt>
      <trkpt lat="47.35834" lon="-1.39902">
        <ele>125</ele>
        <time>2022-08-06T08:10:28Z</time>
      </trkpt>
      <trkpt lat="47.35844" lon="-1.39891">
        <ele>125</ele>
        <time>2022-08-06T08:10:30Z</time>
      </trkpt>
      <trkpt lat="47.35854" lon="-1.39879">
        <ele>125</ele>
        <time>2022-08-06T08:10:32Z</time>
      </trkpt>
      <trkpt lat="47.35863" lon="-1.39867">
        <ele>124</ele>
        <time>2022-08-06T08:10:34Z</time>
      </trkpt>
      <trkpt lat="47.35873" lon="-1.39856">
        <ele>124</ele>
        <time>2022-08-06T08:10:36Z</time>
      </trkpt>
      <trkpt lat="47.35883" lon="-1.39845">
        <ele>124</ele>
        <time>2022-08-06T08:10:38Z</time>
      </trkpt>
      <trkpt lat="47.35893" lon="-1.39834">
        <ele>125</ele>
        <time>2022-08-06T08:10:40Z</time>
      </trkpt>
      <trkpt lat="47.35902" lon="-1.39823">
        <ele>125</ele>
        <time>2022-08-06T08:10:42Z</time>
      </trkpt>
      <trkpt lat="47.35912" lon="-1.39811">
        <ele>125</ele>
        <time>2022-08-06T08:10:44Z</time>
      </trkpt>
      <trkpt lat="47.35922" lon="-1.398">
        <ele>125</ele>
        <time>2022-08-06T08:10:46Z</time>
      </trkpt>
      <trkpt lat="47.35932" lon="-1.39788">
        <ele>124</ele>
        <time>2022-08-06T08:10:48Z</time>
      </trkpt>
      <trkpt lat="47.35941" lon="-1.39777">
        <ele>124</ele>
        <time>2022-08-06T08:10:50Z</time>
      </trkpt>
      <trkpt lat="47.35951" lon="-1.39767">
        <ele>124</ele>
        <time>2022-08-06T08:10:52Z</time>
      </trkpt>
      <trkpt lat="47.35962" lon="-1.39755">
        <ele>125</ele>
        <time>2022-08-06T08:10:54Z</time>
      </trkpt>
      <trkpt lat="47.35972" lon="-1.39743">
        <ele>125</ele>
        <time>2022-08-06T08:10:56Z</time>
      </trkpt>
      <trkpt lat="47.35982" lon="-1.39731">
        <ele>125</ele>
        <time>2022-08-06T08:10:58Z</time>
      </trkpt>
      <trkpt lat="47.35993" lon="-1.39717">
        <ele>125</ele>
        <time>2022-08-06T08:11:00Z</time>
      </trkpt>
      <trkpt lat="47.36003" lon="-1.39704">
        <ele>125</ele>
        <time>2022-08-06T08:11:02Z</time>
      </trkpt>
      <trkpt lat="47.36013" lon="-1.39692">
        <ele>125</ele>
        <time>2022-08-06T08:11:04Z</time>
      </trkpt>
      <trkpt lat="47.36023" lon="-1.39681">
        <ele>125</ele>
        <time>2022-08-06T08:11:06Z</time>
      </trkpt>
      <trkpt lat="47.36032" lon="-1.39669">
        <ele>125</ele>
        <time>2022-08-06T08:11:08Z</time>
      </trkpt>
      <trkpt lat="47.36039" lon="-1.39658">
        <ele>125</ele>
        <time>2022-08-06T08:11:10Z</time>
      </trkpt>
      <trkpt lat="47.36051" lon="-1.39648">
        <ele>125</ele>
        <time>2022-08-06T08:11:13Z</time>
      </trkpt>
      <trkpt lat="47.36059" lon="-1.39636">
        <ele>124</ele>
        <time>2022-08-06T08:11:16Z</time>
      </trkpt>
      <trkpt lat="47.36067" lon="-1.3963">
        <ele>124</ele>
        <time>2022-08-06T08:11:18Z</time>
      </trkpt>
      <trkpt lat="47.36076" lon="-1.39619">
        <ele>124</ele>
        <time>2022-08-06T08:11:20Z</time>
      </trkpt>
      <trkpt lat="47.36086" lon="-1.39608">
        <ele>123</ele>
        <time>2022-08-06T08:11:22Z</time>
      </trkpt>
      <trkpt lat="47.36096" lon="-1.39597">
        <ele>123</ele>
        <time>2022-08-06T08:11:24Z</time>
      </trkpt>
      <trkpt lat="47.36106" lon="-1.39585">
        <ele>122</ele>
        <time>2022-08-06T08:11:26Z</time>
      </trkpt>
      <trkpt lat="47.36117" lon="-1.39573">
        <ele>122</ele>
        <time>2022-08-06T08:11:28Z</time>
      </trkpt>
      <trkpt lat="47.36127" lon="-1.39561">
        <ele>122</ele>
        <time>2022-08-06T08:11:30Z</time>
      </trkpt>
      <trkpt lat="47.36137" lon="-1.39548">
        <ele>121</ele>
        <time>2022-08-06T08:11:32Z</time>
      </trkpt>
      <trkpt lat="47.36148" lon="-1.39536">
        <ele>121</ele>
        <time>2022-08-06T08:11:34Z</time>
      </trkpt>
      <trkpt lat="47.36158" lon="-1.39523">
        <ele>121</ele>
        <time>2022-08-06T08:11:36Z</time>
      </trkpt>
      <trkpt lat="47.3617" lon="-1.39511">
        <ele>121</ele>
        <time>2022-08-06T08:11:38Z</time>
      </trkpt>
      <trkpt lat="47.36181" lon="-1.39498">
        <ele>120</ele>
        <time>2022-08-06T08:11:40Z</time>
      </trkpt>
      <trkpt lat="47.36192" lon="-1.39485">
        <ele>120</ele>
        <time>2022-08-06T08:11:42Z</time>
      </trkpt>
      <trkpt lat="47.36204" lon="-1.39472">
        <ele>120</ele>
        <time>2022-08-06T08:11:44Z</time>
      </trkpt>
      <trkpt lat="47.36215" lon="-1.39458">
        <ele>119</ele>
        <time>2022-08-06T08:11:46Z</time>
      </trkpt>
      <trkpt lat="47.36226" lon="-1.39446">
        <ele>119</ele>
        <time>2022-08-06T08:11:48Z</time>
      </trkpt>
      <trkpt lat="47.36237" lon="-1.39432">
        <ele>119</ele>
        <time>2022-08-06T08:11:50Z</time>
      </trkpt>
      <trkpt lat="47.36248" lon="-1.39421">
        <ele>119</ele>
        <time>2022-08-06T08:11:52Z</time>
      </trkpt>
      <trkpt lat="47.36259" lon="-1.39408">
        <ele>120</ele>
        <time>2022-08-06T08:11:54Z</time>
      </trkpt>
      <trkpt lat="47.36269" lon="-1.39395">
        <ele>120</ele>
        <time>2022-08-06T08:11:56Z</time>
      </trkpt>
      <trkpt lat="47.3628" lon="-1.39382">
        <ele>120</ele>
        <time>2022-08-06T08:11:58Z</time>
      </trkpt>
      <trkpt lat="47.3629" lon="-1.3937">
        <ele>120</ele>
        <time>2022-08-06T08:12:00Z</time>
      </trkpt>
      <trkpt lat="47.36299" lon="-1.39358">
        <ele>120</ele>
        <time>2022-08-06T08:12:02Z</time>
      </trkpt>
      <trkpt lat="47.36306" lon="-1.39349">
        <ele>120</ele>
        <time>2022-08-06T08:12:04Z</time>
      </trkpt>
      <trkpt lat="47.36316" lon="-1.39338">
        <ele>119</ele>
        <time>2022-08-06T08:12:07Z</time>
      </trkpt>
      <trkpt lat="47.36327" lon="-1.39326">
        <ele>119</ele>
        <time>2022-08-06T08:12:10Z</time>
      </trkpt>
      <trkpt lat="47.36336" lon="-1.39315">
        <ele>119</ele>
        <time>2022-08-06T08:12:12Z</time>
      </trkpt>
      <trkpt lat="47.36347" lon="-1.39304">
        <ele>119</ele>
        <time>2022-08-06T08:12:14Z</time>
      </trkpt>
      <trkpt lat="47.36357" lon="-1.39292">
        <ele>118</ele>
        <time>2022-08-06T08:12:16Z</time>
      </trkpt>
      <trkpt lat="47.36369" lon="-1.39278">
        <ele>117</ele>
        <time>2022-08-06T08:12:18Z</time>
      </trkpt>
      <trkpt lat="47.3638" lon="-1.39265">
        <ele>116</ele>
        <time>2022-08-06T08:12:20Z</time>
      </trkpt>
      <trkpt lat="47.36391" lon="-1.39253">
        <ele>116</ele>
        <time>2022-08-06T08:12:22Z</time>
      </trkpt>
      <trkpt lat="47.36401" lon="-1.39239">
        <ele>116</ele>
        <time>2022-08-06T08:12:24Z</time>
      </trkpt>
      <trkpt lat="47.36412" lon="-1.39227">
        <ele>116</ele>
        <time>2022-08-06T08:12:26Z</time>
      </trkpt>
      <trkpt lat="47.36423" lon="-1.39215">
        <ele>117</ele>
        <time>2022-08-06T08:12:28Z</time>
      </trkpt>
      <trkpt lat="47.36434" lon="-1.39203">
        <ele>117</ele>
        <time>2022-08-06T08:12:30Z</time>
      </trkpt>
      <trkpt lat="47.36444" lon="-1.3919">
        <ele>118</ele>
        <time>2022-08-06T08:12:32Z</time>
      </trkpt>
      <trkpt lat="47.36454" lon="-1.39179">
        <ele>118</ele>
        <time>2022-08-06T08:12:34Z</time>
      </trkpt>
      <trkpt lat="47.36464" lon="-1.39166">
        <ele>119</ele>
        <time>2022-08-06T08:12:36Z</time>
      </trkpt>
      <trkpt lat="47.36474" lon="-1.39154">
        <ele>119</ele>
        <time>2022-08-06T08:12:38Z</time>
      </trkpt>
      <trkpt lat="47.36484" lon="-1.39142">
        <ele>120</ele>
        <time>2022-08-06T08:12:40Z</time>
      </trkpt>
      <trkpt lat="47.36494" lon="-1.3913">
        <ele>120</ele>
        <time>2022-08-06T08:12:42Z</time>
      </trkpt>
      <trkpt lat="47.36503" lon="-1.3912">
        <ele>121</ele>
        <time>2022-08-06T08:12:44Z</time>
      </trkpt>
      <trkpt lat="47.36514" lon="-1.39108">
        <ele>121</ele>
        <time>2022-08-06T08:12:46Z</time>
      </trkpt>
      <trkpt lat="47.36524" lon="-1.39096">
        <ele>121</ele>
        <time>2022-08-06T08:12:48Z</time>
      </trkpt>
      <trkpt lat="47.36534" lon="-1.39085">
        <ele>121</ele>
        <time>2022-08-06T08:12:50Z</time>
      </trkpt>
      <trkpt lat="47.36544" lon="-1.39075">
        <ele>121</ele>
        <time>2022-08-06T08:12:52Z</time>
      </trkpt>
      <trkpt lat="47.36553" lon="-1.39063">
        <ele>121</ele>
        <time>2022-08-06T08:12:54Z</time>
      </trkpt>
      <trkpt lat="47.36563" lon="-1.3905">
        <ele>121</ele>
        <time>2022-08-06T08:12:56Z</time>
      </trkpt>
      <trkpt lat="47.36574" lon="-1.39038">
        <ele>121</ele>
        <time>2022-08-06T08:12:58Z</time>
      </trkpt>
      <trkpt lat="47.36584" lon="-1.39027">
        <ele>121</ele>
        <time>2022-08-06T08:13:00Z</time>
      </trkpt>
      <trkpt lat="47.36592" lon="-1.39016">
        <ele>119</ele>
        <time>2022-08-06T08:13:02Z</time>
      </trkpt>
      <trkpt lat="47.366" lon="-1.39007">
        <ele>119</ele>
        <time>2022-08-06T08:13:04Z</time>
      </trkpt>
      <trkpt lat="47.36609" lon="-1.38993">
        <ele>119</ele>
        <time>2022-08-06T08:13:07Z</time>
      </trkpt>
      <trkpt lat="47.36611" lon="-1.3898">
        <ele>119</ele>
        <time>2022-08-06T08:13:11Z</time>
      </trkpt>
      <trkpt lat="47.36603" lon="-1.38966">
        <ele>120</ele>
        <time>2022-08-06T08:13:14Z</time>
      </trkpt>
      <trkpt lat="47.36596" lon="-1.38953">
        <ele>121</ele>
        <time>2022-08-06T08:13:16Z</time>
      </trkpt>
      <trkpt lat="47.36589" lon="-1.38937">
        <ele>121</ele>
        <time>2022-08-06T08:13:18Z</time>
      </trkpt>
      <trkpt lat="47.36583" lon="-1.38922">
        <ele>121</ele>
        <time>2022-08-06T08:13:20Z</time>
      </trkpt>
      <trkpt lat="47.36576" lon="-1.38907">
        <ele>120</ele>
        <time>2022-08-06T08:13:22Z</time>
      </trkpt>
      <trkpt lat="47.36569" lon="-1.38892">
        <ele>120</ele>
        <time>2022-08-06T08:13:24Z</time>
      </trkpt>
      <trkpt lat="47.36562" lon="-1.38877">
        <ele>119</ele>
        <time>2022-08-06T08:13:26Z</time>
      </trkpt>
      <trkpt lat="47.36555" lon="-1.38863">
        <ele>119</ele>
        <time>2022-08-06T08:13:28Z</time>
      </trkpt>
      <trkpt lat="47.36547" lon="-1.38849">
        <ele>119</ele>
        <time>2022-08-06T08:13:30Z</time>
      </trkpt>
      <trkpt lat="47.3654" lon="-1.38834">
        <ele>119</ele>
        <time>2022-08-06T08:13:32Z</time>
      </trkpt>
      <trkpt lat="47.36533" lon="-1.38819">
        <ele>119</ele>
        <time>2022-08-06T08:13:34Z</time>
      </trkpt>
      <trkpt lat="47.36526" lon="-1.38804">
        <ele>119</ele>
        <time>2022-08-06T08:13:36Z</time>
      </trkpt>
      <trkpt lat="47.3652" lon="-1.3879">
        <ele>119</ele>
        <time>2022-08-06T08:13:38Z</time>
      </trkpt>
      <trkpt lat="47.36513" lon="-1.38775">
        <ele>119</ele>
        <time>2022-08-06T08:13:40Z</time>
      </trkpt>
      <trkpt lat="47.36506" lon="-1.38761">
        <ele>119</ele>
        <time>2022-08-06T08:13:42Z</time>
      </trkpt>
      <trkpt lat="47.365" lon="-1.38746">
        <ele>119</ele>
        <time>2022-08-06T08:13:44Z</time>
      </trkpt>
      <trkpt lat="47.36493" lon="-1.38731">
        <ele>119</ele>
        <time>2022-08-06T08:13:46Z</time>
      </trkpt>
      <trkpt lat="47.36486" lon="-1.38717">
        <ele>119</ele>
        <time>2022-08-06T08:13:48Z</time>
      </trkpt>
      <trkpt lat="47.36479" lon="-1.38702">
        <ele>120</ele>
        <time>2022-08-06T08:13:50Z</time>
      </trkpt>
      <trkpt lat="47.36471" lon="-1.38688">
        <ele>120</ele>
        <time>2022-08-06T08:13:52Z</time>
      </trkpt>
      <trkpt lat="47.36465" lon="-1.38673">
        <ele>121</ele>
        <time>2022-08-06T08:13:54Z</time>
      </trkpt>
      <trkpt lat="47.36458" lon="-1.38659">
        <ele>120</ele>
        <time>2022-08-06T08:13:56Z</time>
      </trkpt>
      <trkpt lat="47.3645" lon="-1.38643">
        <ele>120</ele>
        <time>2022-08-06T08:13:58Z</time>
      </trkpt>
      <trkpt lat="47.36443" lon="-1.38628">
        <ele>120</ele>
        <time>2022-08-06T08:14:00Z</time>
      </trkpt>
      <trkpt lat="47.36436" lon="-1.38613">
        <ele>120</ele>
        <time>2022-08-06T08:14:02Z</time>
      </trkpt>
      <trkpt lat="47.36429" lon="-1.38598">
        <ele>120</ele>
        <time>2022-08-06T08:14:04Z</time>
      </trkpt>
      <trkpt lat="47.36422" lon="-1.38583">
        <ele>119</ele>
        <time>2022-08-06T08:14:06Z</time>
      </trkpt>
      <trkpt lat="47.36415" lon="-1.38569">
        <ele>119</ele>
        <time>2022-08-06T08:14:08Z</time>
      </trkpt>
      <trkpt lat="47.36407" lon="-1.38555">
        <ele>119</ele>
        <time>2022-08-06T08:14:10Z</time>
      </trkpt>
      <trkpt lat="47.36399" lon="-1.38541">
        <ele>119</ele>
        <time>2022-08-06T08:14:12Z</time>
      </trkpt>
      <trkpt lat="47.3639" lon="-1.38528">
        <ele>119</ele>
        <time>2022-08-06T08:14:14Z</time>
      </trkpt>
      <trkpt lat="47.36381" lon="-1.38515">
        <ele>119</ele>
        <time>2022-08-06T08:14:16Z</time>
      </trkpt>
      <trkpt lat="47.36373" lon="-1.38502">
        <ele>119</ele>
        <time>2022-08-06T08:14:18Z</time>
      </trkpt>
      <trkpt lat="47.36364" lon="-1.38489">
        <ele>119</ele>
        <time>2022-08-06T08:14:20Z</time>
      </trkpt>
      <trkpt lat="47.36355" lon="-1.38476">
        <ele>118</ele>
        <time>2022-08-06T08:14:22Z</time>
      </trkpt>
      <trkpt lat="47.36347" lon="-1.38464">
        <ele>118</ele>
        <time>2022-08-06T08:14:24Z</time>
      </trkpt>
      <trkpt lat="47.36338" lon="-1.38451">
        <ele>119</ele>
        <time>2022-08-06T08:14:26Z</time>
      </trkpt>
      <trkpt lat="47.36329" lon="-1.38437">
        <ele>119</ele>
        <time>2022-08-06T08:14:28Z</time>
      </trkpt>
      <trkpt lat="47.3632" lon="-1.38424">
        <ele>119</ele>
        <time>2022-08-06T08:14:30Z</time>
      </trkpt>
      <trkpt lat="47.36311" lon="-1.38411">
        <ele>119</ele>
        <time>2022-08-06T08:14:32Z</time>
      </trkpt>
      <trkpt lat="47.36302" lon="-1.38397">
        <ele>118</ele>
        <time>2022-08-06T08:14:34Z</time>
      </trkpt>
      <trkpt lat="47.36294" lon="-1.38384">
        <ele>118</ele>
        <time>2022-08-06T08:14:36Z</time>
      </trkpt>
      <trkpt lat="47.36285" lon="-1.3837">
        <ele>118</ele>
        <time>2022-08-06T08:14:38Z</time>
      </trkpt>
      <trkpt lat="47.36276" lon="-1.38357">
        <ele>118</ele>
        <time>2022-08-06T08:14:40Z</time>
      </trkpt>
      <trkpt lat="47.36267" lon="-1.38344">
        <ele>118</ele>
        <time>2022-08-06T08:14:42Z</time>
      </trkpt>
      <trkpt lat="47.36259" lon="-1.38331">
        <ele>118</ele>
        <time>2022-08-06T08:14:44Z</time>
      </trkpt>
      <trkpt lat="47.3625" lon="-1.38318">
        <ele>118</ele>
        <time>2022-08-06T08:14:46Z</time>
      </trkpt>
      <trkpt lat="47.36242" lon="-1.38306">
        <ele>118</ele>
        <time>2022-08-06T08:14:48Z</time>
      </trkpt>
      <trkpt lat="47.36233" lon="-1.38292">
        <ele>119</ele>
        <time>2022-08-06T08:14:50Z</time>
      </trkpt>
      <trkpt lat="47.36224" lon="-1.38279">
        <ele>119</ele>
        <time>2022-08-06T08:14:52Z</time>
      </trkpt>
      <trkpt lat="47.36215" lon="-1.38266">
        <ele>118</ele>
        <time>2022-08-06T08:14:54Z</time>
      </trkpt>
      <trkpt lat="47.36206" lon="-1.38252">
        <ele>118</ele>
        <time>2022-08-06T08:14:56Z</time>
      </trkpt>
      <trkpt lat="47.36198" lon="-1.38239">
        <ele>118</ele>
        <time>2022-08-06T08:14:58Z</time>
      </trkpt>
      <trkpt lat="47.36189" lon="-1.38226">
        <ele>118</ele>
        <time>2022-08-06T08:15:00Z</time>
      </trkpt>
      <trkpt lat="47.3618" lon="-1.38212">
        <ele>118</ele>
        <time>2022-08-06T08:15:02Z</time>
      </trkpt>
      <trkpt lat="47.36171" lon="-1.38199">
        <ele>118</ele>
        <time>2022-08-06T08:15:04Z</time>
      </trkpt>
      <trkpt lat="47.36163" lon="-1.38186">
        <ele>119</ele>
        <time>2022-08-06T08:15:06Z</time>
      </trkpt>
      <trkpt lat="47.36154" lon="-1.38172">
        <ele>119</ele>
        <time>2022-08-06T08:15:08Z</time>
      </trkpt>
      <trkpt lat="47.36145" lon="-1.3816">
        <ele>119</ele>
        <time>2022-08-06T08:15:10Z</time>
      </trkpt>
      <trkpt lat="47.36137" lon="-1.38148">
        <ele>119</ele>
        <time>2022-08-06T08:15:12Z</time>
      </trkpt>
      <trkpt lat="47.36128" lon="-1.38135">
        <ele>119</ele>
        <time>2022-08-06T08:15:14Z</time>
      </trkpt>
      <trkpt lat="47.3612" lon="-1.38122">
        <ele>120</ele>
        <time>2022-08-06T08:15:16Z</time>
      </trkpt>
      <trkpt lat="47.36111" lon="-1.3811">
        <ele>120</ele>
        <time>2022-08-06T08:15:18Z</time>
      </trkpt>
      <trkpt lat="47.36103" lon="-1.38097">
        <ele>120</ele>
        <time>2022-08-06T08:15:20Z</time>
      </trkpt>
      <trkpt lat="47.36095" lon="-1.38086">
        <ele>120</ele>
        <time>2022-08-06T08:15:22Z</time>
      </trkpt>
      <trkpt lat="47.36087" lon="-1.38074">
        <ele>120</ele>
        <time>2022-08-06T08:15:24Z</time>
      </trkpt>
      <trkpt lat="47.36078" lon="-1.38063">
        <ele>121</ele>
        <time>2022-08-06T08:15:26Z</time>
      </trkpt>
      <trkpt lat="47.3607" lon="-1.3805">
        <ele>120</ele>
        <time>2022-08-06T08:15:28Z</time>
      </trkpt>
      <trkpt lat="47.36062" lon="-1.38038">
        <ele>120</ele>
        <time>2022-08-06T08:15:30Z</time>
      </trkpt>
      <trkpt lat="47.36054" lon="-1.38025">
        <ele>120</ele>
        <time>2022-08-06T08:15:32Z</time>
      </trkpt>
      <trkpt lat="47.36046" lon="-1.38013">
        <ele>121</ele>
        <time>2022-08-06T08:15:34Z</time>
      </trkpt>
      <trkpt lat="47.36038" lon="-1.38001">
        <ele>121</ele>
        <time>2022-08-06T08:15:36Z</time>
      </trkpt>
      <trkpt lat="47.3603" lon="-1.37989">
        <ele>121</ele>
        <time>2022-08-06T08:15:38Z</time>
      </trkpt>
      <trkpt lat="47.36023" lon="-1.37978">
        <ele>121</ele>
        <time>2022-08-06T08:15:40Z</time>
      </trkpt>
      <trkpt lat="47.36015" lon="-1.37967">
        <ele>121</ele>
        <time>2022-08-06T08:15:42Z</time>
      </trkpt>
      <trkpt lat="47.36008" lon="-1.37955">
        <ele>122</ele>
        <time>2022-08-06T08:15:44Z</time>
      </trkpt>
      <trkpt lat="47.36" lon="-1.37944">
        <ele>122</ele>
        <time>2022-08-06T08:15:46Z</time>
      </trkpt>
      <trkpt lat="47.35993" lon="-1.37932">
        <ele>122</ele>
        <time>2022-08-06T08:15:48Z</time>
      </trkpt>
      <trkpt lat="47.35986" lon="-1.37921">
        <ele>122</ele>
        <time>2022-08-06T08:15:50Z</time>
      </trkpt>
      <trkpt lat="47.35978" lon="-1.3791">
        <ele>123</ele>
        <time>2022-08-06T08:15:52Z</time>
      </trkpt>
      <trkpt lat="47.35971" lon="-1.37898">
        <ele>123</ele>
        <time>2022-08-06T08:15:54Z</time>
      </trkpt>
      <trkpt lat="47.35963" lon="-1.37887">
        <ele>123</ele>
        <time>2022-08-06T08:15:56Z</time>
      </trkpt>
      <trkpt lat="47.35955" lon="-1.37876">
        <ele>124</ele>
        <time>2022-08-06T08:15:58Z</time>
      </trkpt>
      <trkpt lat="47.35948" lon="-1.37865">
        <ele>124</ele>
        <time>2022-08-06T08:16:00Z</time>
      </trkpt>
      <trkpt lat="47.3594" lon="-1.37853">
        <ele>124</ele>
        <time>2022-08-06T08:16:02Z</time>
      </trkpt>
      <trkpt lat="47.35933" lon="-1.37842">
        <ele>124</ele>
        <time>2022-08-06T08:16:04Z</time>
      </trkpt>
      <trkpt lat="47.35922" lon="-1.37825">
        <ele>124</ele>
        <time>2022-08-06T08:16:07Z</time>
      </trkpt>
      <trkpt lat="47.35914" lon="-1.37813">
        <ele>124</ele>
        <time>2022-08-06T08:16:09Z</time>
      </trkpt>
      <trkpt lat="47.35906" lon="-1.37801">
        <ele>124</ele>
        <time>2022-08-06T08:16:11Z</time>
      </trkpt>
      <trkpt lat="47.35899" lon="-1.3779">
        <ele>124</ele>
        <time>2022-08-06T08:16:13Z</time>
      </trkpt>
      <trkpt lat="47.35891" lon="-1.37779">
        <ele>125</ele>
        <time>2022-08-06T08:16:15Z</time>
      </trkpt>
      <trkpt lat="47.35884" lon="-1.37767">
        <ele>125</ele>
        <time>2022-08-06T08:16:17Z</time>
      </trkpt>
      <trkpt lat="47.35876" lon="-1.37756">
        <ele>125</ele>
        <time>2022-08-06T08:16:19Z</time>
      </trkpt>
      <trkpt lat="47.35868" lon="-1.37744">
        <ele>126</ele>
        <time>2022-08-06T08:16:21Z</time>
      </trkpt>
      <trkpt lat="47.35861" lon="-1.37732">
        <ele>126</ele>
        <time>2022-08-06T08:16:23Z</time>
      </trkpt>
      <trkpt lat="47.35853" lon="-1.3772">
        <ele>126</ele>
        <time>2022-08-06T08:16:25Z</time>
      </trkpt>
      <trkpt lat="47.35845" lon="-1.37709">
        <ele>126</ele>
        <time>2022-08-06T08:16:27Z</time>
      </trkpt>
      <trkpt lat="47.35838" lon="-1.37698">
        <ele>126</ele>
        <time>2022-08-06T08:16:29Z</time>
      </trkpt>
      <trkpt lat="47.35826" lon="-1.37681">
        <ele>127</ele>
        <time>2022-08-06T08:16:32Z</time>
      </trkpt>
      <trkpt lat="47.35814" lon="-1.37664">
        <ele>127</ele>
        <time>2022-08-06T08:16:35Z</time>
      </trkpt>
      <trkpt lat="47.35806" lon="-1.37653">
        <ele>127</ele>
        <time>2022-08-06T08:16:37Z</time>
      </trkpt>
      <trkpt lat="47.35799" lon="-1.37641">
        <ele>127</ele>
        <time>2022-08-06T08:16:39Z</time>
      </trkpt>
      <trkpt lat="47.35791" lon="-1.37629">
        <ele>127</ele>
        <time>2022-08-06T08:16:41Z</time>
      </trkpt>
      <trkpt lat="47.35783" lon="-1.37618">
        <ele>128</ele>
        <time>2022-08-06T08:16:43Z</time>
      </trkpt>
      <trkpt lat="47.35775" lon="-1.37605">
        <ele>127</ele>
        <time>2022-08-06T08:16:45Z</time>
      </trkpt>
      <trkpt lat="47.35768" lon="-1.37593">
        <ele>128</ele>
        <time>2022-08-06T08:16:47Z</time>
      </trkpt>
      <trkpt lat="47.3576" lon="-1.37581">
        <ele>128</ele>
        <time>2022-08-06T08:16:49Z</time>
      </trkpt>
      <trkpt lat="47.35752" lon="-1.3757">
        <ele>128</ele>
        <time>2022-08-06T08:16:51Z</time>
      </trkpt>
      <trkpt lat="47.35745" lon="-1.37558">
        <ele>128</ele>
        <time>2022-08-06T08:16:53Z</time>
      </trkpt>
      <trkpt lat="47.35737" lon="-1.37546">
        <ele>128</ele>
        <time>2022-08-06T08:16:55Z</time>
      </trkpt>
      <trkpt lat="47.3573" lon="-1.37536">
        <ele>128</ele>
        <time>2022-08-06T08:16:57Z</time>
      </trkpt>
      <trkpt lat="47.35722" lon="-1.37525">
        <ele>128</ele>
        <time>2022-08-06T08:16:59Z</time>
      </trkpt>
      <trkpt lat="47.35714" lon="-1.37513">
        <ele>129</ele>
        <time>2022-08-06T08:17:01Z</time>
      </trkpt>
      <trkpt lat="47.35706" lon="-1.37501">
        <ele>129</ele>
        <time>2022-08-06T08:17:03Z</time>
      </trkpt>
      <trkpt lat="47.35698" lon="-1.37489">
        <ele>129</ele>
        <time>2022-08-06T08:17:05Z</time>
      </trkpt>
      <trkpt lat="47.35689" lon="-1.37476">
        <ele>129</ele>
        <time>2022-08-06T08:17:07Z</time>
      </trkpt>
      <trkpt lat="47.35681" lon="-1.37463">
        <ele>129</ele>
        <time>2022-08-06T08:17:09Z</time>
      </trkpt>
      <trkpt lat="47.35672" lon="-1.3745">
        <ele>129</ele>
        <time>2022-08-06T08:17:11Z</time>
      </trkpt>
      <trkpt lat="47.35663" lon="-1.37437">
        <ele>129</ele>
        <time>2022-08-06T08:17:13Z</time>
      </trkpt>
      <trkpt lat="47.35654" lon="-1.37423">
        <ele>129</ele>
        <time>2022-08-06T08:17:15Z</time>
      </trkpt>
      <trkpt lat="47.35645" lon="-1.37409">
        <ele>129</ele>
        <time>2022-08-06T08:17:17Z</time>
      </trkpt>
      <trkpt lat="47.35636" lon="-1.37395">
        <ele>129</ele>
        <time>2022-08-06T08:17:19Z</time>
      </trkpt>
      <trkpt lat="47.35627" lon="-1.37382">
        <ele>129</ele>
        <time>2022-08-06T08:17:21Z</time>
      </trkpt>
      <trkpt lat="47.35618" lon="-1.37368">
        <ele>129</ele>
        <time>2022-08-06T08:17:23Z</time>
      </trkpt>
      <trkpt lat="47.35609" lon="-1.37355">
        <ele>129</ele>
        <time>2022-08-06T08:17:25Z</time>
      </trkpt>
      <trkpt lat="47.356" lon="-1.37341">
        <ele>129</ele>
        <time>2022-08-06T08:17:27Z</time>
      </trkpt>
      <trkpt lat="47.35591" lon="-1.37327">
        <ele>129</ele>
        <time>2022-08-06T08:17:29Z</time>
      </trkpt>
      <trkpt lat="47.35582" lon="-1.37314">
        <ele>129</ele>
        <time>2022-08-06T08:17:31Z</time>
      </trkpt>
      <trkpt lat="47.35572" lon="-1.373">
        <ele>129</ele>
        <time>2022-08-06T08:17:33Z</time>
      </trkpt>
      <trkpt lat="47.35563" lon="-1.37287">
        <ele>130</ele>
        <time>2022-08-06T08:17:35Z</time>
      </trkpt>
      <trkpt lat="47.35553" lon="-1.37273">
        <ele>130</ele>
        <time>2022-08-06T08:17:37Z</time>
      </trkpt>
      <trkpt lat="47.35543" lon="-1.3726">
        <ele>130</ele>
        <time>2022-08-06T08:17:39Z</time>
      </trkpt>
      <trkpt lat="47.35534" lon="-1.37245">
        <ele>129</ele>
        <time>2022-08-06T08:17:41Z</time>
      </trkpt>
      <trkpt lat="47.35524" lon="-1.37232">
        <ele>130</ele>
        <time>2022-08-06T08:17:43Z</time>
      </trkpt>
      <trkpt lat="47.35515" lon="-1.37219">
        <ele>131</ele>
        <time>2022-08-06T08:17:45Z</time>
      </trkpt>
      <trkpt lat="47.35507" lon="-1.37207">
        <ele>132</ele>
        <time>2022-08-06T08:17:47Z</time>
      </trkpt>
      <trkpt lat="47.35498" lon="-1.37194">
        <ele>133</ele>
        <time>2022-08-06T08:17:49Z</time>
      </trkpt>
      <trkpt lat="47.3549" lon="-1.3718">
        <ele>134</ele>
        <time>2022-08-06T08:17:51Z</time>
      </trkpt>
      <trkpt lat="47.35481" lon="-1.37167">
        <ele>134</ele>
        <time>2022-08-06T08:17:53Z</time>
      </trkpt>
      <trkpt lat="47.35472" lon="-1.37155">
        <ele>134</ele>
        <time>2022-08-06T08:17:55Z</time>
      </trkpt>
      <trkpt lat="47.35464" lon="-1.37141">
        <ele>134</ele>
        <time>2022-08-06T08:17:57Z</time>
      </trkpt>
      <trkpt lat="47.35455" lon="-1.37128">
        <ele>135</ele>
        <time>2022-08-06T08:17:59Z</time>
      </trkpt>
      <trkpt lat="47.35446" lon="-1.37115">
        <ele>135</ele>
        <time>2022-08-06T08:18:01Z</time>
      </trkpt>
      <trkpt lat="47.35438" lon="-1.37102">
        <ele>135</ele>
        <time>2022-08-06T08:18:03Z</time>
      </trkpt>
      <trkpt lat="47.3543" lon="-1.3709">
        <ele>135</ele>
        <time>2022-08-06T08:18:05Z</time>
      </trkpt>
      <trkpt lat="47.3542" lon="-1.37077">
        <ele>135</ele>
        <time>2022-08-06T08:18:07Z</time>
      </trkpt>
      <trkpt lat="47.35411" lon="-1.37064">
        <ele>135</ele>
        <time>2022-08-06T08:18:09Z</time>
      </trkpt>
      <trkpt lat="47.35403" lon="-1.37051">
        <ele>136</ele>
        <time>2022-08-06T08:18:11Z</time>
      </trkpt>
      <trkpt lat="47.35395" lon="-1.37039">
        <ele>136</ele>
        <time>2022-08-06T08:18:13Z</time>
      </trkpt>
      <trkpt lat="47.35386" lon="-1.37024">
        <ele>136</ele>
        <time>2022-08-06T08:18:15Z</time>
      </trkpt>
      <trkpt lat="47.35378" lon="-1.3701">
        <ele>136</ele>
        <time>2022-08-06T08:18:17Z</time>
      </trkpt>
      <trkpt lat="47.3537" lon="-1.36996">
        <ele>137</ele>
        <time>2022-08-06T08:18:19Z</time>
      </trkpt>
      <trkpt lat="47.35361" lon="-1.36983">
        <ele>136</ele>
        <time>2022-08-06T08:18:21Z</time>
      </trkpt>
      <trkpt lat="47.35353" lon="-1.3697">
        <ele>136</ele>
        <time>2022-08-06T08:18:23Z</time>
      </trkpt>
      <trkpt lat="47.35345" lon="-1.36957">
        <ele>136</ele>
        <time>2022-08-06T08:18:25Z</time>
      </trkpt>
      <trkpt lat="47.35336" lon="-1.36945">
        <ele>136</ele>
        <time>2022-08-06T08:18:27Z</time>
      </trkpt>
      <trkpt lat="47.35327" lon="-1.36931">
        <ele>136</ele>
        <time>2022-08-06T08:18:29Z</time>
      </trkpt>
      <trkpt lat="47.35319" lon="-1.36918">
        <ele>135</ele>
        <time>2022-08-06T08:18:31Z</time>
      </trkpt>
      <trkpt lat="47.3531" lon="-1.36905">
        <ele>135</ele>
        <time>2022-08-06T08:18:33Z</time>
      </trkpt>
      <trkpt lat="47.35301" lon="-1.36891">
        <ele>135</ele>
        <time>2022-08-06T08:18:35Z</time>
      </trkpt>
      <trkpt lat="47.35292" lon="-1.36878">
        <ele>135</ele>
        <time>2022-08-06T08:18:37Z</time>
      </trkpt>
      <trkpt lat="47.35283" lon="-1.36865">
        <ele>135</ele>
        <time>2022-08-06T08:18:39Z</time>
      </trkpt>
      <trkpt lat="47.35275" lon="-1.36851">
        <ele>134</ele>
        <time>2022-08-06T08:18:41Z</time>
      </trkpt>
      <trkpt lat="47.35266" lon="-1.36838">
        <ele>134</ele>
        <time>2022-08-06T08:18:43Z</time>
      </trkpt>
      <trkpt lat="47.35258" lon="-1.36825">
        <ele>134</ele>
        <time>2022-08-06T08:18:45Z</time>
      </trkpt>
      <trkpt lat="47.35249" lon="-1.36812">
        <ele>134</ele>
        <time>2022-08-06T08:18:47Z</time>
      </trkpt>
      <trkpt lat="47.3524" lon="-1.36798">
        <ele>134</ele>
        <time>2022-08-06T08:18:49Z</time>
      </trkpt>
      <trkpt lat="47.35231" lon="-1.36785">
        <ele>134</ele>
        <time>2022-08-06T08:18:51Z</time>
      </trkpt>
      <trkpt lat="47.35223" lon="-1.36772">
        <ele>134</ele>
        <time>2022-08-06T08:18:53Z</time>
      </trkpt>
      <trkpt lat="47.35214" lon="-1.36759">
        <ele>134</ele>
        <time>2022-08-06T08:18:55Z</time>
      </trkpt>
      <trkpt lat="47.35205" lon="-1.36745">
        <ele>134</ele>
        <time>2022-08-06T08:18:57Z</time>
      </trkpt>
      <trkpt lat="47.35196" lon="-1.36732">
        <ele>134</ele>
        <time>2022-08-06T08:18:59Z</time>
      </trkpt>
      <trkpt lat="47.35187" lon="-1.36718">
        <ele>134</ele>
        <time>2022-08-06T08:19:01Z</time>
      </trkpt>
      <trkpt lat="47.35178" lon="-1.36705">
        <ele>135</ele>
        <time>2022-08-06T08:19:03Z</time>
      </trkpt>
      <trkpt lat="47.3517" lon="-1.36692">
        <ele>135</ele>
        <time>2022-08-06T08:19:05Z</time>
      </trkpt>
      <trkpt lat="47.35161" lon="-1.3668">
        <ele>135</ele>
        <time>2022-08-06T08:19:07Z</time>
      </trkpt>
      <trkpt lat="47.35152" lon="-1.36667">
        <ele>136</ele>
        <time>2022-08-06T08:19:09Z</time>
      </trkpt>
      <trkpt lat="47.35144" lon="-1.36653">
        <ele>135</ele>
        <time>2022-08-06T08:19:11Z</time>
      </trkpt>
      <trkpt lat="47.35135" lon="-1.3664">
        <ele>135</ele>
        <time>2022-08-06T08:19:13Z</time>
      </trkpt>
      <trkpt lat="47.35127" lon="-1.36627">
        <ele>135</ele>
        <time>2022-08-06T08:19:15Z</time>
      </trkpt>
      <trkpt lat="47.35119" lon="-1.36615">
        <ele>135</ele>
        <time>2022-08-06T08:19:17Z</time>
      </trkpt>
      <trkpt lat="47.3511" lon="-1.36604">
        <ele>135</ele>
        <time>2022-08-06T08:19:19Z</time>
      </trkpt>
      <trkpt lat="47.35101" lon="-1.3659">
        <ele>135</ele>
        <time>2022-08-06T08:19:21Z</time>
      </trkpt>
      <trkpt lat="47.35092" lon="-1.36577">
        <ele>136</ele>
        <time>2022-08-06T08:19:23Z</time>
      </trkpt>
      <trkpt lat="47.35084" lon="-1.36564">
        <ele>136</ele>
        <time>2022-08-06T08:19:25Z</time>
      </trkpt>
      <trkpt lat="47.35074" lon="-1.3655">
        <ele>136</ele>
        <time>2022-08-06T08:19:27Z</time>
      </trkpt>
      <trkpt lat="47.35065" lon="-1.36536">
        <ele>135</ele>
        <time>2022-08-06T08:19:29Z</time>
      </trkpt>
      <trkpt lat="47.35056" lon="-1.36522">
        <ele>135</ele>
        <time>2022-08-06T08:19:31Z</time>
      </trkpt>
      <trkpt lat="47.35048" lon="-1.36508">
        <ele>135</ele>
        <time>2022-08-06T08:19:33Z</time>
      </trkpt>
      <trkpt lat="47.35039" lon="-1.36494">
        <ele>134</ele>
        <time>2022-08-06T08:19:35Z</time>
      </trkpt>
      <trkpt lat="47.3503" lon="-1.3648">
        <ele>134</ele>
        <time>2022-08-06T08:19:37Z</time>
      </trkpt>
      <trkpt lat="47.35022" lon="-1.36467">
        <ele>134</ele>
        <time>2022-08-06T08:19:39Z</time>
      </trkpt>
      <trkpt lat="47.35013" lon="-1.36454">
        <ele>133</ele>
        <time>2022-08-06T08:19:41Z</time>
      </trkpt>
      <trkpt lat="47.35003" lon="-1.36441">
        <ele>133</ele>
        <time>2022-08-06T08:19:43Z</time>
      </trkpt>
      <trkpt lat="47.34994" lon="-1.36428">
        <ele>133</ele>
        <time>2022-08-06T08:19:45Z</time>
      </trkpt>
      <trkpt lat="47.34985" lon="-1.36416">
        <ele>132</ele>
        <time>2022-08-06T08:19:47Z</time>
      </trkpt>
      <trkpt lat="47.34975" lon="-1.36404">
        <ele>132</ele>
        <time>2022-08-06T08:19:49Z</time>
      </trkpt>
      <trkpt lat="47.34966" lon="-1.36393">
        <ele>131</ele>
        <time>2022-08-06T08:19:51Z</time>
      </trkpt>
      <trkpt lat="47.34956" lon="-1.36382">
        <ele>131</ele>
        <time>2022-08-06T08:19:53Z</time>
      </trkpt>
      <trkpt lat="47.34947" lon="-1.36371">
        <ele>131</ele>
        <time>2022-08-06T08:19:55Z</time>
      </trkpt>
      <trkpt lat="47.34938" lon="-1.3636">
        <ele>131</ele>
        <time>2022-08-06T08:19:57Z</time>
      </trkpt>
      <trkpt lat="47.34929" lon="-1.36348">
        <ele>131</ele>
        <time>2022-08-06T08:19:59Z</time>
      </trkpt>
      <trkpt lat="47.34919" lon="-1.36335">
        <ele>131</ele>
        <time>2022-08-06T08:20:01Z</time>
      </trkpt>
      <trkpt lat="47.3491" lon="-1.36322">
        <ele>131</ele>
        <time>2022-08-06T08:20:03Z</time>
      </trkpt>
      <trkpt lat="47.349" lon="-1.36309">
        <ele>131</ele>
        <time>2022-08-06T08:20:05Z</time>
      </trkpt>
      <trkpt lat="47.34892" lon="-1.36295">
        <ele>131</ele>
        <time>2022-08-06T08:20:07Z</time>
      </trkpt>
      <trkpt lat="47.34885" lon="-1.36282">
        <ele>131</ele>
        <time>2022-08-06T08:20:09Z</time>
      </trkpt>
      <trkpt lat="47.34877" lon="-1.36271">
        <ele>132</ele>
        <time>2022-08-06T08:20:11Z</time>
      </trkpt>
      <trkpt lat="47.3487" lon="-1.36259">
        <ele>132</ele>
        <time>2022-08-06T08:20:13Z</time>
      </trkpt>
      <trkpt lat="47.34862" lon="-1.36246">
        <ele>132</ele>
        <time>2022-08-06T08:20:15Z</time>
      </trkpt>
      <trkpt lat="47.34854" lon="-1.36234">
        <ele>132</ele>
        <time>2022-08-06T08:20:17Z</time>
      </trkpt>
      <trkpt lat="47.34846" lon="-1.36221">
        <ele>132</ele>
        <time>2022-08-06T08:20:19Z</time>
      </trkpt>
      <trkpt lat="47.34838" lon="-1.36208">
        <ele>132</ele>
        <time>2022-08-06T08:20:21Z</time>
      </trkpt>
      <trkpt lat="47.3483" lon="-1.36195">
        <ele>133</ele>
        <time>2022-08-06T08:20:23Z</time>
      </trkpt>
      <trkpt lat="47.34821" lon="-1.36182">
        <ele>133</ele>
        <time>2022-08-06T08:20:25Z</time>
      </trkpt>
      <trkpt lat="47.34813" lon="-1.36169">
        <ele>133</ele>
        <time>2022-08-06T08:20:27Z</time>
      </trkpt>
      <trkpt lat="47.34804" lon="-1.36157">
        <ele>133</ele>
        <time>2022-08-06T08:20:29Z</time>
      </trkpt>
      <trkpt lat="47.34795" lon="-1.36145">
        <ele>133</ele>
        <time>2022-08-06T08:20:31Z</time>
      </trkpt>
      <trkpt lat="47.34786" lon="-1.36133">
        <ele>133</ele>
        <time>2022-08-06T08:20:33Z</time>
      </trkpt>
      <trkpt lat="47.34777" lon="-1.36122">
        <ele>133</ele>
        <time>2022-08-06T08:20:35Z</time>
      </trkpt>
      <trkpt lat="47.34768" lon="-1.36112">
        <ele>133</ele>
        <time>2022-08-06T08:20:37Z</time>
      </trkpt>
      <trkpt lat="47.3476" lon="-1.36101">
        <ele>133</ele>
        <time>2022-08-06T08:20:39Z</time>
      </trkpt>
      <trkpt lat="47.34751" lon="-1.3609">
        <ele>133</ele>
        <time>2022-08-06T08:20:41Z</time>
      </trkpt>
      <trkpt lat="47.34742" lon="-1.36079">
        <ele>133</ele>
        <time>2022-08-06T08:20:43Z</time>
      </trkpt>
      <trkpt lat="47.34733" lon="-1.36067">
        <ele>132</ele>
        <time>2022-08-06T08:20:45Z</time>
      </trkpt>
      <trkpt lat="47.34723" lon="-1.36056">
        <ele>132</ele>
        <time>2022-08-06T08:20:47Z</time>
      </trkpt>
      <trkpt lat="47.34713" lon="-1.36045">
        <ele>132</ele>
        <time>2022-08-06T08:20:49Z</time>
      </trkpt>
      <trkpt lat="47.34703" lon="-1.36033">
        <ele>132</ele>
        <time>2022-08-06T08:20:51Z</time>
      </trkpt>
      <trkpt lat="47.34693" lon="-1.36021">
        <ele>131</ele>
        <time>2022-08-06T08:20:53Z</time>
      </trkpt>
      <trkpt lat="47.34682" lon="-1.3601">
        <ele>131</ele>
        <time>2022-08-06T08:20:55Z</time>
      </trkpt>
      <trkpt lat="47.34671" lon="-1.35998">
        <ele>130</ele>
        <time>2022-08-06T08:20:57Z</time>
      </trkpt>
      <trkpt lat="47.3466" lon="-1.35986">
        <ele>130</ele>
        <time>2022-08-06T08:20:59Z</time>
      </trkpt>
      <trkpt lat="47.34649" lon="-1.35973">
        <ele>129</ele>
        <time>2022-08-06T08:21:01Z</time>
      </trkpt>
      <trkpt lat="47.34637" lon="-1.3596">
        <ele>129</ele>
        <time>2022-08-06T08:21:03Z</time>
      </trkpt>
      <trkpt lat="47.34626" lon="-1.35948">
        <ele>128</ele>
        <time>2022-08-06T08:21:05Z</time>
      </trkpt>
      <trkpt lat="47.34614" lon="-1.35936">
        <ele>128</ele>
        <time>2022-08-06T08:21:07Z</time>
      </trkpt>
      <trkpt lat="47.34603" lon="-1.35923">
        <ele>128</ele>
        <time>2022-08-06T08:21:09Z</time>
      </trkpt>
      <trkpt lat="47.34592" lon="-1.3591">
        <ele>128</ele>
        <time>2022-08-06T08:21:11Z</time>
      </trkpt>
      <trkpt lat="47.34581" lon="-1.35897">
        <ele>128</ele>
        <time>2022-08-06T08:21:13Z</time>
      </trkpt>
      <trkpt lat="47.34571" lon="-1.35884">
        <ele>128</ele>
        <time>2022-08-06T08:21:15Z</time>
      </trkpt>
      <trkpt lat="47.34562" lon="-1.35871">
        <ele>129</ele>
        <time>2022-08-06T08:21:17Z</time>
      </trkpt>
      <trkpt lat="47.34552" lon="-1.35858">
        <ele>129</ele>
        <time>2022-08-06T08:21:19Z</time>
      </trkpt>
      <trkpt lat="47.34544" lon="-1.35844">
        <ele>129</ele>
        <time>2022-08-06T08:21:21Z</time>
      </trkpt>
      <trkpt lat="47.34536" lon="-1.35831">
        <ele>130</ele>
        <time>2022-08-06T08:21:23Z</time>
      </trkpt>
      <trkpt lat="47.34527" lon="-1.35817">
        <ele>130</ele>
        <time>2022-08-06T08:21:25Z</time>
      </trkpt>
      <trkpt lat="47.34519" lon="-1.35804">
        <ele>130</ele>
        <time>2022-08-06T08:21:27Z</time>
      </trkpt>
      <trkpt lat="47.34511" lon="-1.3579">
        <ele>130</ele>
        <time>2022-08-06T08:21:29Z</time>
      </trkpt>
      <trkpt lat="47.34504" lon="-1.35776">
        <ele>130</ele>
        <time>2022-08-06T08:21:31Z</time>
      </trkpt>
      <trkpt lat="47.34496" lon="-1.35762">
        <ele>131</ele>
        <time>2022-08-06T08:21:33Z</time>
      </trkpt>
      <trkpt lat="47.34488" lon="-1.35748">
        <ele>131</ele>
        <time>2022-08-06T08:21:35Z</time>
      </trkpt>
      <trkpt lat="47.3448" lon="-1.35734">
        <ele>131</ele>
        <time>2022-08-06T08:21:37Z</time>
      </trkpt>
      <trkpt lat="47.34473" lon="-1.35721">
        <ele>132</ele>
        <time>2022-08-06T08:21:39Z</time>
      </trkpt>
      <trkpt lat="47.34466" lon="-1.35707">
        <ele>133</ele>
        <time>2022-08-06T08:21:41Z</time>
      </trkpt>
      <trkpt lat="47.34459" lon="-1.35695">
        <ele>134</ele>
        <time>2022-08-06T08:21:43Z</time>
      </trkpt>
      <trkpt lat="47.3445" lon="-1.35684">
        <ele>135</ele>
        <time>2022-08-06T08:21:45Z</time>
      </trkpt>
      <trkpt lat="47.34441" lon="-1.35671">
        <ele>135</ele>
        <time>2022-08-06T08:21:47Z</time>
      </trkpt>
      <trkpt lat="47.34433" lon="-1.3566">
        <ele>136</ele>
        <time>2022-08-06T08:21:49Z</time>
      </trkpt>
      <trkpt lat="47.34424" lon="-1.35647">
        <ele>136</ele>
        <time>2022-08-06T08:21:51Z</time>
      </trkpt>
      <trkpt lat="47.34417" lon="-1.35632">
        <ele>136</ele>
        <time>2022-08-06T08:21:53Z</time>
      </trkpt>
      <trkpt lat="47.34408" lon="-1.35617">
        <ele>136</ele>
        <time>2022-08-06T08:21:55Z</time>
      </trkpt>
      <trkpt lat="47.344" lon="-1.35602">
        <ele>136</ele>
        <time>2022-08-06T08:21:57Z</time>
      </trkpt>
      <trkpt lat="47.34392" lon="-1.35588">
        <ele>135</ele>
        <time>2022-08-06T08:21:59Z</time>
      </trkpt>
      <trkpt lat="47.34383" lon="-1.35573">
        <ele>135</ele>
        <time>2022-08-06T08:22:01Z</time>
      </trkpt>
      <trkpt lat="47.34375" lon="-1.35558">
        <ele>134</ele>
        <time>2022-08-06T08:22:03Z</time>
      </trkpt>
      <trkpt lat="47.34367" lon="-1.35543">
        <ele>134</ele>
        <time>2022-08-06T08:22:05Z</time>
      </trkpt>
      <trkpt lat="47.34359" lon="-1.35528">
        <ele>133</ele>
        <time>2022-08-06T08:22:07Z</time>
      </trkpt>
      <trkpt lat="47.34351" lon="-1.35514">
        <ele>134</ele>
        <time>2022-08-06T08:22:09Z</time>
      </trkpt>
      <trkpt lat="47.34343" lon="-1.35499">
        <ele>133</ele>
        <time>2022-08-06T08:22:11Z</time>
      </trkpt>
      <trkpt lat="47.34335" lon="-1.35485">
        <ele>134</ele>
        <time>2022-08-06T08:22:13Z</time>
      </trkpt>
      <trkpt lat="47.34327" lon="-1.35471">
        <ele>134</ele>
        <time>2022-08-06T08:22:15Z</time>
      </trkpt>
      <trkpt lat="47.34319" lon="-1.35456">
        <ele>134</ele>
        <time>2022-08-06T08:22:17Z</time>
      </trkpt>
      <trkpt lat="47.3431" lon="-1.35442">
        <ele>134</ele>
        <time>2022-08-06T08:22:19Z</time>
      </trkpt>
      <trkpt lat="47.34302" lon="-1.35428">
        <ele>134</ele>
        <time>2022-08-06T08:22:21Z</time>
      </trkpt>
      <trkpt lat="47.34294" lon="-1.35415">
        <ele>134</ele>
        <time>2022-08-06T08:22:23Z</time>
      </trkpt>
      <trkpt lat="47.34285" lon="-1.35401">
        <ele>135</ele>
        <time>2022-08-06T08:22:25Z</time>
      </trkpt>
      <trkpt lat="47.34277" lon="-1.35387">
        <ele>135</ele>
        <time>2022-08-06T08:22:27Z</time>
      </trkpt>
      <trkpt lat="47.34269" lon="-1.35373">
        <ele>135</ele>
        <time>2022-08-06T08:22:29Z</time>
      </trkpt>
      <trkpt lat="47.34261" lon="-1.35359">
        <ele>134</ele>
        <time>2022-08-06T08:22:31Z</time>
      </trkpt>
      <trkpt lat="47.34253" lon="-1.35345">
        <ele>134</ele>
        <time>2022-08-06T08:22:33Z</time>
      </trkpt>
      <trkpt lat="47.34245" lon="-1.35331">
        <ele>134</ele>
        <time>2022-08-06T08:22:35Z</time>
      </trkpt>
      <trkpt lat="47.34237" lon="-1.35318">
        <ele>134</ele>
        <time>2022-08-06T08:22:37Z</time>
      </trkpt>
      <trkpt lat="47.34229" lon="-1.35305">
        <ele>134</ele>
        <time>2022-08-06T08:22:39Z</time>
      </trkpt>
      <trkpt lat="47.34221" lon="-1.35291">
        <ele>134</ele>
        <time>2022-08-06T08:22:41Z</time>
      </trkpt>
      <trkpt lat="47.34213" lon="-1.35277">
        <ele>134</ele>
        <time>2022-08-06T08:22:43Z</time>
      </trkpt>
      <trkpt lat="47.34204" lon="-1.35263">
        <ele>134</ele>
        <time>2022-08-06T08:22:45Z</time>
      </trkpt>
      <trkpt lat="47.34196" lon="-1.35249">
        <ele>134</ele>
        <time>2022-08-06T08:22:47Z</time>
      </trkpt>
      <trkpt lat="47.34188" lon="-1.35236">
        <ele>134</ele>
        <time>2022-08-06T08:22:49Z</time>
      </trkpt>
      <trkpt lat="47.3418" lon="-1.35222">
        <ele>133</ele>
        <time>2022-08-06T08:22:51Z</time>
      </trkpt>
      <trkpt lat="47.34172" lon="-1.35208">
        <ele>133</ele>
        <time>2022-08-06T08:22:53Z</time>
      </trkpt>
      <trkpt lat="47.34163" lon="-1.35194">
        <ele>133</ele>
        <time>2022-08-06T08:22:55Z</time>
      </trkpt>
      <trkpt lat="47.34155" lon="-1.35181">
        <ele>132</ele>
        <time>2022-08-06T08:22:57Z</time>
      </trkpt>
      <trkpt lat="47.34147" lon="-1.35166">
        <ele>132</ele>
        <time>2022-08-06T08:22:59Z</time>
      </trkpt>
      <trkpt lat="47.34139" lon="-1.35152">
        <ele>132</ele>
        <time>2022-08-06T08:23:01Z</time>
      </trkpt>
      <trkpt lat="47.3413" lon="-1.35138">
        <ele>132</ele>
        <time>2022-08-06T08:23:03Z</time>
      </trkpt>
      <trkpt lat="47.34122" lon="-1.35125">
        <ele>132</ele>
        <time>2022-08-06T08:23:05Z</time>
      </trkpt>
      <trkpt lat="47.34113" lon="-1.3511">
        <ele>132</ele>
        <time>2022-08-06T08:23:07Z</time>
      </trkpt>
      <trkpt lat="47.34105" lon="-1.35097">
        <ele>132</ele>
        <time>2022-08-06T08:23:09Z</time>
      </trkpt>
      <trkpt lat="47.34096" lon="-1.35083">
        <ele>131</ele>
        <time>2022-08-06T08:23:11Z</time>
      </trkpt>
      <trkpt lat="47.34089" lon="-1.3507">
        <ele>131</ele>
        <time>2022-08-06T08:23:13Z</time>
      </trkpt>
      <trkpt lat="47.34081" lon="-1.35056">
        <ele>131</ele>
        <time>2022-08-06T08:23:15Z</time>
      </trkpt>
      <trkpt lat="47.34074" lon="-1.35043">
        <ele>131</ele>
        <time>2022-08-06T08:23:17Z</time>
      </trkpt>
      <trkpt lat="47.34066" lon="-1.3503">
        <ele>131</ele>
        <time>2022-08-06T08:23:19Z</time>
      </trkpt>
      <trkpt lat="47.34057" lon="-1.35017">
        <ele>131</ele>
        <time>2022-08-06T08:23:21Z</time>
      </trkpt>
      <trkpt lat="47.34049" lon="-1.35003">
        <ele>131</ele>
        <time>2022-08-06T08:23:23Z</time>
      </trkpt>
      <trkpt lat="47.34041" lon="-1.34991">
        <ele>132</ele>
        <time>2022-08-06T08:23:25Z</time>
      </trkpt>
      <trkpt lat="47.34032" lon="-1.34978">
        <ele>132</ele>
        <time>2022-08-06T08:23:27Z</time>
      </trkpt>
      <trkpt lat="47.34024" lon="-1.34969">
        <ele>132</ele>
        <time>2022-08-06T08:23:29Z</time>
      </trkpt>
      <trkpt lat="47.34015" lon="-1.34963">
        <ele>132</ele>
        <time>2022-08-06T08:23:33Z</time>
      </trkpt>
      <trkpt lat="47.34006" lon="-1.34964">
        <ele>132</ele>
        <time>2022-08-06T08:23:52Z</time>
      </trkpt>
      <trkpt lat="47.33996" lon="-1.34958">
        <ele>132</ele>
        <time>2022-08-06T08:23:54Z</time>
      </trkpt>
      <trkpt lat="47.33988" lon="-1.34946">
        <ele>132</ele>
        <time>2022-08-06T08:23:56Z</time>
      </trkpt>
      <trkpt lat="47.33984" lon="-1.34928">
        <ele>131</ele>
        <time>2022-08-06T08:23:58Z</time>
      </trkpt>
      <trkpt lat="47.33976" lon="-1.34914">
        <ele>131</ele>
        <time>2022-08-06T08:24:00Z</time>
      </trkpt>
      <trkpt lat="47.33965" lon="-1.34903">
        <ele>131</ele>
        <time>2022-08-06T08:24:02Z</time>
      </trkpt>
      <trkpt lat="47.33955" lon="-1.34892">
        <ele>131</ele>
        <time>2022-08-06T08:24:04Z</time>
      </trkpt>
      <trkpt lat="47.33944" lon="-1.34881">
        <ele>131</ele>
        <time>2022-08-06T08:24:06Z</time>
      </trkpt>
      <trkpt lat="47.33932" lon="-1.34871">
        <ele>131</ele>
        <time>2022-08-06T08:24:08Z</time>
      </trkpt>
      <trkpt lat="47.3392" lon="-1.3486">
        <ele>131</ele>
        <time>2022-08-06T08:24:10Z</time>
      </trkpt>
      <trkpt lat="47.3391" lon="-1.34848">
        <ele>131</ele>
        <time>2022-08-06T08:24:12Z</time>
      </trkpt>
      <trkpt lat="47.33899" lon="-1.34836">
        <ele>131</ele>
        <time>2022-08-06T08:24:14Z</time>
      </trkpt>
      <trkpt lat="47.33888" lon="-1.34823">
        <ele>130</ele>
        <time>2022-08-06T08:24:16Z</time>
      </trkpt>
      <trkpt lat="47.33878" lon="-1.34809">
        <ele>130</ele>
        <time>2022-08-06T08:24:18Z</time>
      </trkpt>
      <trkpt lat="47.33868" lon="-1.34795">
        <ele>130</ele>
        <time>2022-08-06T08:24:20Z</time>
      </trkpt>
      <trkpt lat="47.33858" lon="-1.34781">
        <ele>130</ele>
        <time>2022-08-06T08:24:22Z</time>
      </trkpt>
      <trkpt lat="47.33848" lon="-1.34767">
        <ele>130</ele>
        <time>2022-08-06T08:24:24Z</time>
      </trkpt>
      <trkpt lat="47.33837" lon="-1.34753">
        <ele>130</ele>
        <time>2022-08-06T08:24:26Z</time>
      </trkpt>
      <trkpt lat="47.33827" lon="-1.34739">
        <ele>130</ele>
        <time>2022-08-06T08:24:28Z</time>
      </trkpt>
      <trkpt lat="47.33817" lon="-1.34725">
        <ele>130</ele>
        <time>2022-08-06T08:24:30Z</time>
      </trkpt>
      <trkpt lat="47.33807" lon="-1.34711">
        <ele>130</ele>
        <time>2022-08-06T08:24:32Z</time>
      </trkpt>
      <trkpt lat="47.33797" lon="-1.34697">
        <ele>130</ele>
        <time>2022-08-06T08:24:34Z</time>
      </trkpt>
      <trkpt lat="47.33786" lon="-1.34684">
        <ele>130</ele>
        <time>2022-08-06T08:24:36Z</time>
      </trkpt>
      <trkpt lat="47.33776" lon="-1.34671">
        <ele>131</ele>
        <time>2022-08-06T08:24:38Z</time>
      </trkpt>
      <trkpt lat="47.33766" lon="-1.34657">
        <ele>131</ele>
        <time>2022-08-06T08:24:40Z</time>
      </trkpt>
      <trkpt lat="47.33757" lon="-1.34644">
        <ele>130</ele>
        <time>2022-08-06T08:24:42Z</time>
      </trkpt>
      <trkpt lat="47.33747" lon="-1.3463">
        <ele>130</ele>
        <time>2022-08-06T08:24:44Z</time>
      </trkpt>
      <trkpt lat="47.33736" lon="-1.34617">
        <ele>130</ele>
        <time>2022-08-06T08:24:46Z</time>
      </trkpt>
      <trkpt lat="47.33726" lon="-1.34604">
        <ele>130</ele>
        <time>2022-08-06T08:24:48Z</time>
      </trkpt>
      <trkpt lat="47.33716" lon="-1.34589">
        <ele>129</ele>
        <time>2022-08-06T08:24:50Z</time>
      </trkpt>
      <trkpt lat="47.33707" lon="-1.34576">
        <ele>129</ele>
        <time>2022-08-06T08:24:52Z</time>
      </trkpt>
      <trkpt lat="47.33696" lon="-1.34562">
        <ele>130</ele>
        <time>2022-08-06T08:24:54Z</time>
      </trkpt>
      <trkpt lat="47.33686" lon="-1.34548">
        <ele>129</ele>
        <time>2022-08-06T08:24:56Z</time>
      </trkpt>
      <trkpt lat="47.33677" lon="-1.34533">
        <ele>129</ele>
        <time>2022-08-06T08:24:58Z</time>
      </trkpt>
      <trkpt lat="47.33666" lon="-1.34519">
        <ele>129</ele>
        <time>2022-08-06T08:25:00Z</time>
      </trkpt>
      <trkpt lat="47.33656" lon="-1.34505">
        <ele>129</ele>
        <time>2022-08-06T08:25:02Z</time>
      </trkpt>
      <trkpt lat="47.33647" lon="-1.34491">
        <ele>129</ele>
        <time>2022-08-06T08:25:04Z</time>
      </trkpt>
      <trkpt lat="47.33636" lon="-1.34478">
        <ele>129</ele>
        <time>2022-08-06T08:25:06Z</time>
      </trkpt>
      <trkpt lat="47.33624" lon="-1.34468">
        <ele>129</ele>
        <time>2022-08-06T08:25:08Z</time>
      </trkpt>
      <trkpt lat="47.3361" lon="-1.3446">
        <ele>129</ele>
        <time>2022-08-06T08:25:10Z</time>
      </trkpt>
      <trkpt lat="47.33597" lon="-1.34453">
        <ele>129</ele>
        <time>2022-08-06T08:25:12Z</time>
      </trkpt>
      <trkpt lat="47.33584" lon="-1.34447">
        <ele>129</ele>
        <time>2022-08-06T08:25:14Z</time>
      </trkpt>
      <trkpt lat="47.3357" lon="-1.3444">
        <ele>128</ele>
        <time>2022-08-06T08:25:16Z</time>
      </trkpt>
      <trkpt lat="47.33557" lon="-1.34433">
        <ele>128</ele>
        <time>2022-08-06T08:25:18Z</time>
      </trkpt>
      <trkpt lat="47.33544" lon="-1.34427">
        <ele>128</ele>
        <time>2022-08-06T08:25:20Z</time>
      </trkpt>
      <trkpt lat="47.3353" lon="-1.34421">
        <ele>128</ele>
        <time>2022-08-06T08:25:22Z</time>
      </trkpt>
      <trkpt lat="47.33517" lon="-1.34414">
        <ele>128</ele>
        <time>2022-08-06T08:25:24Z</time>
      </trkpt>
      <trkpt lat="47.33503" lon="-1.34407">
        <ele>128</ele>
        <time>2022-08-06T08:25:26Z</time>
      </trkpt>
      <trkpt lat="47.33489" lon="-1.344">
        <ele>128</ele>
        <time>2022-08-06T08:25:28Z</time>
      </trkpt>
      <trkpt lat="47.33476" lon="-1.34394">
        <ele>128</ele>
        <time>2022-08-06T08:25:30Z</time>
      </trkpt>
      <trkpt lat="47.33462" lon="-1.34388">
        <ele>128</ele>
        <time>2022-08-06T08:25:32Z</time>
      </trkpt>
      <trkpt lat="47.33449" lon="-1.34381">
        <ele>128</ele>
        <time>2022-08-06T08:25:34Z</time>
      </trkpt>
      <trkpt lat="47.33435" lon="-1.34375">
        <ele>128</ele>
        <time>2022-08-06T08:25:36Z</time>
      </trkpt>
      <trkpt lat="47.3342" lon="-1.34369">
        <ele>128</ele>
        <time>2022-08-06T08:25:38Z</time>
      </trkpt>
      <trkpt lat="47.33406" lon="-1.34362">
        <ele>128</ele>
        <time>2022-08-06T08:25:40Z</time>
      </trkpt>
      <trkpt lat="47.33393" lon="-1.34355">
        <ele>127</ele>
        <time>2022-08-06T08:25:42Z</time>
      </trkpt>
      <trkpt lat="47.33378" lon="-1.34347">
        <ele>127</ele>
        <time>2022-08-06T08:25:44Z</time>
      </trkpt>
      <trkpt lat="47.33365" lon="-1.3434">
        <ele>126</ele>
        <time>2022-08-06T08:25:46Z</time>
      </trkpt>
      <trkpt lat="47.33352" lon="-1.34334">
        <ele>126</ele>
        <time>2022-08-06T08:25:48Z</time>
      </trkpt>
      <trkpt lat="47.33338" lon="-1.34327">
        <ele>126</ele>
        <time>2022-08-06T08:25:50Z</time>
      </trkpt>
      <trkpt lat="47.33324" lon="-1.3432">
        <ele>125</ele>
        <time>2022-08-06T08:25:52Z</time>
      </trkpt>
      <trkpt lat="47.33309" lon="-1.34315">
        <ele>125</ele>
        <time>2022-08-06T08:25:54Z</time>
      </trkpt>
      <trkpt lat="47.33296" lon="-1.3431">
        <ele>125</ele>
        <time>2022-08-06T08:25:56Z</time>
      </trkpt>
      <trkpt lat="47.33281" lon="-1.34307">
        <ele>124</ele>
        <time>2022-08-06T08:25:58Z</time>
      </trkpt>
      <trkpt lat="47.33267" lon="-1.34305">
        <ele>125</ele>
        <time>2022-08-06T08:26:00Z</time>
      </trkpt>
      <trkpt lat="47.33252" lon="-1.34303">
        <ele>124</ele>
        <time>2022-08-06T08:26:02Z</time>
      </trkpt>
      <trkpt lat="47.33238" lon="-1.34301">
        <ele>124</ele>
        <time>2022-08-06T08:26:04Z</time>
      </trkpt>
      <trkpt lat="47.33223" lon="-1.34299">
        <ele>124</ele>
        <time>2022-08-06T08:26:06Z</time>
      </trkpt>
      <trkpt lat="47.33208" lon="-1.34298">
        <ele>123</ele>
        <time>2022-08-06T08:26:08Z</time>
      </trkpt>
      <trkpt lat="47.33193" lon="-1.34295">
        <ele>123</ele>
        <time>2022-08-06T08:26:10Z</time>
      </trkpt>
      <trkpt lat="47.33178" lon="-1.34293">
        <ele>122</ele>
        <time>2022-08-06T08:26:12Z</time>
      </trkpt>
      <trkpt lat="47.33163" lon="-1.34289">
        <ele>121</ele>
        <time>2022-08-06T08:26:14Z</time>
      </trkpt>
      <trkpt lat="47.33149" lon="-1.34283">
        <ele>121</ele>
        <time>2022-08-06T08:26:16Z</time>
      </trkpt>
      <trkpt lat="47.33135" lon="-1.34274">
        <ele>121</ele>
        <time>2022-08-06T08:26:18Z</time>
      </trkpt>
      <trkpt lat="47.33121" lon="-1.34265">
        <ele>121</ele>
        <time>2022-08-06T08:26:20Z</time>
      </trkpt>
      <trkpt lat="47.33107" lon="-1.34256">
        <ele>120</ele>
        <time>2022-08-06T08:26:22Z</time>
      </trkpt>
      <trkpt lat="47.33093" lon="-1.34247">
        <ele>120</ele>
        <time>2022-08-06T08:26:24Z</time>
      </trkpt>
      <trkpt lat="47.33079" lon="-1.34237">
        <ele>119</ele>
        <time>2022-08-06T08:26:26Z</time>
      </trkpt>
      <trkpt lat="47.33064" lon="-1.34226">
        <ele>119</ele>
        <time>2022-08-06T08:26:28Z</time>
      </trkpt>
      <trkpt lat="47.33049" lon="-1.34216">
        <ele>118</ele>
        <time>2022-08-06T08:26:30Z</time>
      </trkpt>
      <trkpt lat="47.33033" lon="-1.34206">
        <ele>118</ele>
        <time>2022-08-06T08:26:32Z</time>
      </trkpt>
      <trkpt lat="47.33018" lon="-1.34195">
        <ele>117</ele>
        <time>2022-08-06T08:26:34Z</time>
      </trkpt>
      <trkpt lat="47.33002" lon="-1.34184">
        <ele>117</ele>
        <time>2022-08-06T08:26:36Z</time>
      </trkpt>
      <trkpt lat="47.32985" lon="-1.34173">
        <ele>116</ele>
        <time>2022-08-06T08:26:38Z</time>
      </trkpt>
      <trkpt lat="47.32977" lon="-1.34166">
        <ele>115</ele>
        <time>2022-08-06T08:26:39Z</time>
      </trkpt>
      <trkpt lat="47.3297" lon="-1.34159">
        <ele>115</ele>
        <time>2022-08-06T08:26:40Z</time>
      </trkpt>
      <trkpt lat="47.32959" lon="-1.34139">
        <ele>113</ele>
        <time>2022-08-06T08:26:42Z</time>
      </trkpt>
      <trkpt lat="47.32953" lon="-1.34128">
        <ele>112</ele>
        <time>2022-08-06T08:26:43Z</time>
      </trkpt>
      <trkpt lat="47.32948" lon="-1.34117">
        <ele>111</ele>
        <time>2022-08-06T08:26:44Z</time>
      </trkpt>
      <trkpt lat="47.3294" lon="-1.34094">
        <ele>111</ele>
        <time>2022-08-06T08:26:46Z</time>
      </trkpt>
      <trkpt lat="47.32936" lon="-1.3407">
        <ele>111</ele>
        <time>2022-08-06T08:26:48Z</time>
      </trkpt>
      <trkpt lat="47.32938" lon="-1.34046">
        <ele>110</ele>
        <time>2022-08-06T08:26:50Z</time>
      </trkpt>
      <trkpt lat="47.32943" lon="-1.34022">
        <ele>110</ele>
        <time>2022-08-06T08:26:52Z</time>
      </trkpt>
      <trkpt lat="47.32948" lon="-1.34">
        <ele>110</ele>
        <time>2022-08-06T08:26:54Z</time>
      </trkpt>
      <trkpt lat="47.32956" lon="-1.33979">
        <ele>109</ele>
        <time>2022-08-06T08:26:56Z</time>
      </trkpt>
      <trkpt lat="47.32964" lon="-1.33957">
        <ele>108</ele>
        <time>2022-08-06T08:26:58Z</time>
      </trkpt>
      <trkpt lat="47.32973" lon="-1.33935">
        <ele>108</ele>
        <time>2022-08-06T08:27:00Z</time>
      </trkpt>
      <trkpt lat="47.3298" lon="-1.33914">
        <ele>107</ele>
        <time>2022-08-06T08:27:02Z</time>
      </trkpt>
      <trkpt lat="47.32987" lon="-1.33896">
        <ele>106</ele>
        <time>2022-08-06T08:27:04Z</time>
      </trkpt>
      <trkpt lat="47.32998" lon="-1.33894">
        <ele>107</ele>
        <time>2022-08-06T08:27:07Z</time>
      </trkpt>
      <trkpt lat="47.33001" lon="-1.33877">
        <ele>103</ele>
        <time>2022-08-06T08:28:18Z</time>
      </trkpt>
      <trkpt lat="47.33002" lon="-1.33864">
        <ele>104</ele>
        <time>2022-08-06T08:28:20Z</time>
      </trkpt>
      <trkpt lat="47.33005" lon="-1.33849">
        <ele>104</ele>
        <time>2022-08-06T08:28:22Z</time>
      </trkpt>
      <trkpt lat="47.33009" lon="-1.33836">
        <ele>104</ele>
        <time>2022-08-06T08:28:24Z</time>
      </trkpt>
      <trkpt lat="47.33014" lon="-1.33821">
        <ele>104</ele>
        <time>2022-08-06T08:28:26Z</time>
      </trkpt>
      <trkpt lat="47.33021" lon="-1.33805">
        <ele>104</ele>
        <time>2022-08-06T08:28:28Z</time>
      </trkpt>
      <trkpt lat="47.33028" lon="-1.33789">
        <ele>105</ele>
        <time>2022-08-06T08:28:30Z</time>
      </trkpt>
      <trkpt lat="47.33035" lon="-1.33774">
        <ele>105</ele>
        <time>2022-08-06T08:28:32Z</time>
      </trkpt>
      <trkpt lat="47.33043" lon="-1.33758">
        <ele>104</ele>
        <time>2022-08-06T08:28:34Z</time>
      </trkpt>
      <trkpt lat="47.33051" lon="-1.33741">
        <ele>103</ele>
        <time>2022-08-06T08:28:36Z</time>
      </trkpt>
      <trkpt lat="47.33061" lon="-1.33723">
        <ele>102</ele>
        <time>2022-08-06T08:28:38Z</time>
      </trkpt>
      <trkpt lat="47.3307" lon="-1.33705">
        <ele>101</ele>
        <time>2022-08-06T08:28:40Z</time>
      </trkpt>
      <trkpt lat="47.33078" lon="-1.33684">
        <ele>101</ele>
        <time>2022-08-06T08:28:42Z</time>
      </trkpt>
      <trkpt lat="47.33084" lon="-1.33661">
        <ele>101</ele>
        <time>2022-08-06T08:28:44Z</time>
      </trkpt>
      <trkpt lat="47.33091" lon="-1.33639">
        <ele>101</ele>
        <time>2022-08-06T08:28:46Z</time>
      </trkpt>
      <trkpt lat="47.33098" lon="-1.33616">
        <ele>100</ele>
        <time>2022-08-06T08:28:48Z</time>
      </trkpt>
      <trkpt lat="47.33104" lon="-1.33592">
        <ele>100</ele>
        <time>2022-08-06T08:28:50Z</time>
      </trkpt>
      <trkpt lat="47.3311" lon="-1.33568">
        <ele>99</ele>
        <time>2022-08-06T08:28:52Z</time>
      </trkpt>
      <trkpt lat="47.33115" lon="-1.33543">
        <ele>97</ele>
        <time>2022-08-06T08:28:54Z</time>
      </trkpt>
      <trkpt lat="47.33117" lon="-1.3353">
        <ele>95</ele>
        <time>2022-08-06T08:28:55Z</time>
      </trkpt>
      <trkpt lat="47.33117" lon="-1.33516">
        <ele>94</ele>
        <time>2022-08-06T08:28:56Z</time>
      </trkpt>
      <trkpt lat="47.33114" lon="-1.33503">
        <ele>93</ele>
        <time>2022-08-06T08:28:57Z</time>
      </trkpt>
      <trkpt lat="47.33107" lon="-1.33481">
        <ele>93</ele>
        <time>2022-08-06T08:28:59Z</time>
      </trkpt>
      <trkpt lat="47.33096" lon="-1.33462">
        <ele>92</ele>
        <time>2022-08-06T08:29:01Z</time>
      </trkpt>
      <trkpt lat="47.33083" lon="-1.33445">
        <ele>92</ele>
        <time>2022-08-06T08:29:03Z</time>
      </trkpt>
      <trkpt lat="47.33069" lon="-1.3343">
        <ele>90</ele>
        <time>2022-08-06T08:29:05Z</time>
      </trkpt>
      <trkpt lat="47.33057" lon="-1.33416">
        <ele>90</ele>
        <time>2022-08-06T08:29:07Z</time>
      </trkpt>
      <trkpt lat="47.33049" lon="-1.33407">
        <ele>90</ele>
        <time>2022-08-06T08:29:08Z</time>
      </trkpt>
      <trkpt lat="47.33035" lon="-1.33392">
        <ele>88</ele>
        <time>2022-08-06T08:29:10Z</time>
      </trkpt>
      <trkpt lat="47.33027" lon="-1.33383">
        <ele>88</ele>
        <time>2022-08-06T08:29:11Z</time>
      </trkpt>
      <trkpt lat="47.3302" lon="-1.33375">
        <ele>88</ele>
        <time>2022-08-06T08:29:12Z</time>
      </trkpt>
      <trkpt lat="47.33012" lon="-1.33367">
        <ele>88</ele>
        <time>2022-08-06T08:29:13Z</time>
      </trkpt>
      <trkpt lat="47.33004" lon="-1.33359">
        <ele>88</ele>
        <time>2022-08-06T08:29:14Z</time>
      </trkpt>
      <trkpt lat="47.32997" lon="-1.33351">
        <ele>88</ele>
        <time>2022-08-06T08:29:15Z</time>
      </trkpt>
      <trkpt lat="47.32989" lon="-1.33342">
        <ele>87</ele>
        <time>2022-08-06T08:29:16Z</time>
      </trkpt>
      <trkpt lat="47.32982" lon="-1.33332">
        <ele>86</ele>
        <time>2022-08-06T08:29:17Z</time>
      </trkpt>
      <trkpt lat="47.32974" lon="-1.33322">
        <ele>86</ele>
        <time>2022-08-06T08:29:18Z</time>
      </trkpt>
      <trkpt lat="47.32967" lon="-1.33314">
        <ele>85</ele>
        <time>2022-08-06T08:29:19Z</time>
      </trkpt>
      <trkpt lat="47.32959" lon="-1.33305">
        <ele>85</ele>
        <time>2022-08-06T08:29:20Z</time>
      </trkpt>
      <trkpt lat="47.32951" lon="-1.33296">
        <ele>85</ele>
        <time>2022-08-06T08:29:21Z</time>
      </trkpt>
      <trkpt lat="47.32944" lon="-1.33287">
        <ele>85</ele>
        <time>2022-08-06T08:29:22Z</time>
      </trkpt>
      <trkpt lat="47.32935" lon="-1.33277">
        <ele>85</ele>
        <time>2022-08-06T08:29:23Z</time>
      </trkpt>
      <trkpt lat="47.32926" lon="-1.33268">
        <ele>84</ele>
        <time>2022-08-06T08:29:24Z</time>
      </trkpt>
      <trkpt lat="47.32918" lon="-1.33258">
        <ele>83</ele>
        <time>2022-08-06T08:29:25Z</time>
      </trkpt>
      <trkpt lat="47.32909" lon="-1.33248">
        <ele>82</ele>
        <time>2022-08-06T08:29:26Z</time>
      </trkpt>
      <trkpt lat="47.32899" lon="-1.33238">
        <ele>81</ele>
        <time>2022-08-06T08:29:27Z</time>
      </trkpt>
      <trkpt lat="47.3289" lon="-1.33229">
        <ele>81</ele>
        <time>2022-08-06T08:29:28Z</time>
      </trkpt>
      <trkpt lat="47.32881" lon="-1.33221">
        <ele>81</ele>
        <time>2022-08-06T08:29:29Z</time>
      </trkpt>
      <trkpt lat="47.32872" lon="-1.33213">
        <ele>80</ele>
        <time>2022-08-06T08:29:30Z</time>
      </trkpt>
      <trkpt lat="47.32863" lon="-1.33205">
        <ele>78</ele>
        <time>2022-08-06T08:29:31Z</time>
      </trkpt>
      <trkpt lat="47.32854" lon="-1.33197">
        <ele>77</ele>
        <time>2022-08-06T08:29:32Z</time>
      </trkpt>
      <trkpt lat="47.32845" lon="-1.33188">
        <ele>76</ele>
        <time>2022-08-06T08:29:33Z</time>
      </trkpt>
      <trkpt lat="47.32836" lon="-1.33179">
        <ele>75</ele>
        <time>2022-08-06T08:29:34Z</time>
      </trkpt>
      <trkpt lat="47.32827" lon="-1.33171">
        <ele>74</ele>
        <time>2022-08-06T08:29:35Z</time>
      </trkpt>
      <trkpt lat="47.32818" lon="-1.33163">
        <ele>74</ele>
        <time>2022-08-06T08:29:36Z</time>
      </trkpt>
      <trkpt lat="47.32809" lon="-1.33155">
        <ele>73</ele>
        <time>2022-08-06T08:29:37Z</time>
      </trkpt>
      <trkpt lat="47.32799" lon="-1.33147">
        <ele>73</ele>
        <time>2022-08-06T08:29:38Z</time>
      </trkpt>
      <trkpt lat="47.32791" lon="-1.33139">
        <ele>73</ele>
        <time>2022-08-06T08:29:39Z</time>
      </trkpt>
      <trkpt lat="47.32782" lon="-1.33131">
        <ele>72</ele>
        <time>2022-08-06T08:29:40Z</time>
      </trkpt>
      <trkpt lat="47.32774" lon="-1.33123">
        <ele>72</ele>
        <time>2022-08-06T08:29:41Z</time>
      </trkpt>
      <trkpt lat="47.32765" lon="-1.33115">
        <ele>71</ele>
        <time>2022-08-06T08:29:42Z</time>
      </trkpt>
      <trkpt lat="47.32756" lon="-1.33106">
        <ele>70</ele>
        <time>2022-08-06T08:29:43Z</time>
      </trkpt>
      <trkpt lat="47.32747" lon="-1.33097">
        <ele>69</ele>
        <time>2022-08-06T08:29:44Z</time>
      </trkpt>
      <trkpt lat="47.32739" lon="-1.33088">
        <ele>68</ele>
        <time>2022-08-06T08:29:45Z</time>
      </trkpt>
      <trkpt lat="47.32731" lon="-1.33079">
        <ele>67</ele>
        <time>2022-08-06T08:29:46Z</time>
      </trkpt>
      <trkpt lat="47.32722" lon="-1.33071">
        <ele>67</ele>
        <time>2022-08-06T08:29:47Z</time>
      </trkpt>
      <trkpt lat="47.32714" lon="-1.33062">
        <ele>66</ele>
        <time>2022-08-06T08:29:48Z</time>
      </trkpt>
      <trkpt lat="47.32705" lon="-1.33055">
        <ele>66</ele>
        <time>2022-08-06T08:29:49Z</time>
      </trkpt>
      <trkpt lat="47.32697" lon="-1.33047">
        <ele>65</ele>
        <time>2022-08-06T08:29:50Z</time>
      </trkpt>
      <trkpt lat="47.32688" lon="-1.33039">
        <ele>65</ele>
        <time>2022-08-06T08:29:51Z</time>
      </trkpt>
      <trkpt lat="47.32678" lon="-1.33032">
        <ele>64</ele>
        <time>2022-08-06T08:29:52Z</time>
      </trkpt>
      <trkpt lat="47.32669" lon="-1.33024">
        <ele>62</ele>
        <time>2022-08-06T08:29:53Z</time>
      </trkpt>
      <trkpt lat="47.32661" lon="-1.33016">
        <ele>61</ele>
        <time>2022-08-06T08:29:54Z</time>
      </trkpt>
      <trkpt lat="47.32653" lon="-1.33008">
        <ele>60</ele>
        <time>2022-08-06T08:29:55Z</time>
      </trkpt>
      <trkpt lat="47.32646" lon="-1.32999">
        <ele>59</ele>
        <time>2022-08-06T08:29:56Z</time>
      </trkpt>
      <trkpt lat="47.32635" lon="-1.32981">
        <ele>59</ele>
        <time>2022-08-06T08:29:58Z</time>
      </trkpt>
      <trkpt lat="47.32626" lon="-1.32967">
        <ele>58</ele>
        <time>2022-08-06T08:30:00Z</time>
      </trkpt>
      <trkpt lat="47.3262" lon="-1.32952">
        <ele>58</ele>
        <time>2022-08-06T08:30:02Z</time>
      </trkpt>
      <trkpt lat="47.32609" lon="-1.32961">
        <ele>58</ele>
        <time>2022-08-06T08:30:05Z</time>
      </trkpt>
      <trkpt lat="47.32603" lon="-1.32971">
        <ele>57</ele>
        <time>2022-08-06T08:30:07Z</time>
      </trkpt>
      <trkpt lat="47.32593" lon="-1.32984">
        <ele>56</ele>
        <time>2022-08-06T08:30:10Z</time>
      </trkpt>
      <trkpt lat="47.32586" lon="-1.32993">
        <ele>56</ele>
        <time>2022-08-06T08:30:13Z</time>
      </trkpt>
      <trkpt lat="47.32579" lon="-1.33002">
        <ele>56</ele>
        <time>2022-08-06T08:30:16Z</time>
      </trkpt>
      <trkpt lat="47.32572" lon="-1.33011">
        <ele>57</ele>
        <time>2022-08-06T08:30:19Z</time>
      </trkpt>
      <trkpt lat="47.32564" lon="-1.33019">
        <ele>57</ele>
        <time>2022-08-06T08:30:22Z</time>
      </trkpt>
      <trkpt lat="47.32556" lon="-1.33028">
        <ele>57</ele>
        <time>2022-08-06T08:30:25Z</time>
      </trkpt>
      <trkpt lat="47.32548" lon="-1.33035">
        <ele>57</ele>
        <time>2022-08-06T08:30:29Z</time>
      </trkpt>
      <trkpt lat="47.32539" lon="-1.33042">
        <ele>57</ele>
        <time>2022-08-06T08:30:32Z</time>
      </trkpt>
      <trkpt lat="47.32528" lon="-1.33052">
        <ele>56</ele>
        <time>2022-08-06T08:30:35Z</time>
      </trkpt>
      <trkpt lat="47.32517" lon="-1.33063">
        <ele>56</ele>
        <time>2022-08-06T08:30:37Z</time>
      </trkpt>
      <trkpt lat="47.32507" lon="-1.33074">
        <ele>56</ele>
        <time>2022-08-06T08:30:39Z</time>
      </trkpt>
      <trkpt lat="47.32497" lon="-1.33085">
        <ele>56</ele>
        <time>2022-08-06T08:30:41Z</time>
      </trkpt>
      <trkpt lat="47.32488" lon="-1.33094">
        <ele>56</ele>
        <time>2022-08-06T08:30:43Z</time>
      </trkpt>
      <trkpt lat="47.32481" lon="-1.33103">
        <ele>56</ele>
        <time>2022-08-06T08:30:45Z</time>
      </trkpt>
      <trkpt lat="47.3247" lon="-1.33115">
        <ele>55</ele>
        <time>2022-08-06T08:30:48Z</time>
      </trkpt>
      <trkpt lat="47.3246" lon="-1.33125">
        <ele>55</ele>
        <time>2022-08-06T08:30:50Z</time>
      </trkpt>
      <trkpt lat="47.3245" lon="-1.33137">
        <ele>54</ele>
        <time>2022-08-06T08:30:52Z</time>
      </trkpt>
      <trkpt lat="47.3244" lon="-1.33144">
        <ele>55</ele>
        <time>2022-08-06T08:30:54Z</time>
      </trkpt>
      <trkpt lat="47.32431" lon="-1.33147">
        <ele>55</ele>
        <time>2022-08-06T08:30:56Z</time>
      </trkpt>
      <trkpt lat="47.32422" lon="-1.33153">
        <ele>55</ele>
        <time>2022-08-06T08:30:59Z</time>
      </trkpt>
      <trkpt lat="47.32412" lon="-1.33164">
        <ele>54</ele>
        <time>2022-08-06T08:31:01Z</time>
      </trkpt>
      <trkpt lat="47.32402" lon="-1.33177">
        <ele>54</ele>
        <time>2022-08-06T08:31:03Z</time>
      </trkpt>
      <trkpt lat="47.32391" lon="-1.3319">
        <ele>53</ele>
        <time>2022-08-06T08:31:05Z</time>
      </trkpt>
      <trkpt lat="47.32381" lon="-1.33205">
        <ele>53</ele>
        <time>2022-08-06T08:31:07Z</time>
      </trkpt>
      <trkpt lat="47.32372" lon="-1.3322">
        <ele>52</ele>
        <time>2022-08-06T08:31:09Z</time>
      </trkpt>
      <trkpt lat="47.32364" lon="-1.33236">
        <ele>52</ele>
        <time>2022-08-06T08:31:11Z</time>
      </trkpt>
      <trkpt lat="47.32356" lon="-1.33252">
        <ele>52</ele>
        <time>2022-08-06T08:31:13Z</time>
      </trkpt>
      <trkpt lat="47.32349" lon="-1.3327">
        <ele>52</ele>
        <time>2022-08-06T08:31:15Z</time>
      </trkpt>
      <trkpt lat="47.32341" lon="-1.33286">
        <ele>51</ele>
        <time>2022-08-06T08:31:17Z</time>
      </trkpt>
      <trkpt lat="47.32333" lon="-1.33303">
        <ele>51</ele>
        <time>2022-08-06T08:31:19Z</time>
      </trkpt>
      <trkpt lat="47.32326" lon="-1.3332">
        <ele>50</ele>
        <time>2022-08-06T08:31:21Z</time>
      </trkpt>
      <trkpt lat="47.32319" lon="-1.33336">
        <ele>50</ele>
        <time>2022-08-06T08:31:23Z</time>
      </trkpt>
      <trkpt lat="47.32312" lon="-1.33353">
        <ele>50</ele>
        <time>2022-08-06T08:31:25Z</time>
      </trkpt>
      <trkpt lat="47.32306" lon="-1.33369">
        <ele>50</ele>
        <time>2022-08-06T08:31:27Z</time>
      </trkpt>
      <trkpt lat="47.32298" lon="-1.33385">
        <ele>50</ele>
        <time>2022-08-06T08:31:29Z</time>
      </trkpt>
      <trkpt lat="47.32291" lon="-1.33402">
        <ele>50</ele>
        <time>2022-08-06T08:31:31Z</time>
      </trkpt>
      <trkpt lat="47.32283" lon="-1.33418">
        <ele>50</ele>
        <time>2022-08-06T08:31:33Z</time>
      </trkpt>
      <trkpt lat="47.32276" lon="-1.33435">
        <ele>51</ele>
        <time>2022-08-06T08:31:35Z</time>
      </trkpt>
      <trkpt lat="47.32269" lon="-1.33452">
        <ele>51</ele>
        <time>2022-08-06T08:31:37Z</time>
      </trkpt>
      <trkpt lat="47.32261" lon="-1.33468">
        <ele>51</ele>
        <time>2022-08-06T08:31:39Z</time>
      </trkpt>
      <trkpt lat="47.32253" lon="-1.33485">
        <ele>51</ele>
        <time>2022-08-06T08:31:41Z</time>
      </trkpt>
      <trkpt lat="47.32246" lon="-1.33501">
        <ele>51</ele>
        <time>2022-08-06T08:31:43Z</time>
      </trkpt>
      <trkpt lat="47.32239" lon="-1.33516">
        <ele>51</ele>
        <time>2022-08-06T08:31:45Z</time>
      </trkpt>
      <trkpt lat="47.32232" lon="-1.3353">
        <ele>51</ele>
        <time>2022-08-06T08:31:47Z</time>
      </trkpt>
      <trkpt lat="47.32225" lon="-1.33542">
        <ele>51</ele>
        <time>2022-08-06T08:31:49Z</time>
      </trkpt>
      <trkpt lat="47.32219" lon="-1.33552">
        <ele>52</ele>
        <time>2022-08-06T08:31:51Z</time>
      </trkpt>
      <trkpt lat="47.32215" lon="-1.33564">
        <ele>53</ele>
        <time>2022-08-06T08:31:53Z</time>
      </trkpt>
      <trkpt lat="47.32208" lon="-1.33579">
        <ele>53</ele>
        <time>2022-08-06T08:31:55Z</time>
      </trkpt>
      <trkpt lat="47.32201" lon="-1.33597">
        <ele>53</ele>
        <time>2022-08-06T08:31:57Z</time>
      </trkpt>
      <trkpt lat="47.32194" lon="-1.33613">
        <ele>53</ele>
        <time>2022-08-06T08:31:59Z</time>
      </trkpt>
      <trkpt lat="47.32189" lon="-1.3363">
        <ele>53</ele>
        <time>2022-08-06T08:32:01Z</time>
      </trkpt>
      <trkpt lat="47.32182" lon="-1.33643">
        <ele>53</ele>
        <time>2022-08-06T08:32:03Z</time>
      </trkpt>
      <trkpt lat="47.32175" lon="-1.33657">
        <ele>53</ele>
        <time>2022-08-06T08:32:05Z</time>
      </trkpt>
      <trkpt lat="47.32168" lon="-1.33673">
        <ele>53</ele>
        <time>2022-08-06T08:32:07Z</time>
      </trkpt>
      <trkpt lat="47.32162" lon="-1.33691">
        <ele>53</ele>
        <time>2022-08-06T08:32:09Z</time>
      </trkpt>
      <trkpt lat="47.32156" lon="-1.33708">
        <ele>53</ele>
        <time>2022-08-06T08:32:11Z</time>
      </trkpt>
      <trkpt lat="47.3215" lon="-1.33726">
        <ele>53</ele>
        <time>2022-08-06T08:32:13Z</time>
      </trkpt>
      <trkpt lat="47.32143" lon="-1.33743">
        <ele>53</ele>
        <time>2022-08-06T08:32:15Z</time>
      </trkpt>
      <trkpt lat="47.32137" lon="-1.3376">
        <ele>54</ele>
        <time>2022-08-06T08:32:17Z</time>
      </trkpt>
      <trkpt lat="47.3213" lon="-1.33777">
        <ele>54</ele>
        <time>2022-08-06T08:32:19Z</time>
      </trkpt>
      <trkpt lat="47.32123" lon="-1.33793">
        <ele>53</ele>
        <time>2022-08-06T08:32:21Z</time>
      </trkpt>
      <trkpt lat="47.32115" lon="-1.33809">
        <ele>53</ele>
        <time>2022-08-06T08:32:23Z</time>
      </trkpt>
      <trkpt lat="47.32108" lon="-1.33824">
        <ele>53</ele>
        <time>2022-08-06T08:32:25Z</time>
      </trkpt>
      <trkpt lat="47.32097" lon="-1.33847">
        <ele>53</ele>
        <time>2022-08-06T08:32:28Z</time>
      </trkpt>
      <trkpt lat="47.3209" lon="-1.33862">
        <ele>53</ele>
        <time>2022-08-06T08:32:30Z</time>
      </trkpt>
      <trkpt lat="47.32079" lon="-1.33884">
        <ele>54</ele>
        <time>2022-08-06T08:32:33Z</time>
      </trkpt>
      <trkpt lat="47.32067" lon="-1.33906">
        <ele>55</ele>
        <time>2022-08-06T08:32:36Z</time>
      </trkpt>
      <trkpt lat="47.32054" lon="-1.33928">
        <ele>55</ele>
        <time>2022-08-06T08:32:39Z</time>
      </trkpt>
      <trkpt lat="47.32046" lon="-1.33941">
        <ele>55</ele>
        <time>2022-08-06T08:32:41Z</time>
      </trkpt>
      <trkpt lat="47.32038" lon="-1.33956">
        <ele>56</ele>
        <time>2022-08-06T08:32:43Z</time>
      </trkpt>
      <trkpt lat="47.32032" lon="-1.3397">
        <ele>56</ele>
        <time>2022-08-06T08:32:45Z</time>
      </trkpt>
      <trkpt lat="47.32024" lon="-1.33982">
        <ele>56</ele>
        <time>2022-08-06T08:32:47Z</time>
      </trkpt>
      <trkpt lat="47.32016" lon="-1.33995">
        <ele>56</ele>
        <time>2022-08-06T08:32:49Z</time>
      </trkpt>
      <trkpt lat="47.32006" lon="-1.34009">
        <ele>56</ele>
        <time>2022-08-06T08:32:51Z</time>
      </trkpt>
      <trkpt lat="47.31997" lon="-1.34023">
        <ele>56</ele>
        <time>2022-08-06T08:32:53Z</time>
      </trkpt>
      <trkpt lat="47.31989" lon="-1.34037">
        <ele>57</ele>
        <time>2022-08-06T08:32:55Z</time>
      </trkpt>
      <trkpt lat="47.31981" lon="-1.3405">
        <ele>57</ele>
        <time>2022-08-06T08:32:57Z</time>
      </trkpt>
      <trkpt lat="47.31973" lon="-1.34063">
        <ele>57</ele>
        <time>2022-08-06T08:32:59Z</time>
      </trkpt>
      <trkpt lat="47.31965" lon="-1.34076">
        <ele>57</ele>
        <time>2022-08-06T08:33:01Z</time>
      </trkpt>
      <trkpt lat="47.31957" lon="-1.34088">
        <ele>57</ele>
        <time>2022-08-06T08:33:03Z</time>
      </trkpt>
      <trkpt lat="47.3195" lon="-1.34099">
        <ele>57</ele>
        <time>2022-08-06T08:33:05Z</time>
      </trkpt>
      <trkpt lat="47.31942" lon="-1.34114">
        <ele>57</ele>
        <time>2022-08-06T08:33:08Z</time>
      </trkpt>
      <trkpt lat="47.31935" lon="-1.34123">
        <ele>58</ele>
        <time>2022-08-06T08:33:11Z</time>
      </trkpt>
      <trkpt lat="47.31927" lon="-1.34136">
        <ele>57</ele>
        <time>2022-08-06T08:33:15Z</time>
      </trkpt>
      <trkpt lat="47.3192" lon="-1.34145">
        <ele>57</ele>
        <time>2022-08-06T08:33:18Z</time>
      </trkpt>
      <trkpt lat="47.31913" lon="-1.34155">
        <ele>57</ele>
        <time>2022-08-06T08:33:21Z</time>
      </trkpt>
      <trkpt lat="47.31907" lon="-1.34165">
        <ele>57</ele>
        <time>2022-08-06T08:33:25Z</time>
      </trkpt>
      <trkpt lat="47.31898" lon="-1.34178">
        <ele>56</ele>
        <time>2022-08-06T08:33:30Z</time>
      </trkpt>
      <trkpt lat="47.3189" lon="-1.34189">
        <ele>57</ele>
        <time>2022-08-06T08:33:33Z</time>
      </trkpt>
      <trkpt lat="47.31882" lon="-1.34201">
        <ele>56</ele>
        <time>2022-08-06T08:33:36Z</time>
      </trkpt>
      <trkpt lat="47.31875" lon="-1.3421">
        <ele>55</ele>
        <time>2022-08-06T08:33:39Z</time>
      </trkpt>
      <trkpt lat="47.31868" lon="-1.34221">
        <ele>55</ele>
        <time>2022-08-06T08:33:42Z</time>
      </trkpt>
      <trkpt lat="47.31862" lon="-1.34231">
        <ele>56</ele>
        <time>2022-08-06T08:33:45Z</time>
      </trkpt>
      <trkpt lat="47.31854" lon="-1.34242">
        <ele>56</ele>
        <time>2022-08-06T08:33:49Z</time>
      </trkpt>
      <trkpt lat="47.31846" lon="-1.34253">
        <ele>55</ele>
        <time>2022-08-06T08:33:53Z</time>
      </trkpt>
      <trkpt lat="47.31838" lon="-1.34265">
        <ele>55</ele>
        <time>2022-08-06T08:33:57Z</time>
      </trkpt>
      <trkpt lat="47.31831" lon="-1.34277">
        <ele>54</ele>
        <time>2022-08-06T08:34:00Z</time>
      </trkpt>
      <trkpt lat="47.31824" lon="-1.34288">
        <ele>54</ele>
        <time>2022-08-06T08:34:03Z</time>
      </trkpt>
      <trkpt lat="47.31816" lon="-1.34299">
        <ele>55</ele>
        <time>2022-08-06T08:34:06Z</time>
      </trkpt>
      <trkpt lat="47.3181" lon="-1.3431">
        <ele>55</ele>
        <time>2022-08-06T08:34:08Z</time>
      </trkpt>
      <trkpt lat="47.31802" lon="-1.34324">
        <ele>55</ele>
        <time>2022-08-06T08:34:10Z</time>
      </trkpt>
      <trkpt lat="47.31792" lon="-1.3434">
        <ele>55</ele>
        <time>2022-08-06T08:34:12Z</time>
      </trkpt>
      <trkpt lat="47.31781" lon="-1.34357">
        <ele>55</ele>
        <time>2022-08-06T08:34:14Z</time>
      </trkpt>
      <trkpt lat="47.31769" lon="-1.34374">
        <ele>54</ele>
        <time>2022-08-06T08:34:16Z</time>
      </trkpt>
      <trkpt lat="47.31759" lon="-1.34389">
        <ele>54</ele>
        <time>2022-08-06T08:34:18Z</time>
      </trkpt>
      <trkpt lat="47.31751" lon="-1.34405">
        <ele>54</ele>
        <time>2022-08-06T08:34:20Z</time>
      </trkpt>
      <trkpt lat="47.31741" lon="-1.3442">
        <ele>54</ele>
        <time>2022-08-06T08:34:22Z</time>
      </trkpt>
      <trkpt lat="47.31731" lon="-1.34435">
        <ele>54</ele>
        <time>2022-08-06T08:34:24Z</time>
      </trkpt>
      <trkpt lat="47.31723" lon="-1.3445">
        <ele>54</ele>
        <time>2022-08-06T08:34:26Z</time>
      </trkpt>
      <trkpt lat="47.31714" lon="-1.34465">
        <ele>54</ele>
        <time>2022-08-06T08:34:28Z</time>
      </trkpt>
      <trkpt lat="47.31703" lon="-1.34481">
        <ele>53</ele>
        <time>2022-08-06T08:34:30Z</time>
      </trkpt>
      <trkpt lat="47.31693" lon="-1.34498">
        <ele>53</ele>
        <time>2022-08-06T08:34:32Z</time>
      </trkpt>
      <trkpt lat="47.31683" lon="-1.34513">
        <ele>54</ele>
        <time>2022-08-06T08:34:34Z</time>
      </trkpt>
      <trkpt lat="47.31673" lon="-1.34527">
        <ele>54</ele>
        <time>2022-08-06T08:34:36Z</time>
      </trkpt>
      <trkpt lat="47.31663" lon="-1.34542">
        <ele>54</ele>
        <time>2022-08-06T08:34:38Z</time>
      </trkpt>
      <trkpt lat="47.31654" lon="-1.34557">
        <ele>54</ele>
        <time>2022-08-06T08:34:40Z</time>
      </trkpt>
      <trkpt lat="47.31646" lon="-1.34573">
        <ele>55</ele>
        <time>2022-08-06T08:34:42Z</time>
      </trkpt>
      <trkpt lat="47.31638" lon="-1.34588">
        <ele>56</ele>
        <time>2022-08-06T08:34:44Z</time>
      </trkpt>
      <trkpt lat="47.31629" lon="-1.34603">
        <ele>56</ele>
        <time>2022-08-06T08:34:46Z</time>
      </trkpt>
      <trkpt lat="47.31619" lon="-1.34617">
        <ele>56</ele>
        <time>2022-08-06T08:34:48Z</time>
      </trkpt>
      <trkpt lat="47.3161" lon="-1.34632">
        <ele>56</ele>
        <time>2022-08-06T08:34:50Z</time>
      </trkpt>
      <trkpt lat="47.31602" lon="-1.34648">
        <ele>56</ele>
        <time>2022-08-06T08:34:52Z</time>
      </trkpt>
      <trkpt lat="47.31592" lon="-1.34663">
        <ele>56</ele>
        <time>2022-08-06T08:34:54Z</time>
      </trkpt>
      <trkpt lat="47.31582" lon="-1.34677">
        <ele>56</ele>
        <time>2022-08-06T08:34:56Z</time>
      </trkpt>
      <trkpt lat="47.31573" lon="-1.34692">
        <ele>56</ele>
        <time>2022-08-06T08:34:58Z</time>
      </trkpt>
      <trkpt lat="47.31564" lon="-1.34707">
        <ele>56</ele>
        <time>2022-08-06T08:35:00Z</time>
      </trkpt>
      <trkpt lat="47.31555" lon="-1.34721">
        <ele>56</ele>
        <time>2022-08-06T08:35:02Z</time>
      </trkpt>
      <trkpt lat="47.31545" lon="-1.34736">
        <ele>56</ele>
        <time>2022-08-06T08:35:04Z</time>
      </trkpt>
      <trkpt lat="47.31535" lon="-1.3475">
        <ele>55</ele>
        <time>2022-08-06T08:35:06Z</time>
      </trkpt>
      <trkpt lat="47.31526" lon="-1.34764">
        <ele>55</ele>
        <time>2022-08-06T08:35:08Z</time>
      </trkpt>
      <trkpt lat="47.31518" lon="-1.34777">
        <ele>55</ele>
        <time>2022-08-06T08:35:10Z</time>
      </trkpt>
      <trkpt lat="47.31509" lon="-1.34791">
        <ele>56</ele>
        <time>2022-08-06T08:35:12Z</time>
      </trkpt>
      <trkpt lat="47.315" lon="-1.34805">
        <ele>56</ele>
        <time>2022-08-06T08:35:14Z</time>
      </trkpt>
      <trkpt lat="47.31491" lon="-1.34819">
        <ele>56</ele>
        <time>2022-08-06T08:35:16Z</time>
      </trkpt>
      <trkpt lat="47.31482" lon="-1.34834">
        <ele>56</ele>
        <time>2022-08-06T08:35:18Z</time>
      </trkpt>
      <trkpt lat="47.31473" lon="-1.34848">
        <ele>56</ele>
        <time>2022-08-06T08:35:20Z</time>
      </trkpt>
      <trkpt lat="47.31464" lon="-1.34863">
        <ele>56</ele>
        <time>2022-08-06T08:35:22Z</time>
      </trkpt>
      <trkpt lat="47.31455" lon="-1.34878">
        <ele>56</ele>
        <time>2022-08-06T08:35:24Z</time>
      </trkpt>
      <trkpt lat="47.31445" lon="-1.34892">
        <ele>56</ele>
        <time>2022-08-06T08:35:26Z</time>
      </trkpt>
      <trkpt lat="47.31437" lon="-1.34906">
        <ele>56</ele>
        <time>2022-08-06T08:35:28Z</time>
      </trkpt>
      <trkpt lat="47.31427" lon="-1.3492">
        <ele>56</ele>
        <time>2022-08-06T08:35:30Z</time>
      </trkpt>
      <trkpt lat="47.31418" lon="-1.34935">
        <ele>56</ele>
        <time>2022-08-06T08:35:32Z</time>
      </trkpt>
      <trkpt lat="47.31408" lon="-1.34949">
        <ele>56</ele>
        <time>2022-08-06T08:35:34Z</time>
      </trkpt>
      <trkpt lat="47.31399" lon="-1.34963">
        <ele>56</ele>
        <time>2022-08-06T08:35:36Z</time>
      </trkpt>
      <trkpt lat="47.3139" lon="-1.34977">
        <ele>56</ele>
        <time>2022-08-06T08:35:38Z</time>
      </trkpt>
      <trkpt lat="47.31382" lon="-1.34991">
        <ele>56</ele>
        <time>2022-08-06T08:35:40Z</time>
      </trkpt>
      <trkpt lat="47.31375" lon="-1.35006">
        <ele>56</ele>
        <time>2022-08-06T08:35:42Z</time>
      </trkpt>
      <trkpt lat="47.31366" lon="-1.3502">
        <ele>56</ele>
        <time>2022-08-06T08:35:44Z</time>
      </trkpt>
      <trkpt lat="47.31357" lon="-1.35035">
        <ele>56</ele>
        <time>2022-08-06T08:35:46Z</time>
      </trkpt>
      <trkpt lat="47.31348" lon="-1.3505">
        <ele>56</ele>
        <time>2022-08-06T08:35:48Z</time>
      </trkpt>
      <trkpt lat="47.3134" lon="-1.35064">
        <ele>56</ele>
        <time>2022-08-06T08:35:50Z</time>
      </trkpt>
      <trkpt lat="47.31332" lon="-1.35077">
        <ele>55</ele>
        <time>2022-08-06T08:35:52Z</time>
      </trkpt>
      <trkpt lat="47.31324" lon="-1.35088">
        <ele>55</ele>
        <time>2022-08-06T08:35:54Z</time>
      </trkpt>
      <trkpt lat="47.31313" lon="-1.35094">
        <ele>54</ele>
        <time>2022-08-06T08:35:56Z</time>
      </trkpt>
      <trkpt lat="47.31302" lon="-1.351">
        <ele>55</ele>
        <time>2022-08-06T08:35:58Z</time>
      </trkpt>
      <trkpt lat="47.31294" lon="-1.35112">
        <ele>55</ele>
        <time>2022-08-06T08:36:00Z</time>
      </trkpt>
      <trkpt lat="47.31288" lon="-1.35125">
        <ele>55</ele>
        <time>2022-08-06T08:36:02Z</time>
      </trkpt>
      <trkpt lat="47.31282" lon="-1.3514">
        <ele>55</ele>
        <time>2022-08-06T08:36:04Z</time>
      </trkpt>
      <trkpt lat="47.31274" lon="-1.35155">
        <ele>55</ele>
        <time>2022-08-06T08:36:06Z</time>
      </trkpt>
      <trkpt lat="47.31266" lon="-1.3517">
        <ele>55</ele>
        <time>2022-08-06T08:36:08Z</time>
      </trkpt>
      <trkpt lat="47.31257" lon="-1.35185">
        <ele>55</ele>
        <time>2022-08-06T08:36:10Z</time>
      </trkpt>
      <trkpt lat="47.31248" lon="-1.35201">
        <ele>54</ele>
        <time>2022-08-06T08:36:12Z</time>
      </trkpt>
      <trkpt lat="47.31238" lon="-1.35216">
        <ele>54</ele>
        <time>2022-08-06T08:36:14Z</time>
      </trkpt>
      <trkpt lat="47.31229" lon="-1.35231">
        <ele>53</ele>
        <time>2022-08-06T08:36:16Z</time>
      </trkpt>
      <trkpt lat="47.3122" lon="-1.35246">
        <ele>54</ele>
        <time>2022-08-06T08:36:18Z</time>
      </trkpt>
      <trkpt lat="47.31211" lon="-1.35262">
        <ele>54</ele>
        <time>2022-08-06T08:36:20Z</time>
      </trkpt>
      <trkpt lat="47.31201" lon="-1.35277">
        <ele>55</ele>
        <time>2022-08-06T08:36:22Z</time>
      </trkpt>
      <trkpt lat="47.31192" lon="-1.35292">
        <ele>55</ele>
        <time>2022-08-06T08:36:24Z</time>
      </trkpt>
      <trkpt lat="47.31183" lon="-1.35308">
        <ele>55</ele>
        <time>2022-08-06T08:36:26Z</time>
      </trkpt>
      <trkpt lat="47.31173" lon="-1.35323">
        <ele>55</ele>
        <time>2022-08-06T08:36:28Z</time>
      </trkpt>
      <trkpt lat="47.31163" lon="-1.35338">
        <ele>55</ele>
        <time>2022-08-06T08:36:30Z</time>
      </trkpt>
      <trkpt lat="47.31153" lon="-1.35353">
        <ele>55</ele>
        <time>2022-08-06T08:36:32Z</time>
      </trkpt>
      <trkpt lat="47.31144" lon="-1.35368">
        <ele>55</ele>
        <time>2022-08-06T08:36:34Z</time>
      </trkpt>
      <trkpt lat="47.31134" lon="-1.35383">
        <ele>55</ele>
        <time>2022-08-06T08:36:36Z</time>
      </trkpt>
      <trkpt lat="47.31124" lon="-1.35398">
        <ele>56</ele>
        <time>2022-08-06T08:36:38Z</time>
      </trkpt>
      <trkpt lat="47.31115" lon="-1.35412">
        <ele>56</ele>
        <time>2022-08-06T08:36:40Z</time>
      </trkpt>
      <trkpt lat="47.31105" lon="-1.35426">
        <ele>56</ele>
        <time>2022-08-06T08:36:42Z</time>
      </trkpt>
      <trkpt lat="47.31095" lon="-1.3544">
        <ele>57</ele>
        <time>2022-08-06T08:36:44Z</time>
      </trkpt>
      <trkpt lat="47.31085" lon="-1.35454">
        <ele>56</ele>
        <time>2022-08-06T08:36:46Z</time>
      </trkpt>
      <trkpt lat="47.31075" lon="-1.35467">
        <ele>56</ele>
        <time>2022-08-06T08:36:48Z</time>
      </trkpt>
      <trkpt lat="47.31065" lon="-1.3548">
        <ele>56</ele>
        <time>2022-08-06T08:36:50Z</time>
      </trkpt>
      <trkpt lat="47.31055" lon="-1.35493">
        <ele>56</ele>
        <time>2022-08-06T08:36:52Z</time>
      </trkpt>
      <trkpt lat="47.31044" lon="-1.35506">
        <ele>56</ele>
        <time>2022-08-06T08:36:54Z</time>
      </trkpt>
      <trkpt lat="47.31034" lon="-1.35519">
        <ele>56</ele>
        <time>2022-08-06T08:36:56Z</time>
      </trkpt>
      <trkpt lat="47.31023" lon="-1.35531">
        <ele>56</ele>
        <time>2022-08-06T08:36:58Z</time>
      </trkpt>
      <trkpt lat="47.31013" lon="-1.35545">
        <ele>56</ele>
        <time>2022-08-06T08:37:00Z</time>
      </trkpt>
      <trkpt lat="47.31002" lon="-1.35558">
        <ele>56</ele>
        <time>2022-08-06T08:37:02Z</time>
      </trkpt>
      <trkpt lat="47.30989" lon="-1.35571">
        <ele>55</ele>
        <time>2022-08-06T08:37:04Z</time>
      </trkpt>
      <trkpt lat="47.30978" lon="-1.35583">
        <ele>55</ele>
        <time>2022-08-06T08:37:06Z</time>
      </trkpt>
      <trkpt lat="47.30967" lon="-1.35595">
        <ele>55</ele>
        <time>2022-08-06T08:37:08Z</time>
      </trkpt>
      <trkpt lat="47.30956" lon="-1.35607">
        <ele>55</ele>
        <time>2022-08-06T08:37:10Z</time>
      </trkpt>
      <trkpt lat="47.30946" lon="-1.35619">
        <ele>55</ele>
        <time>2022-08-06T08:37:12Z</time>
      </trkpt>
      <trkpt lat="47.30935" lon="-1.35632">
        <ele>55</ele>
        <time>2022-08-06T08:37:14Z</time>
      </trkpt>
      <trkpt lat="47.30924" lon="-1.35644">
        <ele>55</ele>
        <time>2022-08-06T08:37:16Z</time>
      </trkpt>
      <trkpt lat="47.30914" lon="-1.35656">
        <ele>55</ele>
        <time>2022-08-06T08:37:18Z</time>
      </trkpt>
      <trkpt lat="47.30903" lon="-1.35669">
        <ele>54</ele>
        <time>2022-08-06T08:37:20Z</time>
      </trkpt>
      <trkpt lat="47.30893" lon="-1.35682">
        <ele>54</ele>
        <time>2022-08-06T08:37:22Z</time>
      </trkpt>
      <trkpt lat="47.30882" lon="-1.35696">
        <ele>55</ele>
        <time>2022-08-06T08:37:24Z</time>
      </trkpt>
      <trkpt lat="47.30871" lon="-1.35709">
        <ele>54</ele>
        <time>2022-08-06T08:37:26Z</time>
      </trkpt>
      <trkpt lat="47.3086" lon="-1.35721">
        <ele>55</ele>
        <time>2022-08-06T08:37:28Z</time>
      </trkpt>
      <trkpt lat="47.30849" lon="-1.35735">
        <ele>55</ele>
        <time>2022-08-06T08:37:30Z</time>
      </trkpt>
      <trkpt lat="47.30838" lon="-1.35748">
        <ele>55</ele>
        <time>2022-08-06T08:37:32Z</time>
      </trkpt>
      <trkpt lat="47.30826" lon="-1.35762">
        <ele>54</ele>
        <time>2022-08-06T08:37:34Z</time>
      </trkpt>
      <trkpt lat="47.30815" lon="-1.35775">
        <ele>55</ele>
        <time>2022-08-06T08:37:36Z</time>
      </trkpt>
      <trkpt lat="47.30803" lon="-1.35789">
        <ele>55</ele>
        <time>2022-08-06T08:37:38Z</time>
      </trkpt>
      <trkpt lat="47.30792" lon="-1.35802">
        <ele>55</ele>
        <time>2022-08-06T08:37:40Z</time>
      </trkpt>
      <trkpt lat="47.30781" lon="-1.35815">
        <ele>55</ele>
        <time>2022-08-06T08:37:42Z</time>
      </trkpt>
      <trkpt lat="47.3077" lon="-1.35828">
        <ele>55</ele>
        <time>2022-08-06T08:37:44Z</time>
      </trkpt>
      <trkpt lat="47.30759" lon="-1.35841">
        <ele>55</ele>
        <time>2022-08-06T08:37:46Z</time>
      </trkpt>
      <trkpt lat="47.30748" lon="-1.35853">
        <ele>55</ele>
        <time>2022-08-06T08:37:48Z</time>
      </trkpt>
      <trkpt lat="47.30737" lon="-1.35866">
        <ele>55</ele>
        <time>2022-08-06T08:37:50Z</time>
      </trkpt>
      <trkpt lat="47.30726" lon="-1.35878">
        <ele>55</ele>
        <time>2022-08-06T08:37:52Z</time>
      </trkpt>
      <trkpt lat="47.30715" lon="-1.3589">
        <ele>55</ele>
        <time>2022-08-06T08:37:54Z</time>
      </trkpt>
      <trkpt lat="47.30704" lon="-1.35902">
        <ele>55</ele>
        <time>2022-08-06T08:37:56Z</time>
      </trkpt>
      <trkpt lat="47.30693" lon="-1.35915">
        <ele>55</ele>
        <time>2022-08-06T08:37:58Z</time>
      </trkpt>
      <trkpt lat="47.30682" lon="-1.35928">
        <ele>55</ele>
        <time>2022-08-06T08:38:00Z</time>
      </trkpt>
      <trkpt lat="47.30672" lon="-1.35941">
        <ele>55</ele>
        <time>2022-08-06T08:38:02Z</time>
      </trkpt>
      <trkpt lat="47.30662" lon="-1.35953">
        <ele>56</ele>
        <time>2022-08-06T08:38:04Z</time>
      </trkpt>
      <trkpt lat="47.30652" lon="-1.35965">
        <ele>56</ele>
        <time>2022-08-06T08:38:06Z</time>
      </trkpt>
      <trkpt lat="47.3064" lon="-1.35978">
        <ele>56</ele>
        <time>2022-08-06T08:38:08Z</time>
      </trkpt>
      <trkpt lat="47.30629" lon="-1.35991">
        <ele>55</ele>
        <time>2022-08-06T08:38:10Z</time>
      </trkpt>
      <trkpt lat="47.30618" lon="-1.36002">
        <ele>55</ele>
        <time>2022-08-06T08:38:12Z</time>
      </trkpt>
      <trkpt lat="47.30607" lon="-1.36012">
        <ele>55</ele>
        <time>2022-08-06T08:38:14Z</time>
      </trkpt>
      <trkpt lat="47.30595" lon="-1.36022">
        <ele>56</ele>
        <time>2022-08-06T08:38:16Z</time>
      </trkpt>
      <trkpt lat="47.30587" lon="-1.36032">
        <ele>57</ele>
        <time>2022-08-06T08:38:18Z</time>
      </trkpt>
      <trkpt lat="47.30586" lon="-1.36048">
        <ele>59</ele>
        <time>2022-08-06T08:38:21Z</time>
      </trkpt>
      <trkpt lat="47.30579" lon="-1.36059">
        <ele>59</ele>
        <time>2022-08-06T08:38:23Z</time>
      </trkpt>
      <trkpt lat="47.3057" lon="-1.3607">
        <ele>59</ele>
        <time>2022-08-06T08:38:25Z</time>
      </trkpt>
      <trkpt lat="47.30559" lon="-1.36083">
        <ele>58</ele>
        <time>2022-08-06T08:38:27Z</time>
      </trkpt>
      <trkpt lat="47.30549" lon="-1.36096">
        <ele>58</ele>
        <time>2022-08-06T08:38:29Z</time>
      </trkpt>
      <trkpt lat="47.30541" lon="-1.36109">
        <ele>58</ele>
        <time>2022-08-06T08:38:31Z</time>
      </trkpt>
      <trkpt lat="47.30533" lon="-1.36123">
        <ele>58</ele>
        <time>2022-08-06T08:38:33Z</time>
      </trkpt>
      <trkpt lat="47.30524" lon="-1.36138">
        <ele>58</ele>
        <time>2022-08-06T08:38:35Z</time>
      </trkpt>
      <trkpt lat="47.30515" lon="-1.36154">
        <ele>58</ele>
        <time>2022-08-06T08:38:37Z</time>
      </trkpt>
      <trkpt lat="47.30506" lon="-1.36169">
        <ele>58</ele>
        <time>2022-08-06T08:38:39Z</time>
      </trkpt>
      <trkpt lat="47.30497" lon="-1.36183">
        <ele>57</ele>
        <time>2022-08-06T08:38:41Z</time>
      </trkpt>
      <trkpt lat="47.30489" lon="-1.36199">
        <ele>57</ele>
        <time>2022-08-06T08:38:43Z</time>
      </trkpt>
      <trkpt lat="47.3048" lon="-1.36214">
        <ele>57</ele>
        <time>2022-08-06T08:38:45Z</time>
      </trkpt>
      <trkpt lat="47.30473" lon="-1.36229">
        <ele>57</ele>
        <time>2022-08-06T08:38:47Z</time>
      </trkpt>
      <trkpt lat="47.30464" lon="-1.36245">
        <ele>57</ele>
        <time>2022-08-06T08:38:49Z</time>
      </trkpt>
      <trkpt lat="47.30456" lon="-1.36262">
        <ele>57</ele>
        <time>2022-08-06T08:38:51Z</time>
      </trkpt>
      <trkpt lat="47.30448" lon="-1.36279">
        <ele>57</ele>
        <time>2022-08-06T08:38:53Z</time>
      </trkpt>
      <trkpt lat="47.3044" lon="-1.36297">
        <ele>57</ele>
        <time>2022-08-06T08:38:55Z</time>
      </trkpt>
      <trkpt lat="47.30432" lon="-1.36314">
        <ele>57</ele>
        <time>2022-08-06T08:38:57Z</time>
      </trkpt>
      <trkpt lat="47.30424" lon="-1.36332">
        <ele>58</ele>
        <time>2022-08-06T08:38:59Z</time>
      </trkpt>
      <trkpt lat="47.30417" lon="-1.36349">
        <ele>58</ele>
        <time>2022-08-06T08:39:01Z</time>
      </trkpt>
      <trkpt lat="47.30409" lon="-1.36367">
        <ele>58</ele>
        <time>2022-08-06T08:39:03Z</time>
      </trkpt>
      <trkpt lat="47.30399" lon="-1.36384">
        <ele>56</ele>
        <time>2022-08-06T08:39:05Z</time>
      </trkpt>
      <trkpt lat="47.3039" lon="-1.36403">
        <ele>56</ele>
        <time>2022-08-06T08:39:07Z</time>
      </trkpt>
      <trkpt lat="47.3038" lon="-1.36422">
        <ele>56</ele>
        <time>2022-08-06T08:39:09Z</time>
      </trkpt>
      <trkpt lat="47.30371" lon="-1.3644">
        <ele>57</ele>
        <time>2022-08-06T08:39:11Z</time>
      </trkpt>
      <trkpt lat="47.30362" lon="-1.36458">
        <ele>57</ele>
        <time>2022-08-06T08:39:13Z</time>
      </trkpt>
      <trkpt lat="47.30353" lon="-1.36476">
        <ele>57</ele>
        <time>2022-08-06T08:39:15Z</time>
      </trkpt>
      <trkpt lat="47.30345" lon="-1.36494">
        <ele>56</ele>
        <time>2022-08-06T08:39:17Z</time>
      </trkpt>
      <trkpt lat="47.30337" lon="-1.36511">
        <ele>57</ele>
        <time>2022-08-06T08:39:19Z</time>
      </trkpt>
      <trkpt lat="47.30329" lon="-1.36528">
        <ele>57</ele>
        <time>2022-08-06T08:39:21Z</time>
      </trkpt>
      <trkpt lat="47.30321" lon="-1.36546">
        <ele>57</ele>
        <time>2022-08-06T08:39:23Z</time>
      </trkpt>
      <trkpt lat="47.30313" lon="-1.36563">
        <ele>57</ele>
        <time>2022-08-06T08:39:25Z</time>
      </trkpt>
      <trkpt lat="47.30306" lon="-1.3658">
        <ele>57</ele>
        <time>2022-08-06T08:39:27Z</time>
      </trkpt>
      <trkpt lat="47.30298" lon="-1.36597">
        <ele>57</ele>
        <time>2022-08-06T08:39:29Z</time>
      </trkpt>
      <trkpt lat="47.3029" lon="-1.36614">
        <ele>57</ele>
        <time>2022-08-06T08:39:31Z</time>
      </trkpt>
      <trkpt lat="47.30282" lon="-1.3663">
        <ele>57</ele>
        <time>2022-08-06T08:39:33Z</time>
      </trkpt>
      <trkpt lat="47.30273" lon="-1.36646">
        <ele>57</ele>
        <time>2022-08-06T08:39:35Z</time>
      </trkpt>
      <trkpt lat="47.30265" lon="-1.36663">
        <ele>57</ele>
        <time>2022-08-06T08:39:37Z</time>
      </trkpt>
      <trkpt lat="47.30257" lon="-1.3668">
        <ele>57</ele>
        <time>2022-08-06T08:39:39Z</time>
      </trkpt>
      <trkpt lat="47.30249" lon="-1.36697">
        <ele>57</ele>
        <time>2022-08-06T08:39:41Z</time>
      </trkpt>
      <trkpt lat="47.3024" lon="-1.36712">
        <ele>57</ele>
        <time>2022-08-06T08:39:43Z</time>
      </trkpt>
      <trkpt lat="47.30233" lon="-1.36728">
        <ele>57</ele>
        <time>2022-08-06T08:39:45Z</time>
      </trkpt>
      <trkpt lat="47.30225" lon="-1.36743">
        <ele>57</ele>
        <time>2022-08-06T08:39:47Z</time>
      </trkpt>
      <trkpt lat="47.30218" lon="-1.36759">
        <ele>57</ele>
        <time>2022-08-06T08:39:49Z</time>
      </trkpt>
      <trkpt lat="47.3021" lon="-1.36776">
        <ele>57</ele>
        <time>2022-08-06T08:39:51Z</time>
      </trkpt>
      <trkpt lat="47.30203" lon="-1.36792">
        <ele>57</ele>
        <time>2022-08-06T08:39:53Z</time>
      </trkpt>
      <trkpt lat="47.30196" lon="-1.36807">
        <ele>58</ele>
        <time>2022-08-06T08:39:55Z</time>
      </trkpt>
      <trkpt lat="47.3019" lon="-1.36822">
        <ele>58</ele>
        <time>2022-08-06T08:39:57Z</time>
      </trkpt>
      <trkpt lat="47.30183" lon="-1.36837">
        <ele>58</ele>
        <time>2022-08-06T08:39:59Z</time>
      </trkpt>
      <trkpt lat="47.30175" lon="-1.36852">
        <ele>58</ele>
        <time>2022-08-06T08:40:01Z</time>
      </trkpt>
      <trkpt lat="47.30168" lon="-1.36866">
        <ele>58</ele>
        <time>2022-08-06T08:40:03Z</time>
      </trkpt>
      <trkpt lat="47.3016" lon="-1.3688">
        <ele>58</ele>
        <time>2022-08-06T08:40:05Z</time>
      </trkpt>
      <trkpt lat="47.30151" lon="-1.36896">
        <ele>57</ele>
        <time>2022-08-06T08:40:07Z</time>
      </trkpt>
      <trkpt lat="47.30142" lon="-1.36914">
        <ele>57</ele>
        <time>2022-08-06T08:40:09Z</time>
      </trkpt>
      <trkpt lat="47.30132" lon="-1.36934">
        <ele>57</ele>
        <time>2022-08-06T08:40:11Z</time>
      </trkpt>
      <trkpt lat="47.30122" lon="-1.36955">
        <ele>57</ele>
        <time>2022-08-06T08:40:13Z</time>
      </trkpt>
      <trkpt lat="47.30114" lon="-1.36977">
        <ele>57</ele>
        <time>2022-08-06T08:40:15Z</time>
      </trkpt>
      <trkpt lat="47.30105" lon="-1.36995">
        <ele>56</ele>
        <time>2022-08-06T08:40:17Z</time>
      </trkpt>
      <trkpt lat="47.30095" lon="-1.37014">
        <ele>56</ele>
        <time>2022-08-06T08:40:19Z</time>
      </trkpt>
      <trkpt lat="47.30086" lon="-1.37033">
        <ele>56</ele>
        <time>2022-08-06T08:40:21Z</time>
      </trkpt>
      <trkpt lat="47.30076" lon="-1.37052">
        <ele>55</ele>
        <time>2022-08-06T08:40:23Z</time>
      </trkpt>
      <trkpt lat="47.30066" lon="-1.37071">
        <ele>55</ele>
        <time>2022-08-06T08:40:25Z</time>
      </trkpt>
      <trkpt lat="47.30055" lon="-1.37089">
        <ele>56</ele>
        <time>2022-08-06T08:40:27Z</time>
      </trkpt>
      <trkpt lat="47.30044" lon="-1.37107">
        <ele>56</ele>
        <time>2022-08-06T08:40:29Z</time>
      </trkpt>
      <trkpt lat="47.30034" lon="-1.37124">
        <ele>56</ele>
        <time>2022-08-06T08:40:31Z</time>
      </trkpt>
      <trkpt lat="47.30024" lon="-1.37141">
        <ele>56</ele>
        <time>2022-08-06T08:40:33Z</time>
      </trkpt>
      <trkpt lat="47.30013" lon="-1.37156">
        <ele>56</ele>
        <time>2022-08-06T08:40:35Z</time>
      </trkpt>
      <trkpt lat="47.30002" lon="-1.37172">
        <ele>55</ele>
        <time>2022-08-06T08:40:37Z</time>
      </trkpt>
      <trkpt lat="47.29992" lon="-1.37189">
        <ele>55</ele>
        <time>2022-08-06T08:40:39Z</time>
      </trkpt>
      <trkpt lat="47.29982" lon="-1.37205">
        <ele>55</ele>
        <time>2022-08-06T08:40:41Z</time>
      </trkpt>
      <trkpt lat="47.29971" lon="-1.37221">
        <ele>55</ele>
        <time>2022-08-06T08:40:43Z</time>
      </trkpt>
      <trkpt lat="47.29962" lon="-1.37235">
        <ele>56</ele>
        <time>2022-08-06T08:40:45Z</time>
      </trkpt>
      <trkpt lat="47.29952" lon="-1.3725">
        <ele>56</ele>
        <time>2022-08-06T08:40:47Z</time>
      </trkpt>
      <trkpt lat="47.29941" lon="-1.37266">
        <ele>55</ele>
        <time>2022-08-06T08:40:49Z</time>
      </trkpt>
      <trkpt lat="47.29931" lon="-1.37281">
        <ele>55</ele>
        <time>2022-08-06T08:40:51Z</time>
      </trkpt>
      <trkpt lat="47.29921" lon="-1.37297">
        <ele>55</ele>
        <time>2022-08-06T08:40:53Z</time>
      </trkpt>
      <trkpt lat="47.29911" lon="-1.37312">
        <ele>55</ele>
        <time>2022-08-06T08:40:55Z</time>
      </trkpt>
      <trkpt lat="47.29901" lon="-1.37328">
        <ele>56</ele>
        <time>2022-08-06T08:40:57Z</time>
      </trkpt>
      <trkpt lat="47.29891" lon="-1.37344">
        <ele>56</ele>
        <time>2022-08-06T08:40:59Z</time>
      </trkpt>
      <trkpt lat="47.29881" lon="-1.3736">
        <ele>55</ele>
        <time>2022-08-06T08:41:01Z</time>
      </trkpt>
      <trkpt lat="47.29871" lon="-1.37375">
        <ele>56</ele>
        <time>2022-08-06T08:41:03Z</time>
      </trkpt>
      <trkpt lat="47.29861" lon="-1.3739">
        <ele>56</ele>
        <time>2022-08-06T08:41:05Z</time>
      </trkpt>
      <trkpt lat="47.29851" lon="-1.37406">
        <ele>55</ele>
        <time>2022-08-06T08:41:07Z</time>
      </trkpt>
      <trkpt lat="47.29841" lon="-1.37421">
        <ele>55</ele>
        <time>2022-08-06T08:41:09Z</time>
      </trkpt>
      <trkpt lat="47.29831" lon="-1.37437">
        <ele>56</ele>
        <time>2022-08-06T08:41:11Z</time>
      </trkpt>
      <trkpt lat="47.29822" lon="-1.37451">
        <ele>57</ele>
        <time>2022-08-06T08:41:13Z</time>
      </trkpt>
      <trkpt lat="47.29813" lon="-1.37466">
        <ele>57</ele>
        <time>2022-08-06T08:41:15Z</time>
      </trkpt>
      <trkpt lat="47.29804" lon="-1.37483">
        <ele>57</ele>
        <time>2022-08-06T08:41:17Z</time>
      </trkpt>
      <trkpt lat="47.29794" lon="-1.37499">
        <ele>57</ele>
        <time>2022-08-06T08:41:19Z</time>
      </trkpt>
      <trkpt lat="47.29784" lon="-1.37516">
        <ele>57</ele>
        <time>2022-08-06T08:41:21Z</time>
      </trkpt>
      <trkpt lat="47.29775" lon="-1.37532">
        <ele>57</ele>
        <time>2022-08-06T08:41:23Z</time>
      </trkpt>
      <trkpt lat="47.29766" lon="-1.37549">
        <ele>57</ele>
        <time>2022-08-06T08:41:25Z</time>
      </trkpt>
      <trkpt lat="47.29757" lon="-1.37567">
        <ele>57</ele>
        <time>2022-08-06T08:41:27Z</time>
      </trkpt>
      <trkpt lat="47.29748" lon="-1.37584">
        <ele>57</ele>
        <time>2022-08-06T08:41:29Z</time>
      </trkpt>
      <trkpt lat="47.2974" lon="-1.37601">
        <ele>57</ele>
        <time>2022-08-06T08:41:31Z</time>
      </trkpt>
      <trkpt lat="47.29732" lon="-1.37617">
        <ele>57</ele>
        <time>2022-08-06T08:41:33Z</time>
      </trkpt>
      <trkpt lat="47.29724" lon="-1.37633">
        <ele>56</ele>
        <time>2022-08-06T08:41:35Z</time>
      </trkpt>
      <trkpt lat="47.29715" lon="-1.37649">
        <ele>56</ele>
        <time>2022-08-06T08:41:37Z</time>
      </trkpt>
      <trkpt lat="47.29706" lon="-1.37666">
        <ele>56</ele>
        <time>2022-08-06T08:41:39Z</time>
      </trkpt>
      <trkpt lat="47.29698" lon="-1.37682">
        <ele>56</ele>
        <time>2022-08-06T08:41:41Z</time>
      </trkpt>
      <trkpt lat="47.2969" lon="-1.37698">
        <ele>56</ele>
        <time>2022-08-06T08:41:43Z</time>
      </trkpt>
      <trkpt lat="47.29682" lon="-1.37714">
        <ele>55</ele>
        <time>2022-08-06T08:41:45Z</time>
      </trkpt>
      <trkpt lat="47.29673" lon="-1.3773">
        <ele>55</ele>
        <time>2022-08-06T08:41:47Z</time>
      </trkpt>
      <trkpt lat="47.29664" lon="-1.37747">
        <ele>55</ele>
        <time>2022-08-06T08:41:49Z</time>
      </trkpt>
      <trkpt lat="47.29656" lon="-1.37763">
        <ele>55</ele>
        <time>2022-08-06T08:41:51Z</time>
      </trkpt>
      <trkpt lat="47.29648" lon="-1.37778">
        <ele>56</ele>
        <time>2022-08-06T08:41:53Z</time>
      </trkpt>
      <trkpt lat="47.2964" lon="-1.37794">
        <ele>55</ele>
        <time>2022-08-06T08:41:55Z</time>
      </trkpt>
      <trkpt lat="47.29631" lon="-1.37806">
        <ele>55</ele>
        <time>2022-08-06T08:41:57Z</time>
      </trkpt>
      <trkpt lat="47.29623" lon="-1.37823">
        <ele>55</ele>
        <time>2022-08-06T08:41:59Z</time>
      </trkpt>
      <trkpt lat="47.29615" lon="-1.3784">
        <ele>55</ele>
        <time>2022-08-06T08:42:01Z</time>
      </trkpt>
      <trkpt lat="47.29605" lon="-1.37857">
        <ele>55</ele>
        <time>2022-08-06T08:42:03Z</time>
      </trkpt>
      <trkpt lat="47.29599" lon="-1.37876">
        <ele>55</ele>
        <time>2022-08-06T08:42:05Z</time>
      </trkpt>
      <trkpt lat="47.2959" lon="-1.37894">
        <ele>56</ele>
        <time>2022-08-06T08:42:07Z</time>
      </trkpt>
      <trkpt lat="47.29582" lon="-1.37911">
        <ele>56</ele>
        <time>2022-08-06T08:42:09Z</time>
      </trkpt>
      <trkpt lat="47.29575" lon="-1.37929">
        <ele>57</ele>
        <time>2022-08-06T08:42:11Z</time>
      </trkpt>
      <trkpt lat="47.29568" lon="-1.37947">
        <ele>57</ele>
        <time>2022-08-06T08:42:13Z</time>
      </trkpt>
      <trkpt lat="47.29561" lon="-1.37966">
        <ele>57</ele>
        <time>2022-08-06T08:42:15Z</time>
      </trkpt>
      <trkpt lat="47.29554" lon="-1.37985">
        <ele>58</ele>
        <time>2022-08-06T08:42:17Z</time>
      </trkpt>
      <trkpt lat="47.29547" lon="-1.38004">
        <ele>57</ele>
        <time>2022-08-06T08:42:19Z</time>
      </trkpt>
      <trkpt lat="47.2954" lon="-1.38023">
        <ele>57</ele>
        <time>2022-08-06T08:42:21Z</time>
      </trkpt>
      <trkpt lat="47.29533" lon="-1.38043">
        <ele>58</ele>
        <time>2022-08-06T08:42:23Z</time>
      </trkpt>
      <trkpt lat="47.29526" lon="-1.38061">
        <ele>58</ele>
        <time>2022-08-06T08:42:25Z</time>
      </trkpt>
      <trkpt lat="47.29518" lon="-1.3808">
        <ele>58</ele>
        <time>2022-08-06T08:42:27Z</time>
      </trkpt>
      <trkpt lat="47.29513" lon="-1.38099">
        <ele>58</ele>
        <time>2022-08-06T08:42:29Z</time>
      </trkpt>
      <trkpt lat="47.29508" lon="-1.38119">
        <ele>58</ele>
        <time>2022-08-06T08:42:31Z</time>
      </trkpt>
      <trkpt lat="47.29503" lon="-1.38138">
        <ele>58</ele>
        <time>2022-08-06T08:42:33Z</time>
      </trkpt>
      <trkpt lat="47.29497" lon="-1.38158">
        <ele>58</ele>
        <time>2022-08-06T08:42:35Z</time>
      </trkpt>
      <trkpt lat="47.29492" lon="-1.38177">
        <ele>58</ele>
        <time>2022-08-06T08:42:37Z</time>
      </trkpt>
      <trkpt lat="47.29487" lon="-1.38196">
        <ele>59</ele>
        <time>2022-08-06T08:42:39Z</time>
      </trkpt>
      <trkpt lat="47.29483" lon="-1.38216">
        <ele>59</ele>
        <time>2022-08-06T08:42:41Z</time>
      </trkpt>
      <trkpt lat="47.29477" lon="-1.38235">
        <ele>59</ele>
        <time>2022-08-06T08:42:43Z</time>
      </trkpt>
      <trkpt lat="47.29472" lon="-1.38254">
        <ele>59</ele>
        <time>2022-08-06T08:42:45Z</time>
      </trkpt>
      <trkpt lat="47.29467" lon="-1.38273">
        <ele>58</ele>
        <time>2022-08-06T08:42:47Z</time>
      </trkpt>
      <trkpt lat="47.29461" lon="-1.38293">
        <ele>58</ele>
        <time>2022-08-06T08:42:49Z</time>
      </trkpt>
      <trkpt lat="47.29455" lon="-1.38311">
        <ele>59</ele>
        <time>2022-08-06T08:42:51Z</time>
      </trkpt>
      <trkpt lat="47.29449" lon="-1.38326">
        <ele>60</ele>
        <time>2022-08-06T08:42:53Z</time>
      </trkpt>
      <trkpt lat="47.29443" lon="-1.38338">
        <ele>61</ele>
        <time>2022-08-06T08:42:56Z</time>
      </trkpt>
      <trkpt lat="47.2944" lon="-1.38354">
        <ele>61</ele>
        <time>2022-08-06T08:42:58Z</time>
      </trkpt>
      <trkpt lat="47.29437" lon="-1.38373">
        <ele>61</ele>
        <time>2022-08-06T08:43:00Z</time>
      </trkpt>
      <trkpt lat="47.29433" lon="-1.38393">
        <ele>60</ele>
        <time>2022-08-06T08:43:02Z</time>
      </trkpt>
      <trkpt lat="47.29427" lon="-1.38413">
        <ele>60</ele>
        <time>2022-08-06T08:43:04Z</time>
      </trkpt>
      <trkpt lat="47.29421" lon="-1.38434">
        <ele>60</ele>
        <time>2022-08-06T08:43:06Z</time>
      </trkpt>
      <trkpt lat="47.29415" lon="-1.38455">
        <ele>59</ele>
        <time>2022-08-06T08:43:08Z</time>
      </trkpt>
      <trkpt lat="47.2941" lon="-1.38475">
        <ele>59</ele>
        <time>2022-08-06T08:43:10Z</time>
      </trkpt>
      <trkpt lat="47.29402" lon="-1.38494">
        <ele>59</ele>
        <time>2022-08-06T08:43:12Z</time>
      </trkpt>
      <trkpt lat="47.29394" lon="-1.38514">
        <ele>59</ele>
        <time>2022-08-06T08:43:14Z</time>
      </trkpt>
      <trkpt lat="47.29386" lon="-1.38533">
        <ele>58</ele>
        <time>2022-08-06T08:43:16Z</time>
      </trkpt>
      <trkpt lat="47.29378" lon="-1.38552">
        <ele>58</ele>
        <time>2022-08-06T08:43:18Z</time>
      </trkpt>
      <trkpt lat="47.29372" lon="-1.38573">
        <ele>57</ele>
        <time>2022-08-06T08:43:20Z</time>
      </trkpt>
      <trkpt lat="47.29366" lon="-1.38594">
        <ele>56</ele>
        <time>2022-08-06T08:43:22Z</time>
      </trkpt>
      <trkpt lat="47.29359" lon="-1.38616">
        <ele>56</ele>
        <time>2022-08-06T08:43:24Z</time>
      </trkpt>
      <trkpt lat="47.29352" lon="-1.38639">
        <ele>56</ele>
        <time>2022-08-06T08:43:26Z</time>
      </trkpt>
      <trkpt lat="47.29346" lon="-1.3866">
        <ele>56</ele>
        <time>2022-08-06T08:43:28Z</time>
      </trkpt>
      <trkpt lat="47.29339" lon="-1.38681">
        <ele>56</ele>
        <time>2022-08-06T08:43:30Z</time>
      </trkpt>
      <trkpt lat="47.29332" lon="-1.38701">
        <ele>55</ele>
        <time>2022-08-06T08:43:32Z</time>
      </trkpt>
      <trkpt lat="47.29326" lon="-1.38721">
        <ele>55</ele>
        <time>2022-08-06T08:43:34Z</time>
      </trkpt>
      <trkpt lat="47.29322" lon="-1.38742">
        <ele>55</ele>
        <time>2022-08-06T08:43:36Z</time>
      </trkpt>
      <trkpt lat="47.29317" lon="-1.38761">
        <ele>56</ele>
        <time>2022-08-06T08:43:38Z</time>
      </trkpt>
      <trkpt lat="47.29313" lon="-1.3878">
        <ele>56</ele>
        <time>2022-08-06T08:43:40Z</time>
      </trkpt>
      <trkpt lat="47.29308" lon="-1.38799">
        <ele>56</ele>
        <time>2022-08-06T08:43:42Z</time>
      </trkpt>
      <trkpt lat="47.29303" lon="-1.38819">
        <ele>56</ele>
        <time>2022-08-06T08:43:44Z</time>
      </trkpt>
      <trkpt lat="47.29298" lon="-1.38838">
        <ele>57</ele>
        <time>2022-08-06T08:43:46Z</time>
      </trkpt>
      <trkpt lat="47.29293" lon="-1.38857">
        <ele>57</ele>
        <time>2022-08-06T08:43:48Z</time>
      </trkpt>
      <trkpt lat="47.29288" lon="-1.38877">
        <ele>57</ele>
        <time>2022-08-06T08:43:50Z</time>
      </trkpt>
      <trkpt lat="47.29283" lon="-1.38896">
        <ele>57</ele>
        <time>2022-08-06T08:43:52Z</time>
      </trkpt>
      <trkpt lat="47.29278" lon="-1.38916">
        <ele>58</ele>
        <time>2022-08-06T08:43:54Z</time>
      </trkpt>
      <trkpt lat="47.29273" lon="-1.38935">
        <ele>58</ele>
        <time>2022-08-06T08:43:56Z</time>
      </trkpt>
      <trkpt lat="47.29268" lon="-1.38954">
        <ele>58</ele>
        <time>2022-08-06T08:43:58Z</time>
      </trkpt>
      <trkpt lat="47.29262" lon="-1.38973">
        <ele>58</ele>
        <time>2022-08-06T08:44:00Z</time>
      </trkpt>
      <trkpt lat="47.29257" lon="-1.38992">
        <ele>58</ele>
        <time>2022-08-06T08:44:02Z</time>
      </trkpt>
      <trkpt lat="47.29252" lon="-1.39011">
        <ele>57</ele>
        <time>2022-08-06T08:44:04Z</time>
      </trkpt>
      <trkpt lat="47.29248" lon="-1.3903">
        <ele>58</ele>
        <time>2022-08-06T08:44:06Z</time>
      </trkpt>
      <trkpt lat="47.29243" lon="-1.39049">
        <ele>58</ele>
        <time>2022-08-06T08:44:08Z</time>
      </trkpt>
      <trkpt lat="47.29237" lon="-1.39067">
        <ele>58</ele>
        <time>2022-08-06T08:44:10Z</time>
      </trkpt>
      <trkpt lat="47.29231" lon="-1.39085">
        <ele>57</ele>
        <time>2022-08-06T08:44:12Z</time>
      </trkpt>
      <trkpt lat="47.29222" lon="-1.39102">
        <ele>57</ele>
        <time>2022-08-06T08:44:14Z</time>
      </trkpt>
      <trkpt lat="47.29213" lon="-1.39117">
        <ele>58</ele>
        <time>2022-08-06T08:44:16Z</time>
      </trkpt>
      <trkpt lat="47.29203" lon="-1.39133">
        <ele>57</ele>
        <time>2022-08-06T08:44:18Z</time>
      </trkpt>
      <trkpt lat="47.29192" lon="-1.39147">
        <ele>57</ele>
        <time>2022-08-06T08:44:20Z</time>
      </trkpt>
      <trkpt lat="47.29181" lon="-1.3916">
        <ele>57</ele>
        <time>2022-08-06T08:44:22Z</time>
      </trkpt>
      <trkpt lat="47.2917" lon="-1.39174">
        <ele>57</ele>
        <time>2022-08-06T08:44:24Z</time>
      </trkpt>
      <trkpt lat="47.2916" lon="-1.39188">
        <ele>56</ele>
        <time>2022-08-06T08:44:26Z</time>
      </trkpt>
      <trkpt lat="47.29148" lon="-1.39201">
        <ele>57</ele>
        <time>2022-08-06T08:44:28Z</time>
      </trkpt>
      <trkpt lat="47.29136" lon="-1.39213">
        <ele>57</ele>
        <time>2022-08-06T08:44:30Z</time>
      </trkpt>
      <trkpt lat="47.29124" lon="-1.39226">
        <ele>57</ele>
        <time>2022-08-06T08:44:32Z</time>
      </trkpt>
      <trkpt lat="47.29113" lon="-1.39241">
        <ele>56</ele>
        <time>2022-08-06T08:44:34Z</time>
      </trkpt>
      <trkpt lat="47.29103" lon="-1.39258">
        <ele>56</ele>
        <time>2022-08-06T08:44:36Z</time>
      </trkpt>
      <trkpt lat="47.29094" lon="-1.39275">
        <ele>56</ele>
        <time>2022-08-06T08:44:38Z</time>
      </trkpt>
      <trkpt lat="47.29084" lon="-1.39291">
        <ele>56</ele>
        <time>2022-08-06T08:44:40Z</time>
      </trkpt>
      <trkpt lat="47.29072" lon="-1.39304">
        <ele>57</ele>
        <time>2022-08-06T08:44:42Z</time>
      </trkpt>
      <trkpt lat="47.2906" lon="-1.39315">
        <ele>57</ele>
        <time>2022-08-06T08:44:44Z</time>
      </trkpt>
      <trkpt lat="47.29049" lon="-1.39328">
        <ele>57</ele>
        <time>2022-08-06T08:44:46Z</time>
      </trkpt>
      <trkpt lat="47.29038" lon="-1.39341">
        <ele>57</ele>
        <time>2022-08-06T08:44:48Z</time>
      </trkpt>
      <trkpt lat="47.29028" lon="-1.39356">
        <ele>57</ele>
        <time>2022-08-06T08:44:50Z</time>
      </trkpt>
      <trkpt lat="47.29017" lon="-1.3937">
        <ele>57</ele>
        <time>2022-08-06T08:44:52Z</time>
      </trkpt>
      <trkpt lat="47.29007" lon="-1.39386">
        <ele>57</ele>
        <time>2022-08-06T08:44:54Z</time>
      </trkpt>
      <trkpt lat="47.28997" lon="-1.39401">
        <ele>56</ele>
        <time>2022-08-06T08:44:56Z</time>
      </trkpt>
      <trkpt lat="47.28985" lon="-1.39414">
        <ele>56</ele>
        <time>2022-08-06T08:44:58Z</time>
      </trkpt>
      <trkpt lat="47.28973" lon="-1.39428">
        <ele>57</ele>
        <time>2022-08-06T08:45:00Z</time>
      </trkpt>
      <trkpt lat="47.28961" lon="-1.39443">
        <ele>56</ele>
        <time>2022-08-06T08:45:02Z</time>
      </trkpt>
      <trkpt lat="47.2895" lon="-1.39457">
        <ele>57</ele>
        <time>2022-08-06T08:45:04Z</time>
      </trkpt>
      <trkpt lat="47.28939" lon="-1.3947">
        <ele>56</ele>
        <time>2022-08-06T08:45:06Z</time>
      </trkpt>
      <trkpt lat="47.28927" lon="-1.39484">
        <ele>56</ele>
        <time>2022-08-06T08:45:08Z</time>
      </trkpt>
      <trkpt lat="47.28916" lon="-1.39497">
        <ele>57</ele>
        <time>2022-08-06T08:45:10Z</time>
      </trkpt>
      <trkpt lat="47.28904" lon="-1.39511">
        <ele>57</ele>
        <time>2022-08-06T08:45:12Z</time>
      </trkpt>
      <trkpt lat="47.28893" lon="-1.39524">
        <ele>57</ele>
        <time>2022-08-06T08:45:14Z</time>
      </trkpt>
      <trkpt lat="47.28882" lon="-1.39537">
        <ele>58</ele>
        <time>2022-08-06T08:45:16Z</time>
      </trkpt>
      <trkpt lat="47.28871" lon="-1.39551">
        <ele>58</ele>
        <time>2022-08-06T08:45:18Z</time>
      </trkpt>
      <trkpt lat="47.2886" lon="-1.39565">
        <ele>57</ele>
        <time>2022-08-06T08:45:20Z</time>
      </trkpt>
      <trkpt lat="47.28849" lon="-1.39578">
        <ele>57</ele>
        <time>2022-08-06T08:45:22Z</time>
      </trkpt>
      <trkpt lat="47.28838" lon="-1.39592">
        <ele>57</ele>
        <time>2022-08-06T08:45:24Z</time>
      </trkpt>
      <trkpt lat="47.28827" lon="-1.39604">
        <ele>57</ele>
        <time>2022-08-06T08:45:26Z</time>
      </trkpt>
      <trkpt lat="47.28816" lon="-1.39617">
        <ele>57</ele>
        <time>2022-08-06T08:45:28Z</time>
      </trkpt>
      <trkpt lat="47.28805" lon="-1.3963">
        <ele>57</ele>
        <time>2022-08-06T08:45:30Z</time>
      </trkpt>
      <trkpt lat="47.28794" lon="-1.39643">
        <ele>57</ele>
        <time>2022-08-06T08:45:32Z</time>
      </trkpt>
      <trkpt lat="47.28783" lon="-1.39657">
        <ele>57</ele>
        <time>2022-08-06T08:45:34Z</time>
      </trkpt>
      <trkpt lat="47.28772" lon="-1.39669">
        <ele>57</ele>
        <time>2022-08-06T08:45:36Z</time>
      </trkpt>
      <trkpt lat="47.28762" lon="-1.39682">
        <ele>58</ele>
        <time>2022-08-06T08:45:38Z</time>
      </trkpt>
      <trkpt lat="47.28752" lon="-1.39695">
        <ele>58</ele>
        <time>2022-08-06T08:45:40Z</time>
      </trkpt>
      <trkpt lat="47.28741" lon="-1.39707">
        <ele>58</ele>
        <time>2022-08-06T08:45:42Z</time>
      </trkpt>
      <trkpt lat="47.2873" lon="-1.3972">
        <ele>57</ele>
        <time>2022-08-06T08:45:44Z</time>
      </trkpt>
      <trkpt lat="47.2872" lon="-1.39733">
        <ele>58</ele>
        <time>2022-08-06T08:45:46Z</time>
      </trkpt>
      <trkpt lat="47.2871" lon="-1.39746">
        <ele>58</ele>
        <time>2022-08-06T08:45:48Z</time>
      </trkpt>
      <trkpt lat="47.28699" lon="-1.39759">
        <ele>59</ele>
        <time>2022-08-06T08:45:50Z</time>
      </trkpt>
      <trkpt lat="47.28688" lon="-1.39772">
        <ele>59</ele>
        <time>2022-08-06T08:45:52Z</time>
      </trkpt>
      <trkpt lat="47.28678" lon="-1.39785">
        <ele>58</ele>
        <time>2022-08-06T08:45:54Z</time>
      </trkpt>
      <trkpt lat="47.28668" lon="-1.39799">
        <ele>58</ele>
        <time>2022-08-06T08:45:56Z</time>
      </trkpt>
      <trkpt lat="47.28658" lon="-1.39814">
        <ele>58</ele>
        <time>2022-08-06T08:45:58Z</time>
      </trkpt>
      <trkpt lat="47.28648" lon="-1.39828">
        <ele>58</ele>
        <time>2022-08-06T08:46:00Z</time>
      </trkpt>
      <trkpt lat="47.28639" lon="-1.39843">
        <ele>58</ele>
        <time>2022-08-06T08:46:02Z</time>
      </trkpt>
      <trkpt lat="47.28629" lon="-1.39858">
        <ele>58</ele>
        <time>2022-08-06T08:46:04Z</time>
      </trkpt>
      <trkpt lat="47.2862" lon="-1.39873">
        <ele>57</ele>
        <time>2022-08-06T08:46:06Z</time>
      </trkpt>
      <trkpt lat="47.28611" lon="-1.39888">
        <ele>58</ele>
        <time>2022-08-06T08:46:08Z</time>
      </trkpt>
      <trkpt lat="47.28602" lon="-1.39902">
        <ele>58</ele>
        <time>2022-08-06T08:46:10Z</time>
      </trkpt>
      <trkpt lat="47.28593" lon="-1.39916">
        <ele>58</ele>
        <time>2022-08-06T08:46:12Z</time>
      </trkpt>
      <trkpt lat="47.28583" lon="-1.39931">
        <ele>58</ele>
        <time>2022-08-06T08:46:14Z</time>
      </trkpt>
      <trkpt lat="47.28573" lon="-1.39945">
        <ele>58</ele>
        <time>2022-08-06T08:46:16Z</time>
      </trkpt>
      <trkpt lat="47.28563" lon="-1.3996">
        <ele>58</ele>
        <time>2022-08-06T08:46:18Z</time>
      </trkpt>
      <trkpt lat="47.28553" lon="-1.39974">
        <ele>58</ele>
        <time>2022-08-06T08:46:20Z</time>
      </trkpt>
      <trkpt lat="47.28543" lon="-1.39988">
        <ele>58</ele>
        <time>2022-08-06T08:46:22Z</time>
      </trkpt>
      <trkpt lat="47.28533" lon="-1.40001">
        <ele>58</ele>
        <time>2022-08-06T08:46:24Z</time>
      </trkpt>
      <trkpt lat="47.28525" lon="-1.40014">
        <ele>59</ele>
        <time>2022-08-06T08:46:26Z</time>
      </trkpt>
      <trkpt lat="47.28516" lon="-1.40029">
        <ele>59</ele>
        <time>2022-08-06T08:46:28Z</time>
      </trkpt>
      <trkpt lat="47.28507" lon="-1.40044">
        <ele>60</ele>
        <time>2022-08-06T08:46:30Z</time>
      </trkpt>
      <trkpt lat="47.28499" lon="-1.4006">
        <ele>60</ele>
        <time>2022-08-06T08:46:32Z</time>
      </trkpt>
      <trkpt lat="47.28491" lon="-1.40076">
        <ele>60</ele>
        <time>2022-08-06T08:46:34Z</time>
      </trkpt>
      <trkpt lat="47.28484" lon="-1.40093">
        <ele>60</ele>
        <time>2022-08-06T08:46:36Z</time>
      </trkpt>
      <trkpt lat="47.28477" lon="-1.40111">
        <ele>61</ele>
        <time>2022-08-06T08:46:38Z</time>
      </trkpt>
      <trkpt lat="47.2847" lon="-1.40127">
        <ele>60</ele>
        <time>2022-08-06T08:46:40Z</time>
      </trkpt>
      <trkpt lat="47.28463" lon="-1.40145">
        <ele>60</ele>
        <time>2022-08-06T08:46:42Z</time>
      </trkpt>
      <trkpt lat="47.28457" lon="-1.40163">
        <ele>59</ele>
        <time>2022-08-06T08:46:44Z</time>
      </trkpt>
      <trkpt lat="47.28449" lon="-1.40181">
        <ele>60</ele>
        <time>2022-08-06T08:46:46Z</time>
      </trkpt>
      <trkpt lat="47.28442" lon="-1.40198">
        <ele>59</ele>
        <time>2022-08-06T08:46:48Z</time>
      </trkpt>
      <trkpt lat="47.28435" lon="-1.40215">
        <ele>58</ele>
        <time>2022-08-06T08:46:50Z</time>
      </trkpt>
      <trkpt lat="47.28429" lon="-1.40232">
        <ele>59</ele>
        <time>2022-08-06T08:46:52Z</time>
      </trkpt>
      <trkpt lat="47.28422" lon="-1.40249">
        <ele>58</ele>
        <time>2022-08-06T08:46:54Z</time>
      </trkpt>
      <trkpt lat="47.28415" lon="-1.40266">
        <ele>58</ele>
        <time>2022-08-06T08:46:56Z</time>
      </trkpt>
      <trkpt lat="47.28407" lon="-1.40282">
        <ele>58</ele>
        <time>2022-08-06T08:46:58Z</time>
      </trkpt>
      <trkpt lat="47.28398" lon="-1.403">
        <ele>57</ele>
        <time>2022-08-06T08:47:00Z</time>
      </trkpt>
      <trkpt lat="47.28389" lon="-1.40315">
        <ele>57</ele>
        <time>2022-08-06T08:47:02Z</time>
      </trkpt>
      <trkpt lat="47.28379" lon="-1.4033">
        <ele>57</ele>
        <time>2022-08-06T08:47:04Z</time>
      </trkpt>
      <trkpt lat="47.2837" lon="-1.40345">
        <ele>57</ele>
        <time>2022-08-06T08:47:06Z</time>
      </trkpt>
      <trkpt lat="47.2836" lon="-1.40359">
        <ele>57</ele>
        <time>2022-08-06T08:47:08Z</time>
      </trkpt>
      <trkpt lat="47.2835" lon="-1.40373">
        <ele>57</ele>
        <time>2022-08-06T08:47:10Z</time>
      </trkpt>
      <trkpt lat="47.28339" lon="-1.40386">
        <ele>57</ele>
        <time>2022-08-06T08:47:12Z</time>
      </trkpt>
      <trkpt lat="47.28329" lon="-1.40399">
        <ele>57</ele>
        <time>2022-08-06T08:47:14Z</time>
      </trkpt>
      <trkpt lat="47.28318" lon="-1.40412">
        <ele>57</ele>
        <time>2022-08-06T08:47:16Z</time>
      </trkpt>
      <trkpt lat="47.28308" lon="-1.40424">
        <ele>58</ele>
        <time>2022-08-06T08:47:18Z</time>
      </trkpt>
      <trkpt lat="47.28296" lon="-1.40436">
        <ele>58</ele>
        <time>2022-08-06T08:47:20Z</time>
      </trkpt>
      <trkpt lat="47.28284" lon="-1.40448">
        <ele>58</ele>
        <time>2022-08-06T08:47:22Z</time>
      </trkpt>
      <trkpt lat="47.28272" lon="-1.40459">
        <ele>57</ele>
        <time>2022-08-06T08:47:24Z</time>
      </trkpt>
      <trkpt lat="47.28261" lon="-1.4047">
        <ele>57</ele>
        <time>2022-08-06T08:47:26Z</time>
      </trkpt>
      <trkpt lat="47.28249" lon="-1.40482">
        <ele>57</ele>
        <time>2022-08-06T08:47:28Z</time>
      </trkpt>
      <trkpt lat="47.28238" lon="-1.40493">
        <ele>57</ele>
        <time>2022-08-06T08:47:30Z</time>
      </trkpt>
      <trkpt lat="47.28227" lon="-1.40504">
        <ele>57</ele>
        <time>2022-08-06T08:47:32Z</time>
      </trkpt>
      <trkpt lat="47.28215" lon="-1.40514">
        <ele>57</ele>
        <time>2022-08-06T08:47:34Z</time>
      </trkpt>
      <trkpt lat="47.28203" lon="-1.40525">
        <ele>57</ele>
        <time>2022-08-06T08:47:36Z</time>
      </trkpt>
      <trkpt lat="47.28192" lon="-1.40536">
        <ele>57</ele>
        <time>2022-08-06T08:47:38Z</time>
      </trkpt>
      <trkpt lat="47.2818" lon="-1.40548">
        <ele>57</ele>
        <time>2022-08-06T08:47:40Z</time>
      </trkpt>
      <trkpt lat="47.28169" lon="-1.40559">
        <ele>57</ele>
        <time>2022-08-06T08:47:42Z</time>
      </trkpt>
      <trkpt lat="47.28158" lon="-1.4057">
        <ele>58</ele>
        <time>2022-08-06T08:47:44Z</time>
      </trkpt>
      <trkpt lat="47.28147" lon="-1.40581">
        <ele>58</ele>
        <time>2022-08-06T08:47:46Z</time>
      </trkpt>
      <trkpt lat="47.28136" lon="-1.40592">
        <ele>58</ele>
        <time>2022-08-06T08:47:48Z</time>
      </trkpt>
      <trkpt lat="47.28124" lon="-1.40602">
        <ele>58</ele>
        <time>2022-08-06T08:47:50Z</time>
      </trkpt>
      <trkpt lat="47.28113" lon="-1.40613">
        <ele>58</ele>
        <time>2022-08-06T08:47:52Z</time>
      </trkpt>
      <trkpt lat="47.28102" lon="-1.40624">
        <ele>59</ele>
        <time>2022-08-06T08:47:54Z</time>
      </trkpt>
      <trkpt lat="47.28091" lon="-1.40635">
        <ele>59</ele>
        <time>2022-08-06T08:47:56Z</time>
      </trkpt>
      <trkpt lat="47.2808" lon="-1.40646">
        <ele>59</ele>
        <time>2022-08-06T08:47:58Z</time>
      </trkpt>
      <trkpt lat="47.28069" lon="-1.40656">
        <ele>59</ele>
        <time>2022-08-06T08:48:00Z</time>
      </trkpt>
      <trkpt lat="47.28058" lon="-1.40667">
        <ele>59</ele>
        <time>2022-08-06T08:48:02Z</time>
      </trkpt>
      <trkpt lat="47.28046" lon="-1.40678">
        <ele>59</ele>
        <time>2022-08-06T08:48:04Z</time>
      </trkpt>
      <trkpt lat="47.28035" lon="-1.4069">
        <ele>59</ele>
        <time>2022-08-06T08:48:06Z</time>
      </trkpt>
      <trkpt lat="47.28024" lon="-1.40701">
        <ele>59</ele>
        <time>2022-08-06T08:48:08Z</time>
      </trkpt>
      <trkpt lat="47.28013" lon="-1.40713">
        <ele>59</ele>
        <time>2022-08-06T08:48:10Z</time>
      </trkpt>
      <trkpt lat="47.28002" lon="-1.40723">
        <ele>59</ele>
        <time>2022-08-06T08:48:12Z</time>
      </trkpt>
      <trkpt lat="47.2799" lon="-1.40734">
        <ele>59</ele>
        <time>2022-08-06T08:48:14Z</time>
      </trkpt>
      <trkpt lat="47.27978" lon="-1.40745">
        <ele>59</ele>
        <time>2022-08-06T08:48:16Z</time>
      </trkpt>
      <trkpt lat="47.27966" lon="-1.40756">
        <ele>58</ele>
        <time>2022-08-06T08:48:18Z</time>
      </trkpt>
      <trkpt lat="47.27954" lon="-1.40767">
        <ele>58</ele>
        <time>2022-08-06T08:48:20Z</time>
      </trkpt>
      <trkpt lat="47.27943" lon="-1.40778">
        <ele>58</ele>
        <time>2022-08-06T08:48:22Z</time>
      </trkpt>
      <trkpt lat="47.27931" lon="-1.40789">
        <ele>59</ele>
        <time>2022-08-06T08:48:24Z</time>
      </trkpt>
      <trkpt lat="47.27919" lon="-1.408">
        <ele>58</ele>
        <time>2022-08-06T08:48:26Z</time>
      </trkpt>
      <trkpt lat="47.27906" lon="-1.40811">
        <ele>58</ele>
        <time>2022-08-06T08:48:28Z</time>
      </trkpt>
      <trkpt lat="47.27895" lon="-1.40823">
        <ele>58</ele>
        <time>2022-08-06T08:48:30Z</time>
      </trkpt>
      <trkpt lat="47.27886" lon="-1.40837">
        <ele>59</ele>
        <time>2022-08-06T08:48:32Z</time>
      </trkpt>
      <trkpt lat="47.27877" lon="-1.40853">
        <ele>59</ele>
        <time>2022-08-06T08:48:34Z</time>
      </trkpt>
      <trkpt lat="47.27869" lon="-1.4087">
        <ele>59</ele>
        <time>2022-08-06T08:48:36Z</time>
      </trkpt>
      <trkpt lat="47.27858" lon="-1.40896">
        <ele>60</ele>
        <time>2022-08-06T08:48:39Z</time>
      </trkpt>
      <trkpt lat="47.2785" lon="-1.40913">
        <ele>60</ele>
        <time>2022-08-06T08:48:41Z</time>
      </trkpt>
      <trkpt lat="47.27842" lon="-1.4093">
        <ele>60</ele>
        <time>2022-08-06T08:48:43Z</time>
      </trkpt>
      <trkpt lat="47.2783" lon="-1.40954">
        <ele>60</ele>
        <time>2022-08-06T08:48:46Z</time>
      </trkpt>
      <trkpt lat="47.27821" lon="-1.4097">
        <ele>60</ele>
        <time>2022-08-06T08:48:48Z</time>
      </trkpt>
      <trkpt lat="47.27812" lon="-1.40985">
        <ele>60</ele>
        <time>2022-08-06T08:48:50Z</time>
      </trkpt>
      <trkpt lat="47.27803" lon="-1.41">
        <ele>60</ele>
        <time>2022-08-06T08:48:52Z</time>
      </trkpt>
      <trkpt lat="47.27793" lon="-1.41014">
        <ele>60</ele>
        <time>2022-08-06T08:48:54Z</time>
      </trkpt>
      <trkpt lat="47.2778" lon="-1.41036">
        <ele>60</ele>
        <time>2022-08-06T08:48:57Z</time>
      </trkpt>
      <trkpt lat="47.27775" lon="-1.41054">
        <ele>60</ele>
        <time>2022-08-06T08:48:59Z</time>
      </trkpt>
      <trkpt lat="47.27767" lon="-1.41071">
        <ele>60</ele>
        <time>2022-08-06T08:49:01Z</time>
      </trkpt>
      <trkpt lat="47.27755" lon="-1.41084">
        <ele>60</ele>
        <time>2022-08-06T08:49:03Z</time>
      </trkpt>
      <trkpt lat="47.27743" lon="-1.41096">
        <ele>60</ele>
        <time>2022-08-06T08:49:05Z</time>
      </trkpt>
      <trkpt lat="47.27731" lon="-1.41108">
        <ele>59</ele>
        <time>2022-08-06T08:49:07Z</time>
      </trkpt>
      <trkpt lat="47.27714" lon="-1.41125">
        <ele>59</ele>
        <time>2022-08-06T08:49:10Z</time>
      </trkpt>
      <trkpt lat="47.27703" lon="-1.41136">
        <ele>60</ele>
        <time>2022-08-06T08:49:12Z</time>
      </trkpt>
      <trkpt lat="47.27692" lon="-1.41148">
        <ele>60</ele>
        <time>2022-08-06T08:49:14Z</time>
      </trkpt>
      <trkpt lat="47.27682" lon="-1.41161">
        <ele>59</ele>
        <time>2022-08-06T08:49:16Z</time>
      </trkpt>
      <trkpt lat="47.27671" lon="-1.41173">
        <ele>59</ele>
        <time>2022-08-06T08:49:18Z</time>
      </trkpt>
      <trkpt lat="47.2766" lon="-1.41185">
        <ele>59</ele>
        <time>2022-08-06T08:49:20Z</time>
      </trkpt>
      <trkpt lat="47.27648" lon="-1.41197">
        <ele>59</ele>
        <time>2022-08-06T08:49:22Z</time>
      </trkpt>
      <trkpt lat="47.27636" lon="-1.41208">
        <ele>59</ele>
        <time>2022-08-06T08:49:24Z</time>
      </trkpt>
      <trkpt lat="47.27624" lon="-1.4122">
        <ele>59</ele>
        <time>2022-08-06T08:49:26Z</time>
      </trkpt>
      <trkpt lat="47.27613" lon="-1.41232">
        <ele>59</ele>
        <time>2022-08-06T08:49:28Z</time>
      </trkpt>
      <trkpt lat="47.27602" lon="-1.41244">
        <ele>59</ele>
        <time>2022-08-06T08:49:30Z</time>
      </trkpt>
      <trkpt lat="47.27591" lon="-1.41256">
        <ele>59</ele>
        <time>2022-08-06T08:49:32Z</time>
      </trkpt>
      <trkpt lat="47.2758" lon="-1.41269">
        <ele>60</ele>
        <time>2022-08-06T08:49:34Z</time>
      </trkpt>
      <trkpt lat="47.2757" lon="-1.41283">
        <ele>61</ele>
        <time>2022-08-06T08:49:36Z</time>
      </trkpt>
      <trkpt lat="47.27559" lon="-1.41296">
        <ele>61</ele>
        <time>2022-08-06T08:49:38Z</time>
      </trkpt>
      <trkpt lat="47.27548" lon="-1.41311">
        <ele>61</ele>
        <time>2022-08-06T08:49:40Z</time>
      </trkpt>
      <trkpt lat="47.27536" lon="-1.41326">
        <ele>61</ele>
        <time>2022-08-06T08:49:42Z</time>
      </trkpt>
      <trkpt lat="47.27526" lon="-1.4134">
        <ele>61</ele>
        <time>2022-08-06T08:49:44Z</time>
      </trkpt>
      <trkpt lat="47.27516" lon="-1.41355">
        <ele>60</ele>
        <time>2022-08-06T08:49:46Z</time>
      </trkpt>
      <trkpt lat="47.27505" lon="-1.4137">
        <ele>60</ele>
        <time>2022-08-06T08:49:48Z</time>
      </trkpt>
      <trkpt lat="47.27495" lon="-1.41385">
        <ele>60</ele>
        <time>2022-08-06T08:49:50Z</time>
      </trkpt>
      <trkpt lat="47.27486" lon="-1.41401">
        <ele>60</ele>
        <time>2022-08-06T08:49:52Z</time>
      </trkpt>
      <trkpt lat="47.27477" lon="-1.41417">
        <ele>60</ele>
        <time>2022-08-06T08:49:54Z</time>
      </trkpt>
      <trkpt lat="47.27469" lon="-1.41433">
        <ele>60</ele>
        <time>2022-08-06T08:49:56Z</time>
      </trkpt>
      <trkpt lat="47.2746" lon="-1.41449">
        <ele>60</ele>
        <time>2022-08-06T08:49:58Z</time>
      </trkpt>
      <trkpt lat="47.27451" lon="-1.41464">
        <ele>60</ele>
        <time>2022-08-06T08:50:00Z</time>
      </trkpt>
      <trkpt lat="47.27442" lon="-1.4148">
        <ele>60</ele>
        <time>2022-08-06T08:50:02Z</time>
      </trkpt>
      <trkpt lat="47.27433" lon="-1.41496">
        <ele>60</ele>
        <time>2022-08-06T08:50:04Z</time>
      </trkpt>
      <trkpt lat="47.27424" lon="-1.41511">
        <ele>60</ele>
        <time>2022-08-06T08:50:06Z</time>
      </trkpt>
      <trkpt lat="47.27415" lon="-1.41526">
        <ele>60</ele>
        <time>2022-08-06T08:50:08Z</time>
      </trkpt>
      <trkpt lat="47.27406" lon="-1.41541">
        <ele>60</ele>
        <time>2022-08-06T08:50:10Z</time>
      </trkpt>
      <trkpt lat="47.27396" lon="-1.41555">
        <ele>60</ele>
        <time>2022-08-06T08:50:12Z</time>
      </trkpt>
      <trkpt lat="47.27387" lon="-1.41569">
        <ele>60</ele>
        <time>2022-08-06T08:50:14Z</time>
      </trkpt>
      <trkpt lat="47.27377" lon="-1.41584">
        <ele>60</ele>
        <time>2022-08-06T08:50:16Z</time>
      </trkpt>
      <trkpt lat="47.27368" lon="-1.41598">
        <ele>60</ele>
        <time>2022-08-06T08:50:18Z</time>
      </trkpt>
      <trkpt lat="47.27359" lon="-1.41613">
        <ele>60</ele>
        <time>2022-08-06T08:50:20Z</time>
      </trkpt>
      <trkpt lat="47.27349" lon="-1.41626">
        <ele>60</ele>
        <time>2022-08-06T08:50:22Z</time>
      </trkpt>
      <trkpt lat="47.2734" lon="-1.41641">
        <ele>61</ele>
        <time>2022-08-06T08:50:24Z</time>
      </trkpt>
      <trkpt lat="47.27331" lon="-1.41656">
        <ele>61</ele>
        <time>2022-08-06T08:50:26Z</time>
      </trkpt>
      <trkpt lat="47.27322" lon="-1.41672">
        <ele>61</ele>
        <time>2022-08-06T08:50:28Z</time>
      </trkpt>
      <trkpt lat="47.27314" lon="-1.41687">
        <ele>61</ele>
        <time>2022-08-06T08:50:30Z</time>
      </trkpt>
      <trkpt lat="47.27306" lon="-1.41702">
        <ele>61</ele>
        <time>2022-08-06T08:50:32Z</time>
      </trkpt>
      <trkpt lat="47.27298" lon="-1.41719">
        <ele>61</ele>
        <time>2022-08-06T08:50:34Z</time>
      </trkpt>
      <trkpt lat="47.27289" lon="-1.41735">
        <ele>61</ele>
        <time>2022-08-06T08:50:36Z</time>
      </trkpt>
      <trkpt lat="47.27281" lon="-1.41751">
        <ele>61</ele>
        <time>2022-08-06T08:50:38Z</time>
      </trkpt>
      <trkpt lat="47.27272" lon="-1.41766">
        <ele>61</ele>
        <time>2022-08-06T08:50:40Z</time>
      </trkpt>
      <trkpt lat="47.27265" lon="-1.41782">
        <ele>62</ele>
        <time>2022-08-06T08:50:42Z</time>
      </trkpt>
      <trkpt lat="47.27256" lon="-1.41798">
        <ele>62</ele>
        <time>2022-08-06T08:50:44Z</time>
      </trkpt>
      <trkpt lat="47.27248" lon="-1.41813">
        <ele>62</ele>
        <time>2022-08-06T08:50:46Z</time>
      </trkpt>
      <trkpt lat="47.2724" lon="-1.41829">
        <ele>62</ele>
        <time>2022-08-06T08:50:48Z</time>
      </trkpt>
      <trkpt lat="47.27231" lon="-1.41844">
        <ele>62</ele>
        <time>2022-08-06T08:50:50Z</time>
      </trkpt>
      <trkpt lat="47.27223" lon="-1.4186">
        <ele>62</ele>
        <time>2022-08-06T08:50:52Z</time>
      </trkpt>
      <trkpt lat="47.27213" lon="-1.41874">
        <ele>62</ele>
        <time>2022-08-06T08:50:54Z</time>
      </trkpt>
      <trkpt lat="47.27205" lon="-1.4189">
        <ele>62</ele>
        <time>2022-08-06T08:50:56Z</time>
      </trkpt>
      <trkpt lat="47.27196" lon="-1.41905">
        <ele>61</ele>
        <time>2022-08-06T08:50:58Z</time>
      </trkpt>
      <trkpt lat="47.27187" lon="-1.4192">
        <ele>61</ele>
        <time>2022-08-06T08:51:00Z</time>
      </trkpt>
      <trkpt lat="47.27178" lon="-1.41934">
        <ele>61</ele>
        <time>2022-08-06T08:51:02Z</time>
      </trkpt>
      <trkpt lat="47.2717" lon="-1.4195">
        <ele>61</ele>
        <time>2022-08-06T08:51:04Z</time>
      </trkpt>
      <trkpt lat="47.27161" lon="-1.41965">
        <ele>60</ele>
        <time>2022-08-06T08:51:06Z</time>
      </trkpt>
      <trkpt lat="47.27152" lon="-1.41981">
        <ele>60</ele>
        <time>2022-08-06T08:51:08Z</time>
      </trkpt>
      <trkpt lat="47.27143" lon="-1.41996">
        <ele>60</ele>
        <time>2022-08-06T08:51:10Z</time>
      </trkpt>
      <trkpt lat="47.27135" lon="-1.42011">
        <ele>60</ele>
        <time>2022-08-06T08:51:12Z</time>
      </trkpt>
      <trkpt lat="47.27125" lon="-1.42025">
        <ele>59</ele>
        <time>2022-08-06T08:51:14Z</time>
      </trkpt>
      <trkpt lat="47.27116" lon="-1.4204">
        <ele>59</ele>
        <time>2022-08-06T08:51:16Z</time>
      </trkpt>
      <trkpt lat="47.27107" lon="-1.42054">
        <ele>60</ele>
        <time>2022-08-06T08:51:18Z</time>
      </trkpt>
      <trkpt lat="47.27097" lon="-1.42068">
        <ele>60</ele>
        <time>2022-08-06T08:51:20Z</time>
      </trkpt>
      <trkpt lat="47.27088" lon="-1.42082">
        <ele>60</ele>
        <time>2022-08-06T08:51:22Z</time>
      </trkpt>
      <trkpt lat="47.27079" lon="-1.42097">
        <ele>60</ele>
        <time>2022-08-06T08:51:24Z</time>
      </trkpt>
      <trkpt lat="47.27071" lon="-1.42113">
        <ele>60</ele>
        <time>2022-08-06T08:51:26Z</time>
      </trkpt>
      <trkpt lat="47.27063" lon="-1.42128">
        <ele>60</ele>
        <time>2022-08-06T08:51:28Z</time>
      </trkpt>
      <trkpt lat="47.27055" lon="-1.42144">
        <ele>60</ele>
        <time>2022-08-06T08:51:30Z</time>
      </trkpt>
      <trkpt lat="47.27047" lon="-1.42159">
        <ele>61</ele>
        <time>2022-08-06T08:51:32Z</time>
      </trkpt>
      <trkpt lat="47.27038" lon="-1.42174">
        <ele>61</ele>
        <time>2022-08-06T08:51:34Z</time>
      </trkpt>
      <trkpt lat="47.2703" lon="-1.4219">
        <ele>61</ele>
        <time>2022-08-06T08:51:36Z</time>
      </trkpt>
      <trkpt lat="47.27021" lon="-1.42205">
        <ele>61</ele>
        <time>2022-08-06T08:51:38Z</time>
      </trkpt>
      <trkpt lat="47.27012" lon="-1.4222">
        <ele>61</ele>
        <time>2022-08-06T08:51:40Z</time>
      </trkpt>
      <trkpt lat="47.27003" lon="-1.42236">
        <ele>61</ele>
        <time>2022-08-06T08:51:42Z</time>
      </trkpt>
      <trkpt lat="47.26994" lon="-1.42251">
        <ele>61</ele>
        <time>2022-08-06T08:51:44Z</time>
      </trkpt>
      <trkpt lat="47.26986" lon="-1.42268">
        <ele>61</ele>
        <time>2022-08-06T08:51:46Z</time>
      </trkpt>
      <trkpt lat="47.26977" lon="-1.42284">
        <ele>61</ele>
        <time>2022-08-06T08:51:48Z</time>
      </trkpt>
      <trkpt lat="47.26969" lon="-1.423">
        <ele>61</ele>
        <time>2022-08-06T08:51:50Z</time>
      </trkpt>
      <trkpt lat="47.26961" lon="-1.42316">
        <ele>61</ele>
        <time>2022-08-06T08:51:52Z</time>
      </trkpt>
      <trkpt lat="47.26952" lon="-1.42333">
        <ele>61</ele>
        <time>2022-08-06T08:51:54Z</time>
      </trkpt>
      <trkpt lat="47.26944" lon="-1.42349">
        <ele>61</ele>
        <time>2022-08-06T08:51:56Z</time>
      </trkpt>
      <trkpt lat="47.26936" lon="-1.42366">
        <ele>61</ele>
        <time>2022-08-06T08:51:58Z</time>
      </trkpt>
      <trkpt lat="47.26929" lon="-1.42381">
        <ele>61</ele>
        <time>2022-08-06T08:52:00Z</time>
      </trkpt>
      <trkpt lat="47.2692" lon="-1.42398">
        <ele>61</ele>
        <time>2022-08-06T08:52:02Z</time>
      </trkpt>
      <trkpt lat="47.26911" lon="-1.42414">
        <ele>60</ele>
        <time>2022-08-06T08:52:04Z</time>
      </trkpt>
      <trkpt lat="47.26903" lon="-1.42429">
        <ele>60</ele>
        <time>2022-08-06T08:52:06Z</time>
      </trkpt>
      <trkpt lat="47.26894" lon="-1.42445">
        <ele>59</ele>
        <time>2022-08-06T08:52:08Z</time>
      </trkpt>
      <trkpt lat="47.26885" lon="-1.42461">
        <ele>59</ele>
        <time>2022-08-06T08:52:10Z</time>
      </trkpt>
      <trkpt lat="47.26876" lon="-1.42477">
        <ele>58</ele>
        <time>2022-08-06T08:52:12Z</time>
      </trkpt>
      <trkpt lat="47.26867" lon="-1.42493">
        <ele>58</ele>
        <time>2022-08-06T08:52:14Z</time>
      </trkpt>
      <trkpt lat="47.26858" lon="-1.42509">
        <ele>58</ele>
        <time>2022-08-06T08:52:16Z</time>
      </trkpt>
      <trkpt lat="47.2685" lon="-1.42525">
        <ele>57</ele>
        <time>2022-08-06T08:52:18Z</time>
      </trkpt>
      <trkpt lat="47.26841" lon="-1.4254">
        <ele>57</ele>
        <time>2022-08-06T08:52:20Z</time>
      </trkpt>
      <trkpt lat="47.26833" lon="-1.42556">
        <ele>57</ele>
        <time>2022-08-06T08:52:22Z</time>
      </trkpt>
      <trkpt lat="47.26825" lon="-1.42573">
        <ele>57</ele>
        <time>2022-08-06T08:52:24Z</time>
      </trkpt>
      <trkpt lat="47.26817" lon="-1.4259">
        <ele>57</ele>
        <time>2022-08-06T08:52:26Z</time>
      </trkpt>
      <trkpt lat="47.26811" lon="-1.42607">
        <ele>57</ele>
        <time>2022-08-06T08:52:28Z</time>
      </trkpt>
      <trkpt lat="47.26803" lon="-1.42624">
        <ele>57</ele>
        <time>2022-08-06T08:52:30Z</time>
      </trkpt>
      <trkpt lat="47.26797" lon="-1.42642">
        <ele>57</ele>
        <time>2022-08-06T08:52:32Z</time>
      </trkpt>
      <trkpt lat="47.26791" lon="-1.4266">
        <ele>58</ele>
        <time>2022-08-06T08:52:34Z</time>
      </trkpt>
      <trkpt lat="47.26785" lon="-1.42679">
        <ele>58</ele>
        <time>2022-08-06T08:52:36Z</time>
      </trkpt>
      <trkpt lat="47.26778" lon="-1.42696">
        <ele>58</ele>
        <time>2022-08-06T08:52:38Z</time>
      </trkpt>
      <trkpt lat="47.2677" lon="-1.42715">
        <ele>58</ele>
        <time>2022-08-06T08:52:40Z</time>
      </trkpt>
      <trkpt lat="47.26762" lon="-1.42732">
        <ele>58</ele>
        <time>2022-08-06T08:52:42Z</time>
      </trkpt>
      <trkpt lat="47.26753" lon="-1.42748">
        <ele>58</ele>
        <time>2022-08-06T08:52:44Z</time>
      </trkpt>
      <trkpt lat="47.26745" lon="-1.42765">
        <ele>58</ele>
        <time>2022-08-06T08:52:46Z</time>
      </trkpt>
      <trkpt lat="47.26737" lon="-1.42782">
        <ele>58</ele>
        <time>2022-08-06T08:52:48Z</time>
      </trkpt>
      <trkpt lat="47.26733" lon="-1.42801">
        <ele>59</ele>
        <time>2022-08-06T08:52:50Z</time>
      </trkpt>
      <trkpt lat="47.26728" lon="-1.42819">
        <ele>60</ele>
        <time>2022-08-06T08:52:52Z</time>
      </trkpt>
      <trkpt lat="47.26723" lon="-1.42838">
        <ele>60</ele>
        <time>2022-08-06T08:52:54Z</time>
      </trkpt>
      <trkpt lat="47.26715" lon="-1.42856">
        <ele>59</ele>
        <time>2022-08-06T08:52:56Z</time>
      </trkpt>
      <trkpt lat="47.26706" lon="-1.42874">
        <ele>58</ele>
        <time>2022-08-06T08:52:58Z</time>
      </trkpt>
      <trkpt lat="47.26697" lon="-1.42892">
        <ele>58</ele>
        <time>2022-08-06T08:53:00Z</time>
      </trkpt>
      <trkpt lat="47.26689" lon="-1.42909">
        <ele>57</ele>
        <time>2022-08-06T08:53:02Z</time>
      </trkpt>
      <trkpt lat="47.26681" lon="-1.42925">
        <ele>57</ele>
        <time>2022-08-06T08:53:04Z</time>
      </trkpt>
      <trkpt lat="47.26672" lon="-1.42942">
        <ele>57</ele>
        <time>2022-08-06T08:53:06Z</time>
      </trkpt>
      <trkpt lat="47.26664" lon="-1.42959">
        <ele>57</ele>
        <time>2022-08-06T08:53:08Z</time>
      </trkpt>
      <trkpt lat="47.26655" lon="-1.42976">
        <ele>56</ele>
        <time>2022-08-06T08:53:10Z</time>
      </trkpt>
      <trkpt lat="47.26647" lon="-1.42992">
        <ele>56</ele>
        <time>2022-08-06T08:53:12Z</time>
      </trkpt>
      <trkpt lat="47.26638" lon="-1.43009">
        <ele>56</ele>
        <time>2022-08-06T08:53:14Z</time>
      </trkpt>
      <trkpt lat="47.2663" lon="-1.43026">
        <ele>56</ele>
        <time>2022-08-06T08:53:16Z</time>
      </trkpt>
      <trkpt lat="47.26622" lon="-1.43043">
        <ele>56</ele>
        <time>2022-08-06T08:53:18Z</time>
      </trkpt>
      <trkpt lat="47.26613" lon="-1.4306">
        <ele>56</ele>
        <time>2022-08-06T08:53:20Z</time>
      </trkpt>
      <trkpt lat="47.26604" lon="-1.43076">
        <ele>56</ele>
        <time>2022-08-06T08:53:22Z</time>
      </trkpt>
      <trkpt lat="47.26595" lon="-1.43092">
        <ele>56</ele>
        <time>2022-08-06T08:53:24Z</time>
      </trkpt>
      <trkpt lat="47.26586" lon="-1.43108">
        <ele>56</ele>
        <time>2022-08-06T08:53:26Z</time>
      </trkpt>
      <trkpt lat="47.26577" lon="-1.43123">
        <ele>56</ele>
        <time>2022-08-06T08:53:28Z</time>
      </trkpt>
      <trkpt lat="47.26568" lon="-1.43138">
        <ele>57</ele>
        <time>2022-08-06T08:53:30Z</time>
      </trkpt>
      <trkpt lat="47.26559" lon="-1.43153">
        <ele>58</ele>
        <time>2022-08-06T08:53:32Z</time>
      </trkpt>
      <trkpt lat="47.26549" lon="-1.43168">
        <ele>58</ele>
        <time>2022-08-06T08:53:34Z</time>
      </trkpt>
      <trkpt lat="47.2654" lon="-1.43183">
        <ele>59</ele>
        <time>2022-08-06T08:53:36Z</time>
      </trkpt>
      <trkpt lat="47.26532" lon="-1.43195">
        <ele>59</ele>
        <time>2022-08-06T08:53:38Z</time>
      </trkpt>
      <trkpt lat="47.26524" lon="-1.43207">
        <ele>60</ele>
        <time>2022-08-06T08:53:40Z</time>
      </trkpt>
      <trkpt lat="47.26516" lon="-1.43219">
        <ele>61</ele>
        <time>2022-08-06T08:53:42Z</time>
      </trkpt>
      <trkpt lat="47.26508" lon="-1.43229">
        <ele>62</ele>
        <time>2022-08-06T08:53:44Z</time>
      </trkpt>
      <trkpt lat="47.265" lon="-1.43239">
        <ele>62</ele>
        <time>2022-08-06T08:53:46Z</time>
      </trkpt>
      <trkpt lat="47.26492" lon="-1.4325">
        <ele>63</ele>
        <time>2022-08-06T08:53:48Z</time>
      </trkpt>
      <trkpt lat="47.26486" lon="-1.43262">
        <ele>63</ele>
        <time>2022-08-06T08:53:50Z</time>
      </trkpt>
      <trkpt lat="47.26478" lon="-1.43274">
        <ele>63</ele>
        <time>2022-08-06T08:53:52Z</time>
      </trkpt>
      <trkpt lat="47.26469" lon="-1.43285">
        <ele>63</ele>
        <time>2022-08-06T08:53:54Z</time>
      </trkpt>
      <trkpt lat="47.26461" lon="-1.43296">
        <ele>64</ele>
        <time>2022-08-06T08:53:56Z</time>
      </trkpt>
      <trkpt lat="47.26453" lon="-1.43308">
        <ele>62</ele>
        <time>2022-08-06T08:53:58Z</time>
      </trkpt>
      <trkpt lat="47.26442" lon="-1.43321">
        <ele>61</ele>
        <time>2022-08-06T08:54:00Z</time>
      </trkpt>
      <trkpt lat="47.26431" lon="-1.43336">
        <ele>61</ele>
        <time>2022-08-06T08:54:02Z</time>
      </trkpt>
      <trkpt lat="47.26419" lon="-1.43353">
        <ele>60</ele>
        <time>2022-08-06T08:54:04Z</time>
      </trkpt>
      <trkpt lat="47.26412" lon="-1.43361">
        <ele>60</ele>
        <time>2022-08-06T08:54:05Z</time>
      </trkpt>
      <trkpt lat="47.26398" lon="-1.43378">
        <ele>59</ele>
        <time>2022-08-06T08:54:07Z</time>
      </trkpt>
      <trkpt lat="47.26385" lon="-1.43393">
        <ele>58</ele>
        <time>2022-08-06T08:54:09Z</time>
      </trkpt>
      <trkpt lat="47.26371" lon="-1.43407">
        <ele>58</ele>
        <time>2022-08-06T08:54:11Z</time>
      </trkpt>
      <trkpt lat="47.26358" lon="-1.43422">
        <ele>57</ele>
        <time>2022-08-06T08:54:13Z</time>
      </trkpt>
      <trkpt lat="47.26345" lon="-1.43436">
        <ele>57</ele>
        <time>2022-08-06T08:54:15Z</time>
      </trkpt>
      <trkpt lat="47.26332" lon="-1.43451">
        <ele>56</ele>
        <time>2022-08-06T08:54:17Z</time>
      </trkpt>
      <trkpt lat="47.26318" lon="-1.43465">
        <ele>56</ele>
        <time>2022-08-06T08:54:19Z</time>
      </trkpt>
      <trkpt lat="47.26305" lon="-1.43478">
        <ele>56</ele>
        <time>2022-08-06T08:54:21Z</time>
      </trkpt>
      <trkpt lat="47.26292" lon="-1.43486">
        <ele>57</ele>
        <time>2022-08-06T08:54:23Z</time>
      </trkpt>
      <trkpt lat="47.26278" lon="-1.43493">
        <ele>58</ele>
        <time>2022-08-06T08:54:25Z</time>
      </trkpt>
      <trkpt lat="47.26264" lon="-1.435">
        <ele>58</ele>
        <time>2022-08-06T08:54:27Z</time>
      </trkpt>
      <trkpt lat="47.26251" lon="-1.43509">
        <ele>59</ele>
        <time>2022-08-06T08:54:29Z</time>
      </trkpt>
      <trkpt lat="47.26239" lon="-1.43522">
        <ele>60</ele>
        <time>2022-08-06T08:54:31Z</time>
      </trkpt>
      <trkpt lat="47.26228" lon="-1.43536">
        <ele>59</ele>
        <time>2022-08-06T08:54:33Z</time>
      </trkpt>
      <trkpt lat="47.26221" lon="-1.43553">
        <ele>60</ele>
        <time>2022-08-06T08:54:35Z</time>
      </trkpt>
      <trkpt lat="47.26218" lon="-1.43573">
        <ele>60</ele>
        <time>2022-08-06T08:54:37Z</time>
      </trkpt>
      <trkpt lat="47.2621" lon="-1.43591">
        <ele>60</ele>
        <time>2022-08-06T08:54:39Z</time>
      </trkpt>
      <trkpt lat="47.26199" lon="-1.43605">
        <ele>60</ele>
        <time>2022-08-06T08:54:41Z</time>
      </trkpt>
      <trkpt lat="47.2619" lon="-1.43621">
        <ele>61</ele>
        <time>2022-08-06T08:54:43Z</time>
      </trkpt>
      <trkpt lat="47.26181" lon="-1.43637">
        <ele>61</ele>
        <time>2022-08-06T08:54:45Z</time>
      </trkpt>
      <trkpt lat="47.26172" lon="-1.43654">
        <ele>61</ele>
        <time>2022-08-06T08:54:47Z</time>
      </trkpt>
      <trkpt lat="47.26163" lon="-1.43669">
        <ele>61</ele>
        <time>2022-08-06T08:54:49Z</time>
      </trkpt>
      <trkpt lat="47.26153" lon="-1.43683">
        <ele>60</ele>
        <time>2022-08-06T08:54:51Z</time>
      </trkpt>
      <trkpt lat="47.26143" lon="-1.43699">
        <ele>60</ele>
        <time>2022-08-06T08:54:53Z</time>
      </trkpt>
      <trkpt lat="47.26134" lon="-1.43714">
        <ele>61</ele>
        <time>2022-08-06T08:54:55Z</time>
      </trkpt>
      <trkpt lat="47.26125" lon="-1.4373">
        <ele>61</ele>
        <time>2022-08-06T08:54:57Z</time>
      </trkpt>
      <trkpt lat="47.26115" lon="-1.43744">
        <ele>61</ele>
        <time>2022-08-06T08:54:59Z</time>
      </trkpt>
      <trkpt lat="47.26105" lon="-1.43758">
        <ele>61</ele>
        <time>2022-08-06T08:55:01Z</time>
      </trkpt>
      <trkpt lat="47.26094" lon="-1.43769">
        <ele>61</ele>
        <time>2022-08-06T08:55:03Z</time>
      </trkpt>
      <trkpt lat="47.26084" lon="-1.43783">
        <ele>62</ele>
        <time>2022-08-06T08:55:05Z</time>
      </trkpt>
      <trkpt lat="47.26074" lon="-1.43796">
        <ele>63</ele>
        <time>2022-08-06T08:55:07Z</time>
      </trkpt>
      <trkpt lat="47.26064" lon="-1.43812">
        <ele>62</ele>
        <time>2022-08-06T08:55:09Z</time>
      </trkpt>
      <trkpt lat="47.26056" lon="-1.43828">
        <ele>63</ele>
        <time>2022-08-06T08:55:11Z</time>
      </trkpt>
      <trkpt lat="47.2605" lon="-1.43845">
        <ele>63</ele>
        <time>2022-08-06T08:55:13Z</time>
      </trkpt>
      <trkpt lat="47.2604" lon="-1.43862">
        <ele>62</ele>
        <time>2022-08-06T08:55:15Z</time>
      </trkpt>
      <trkpt lat="47.26029" lon="-1.43874">
        <ele>62</ele>
        <time>2022-08-06T08:55:17Z</time>
      </trkpt>
      <trkpt lat="47.26018" lon="-1.43884">
        <ele>63</ele>
        <time>2022-08-06T08:55:19Z</time>
      </trkpt>
      <trkpt lat="47.26007" lon="-1.43896">
        <ele>65</ele>
        <time>2022-08-06T08:55:21Z</time>
      </trkpt>
      <trkpt lat="47.25996" lon="-1.43907">
        <ele>66</ele>
        <time>2022-08-06T08:55:23Z</time>
      </trkpt>
      <trkpt lat="47.25985" lon="-1.43921">
        <ele>67</ele>
        <time>2022-08-06T08:55:25Z</time>
      </trkpt>
      <trkpt lat="47.25974" lon="-1.43933">
        <ele>68</ele>
        <time>2022-08-06T08:55:27Z</time>
      </trkpt>
      <trkpt lat="47.25963" lon="-1.43948">
        <ele>67</ele>
        <time>2022-08-06T08:55:29Z</time>
      </trkpt>
      <trkpt lat="47.25952" lon="-1.43961">
        <ele>66</ele>
        <time>2022-08-06T08:55:31Z</time>
      </trkpt>
      <trkpt lat="47.25941" lon="-1.43974">
        <ele>67</ele>
        <time>2022-08-06T08:55:33Z</time>
      </trkpt>
      <trkpt lat="47.25929" lon="-1.43986">
        <ele>67</ele>
        <time>2022-08-06T08:55:35Z</time>
      </trkpt>
      <trkpt lat="47.25917" lon="-1.43999">
        <ele>66</ele>
        <time>2022-08-06T08:55:37Z</time>
      </trkpt>
      <trkpt lat="47.25906" lon="-1.44011">
        <ele>66</ele>
        <time>2022-08-06T08:55:39Z</time>
      </trkpt>
      <trkpt lat="47.25896" lon="-1.44025">
        <ele>67</ele>
        <time>2022-08-06T08:55:41Z</time>
      </trkpt>
      <trkpt lat="47.25886" lon="-1.44039">
        <ele>67</ele>
        <time>2022-08-06T08:55:43Z</time>
      </trkpt>
      <trkpt lat="47.25876" lon="-1.44056">
        <ele>66</ele>
        <time>2022-08-06T08:55:45Z</time>
      </trkpt>
      <trkpt lat="47.2587" lon="-1.44075">
        <ele>66</ele>
        <time>2022-08-06T08:55:47Z</time>
      </trkpt>
      <trkpt lat="47.25863" lon="-1.44091">
        <ele>65</ele>
        <time>2022-08-06T08:55:49Z</time>
      </trkpt>
      <trkpt lat="47.25852" lon="-1.44105">
        <ele>65</ele>
        <time>2022-08-06T08:55:51Z</time>
      </trkpt>
      <trkpt lat="47.2584" lon="-1.44118">
        <ele>63</ele>
        <time>2022-08-06T08:55:53Z</time>
      </trkpt>
      <trkpt lat="47.25829" lon="-1.4413">
        <ele>62</ele>
        <time>2022-08-06T08:55:55Z</time>
      </trkpt>
      <trkpt lat="47.25817" lon="-1.44143">
        <ele>62</ele>
        <time>2022-08-06T08:55:57Z</time>
      </trkpt>
      <trkpt lat="47.25805" lon="-1.44155">
        <ele>61</ele>
        <time>2022-08-06T08:55:59Z</time>
      </trkpt>
      <trkpt lat="47.25793" lon="-1.44168">
        <ele>60</ele>
        <time>2022-08-06T08:56:01Z</time>
      </trkpt>
      <trkpt lat="47.25782" lon="-1.44181">
        <ele>59</ele>
        <time>2022-08-06T08:56:03Z</time>
      </trkpt>
      <trkpt lat="47.2577" lon="-1.44194">
        <ele>59</ele>
        <time>2022-08-06T08:56:05Z</time>
      </trkpt>
      <trkpt lat="47.25759" lon="-1.44207">
        <ele>58</ele>
        <time>2022-08-06T08:56:07Z</time>
      </trkpt>
      <trkpt lat="47.25749" lon="-1.44221">
        <ele>58</ele>
        <time>2022-08-06T08:56:09Z</time>
      </trkpt>
      <trkpt lat="47.25739" lon="-1.44235">
        <ele>57</ele>
        <time>2022-08-06T08:56:11Z</time>
      </trkpt>
      <trkpt lat="47.25728" lon="-1.44249">
        <ele>57</ele>
        <time>2022-08-06T08:56:13Z</time>
      </trkpt>
      <trkpt lat="47.25716" lon="-1.44263">
        <ele>57</ele>
        <time>2022-08-06T08:56:15Z</time>
      </trkpt>
      <trkpt lat="47.25704" lon="-1.44275">
        <ele>57</ele>
        <time>2022-08-06T08:56:17Z</time>
      </trkpt>
      <trkpt lat="47.25693" lon="-1.44289">
        <ele>57</ele>
        <time>2022-08-06T08:56:19Z</time>
      </trkpt>
      <trkpt lat="47.25682" lon="-1.44303">
        <ele>58</ele>
        <time>2022-08-06T08:56:21Z</time>
      </trkpt>
      <trkpt lat="47.25672" lon="-1.44317">
        <ele>58</ele>
        <time>2022-08-06T08:56:23Z</time>
      </trkpt>
      <trkpt lat="47.25661" lon="-1.4433">
        <ele>58</ele>
        <time>2022-08-06T08:56:25Z</time>
      </trkpt>
      <trkpt lat="47.25649" lon="-1.44343">
        <ele>58</ele>
        <time>2022-08-06T08:56:27Z</time>
      </trkpt>
      <trkpt lat="47.25638" lon="-1.44356">
        <ele>58</ele>
        <time>2022-08-06T08:56:29Z</time>
      </trkpt>
      <trkpt lat="47.25626" lon="-1.44368">
        <ele>59</ele>
        <time>2022-08-06T08:56:31Z</time>
      </trkpt>
      <trkpt lat="47.25615" lon="-1.44382">
        <ele>59</ele>
        <time>2022-08-06T08:56:33Z</time>
      </trkpt>
      <trkpt lat="47.25604" lon="-1.44394">
        <ele>60</ele>
        <time>2022-08-06T08:56:35Z</time>
      </trkpt>
      <trkpt lat="47.25593" lon="-1.44408">
        <ele>60</ele>
        <time>2022-08-06T08:56:37Z</time>
      </trkpt>
      <trkpt lat="47.25581" lon="-1.44422">
        <ele>60</ele>
        <time>2022-08-06T08:56:39Z</time>
      </trkpt>
      <trkpt lat="47.2557" lon="-1.44436">
        <ele>60</ele>
        <time>2022-08-06T08:56:41Z</time>
      </trkpt>
      <trkpt lat="47.25559" lon="-1.44449">
        <ele>60</ele>
        <time>2022-08-06T08:56:43Z</time>
      </trkpt>
      <trkpt lat="47.25548" lon="-1.44465">
        <ele>60</ele>
        <time>2022-08-06T08:56:45Z</time>
      </trkpt>
      <trkpt lat="47.25539" lon="-1.4448">
        <ele>61</ele>
        <time>2022-08-06T08:56:47Z</time>
      </trkpt>
      <trkpt lat="47.25529" lon="-1.44498">
        <ele>61</ele>
        <time>2022-08-06T08:56:49Z</time>
      </trkpt>
      <trkpt lat="47.25519" lon="-1.44514">
        <ele>60</ele>
        <time>2022-08-06T08:56:51Z</time>
      </trkpt>
      <trkpt lat="47.25507" lon="-1.44528">
        <ele>59</ele>
        <time>2022-08-06T08:56:53Z</time>
      </trkpt>
      <trkpt lat="47.25496" lon="-1.44543">
        <ele>58</ele>
        <time>2022-08-06T08:56:55Z</time>
      </trkpt>
      <trkpt lat="47.25484" lon="-1.44558">
        <ele>57</ele>
        <time>2022-08-06T08:56:57Z</time>
      </trkpt>
      <trkpt lat="47.25473" lon="-1.44573">
        <ele>57</ele>
        <time>2022-08-06T08:56:59Z</time>
      </trkpt>
      <trkpt lat="47.25464" lon="-1.4459">
        <ele>56</ele>
        <time>2022-08-06T08:57:01Z</time>
      </trkpt>
      <trkpt lat="47.25453" lon="-1.44606">
        <ele>56</ele>
        <time>2022-08-06T08:57:03Z</time>
      </trkpt>
      <trkpt lat="47.25443" lon="-1.44621">
        <ele>57</ele>
        <time>2022-08-06T08:57:05Z</time>
      </trkpt>
      <trkpt lat="47.25434" lon="-1.44635">
        <ele>57</ele>
        <time>2022-08-06T08:57:07Z</time>
      </trkpt>
      <trkpt lat="47.25423" lon="-1.44649">
        <ele>58</ele>
        <time>2022-08-06T08:57:09Z</time>
      </trkpt>
      <trkpt lat="47.25413" lon="-1.44663">
        <ele>60</ele>
        <time>2022-08-06T08:57:11Z</time>
      </trkpt>
      <trkpt lat="47.25403" lon="-1.44678">
        <ele>60</ele>
        <time>2022-08-06T08:57:13Z</time>
      </trkpt>
      <trkpt lat="47.25392" lon="-1.4469">
        <ele>60</ele>
        <time>2022-08-06T08:57:15Z</time>
      </trkpt>
      <trkpt lat="47.25381" lon="-1.44704">
        <ele>60</ele>
        <time>2022-08-06T08:57:17Z</time>
      </trkpt>
      <trkpt lat="47.25371" lon="-1.44717">
        <ele>61</ele>
        <time>2022-08-06T08:57:19Z</time>
      </trkpt>
      <trkpt lat="47.25359" lon="-1.44729">
        <ele>61</ele>
        <time>2022-08-06T08:57:21Z</time>
      </trkpt>
      <trkpt lat="47.25347" lon="-1.44741">
        <ele>61</ele>
        <time>2022-08-06T08:57:23Z</time>
      </trkpt>
      <trkpt lat="47.25335" lon="-1.44753">
        <ele>61</ele>
        <time>2022-08-06T08:57:25Z</time>
      </trkpt>
      <trkpt lat="47.25323" lon="-1.44765">
        <ele>61</ele>
        <time>2022-08-06T08:57:27Z</time>
      </trkpt>
      <trkpt lat="47.25312" lon="-1.44777">
        <ele>61</ele>
        <time>2022-08-06T08:57:29Z</time>
      </trkpt>
      <trkpt lat="47.25301" lon="-1.4479">
        <ele>62</ele>
        <time>2022-08-06T08:57:31Z</time>
      </trkpt>
      <trkpt lat="47.25291" lon="-1.44803">
        <ele>62</ele>
        <time>2022-08-06T08:57:33Z</time>
      </trkpt>
      <trkpt lat="47.2528" lon="-1.44816">
        <ele>63</ele>
        <time>2022-08-06T08:57:35Z</time>
      </trkpt>
      <trkpt lat="47.25269" lon="-1.44829">
        <ele>63</ele>
        <time>2022-08-06T08:57:37Z</time>
      </trkpt>
      <trkpt lat="47.25258" lon="-1.44842">
        <ele>63</ele>
        <time>2022-08-06T08:57:39Z</time>
      </trkpt>
      <trkpt lat="47.25247" lon="-1.44855">
        <ele>63</ele>
        <time>2022-08-06T08:57:41Z</time>
      </trkpt>
      <trkpt lat="47.25235" lon="-1.44867">
        <ele>63</ele>
        <time>2022-08-06T08:57:43Z</time>
      </trkpt>
      <trkpt lat="47.25222" lon="-1.44877">
        <ele>63</ele>
        <time>2022-08-06T08:57:45Z</time>
      </trkpt>
      <trkpt lat="47.25208" lon="-1.44888">
        <ele>63</ele>
        <time>2022-08-06T08:57:47Z</time>
      </trkpt>
      <trkpt lat="47.25196" lon="-1.44898">
        <ele>63</ele>
        <time>2022-08-06T08:57:49Z</time>
      </trkpt>
      <trkpt lat="47.25182" lon="-1.44908">
        <ele>62</ele>
        <time>2022-08-06T08:57:51Z</time>
      </trkpt>
      <trkpt lat="47.2517" lon="-1.4492">
        <ele>62</ele>
        <time>2022-08-06T08:57:53Z</time>
      </trkpt>
      <trkpt lat="47.25157" lon="-1.44931">
        <ele>61</ele>
        <time>2022-08-06T08:57:55Z</time>
      </trkpt>
      <trkpt lat="47.25144" lon="-1.44942">
        <ele>61</ele>
        <time>2022-08-06T08:57:57Z</time>
      </trkpt>
      <trkpt lat="47.25133" lon="-1.44953">
        <ele>60</ele>
        <time>2022-08-06T08:57:59Z</time>
      </trkpt>
      <trkpt lat="47.25122" lon="-1.44965">
        <ele>60</ele>
        <time>2022-08-06T08:58:01Z</time>
      </trkpt>
      <trkpt lat="47.25109" lon="-1.44976">
        <ele>60</ele>
        <time>2022-08-06T08:58:03Z</time>
      </trkpt>
      <trkpt lat="47.25097" lon="-1.44986">
        <ele>61</ele>
        <time>2022-08-06T08:58:05Z</time>
      </trkpt>
      <trkpt lat="47.25085" lon="-1.44996">
        <ele>61</ele>
        <time>2022-08-06T08:58:07Z</time>
      </trkpt>
      <trkpt lat="47.25073" lon="-1.45006">
        <ele>61</ele>
        <time>2022-08-06T08:58:09Z</time>
      </trkpt>
      <trkpt lat="47.25061" lon="-1.45015">
        <ele>62</ele>
        <time>2022-08-06T08:58:11Z</time>
      </trkpt>
      <trkpt lat="47.25049" lon="-1.45024">
        <ele>62</ele>
        <time>2022-08-06T08:58:13Z</time>
      </trkpt>
      <trkpt lat="47.25037" lon="-1.45034">
        <ele>62</ele>
        <time>2022-08-06T08:58:15Z</time>
      </trkpt>
      <trkpt lat="47.25025" lon="-1.45044">
        <ele>62</ele>
        <time>2022-08-06T08:58:17Z</time>
      </trkpt>
      <trkpt lat="47.25014" lon="-1.45054">
        <ele>63</ele>
        <time>2022-08-06T08:58:19Z</time>
      </trkpt>
      <trkpt lat="47.25004" lon="-1.45067">
        <ele>63</ele>
        <time>2022-08-06T08:58:21Z</time>
      </trkpt>
      <trkpt lat="47.24992" lon="-1.4508">
        <ele>63</ele>
        <time>2022-08-06T08:58:23Z</time>
      </trkpt>
      <trkpt lat="47.24981" lon="-1.45094">
        <ele>63</ele>
        <time>2022-08-06T08:58:25Z</time>
      </trkpt>
      <trkpt lat="47.24969" lon="-1.45106">
        <ele>63</ele>
        <time>2022-08-06T08:58:27Z</time>
      </trkpt>
      <trkpt lat="47.24958" lon="-1.45117">
        <ele>62</ele>
        <time>2022-08-06T08:58:29Z</time>
      </trkpt>
      <trkpt lat="47.24947" lon="-1.45129">
        <ele>61</ele>
        <time>2022-08-06T08:58:31Z</time>
      </trkpt>
      <trkpt lat="47.24935" lon="-1.45139">
        <ele>62</ele>
        <time>2022-08-06T08:58:33Z</time>
      </trkpt>
      <trkpt lat="47.24924" lon="-1.45151">
        <ele>61</ele>
        <time>2022-08-06T08:58:35Z</time>
      </trkpt>
      <trkpt lat="47.24914" lon="-1.45163">
        <ele>62</ele>
        <time>2022-08-06T08:58:37Z</time>
      </trkpt>
      <trkpt lat="47.24904" lon="-1.45176">
        <ele>63</ele>
        <time>2022-08-06T08:58:39Z</time>
      </trkpt>
      <trkpt lat="47.24895" lon="-1.45189">
        <ele>63</ele>
        <time>2022-08-06T08:58:41Z</time>
      </trkpt>
      <trkpt lat="47.24887" lon="-1.45202">
        <ele>64</ele>
        <time>2022-08-06T08:58:43Z</time>
      </trkpt>
      <trkpt lat="47.24879" lon="-1.45215">
        <ele>65</ele>
        <time>2022-08-06T08:58:45Z</time>
      </trkpt>
      <trkpt lat="47.24872" lon="-1.4523">
        <ele>66</ele>
        <time>2022-08-06T08:58:47Z</time>
      </trkpt>
      <trkpt lat="47.24864" lon="-1.45244">
        <ele>67</ele>
        <time>2022-08-06T08:58:49Z</time>
      </trkpt>
      <trkpt lat="47.24854" lon="-1.45259">
        <ele>67</ele>
        <time>2022-08-06T08:58:51Z</time>
      </trkpt>
      <trkpt lat="47.24845" lon="-1.45274">
        <ele>67</ele>
        <time>2022-08-06T08:58:53Z</time>
      </trkpt>
      <trkpt lat="47.24835" lon="-1.4529">
        <ele>67</ele>
        <time>2022-08-06T08:58:55Z</time>
      </trkpt>
      <trkpt lat="47.24826" lon="-1.45305">
        <ele>67</ele>
        <time>2022-08-06T08:58:57Z</time>
      </trkpt>
      <trkpt lat="47.24818" lon="-1.4532">
        <ele>67</ele>
        <time>2022-08-06T08:58:59Z</time>
      </trkpt>
      <trkpt lat="47.2481" lon="-1.45336">
        <ele>66</ele>
        <time>2022-08-06T08:59:01Z</time>
      </trkpt>
      <trkpt lat="47.24802" lon="-1.45352">
        <ele>66</ele>
        <time>2022-08-06T08:59:03Z</time>
      </trkpt>
      <trkpt lat="47.24795" lon="-1.45367">
        <ele>66</ele>
        <time>2022-08-06T08:59:05Z</time>
      </trkpt>
      <trkpt lat="47.24787" lon="-1.45385">
        <ele>64</ele>
        <time>2022-08-06T08:59:07Z</time>
      </trkpt>
      <trkpt lat="47.24781" lon="-1.45401">
        <ele>63</ele>
        <time>2022-08-06T08:59:09Z</time>
      </trkpt>
      <trkpt lat="47.24773" lon="-1.45418">
        <ele>62</ele>
        <time>2022-08-06T08:59:11Z</time>
      </trkpt>
      <trkpt lat="47.24766" lon="-1.45434">
        <ele>62</ele>
        <time>2022-08-06T08:59:13Z</time>
      </trkpt>
      <trkpt lat="47.24759" lon="-1.45451">
        <ele>61</ele>
        <time>2022-08-06T08:59:15Z</time>
      </trkpt>
      <trkpt lat="47.24753" lon="-1.45469">
        <ele>60</ele>
        <time>2022-08-06T08:59:17Z</time>
      </trkpt>
      <trkpt lat="47.24745" lon="-1.45485">
        <ele>60</ele>
        <time>2022-08-06T08:59:19Z</time>
      </trkpt>
      <trkpt lat="47.24738" lon="-1.45502">
        <ele>59</ele>
        <time>2022-08-06T08:59:21Z</time>
      </trkpt>
      <trkpt lat="47.2473" lon="-1.4552">
        <ele>58</ele>
        <time>2022-08-06T08:59:23Z</time>
      </trkpt>
      <trkpt lat="47.24724" lon="-1.45538">
        <ele>58</ele>
        <time>2022-08-06T08:59:25Z</time>
      </trkpt>
      <trkpt lat="47.24717" lon="-1.45556">
        <ele>58</ele>
        <time>2022-08-06T08:59:27Z</time>
      </trkpt>
      <trkpt lat="47.24711" lon="-1.45574">
        <ele>58</ele>
        <time>2022-08-06T08:59:29Z</time>
      </trkpt>
      <trkpt lat="47.24706" lon="-1.45592">
        <ele>58</ele>
        <time>2022-08-06T08:59:31Z</time>
      </trkpt>
      <trkpt lat="47.24699" lon="-1.45609">
        <ele>58</ele>
        <time>2022-08-06T08:59:33Z</time>
      </trkpt>
      <trkpt lat="47.24693" lon="-1.45626">
        <ele>57</ele>
        <time>2022-08-06T08:59:35Z</time>
      </trkpt>
      <trkpt lat="47.24688" lon="-1.45645">
        <ele>57</ele>
        <time>2022-08-06T08:59:37Z</time>
      </trkpt>
      <trkpt lat="47.24683" lon="-1.45663">
        <ele>57</ele>
        <time>2022-08-06T08:59:39Z</time>
      </trkpt>
      <trkpt lat="47.24678" lon="-1.4568">
        <ele>58</ele>
        <time>2022-08-06T08:59:41Z</time>
      </trkpt>
      <trkpt lat="47.24676" lon="-1.45698">
        <ele>58</ele>
        <time>2022-08-06T08:59:43Z</time>
      </trkpt>
      <trkpt lat="47.2467" lon="-1.45717">
        <ele>58</ele>
        <time>2022-08-06T08:59:45Z</time>
      </trkpt>
      <trkpt lat="47.24666" lon="-1.45737">
        <ele>58</ele>
        <time>2022-08-06T08:59:47Z</time>
      </trkpt>
      <trkpt lat="47.24662" lon="-1.45757">
        <ele>58</ele>
        <time>2022-08-06T08:59:49Z</time>
      </trkpt>
      <trkpt lat="47.24659" lon="-1.45774">
        <ele>58</ele>
        <time>2022-08-06T08:59:51Z</time>
      </trkpt>
      <trkpt lat="47.24655" lon="-1.45792">
        <ele>60</ele>
        <time>2022-08-06T08:59:53Z</time>
      </trkpt>
      <trkpt lat="47.2465" lon="-1.4581">
        <ele>61</ele>
        <time>2022-08-06T08:59:55Z</time>
      </trkpt>
      <trkpt lat="47.24645" lon="-1.45827">
        <ele>63</ele>
        <time>2022-08-06T08:59:57Z</time>
      </trkpt>
      <trkpt lat="47.24639" lon="-1.45845">
        <ele>64</ele>
        <time>2022-08-06T08:59:59Z</time>
      </trkpt>
      <trkpt lat="47.24635" lon="-1.45863">
        <ele>64</ele>
        <time>2022-08-06T09:00:01Z</time>
      </trkpt>
      <trkpt lat="47.2463" lon="-1.45882">
        <ele>65</ele>
        <time>2022-08-06T09:00:03Z</time>
      </trkpt>
      <trkpt lat="47.24626" lon="-1.459">
        <ele>66</ele>
        <time>2022-08-06T09:00:05Z</time>
      </trkpt>
      <trkpt lat="47.2462" lon="-1.45918">
        <ele>66</ele>
        <time>2022-08-06T09:00:07Z</time>
      </trkpt>
      <trkpt lat="47.24615" lon="-1.45935">
        <ele>65</ele>
        <time>2022-08-06T09:00:09Z</time>
      </trkpt>
      <trkpt lat="47.24607" lon="-1.4595">
        <ele>65</ele>
        <time>2022-08-06T09:00:11Z</time>
      </trkpt>
      <trkpt lat="47.24601" lon="-1.45968">
        <ele>64</ele>
        <time>2022-08-06T09:00:13Z</time>
      </trkpt>
      <trkpt lat="47.24593" lon="-1.45987">
        <ele>63</ele>
        <time>2022-08-06T09:00:15Z</time>
      </trkpt>
      <trkpt lat="47.24582" lon="-1.46003">
        <ele>62</ele>
        <time>2022-08-06T09:00:17Z</time>
      </trkpt>
      <trkpt lat="47.24574" lon="-1.46021">
        <ele>63</ele>
        <time>2022-08-06T09:00:19Z</time>
      </trkpt>
      <trkpt lat="47.24566" lon="-1.46037">
        <ele>64</ele>
        <time>2022-08-06T09:00:21Z</time>
      </trkpt>
      <trkpt lat="47.24557" lon="-1.46054">
        <ele>64</ele>
        <time>2022-08-06T09:00:23Z</time>
      </trkpt>
      <trkpt lat="47.24548" lon="-1.46069">
        <ele>63</ele>
        <time>2022-08-06T09:00:25Z</time>
      </trkpt>
      <trkpt lat="47.24537" lon="-1.46086">
        <ele>62</ele>
        <time>2022-08-06T09:00:27Z</time>
      </trkpt>
      <trkpt lat="47.24528" lon="-1.46101">
        <ele>62</ele>
        <time>2022-08-06T09:00:29Z</time>
      </trkpt>
      <trkpt lat="47.24517" lon="-1.46115">
        <ele>61</ele>
        <time>2022-08-06T09:00:31Z</time>
      </trkpt>
      <trkpt lat="47.24506" lon="-1.46126">
        <ele>61</ele>
        <time>2022-08-06T09:00:33Z</time>
      </trkpt>
      <trkpt lat="47.24495" lon="-1.46139">
        <ele>61</ele>
        <time>2022-08-06T09:00:35Z</time>
      </trkpt>
      <trkpt lat="47.24485" lon="-1.46152">
        <ele>60</ele>
        <time>2022-08-06T09:00:37Z</time>
      </trkpt>
      <trkpt lat="47.24474" lon="-1.46165">
        <ele>60</ele>
        <time>2022-08-06T09:00:39Z</time>
      </trkpt>
      <trkpt lat="47.24464" lon="-1.46177">
        <ele>60</ele>
        <time>2022-08-06T09:00:41Z</time>
      </trkpt>
      <trkpt lat="47.24455" lon="-1.4619">
        <ele>59</ele>
        <time>2022-08-06T09:00:43Z</time>
      </trkpt>
      <trkpt lat="47.24444" lon="-1.46204">
        <ele>59</ele>
        <time>2022-08-06T09:00:45Z</time>
      </trkpt>
      <trkpt lat="47.24434" lon="-1.46216">
        <ele>59</ele>
        <time>2022-08-06T09:00:47Z</time>
      </trkpt>
      <trkpt lat="47.24425" lon="-1.4623">
        <ele>59</ele>
        <time>2022-08-06T09:00:49Z</time>
      </trkpt>
      <trkpt lat="47.24416" lon="-1.46243">
        <ele>59</ele>
        <time>2022-08-06T09:00:51Z</time>
      </trkpt>
      <trkpt lat="47.24406" lon="-1.46256">
        <ele>60</ele>
        <time>2022-08-06T09:00:53Z</time>
      </trkpt>
      <trkpt lat="47.24398" lon="-1.4627">
        <ele>61</ele>
        <time>2022-08-06T09:00:55Z</time>
      </trkpt>
      <trkpt lat="47.24389" lon="-1.46284">
        <ele>61</ele>
        <time>2022-08-06T09:00:57Z</time>
      </trkpt>
      <trkpt lat="47.24379" lon="-1.46298">
        <ele>61</ele>
        <time>2022-08-06T09:00:59Z</time>
      </trkpt>
      <trkpt lat="47.24369" lon="-1.46312">
        <ele>61</ele>
        <time>2022-08-06T09:01:01Z</time>
      </trkpt>
      <trkpt lat="47.2436" lon="-1.46325">
        <ele>61</ele>
        <time>2022-08-06T09:01:03Z</time>
      </trkpt>
      <trkpt lat="47.24351" lon="-1.46339">
        <ele>61</ele>
        <time>2022-08-06T09:01:05Z</time>
      </trkpt>
      <trkpt lat="47.24342" lon="-1.46354">
        <ele>60</ele>
        <time>2022-08-06T09:01:07Z</time>
      </trkpt>
      <trkpt lat="47.24333" lon="-1.46369">
        <ele>60</ele>
        <time>2022-08-06T09:01:09Z</time>
      </trkpt>
      <trkpt lat="47.24324" lon="-1.46384">
        <ele>60</ele>
        <time>2022-08-06T09:01:11Z</time>
      </trkpt>
      <trkpt lat="47.24316" lon="-1.46399">
        <ele>60</ele>
        <time>2022-08-06T09:01:13Z</time>
      </trkpt>
      <trkpt lat="47.24307" lon="-1.46414">
        <ele>61</ele>
        <time>2022-08-06T09:01:15Z</time>
      </trkpt>
      <trkpt lat="47.24299" lon="-1.46429">
        <ele>60</ele>
        <time>2022-08-06T09:01:17Z</time>
      </trkpt>
      <trkpt lat="47.2429" lon="-1.46444">
        <ele>60</ele>
        <time>2022-08-06T09:01:19Z</time>
      </trkpt>
      <trkpt lat="47.2428" lon="-1.46457">
        <ele>60</ele>
        <time>2022-08-06T09:01:21Z</time>
      </trkpt>
      <trkpt lat="47.2427" lon="-1.46471">
        <ele>60</ele>
        <time>2022-08-06T09:01:23Z</time>
      </trkpt>
      <trkpt lat="47.2426" lon="-1.46482">
        <ele>60</ele>
        <time>2022-08-06T09:01:25Z</time>
      </trkpt>
      <trkpt lat="47.2425" lon="-1.46494">
        <ele>60</ele>
        <time>2022-08-06T09:01:27Z</time>
      </trkpt>
      <trkpt lat="47.2424" lon="-1.46506">
        <ele>60</ele>
        <time>2022-08-06T09:01:29Z</time>
      </trkpt>
      <trkpt lat="47.2423" lon="-1.46519">
        <ele>60</ele>
        <time>2022-08-06T09:01:31Z</time>
      </trkpt>
      <trkpt lat="47.2422" lon="-1.46531">
        <ele>60</ele>
        <time>2022-08-06T09:01:33Z</time>
      </trkpt>
      <trkpt lat="47.2421" lon="-1.46544">
        <ele>60</ele>
        <time>2022-08-06T09:01:35Z</time>
      </trkpt>
      <trkpt lat="47.242" lon="-1.46556">
        <ele>60</ele>
        <time>2022-08-06T09:01:37Z</time>
      </trkpt>
      <trkpt lat="47.2419" lon="-1.46568">
        <ele>59</ele>
        <time>2022-08-06T09:01:39Z</time>
      </trkpt>
      <trkpt lat="47.2418" lon="-1.46581">
        <ele>59</ele>
        <time>2022-08-06T09:01:41Z</time>
      </trkpt>
      <trkpt lat="47.2417" lon="-1.46593">
        <ele>60</ele>
        <time>2022-08-06T09:01:43Z</time>
      </trkpt>
      <trkpt lat="47.2416" lon="-1.46607">
        <ele>60</ele>
        <time>2022-08-06T09:01:45Z</time>
      </trkpt>
      <trkpt lat="47.24151" lon="-1.46619">
        <ele>60</ele>
        <time>2022-08-06T09:01:47Z</time>
      </trkpt>
      <trkpt lat="47.24143" lon="-1.46631">
        <ele>60</ele>
        <time>2022-08-06T09:01:49Z</time>
      </trkpt>
      <trkpt lat="47.24133" lon="-1.46643">
        <ele>60</ele>
        <time>2022-08-06T09:01:51Z</time>
      </trkpt>
      <trkpt lat="47.24124" lon="-1.46657">
        <ele>60</ele>
        <time>2022-08-06T09:01:53Z</time>
      </trkpt>
      <trkpt lat="47.24115" lon="-1.4667">
        <ele>61</ele>
        <time>2022-08-06T09:01:55Z</time>
      </trkpt>
      <trkpt lat="47.24105" lon="-1.46685">
        <ele>61</ele>
        <time>2022-08-06T09:01:57Z</time>
      </trkpt>
      <trkpt lat="47.24096" lon="-1.46698">
        <ele>61</ele>
        <time>2022-08-06T09:01:59Z</time>
      </trkpt>
      <trkpt lat="47.24089" lon="-1.46712">
        <ele>61</ele>
        <time>2022-08-06T09:02:01Z</time>
      </trkpt>
      <trkpt lat="47.24084" lon="-1.46726">
        <ele>61</ele>
        <time>2022-08-06T09:02:03Z</time>
      </trkpt>
      <trkpt lat="47.24079" lon="-1.46739">
        <ele>61</ele>
        <time>2022-08-06T09:02:05Z</time>
      </trkpt>
      <trkpt lat="47.24069" lon="-1.46749">
        <ele>62</ele>
        <time>2022-08-06T09:02:07Z</time>
      </trkpt>
      <trkpt lat="47.24056" lon="-1.46756">
        <ele>62</ele>
        <time>2022-08-06T09:02:09Z</time>
      </trkpt>
      <trkpt lat="47.24044" lon="-1.46767">
        <ele>61</ele>
        <time>2022-08-06T09:02:11Z</time>
      </trkpt>
      <trkpt lat="47.24033" lon="-1.46778">
        <ele>61</ele>
        <time>2022-08-06T09:02:13Z</time>
      </trkpt>
      <trkpt lat="47.24024" lon="-1.46788">
        <ele>62</ele>
        <time>2022-08-06T09:02:15Z</time>
      </trkpt>
      <trkpt lat="47.24014" lon="-1.46799">
        <ele>62</ele>
        <time>2022-08-06T09:02:17Z</time>
      </trkpt>
      <trkpt lat="47.24004" lon="-1.4681">
        <ele>62</ele>
        <time>2022-08-06T09:02:19Z</time>
      </trkpt>
      <trkpt lat="47.23994" lon="-1.46821">
        <ele>62</ele>
        <time>2022-08-06T09:02:21Z</time>
      </trkpt>
      <trkpt lat="47.23983" lon="-1.46833">
        <ele>62</ele>
        <time>2022-08-06T09:02:23Z</time>
      </trkpt>
      <trkpt lat="47.23972" lon="-1.46844">
        <ele>62</ele>
        <time>2022-08-06T09:02:25Z</time>
      </trkpt>
      <trkpt lat="47.23962" lon="-1.46855">
        <ele>63</ele>
        <time>2022-08-06T09:02:27Z</time>
      </trkpt>
      <trkpt lat="47.23951" lon="-1.46865">
        <ele>62</ele>
        <time>2022-08-06T09:02:29Z</time>
      </trkpt>
      <trkpt lat="47.2394" lon="-1.46874">
        <ele>62</ele>
        <time>2022-08-06T09:02:31Z</time>
      </trkpt>
      <trkpt lat="47.23929" lon="-1.46884">
        <ele>62</ele>
        <time>2022-08-06T09:02:33Z</time>
      </trkpt>
      <trkpt lat="47.23919" lon="-1.46895">
        <ele>61</ele>
        <time>2022-08-06T09:02:35Z</time>
      </trkpt>
      <trkpt lat="47.2391" lon="-1.46908">
        <ele>62</ele>
        <time>2022-08-06T09:02:37Z</time>
      </trkpt>
      <trkpt lat="47.23899" lon="-1.46921">
        <ele>62</ele>
        <time>2022-08-06T09:02:39Z</time>
      </trkpt>
      <trkpt lat="47.2389" lon="-1.46934">
        <ele>62</ele>
        <time>2022-08-06T09:02:41Z</time>
      </trkpt>
      <trkpt lat="47.2388" lon="-1.46947">
        <ele>62</ele>
        <time>2022-08-06T09:02:43Z</time>
      </trkpt>
      <trkpt lat="47.23869" lon="-1.4696">
        <ele>62</ele>
        <time>2022-08-06T09:02:45Z</time>
      </trkpt>
      <trkpt lat="47.23859" lon="-1.46974">
        <ele>61</ele>
        <time>2022-08-06T09:02:47Z</time>
      </trkpt>
      <trkpt lat="47.2385" lon="-1.46987">
        <ele>61</ele>
        <time>2022-08-06T09:02:49Z</time>
      </trkpt>
      <trkpt lat="47.2384" lon="-1.47002">
        <ele>61</ele>
        <time>2022-08-06T09:02:51Z</time>
      </trkpt>
      <trkpt lat="47.2383" lon="-1.47016">
        <ele>62</ele>
        <time>2022-08-06T09:02:53Z</time>
      </trkpt>
      <trkpt lat="47.23821" lon="-1.4703">
        <ele>62</ele>
        <time>2022-08-06T09:02:55Z</time>
      </trkpt>
      <trkpt lat="47.23812" lon="-1.47044">
        <ele>62</ele>
        <time>2022-08-06T09:02:57Z</time>
      </trkpt>
      <trkpt lat="47.23802" lon="-1.47058">
        <ele>62</ele>
        <time>2022-08-06T09:02:59Z</time>
      </trkpt>
      <trkpt lat="47.23792" lon="-1.47071">
        <ele>61</ele>
        <time>2022-08-06T09:03:01Z</time>
      </trkpt>
      <trkpt lat="47.23782" lon="-1.47085">
        <ele>61</ele>
        <time>2022-08-06T09:03:03Z</time>
      </trkpt>
      <trkpt lat="47.23772" lon="-1.47099">
        <ele>61</ele>
        <time>2022-08-06T09:03:05Z</time>
      </trkpt>
      <trkpt lat="47.23762" lon="-1.47112">
        <ele>61</ele>
        <time>2022-08-06T09:03:07Z</time>
      </trkpt>
      <trkpt lat="47.23752" lon="-1.47125">
        <ele>61</ele>
        <time>2022-08-06T09:03:09Z</time>
      </trkpt>
      <trkpt lat="47.2374" lon="-1.47136">
        <ele>61</ele>
        <time>2022-08-06T09:03:11Z</time>
      </trkpt>
      <trkpt lat="47.2373" lon="-1.47149">
        <ele>61</ele>
        <time>2022-08-06T09:03:13Z</time>
      </trkpt>
      <trkpt lat="47.23719" lon="-1.47163">
        <ele>61</ele>
        <time>2022-08-06T09:03:15Z</time>
      </trkpt>
      <trkpt lat="47.23709" lon="-1.47178">
        <ele>61</ele>
        <time>2022-08-06T09:03:17Z</time>
      </trkpt>
      <trkpt lat="47.23698" lon="-1.47193">
        <ele>61</ele>
        <time>2022-08-06T09:03:19Z</time>
      </trkpt>
      <trkpt lat="47.23688" lon="-1.47211">
        <ele>60</ele>
        <time>2022-08-06T09:03:21Z</time>
      </trkpt>
      <trkpt lat="47.23676" lon="-1.47227">
        <ele>60</ele>
        <time>2022-08-06T09:03:23Z</time>
      </trkpt>
      <trkpt lat="47.23664" lon="-1.47241">
        <ele>59</ele>
        <time>2022-08-06T09:03:25Z</time>
      </trkpt>
      <trkpt lat="47.23652" lon="-1.47256">
        <ele>59</ele>
        <time>2022-08-06T09:03:27Z</time>
      </trkpt>
      <trkpt lat="47.2364" lon="-1.4727">
        <ele>59</ele>
        <time>2022-08-06T09:03:29Z</time>
      </trkpt>
      <trkpt lat="47.23628" lon="-1.47283">
        <ele>60</ele>
        <time>2022-08-06T09:03:31Z</time>
      </trkpt>
      <trkpt lat="47.23615" lon="-1.47297">
        <ele>60</ele>
        <time>2022-08-06T09:03:33Z</time>
      </trkpt>
      <trkpt lat="47.23603" lon="-1.47309">
        <ele>60</ele>
        <time>2022-08-06T09:03:35Z</time>
      </trkpt>
      <trkpt lat="47.23591" lon="-1.47321">
        <ele>60</ele>
        <time>2022-08-06T09:03:37Z</time>
      </trkpt>
      <trkpt lat="47.23579" lon="-1.47332">
        <ele>60</ele>
        <time>2022-08-06T09:03:39Z</time>
      </trkpt>
      <trkpt lat="47.23566" lon="-1.47342">
        <ele>60</ele>
        <time>2022-08-06T09:03:41Z</time>
      </trkpt>
      <trkpt lat="47.23553" lon="-1.47353">
        <ele>60</ele>
        <time>2022-08-06T09:03:43Z</time>
      </trkpt>
      <trkpt lat="47.2354" lon="-1.47364">
        <ele>60</ele>
        <time>2022-08-06T09:03:45Z</time>
      </trkpt>
      <trkpt lat="47.23528" lon="-1.47375">
        <ele>60</ele>
        <time>2022-08-06T09:03:47Z</time>
      </trkpt>
      <trkpt lat="47.23515" lon="-1.47384">
        <ele>60</ele>
        <time>2022-08-06T09:03:49Z</time>
      </trkpt>
      <trkpt lat="47.23502" lon="-1.47395">
        <ele>60</ele>
        <time>2022-08-06T09:03:51Z</time>
      </trkpt>
      <trkpt lat="47.23489" lon="-1.47404">
        <ele>60</ele>
        <time>2022-08-06T09:03:53Z</time>
      </trkpt>
      <trkpt lat="47.23477" lon="-1.47411">
        <ele>60</ele>
        <time>2022-08-06T09:03:55Z</time>
      </trkpt>
      <trkpt lat="47.23463" lon="-1.47416">
        <ele>61</ele>
        <time>2022-08-06T09:03:57Z</time>
      </trkpt>
      <trkpt lat="47.23451" lon="-1.47422">
        <ele>61</ele>
        <time>2022-08-06T09:03:59Z</time>
      </trkpt>
      <trkpt lat="47.23439" lon="-1.47426">
        <ele>61</ele>
        <time>2022-08-06T09:04:01Z</time>
      </trkpt>
      <trkpt lat="47.23426" lon="-1.47432">
        <ele>61</ele>
        <time>2022-08-06T09:04:03Z</time>
      </trkpt>
      <trkpt lat="47.23414" lon="-1.47441">
        <ele>61</ele>
        <time>2022-08-06T09:04:05Z</time>
      </trkpt>
      <trkpt lat="47.23401" lon="-1.4745">
        <ele>61</ele>
        <time>2022-08-06T09:04:07Z</time>
      </trkpt>
      <trkpt lat="47.23388" lon="-1.47458">
        <ele>61</ele>
        <time>2022-08-06T09:04:09Z</time>
      </trkpt>
      <trkpt lat="47.23375" lon="-1.47465">
        <ele>61</ele>
        <time>2022-08-06T09:04:11Z</time>
      </trkpt>
      <trkpt lat="47.23361" lon="-1.47471">
        <ele>61</ele>
        <time>2022-08-06T09:04:13Z</time>
      </trkpt>
      <trkpt lat="47.23349" lon="-1.47477">
        <ele>60</ele>
        <time>2022-08-06T09:04:15Z</time>
      </trkpt>
      <trkpt lat="47.23336" lon="-1.47484">
        <ele>60</ele>
        <time>2022-08-06T09:04:17Z</time>
      </trkpt>
      <trkpt lat="47.23324" lon="-1.47495">
        <ele>60</ele>
        <time>2022-08-06T09:04:19Z</time>
      </trkpt>
      <trkpt lat="47.23304" lon="-1.47506">
        <ele>61</ele>
        <time>2022-08-06T09:04:22Z</time>
      </trkpt>
      <trkpt lat="47.2329" lon="-1.47512">
        <ele>61</ele>
        <time>2022-08-06T09:04:24Z</time>
      </trkpt>
      <trkpt lat="47.23278" lon="-1.47519">
        <ele>62</ele>
        <time>2022-08-06T09:04:26Z</time>
      </trkpt>
      <trkpt lat="47.23267" lon="-1.47533">
        <ele>62</ele>
        <time>2022-08-06T09:04:28Z</time>
      </trkpt>
      <trkpt lat="47.23258" lon="-1.47549">
        <ele>62</ele>
        <time>2022-08-06T09:04:30Z</time>
      </trkpt>
      <trkpt lat="47.23249" lon="-1.47565">
        <ele>61</ele>
        <time>2022-08-06T09:04:32Z</time>
      </trkpt>
      <trkpt lat="47.23237" lon="-1.47588">
        <ele>62</ele>
        <time>2022-08-06T09:04:35Z</time>
      </trkpt>
      <trkpt lat="47.2323" lon="-1.47602">
        <ele>62</ele>
        <time>2022-08-06T09:04:37Z</time>
      </trkpt>
      <trkpt lat="47.23222" lon="-1.47621">
        <ele>62</ele>
        <time>2022-08-06T09:04:39Z</time>
      </trkpt>
      <trkpt lat="47.23213" lon="-1.47647">
        <ele>62</ele>
        <time>2022-08-06T09:04:42Z</time>
      </trkpt>
      <trkpt lat="47.23206" lon="-1.47664">
        <ele>61</ele>
        <time>2022-08-06T09:04:44Z</time>
      </trkpt>
      <trkpt lat="47.23199" lon="-1.4768">
        <ele>62</ele>
        <time>2022-08-06T09:04:46Z</time>
      </trkpt>
      <trkpt lat="47.23192" lon="-1.47696">
        <ele>62</ele>
        <time>2022-08-06T09:04:48Z</time>
      </trkpt>
      <trkpt lat="47.23183" lon="-1.47713">
        <ele>62</ele>
        <time>2022-08-06T09:04:50Z</time>
      </trkpt>
      <trkpt lat="47.23175" lon="-1.47731">
        <ele>62</ele>
        <time>2022-08-06T09:04:52Z</time>
      </trkpt>
      <trkpt lat="47.23168" lon="-1.47747">
        <ele>62</ele>
        <time>2022-08-06T09:04:54Z</time>
      </trkpt>
      <trkpt lat="47.2316" lon="-1.47763">
        <ele>61</ele>
        <time>2022-08-06T09:04:56Z</time>
      </trkpt>
      <trkpt lat="47.2315" lon="-1.47788">
        <ele>61</ele>
        <time>2022-08-06T09:04:59Z</time>
      </trkpt>
      <trkpt lat="47.23141" lon="-1.47814">
        <ele>61</ele>
        <time>2022-08-06T09:05:02Z</time>
      </trkpt>
      <trkpt lat="47.23134" lon="-1.47829">
        <ele>61</ele>
        <time>2022-08-06T09:05:04Z</time>
      </trkpt>
      <trkpt lat="47.23127" lon="-1.47849">
        <ele>61</ele>
        <time>2022-08-06T09:05:06Z</time>
      </trkpt>
      <trkpt lat="47.23118" lon="-1.47864">
        <ele>61</ele>
        <time>2022-08-06T09:05:08Z</time>
      </trkpt>
      <trkpt lat="47.23109" lon="-1.47878">
        <ele>61</ele>
        <time>2022-08-06T09:05:10Z</time>
      </trkpt>
      <trkpt lat="47.231" lon="-1.47892">
        <ele>60</ele>
        <time>2022-08-06T09:05:12Z</time>
      </trkpt>
      <trkpt lat="47.2309" lon="-1.47905">
        <ele>60</ele>
        <time>2022-08-06T09:05:14Z</time>
      </trkpt>
      <trkpt lat="47.23079" lon="-1.47919">
        <ele>60</ele>
        <time>2022-08-06T09:05:16Z</time>
      </trkpt>
      <trkpt lat="47.23071" lon="-1.47931">
        <ele>60</ele>
        <time>2022-08-06T09:05:18Z</time>
      </trkpt>
      <trkpt lat="47.23062" lon="-1.47945">
        <ele>60</ele>
        <time>2022-08-06T09:05:20Z</time>
      </trkpt>
      <trkpt lat="47.23051" lon="-1.47958">
        <ele>60</ele>
        <time>2022-08-06T09:05:22Z</time>
      </trkpt>
      <trkpt lat="47.2304" lon="-1.47971">
        <ele>61</ele>
        <time>2022-08-06T09:05:24Z</time>
      </trkpt>
      <trkpt lat="47.2303" lon="-1.47984">
        <ele>60</ele>
        <time>2022-08-06T09:05:26Z</time>
      </trkpt>
      <trkpt lat="47.23021" lon="-1.47998">
        <ele>60</ele>
        <time>2022-08-06T09:05:28Z</time>
      </trkpt>
      <trkpt lat="47.23011" lon="-1.48012">
        <ele>60</ele>
        <time>2022-08-06T09:05:30Z</time>
      </trkpt>
      <trkpt lat="47.23002" lon="-1.48027">
        <ele>60</ele>
        <time>2022-08-06T09:05:32Z</time>
      </trkpt>
      <trkpt lat="47.22993" lon="-1.48042">
        <ele>60</ele>
        <time>2022-08-06T09:05:34Z</time>
      </trkpt>
      <trkpt lat="47.22984" lon="-1.48057">
        <ele>60</ele>
        <time>2022-08-06T09:05:36Z</time>
      </trkpt>
      <trkpt lat="47.22975" lon="-1.48072">
        <ele>60</ele>
        <time>2022-08-06T09:05:38Z</time>
      </trkpt>
      <trkpt lat="47.22967" lon="-1.48086">
        <ele>60</ele>
        <time>2022-08-06T09:05:40Z</time>
      </trkpt>
      <trkpt lat="47.22959" lon="-1.48101">
        <ele>60</ele>
        <time>2022-08-06T09:05:42Z</time>
      </trkpt>
      <trkpt lat="47.22949" lon="-1.48111">
        <ele>60</ele>
        <time>2022-08-06T09:05:44Z</time>
      </trkpt>
      <trkpt lat="47.22936" lon="-1.48111">
        <ele>60</ele>
        <time>2022-08-06T09:05:46Z</time>
      </trkpt>
      <trkpt lat="47.22923" lon="-1.48115">
        <ele>61</ele>
        <time>2022-08-06T09:05:48Z</time>
      </trkpt>
      <trkpt lat="47.2291" lon="-1.48123">
        <ele>60</ele>
        <time>2022-08-06T09:05:50Z</time>
      </trkpt>
      <trkpt lat="47.22899" lon="-1.48134">
        <ele>60</ele>
        <time>2022-08-06T09:05:52Z</time>
      </trkpt>
      <trkpt lat="47.2289" lon="-1.48148">
        <ele>60</ele>
        <time>2022-08-06T09:05:54Z</time>
      </trkpt>
      <trkpt lat="47.22881" lon="-1.48162">
        <ele>60</ele>
        <time>2022-08-06T09:05:56Z</time>
      </trkpt>
      <trkpt lat="47.22872" lon="-1.48177">
        <ele>60</ele>
        <time>2022-08-06T09:05:58Z</time>
      </trkpt>
      <trkpt lat="47.22863" lon="-1.48192">
        <ele>60</ele>
        <time>2022-08-06T09:06:00Z</time>
      </trkpt>
      <trkpt lat="47.22854" lon="-1.48208">
        <ele>60</ele>
        <time>2022-08-06T09:06:02Z</time>
      </trkpt>
      <trkpt lat="47.22844" lon="-1.48223">
        <ele>60</ele>
        <time>2022-08-06T09:06:04Z</time>
      </trkpt>
      <trkpt lat="47.22835" lon="-1.48238">
        <ele>60</ele>
        <time>2022-08-06T09:06:06Z</time>
      </trkpt>
      <trkpt lat="47.22826" lon="-1.48251">
        <ele>61</ele>
        <time>2022-08-06T09:06:08Z</time>
      </trkpt>
      <trkpt lat="47.22816" lon="-1.48266">
        <ele>60</ele>
        <time>2022-08-06T09:06:10Z</time>
      </trkpt>
      <trkpt lat="47.22806" lon="-1.48281">
        <ele>60</ele>
        <time>2022-08-06T09:06:12Z</time>
      </trkpt>
      <trkpt lat="47.22797" lon="-1.48296">
        <ele>60</ele>
        <time>2022-08-06T09:06:14Z</time>
      </trkpt>
      <trkpt lat="47.22787" lon="-1.48312">
        <ele>60</ele>
        <time>2022-08-06T09:06:16Z</time>
      </trkpt>
      <trkpt lat="47.22778" lon="-1.48327">
        <ele>60</ele>
        <time>2022-08-06T09:06:18Z</time>
      </trkpt>
      <trkpt lat="47.22768" lon="-1.48342">
        <ele>60</ele>
        <time>2022-08-06T09:06:20Z</time>
      </trkpt>
      <trkpt lat="47.22758" lon="-1.48356">
        <ele>60</ele>
        <time>2022-08-06T09:06:22Z</time>
      </trkpt>
      <trkpt lat="47.22748" lon="-1.48369">
        <ele>61</ele>
        <time>2022-08-06T09:06:24Z</time>
      </trkpt>
      <trkpt lat="47.22737" lon="-1.48383">
        <ele>61</ele>
        <time>2022-08-06T09:06:26Z</time>
      </trkpt>
      <trkpt lat="47.22727" lon="-1.48396">
        <ele>61</ele>
        <time>2022-08-06T09:06:28Z</time>
      </trkpt>
      <trkpt lat="47.22718" lon="-1.4841">
        <ele>61</ele>
        <time>2022-08-06T09:06:30Z</time>
      </trkpt>
      <trkpt lat="47.2271" lon="-1.48427">
        <ele>60</ele>
        <time>2022-08-06T09:06:32Z</time>
      </trkpt>
      <trkpt lat="47.22703" lon="-1.48445">
        <ele>60</ele>
        <time>2022-08-06T09:06:34Z</time>
      </trkpt>
      <trkpt lat="47.22697" lon="-1.48463">
        <ele>60</ele>
        <time>2022-08-06T09:06:36Z</time>
      </trkpt>
      <trkpt lat="47.22686" lon="-1.48488">
        <ele>60</ele>
        <time>2022-08-06T09:06:39Z</time>
      </trkpt>
      <trkpt lat="47.22678" lon="-1.48505">
        <ele>61</ele>
        <time>2022-08-06T09:06:41Z</time>
      </trkpt>
      <trkpt lat="47.22672" lon="-1.48522">
        <ele>61</ele>
        <time>2022-08-06T09:06:43Z</time>
      </trkpt>
      <trkpt lat="47.22666" lon="-1.48541">
        <ele>60</ele>
        <time>2022-08-06T09:06:45Z</time>
      </trkpt>
      <trkpt lat="47.2266" lon="-1.4856">
        <ele>59</ele>
        <time>2022-08-06T09:06:47Z</time>
      </trkpt>
      <trkpt lat="47.22653" lon="-1.48578">
        <ele>58</ele>
        <time>2022-08-06T09:06:49Z</time>
      </trkpt>
      <trkpt lat="47.22647" lon="-1.48594">
        <ele>58</ele>
        <time>2022-08-06T09:06:51Z</time>
      </trkpt>
      <trkpt lat="47.22641" lon="-1.4861">
        <ele>59</ele>
        <time>2022-08-06T09:06:53Z</time>
      </trkpt>
      <trkpt lat="47.22636" lon="-1.48627">
        <ele>59</ele>
        <time>2022-08-06T09:06:55Z</time>
      </trkpt>
      <trkpt lat="47.2263" lon="-1.48645">
        <ele>60</ele>
        <time>2022-08-06T09:06:57Z</time>
      </trkpt>
      <trkpt lat="47.22622" lon="-1.48663">
        <ele>60</ele>
        <time>2022-08-06T09:06:59Z</time>
      </trkpt>
      <trkpt lat="47.22615" lon="-1.48682">
        <ele>61</ele>
        <time>2022-08-06T09:07:01Z</time>
      </trkpt>
      <trkpt lat="47.22609" lon="-1.48703">
        <ele>60</ele>
        <time>2022-08-06T09:07:03Z</time>
      </trkpt>
      <trkpt lat="47.22604" lon="-1.48722">
        <ele>60</ele>
        <time>2022-08-06T09:07:05Z</time>
      </trkpt>
      <trkpt lat="47.22599" lon="-1.48741">
        <ele>61</ele>
        <time>2022-08-06T09:07:07Z</time>
      </trkpt>
      <trkpt lat="47.22594" lon="-1.4876">
        <ele>62</ele>
        <time>2022-08-06T09:07:09Z</time>
      </trkpt>
      <trkpt lat="47.2259" lon="-1.48778">
        <ele>62</ele>
        <time>2022-08-06T09:07:11Z</time>
      </trkpt>
      <trkpt lat="47.22585" lon="-1.48797">
        <ele>61</ele>
        <time>2022-08-06T09:07:13Z</time>
      </trkpt>
      <trkpt lat="47.22579" lon="-1.48816">
        <ele>61</ele>
        <time>2022-08-06T09:07:15Z</time>
      </trkpt>
      <trkpt lat="47.22572" lon="-1.48832">
        <ele>62</ele>
        <time>2022-08-06T09:07:17Z</time>
      </trkpt>
      <trkpt lat="47.22568" lon="-1.48848">
        <ele>63</ele>
        <time>2022-08-06T09:07:19Z</time>
      </trkpt>
      <trkpt lat="47.22562" lon="-1.48867">
        <ele>63</ele>
        <time>2022-08-06T09:07:21Z</time>
      </trkpt>
      <trkpt lat="47.22556" lon="-1.48885">
        <ele>63</ele>
        <time>2022-08-06T09:07:23Z</time>
      </trkpt>
      <trkpt lat="47.2255" lon="-1.48904">
        <ele>63</ele>
        <time>2022-08-06T09:07:25Z</time>
      </trkpt>
      <trkpt lat="47.22544" lon="-1.48925">
        <ele>63</ele>
        <time>2022-08-06T09:07:27Z</time>
      </trkpt>
      <trkpt lat="47.22538" lon="-1.48944">
        <ele>62</ele>
        <time>2022-08-06T09:07:29Z</time>
      </trkpt>
      <trkpt lat="47.22532" lon="-1.48963">
        <ele>62</ele>
        <time>2022-08-06T09:07:31Z</time>
      </trkpt>
      <trkpt lat="47.22524" lon="-1.48981">
        <ele>63</ele>
        <time>2022-08-06T09:07:33Z</time>
      </trkpt>
      <trkpt lat="47.22518" lon="-1.49">
        <ele>63</ele>
        <time>2022-08-06T09:07:35Z</time>
      </trkpt>
      <trkpt lat="47.22514" lon="-1.49019">
        <ele>64</ele>
        <time>2022-08-06T09:07:37Z</time>
      </trkpt>
      <trkpt lat="47.22508" lon="-1.49038">
        <ele>64</ele>
        <time>2022-08-06T09:07:39Z</time>
      </trkpt>
      <trkpt lat="47.22503" lon="-1.49057">
        <ele>64</ele>
        <time>2022-08-06T09:07:41Z</time>
      </trkpt>
      <trkpt lat="47.22499" lon="-1.49076">
        <ele>65</ele>
        <time>2022-08-06T09:07:43Z</time>
      </trkpt>
      <trkpt lat="47.22493" lon="-1.49095">
        <ele>65</ele>
        <time>2022-08-06T09:07:45Z</time>
      </trkpt>
      <trkpt lat="47.22487" lon="-1.49115">
        <ele>65</ele>
        <time>2022-08-06T09:07:47Z</time>
      </trkpt>
      <trkpt lat="47.22481" lon="-1.49135">
        <ele>64</ele>
        <time>2022-08-06T09:07:49Z</time>
      </trkpt>
      <trkpt lat="47.22475" lon="-1.49154">
        <ele>65</ele>
        <time>2022-08-06T09:07:51Z</time>
      </trkpt>
      <trkpt lat="47.22467" lon="-1.49173">
        <ele>63</ele>
        <time>2022-08-06T09:07:53Z</time>
      </trkpt>
      <trkpt lat="47.22459" lon="-1.49192">
        <ele>63</ele>
        <time>2022-08-06T09:07:55Z</time>
      </trkpt>
      <trkpt lat="47.22452" lon="-1.49209">
        <ele>62</ele>
        <time>2022-08-06T09:07:57Z</time>
      </trkpt>
      <trkpt lat="47.22446" lon="-1.49227">
        <ele>62</ele>
        <time>2022-08-06T09:07:59Z</time>
      </trkpt>
      <trkpt lat="47.22439" lon="-1.49246">
        <ele>61</ele>
        <time>2022-08-06T09:08:01Z</time>
      </trkpt>
      <trkpt lat="47.22432" lon="-1.49264">
        <ele>60</ele>
        <time>2022-08-06T09:08:03Z</time>
      </trkpt>
      <trkpt lat="47.22424" lon="-1.49281">
        <ele>60</ele>
        <time>2022-08-06T09:08:05Z</time>
      </trkpt>
      <trkpt lat="47.22417" lon="-1.49298">
        <ele>60</ele>
        <time>2022-08-06T09:08:07Z</time>
      </trkpt>
      <trkpt lat="47.22411" lon="-1.49316">
        <ele>60</ele>
        <time>2022-08-06T09:08:09Z</time>
      </trkpt>
      <trkpt lat="47.22404" lon="-1.49334">
        <ele>60</ele>
        <time>2022-08-06T09:08:11Z</time>
      </trkpt>
      <trkpt lat="47.22397" lon="-1.49352">
        <ele>60</ele>
        <time>2022-08-06T09:08:13Z</time>
      </trkpt>
      <trkpt lat="47.22391" lon="-1.49369">
        <ele>60</ele>
        <time>2022-08-06T09:08:15Z</time>
      </trkpt>
      <trkpt lat="47.22385" lon="-1.49386">
        <ele>60</ele>
        <time>2022-08-06T09:08:17Z</time>
      </trkpt>
      <trkpt lat="47.22379" lon="-1.49401">
        <ele>61</ele>
        <time>2022-08-06T09:08:19Z</time>
      </trkpt>
      <trkpt lat="47.22373" lon="-1.49416">
        <ele>61</ele>
        <time>2022-08-06T09:08:21Z</time>
      </trkpt>
      <trkpt lat="47.22368" lon="-1.49428">
        <ele>62</ele>
        <time>2022-08-06T09:08:23Z</time>
      </trkpt>
      <trkpt lat="47.22363" lon="-1.4944">
        <ele>63</ele>
        <time>2022-08-06T09:08:25Z</time>
      </trkpt>
      <trkpt lat="47.22358" lon="-1.49454">
        <ele>63</ele>
        <time>2022-08-06T09:08:27Z</time>
      </trkpt>
      <trkpt lat="47.22351" lon="-1.49468">
        <ele>65</ele>
        <time>2022-08-06T09:08:29Z</time>
      </trkpt>
      <trkpt lat="47.22346" lon="-1.49487">
        <ele>65</ele>
        <time>2022-08-06T09:08:31Z</time>
      </trkpt>
      <trkpt lat="47.22339" lon="-1.49508">
        <ele>65</ele>
        <time>2022-08-06T09:08:33Z</time>
      </trkpt>
      <trkpt lat="47.22332" lon="-1.49528">
        <ele>64</ele>
        <time>2022-08-06T09:08:35Z</time>
      </trkpt>
      <trkpt lat="47.22325" lon="-1.49547">
        <ele>63</ele>
        <time>2022-08-06T09:08:37Z</time>
      </trkpt>
      <trkpt lat="47.2232" lon="-1.49566">
        <ele>62</ele>
        <time>2022-08-06T09:08:39Z</time>
      </trkpt>
      <trkpt lat="47.22313" lon="-1.49584">
        <ele>61</ele>
        <time>2022-08-06T09:08:41Z</time>
      </trkpt>
      <trkpt lat="47.22307" lon="-1.49601">
        <ele>62</ele>
        <time>2022-08-06T09:08:43Z</time>
      </trkpt>
      <trkpt lat="47.22301" lon="-1.49619">
        <ele>62</ele>
        <time>2022-08-06T09:08:45Z</time>
      </trkpt>
      <trkpt lat="47.22297" lon="-1.49637">
        <ele>62</ele>
        <time>2022-08-06T09:08:47Z</time>
      </trkpt>
      <trkpt lat="47.22291" lon="-1.49656">
        <ele>62</ele>
        <time>2022-08-06T09:08:49Z</time>
      </trkpt>
      <trkpt lat="47.22285" lon="-1.49674">
        <ele>62</ele>
        <time>2022-08-06T09:08:51Z</time>
      </trkpt>
      <trkpt lat="47.22279" lon="-1.49691">
        <ele>61</ele>
        <time>2022-08-06T09:08:53Z</time>
      </trkpt>
      <trkpt lat="47.22273" lon="-1.4971">
        <ele>61</ele>
        <time>2022-08-06T09:08:55Z</time>
      </trkpt>
      <trkpt lat="47.22267" lon="-1.49727">
        <ele>61</ele>
        <time>2022-08-06T09:08:57Z</time>
      </trkpt>
      <trkpt lat="47.22262" lon="-1.49745">
        <ele>61</ele>
        <time>2022-08-06T09:08:59Z</time>
      </trkpt>
      <trkpt lat="47.22258" lon="-1.49764">
        <ele>60</ele>
        <time>2022-08-06T09:09:01Z</time>
      </trkpt>
      <trkpt lat="47.22255" lon="-1.49784">
        <ele>60</ele>
        <time>2022-08-06T09:09:03Z</time>
      </trkpt>
      <trkpt lat="47.22252" lon="-1.49804">
        <ele>60</ele>
        <time>2022-08-06T09:09:05Z</time>
      </trkpt>
      <trkpt lat="47.22249" lon="-1.49824">
        <ele>60</ele>
        <time>2022-08-06T09:09:07Z</time>
      </trkpt>
      <trkpt lat="47.22245" lon="-1.49842">
        <ele>61</ele>
        <time>2022-08-06T09:09:09Z</time>
      </trkpt>
      <trkpt lat="47.22242" lon="-1.49861">
        <ele>62</ele>
        <time>2022-08-06T09:09:11Z</time>
      </trkpt>
      <trkpt lat="47.22239" lon="-1.4988">
        <ele>62</ele>
        <time>2022-08-06T09:09:13Z</time>
      </trkpt>
      <trkpt lat="47.22236" lon="-1.49901">
        <ele>62</ele>
        <time>2022-08-06T09:09:15Z</time>
      </trkpt>
      <trkpt lat="47.22231" lon="-1.49921">
        <ele>62</ele>
        <time>2022-08-06T09:09:17Z</time>
      </trkpt>
      <trkpt lat="47.22225" lon="-1.49941">
        <ele>62</ele>
        <time>2022-08-06T09:09:19Z</time>
      </trkpt>
      <trkpt lat="47.22219" lon="-1.49959">
        <ele>62</ele>
        <time>2022-08-06T09:09:21Z</time>
      </trkpt>
      <trkpt lat="47.22214" lon="-1.49976">
        <ele>63</ele>
        <time>2022-08-06T09:09:23Z</time>
      </trkpt>
      <trkpt lat="47.22207" lon="-1.49991">
        <ele>64</ele>
        <time>2022-08-06T09:09:25Z</time>
      </trkpt>
      <trkpt lat="47.222" lon="-1.50011">
        <ele>62</ele>
        <time>2022-08-06T09:09:27Z</time>
      </trkpt>
      <trkpt lat="47.22196" lon="-1.50033">
        <ele>62</ele>
        <time>2022-08-06T09:09:29Z</time>
      </trkpt>
      <trkpt lat="47.22192" lon="-1.50055">
        <ele>62</ele>
        <time>2022-08-06T09:09:31Z</time>
      </trkpt>
      <trkpt lat="47.22188" lon="-1.50075">
        <ele>63</ele>
        <time>2022-08-06T09:09:33Z</time>
      </trkpt>
      <trkpt lat="47.22183" lon="-1.50096">
        <ele>62</ele>
        <time>2022-08-06T09:09:35Z</time>
      </trkpt>
      <trkpt lat="47.22176" lon="-1.50116">
        <ele>62</ele>
        <time>2022-08-06T09:09:37Z</time>
      </trkpt>
      <trkpt lat="47.22169" lon="-1.50136">
        <ele>62</ele>
        <time>2022-08-06T09:09:39Z</time>
      </trkpt>
      <trkpt lat="47.22162" lon="-1.50156">
        <ele>61</ele>
        <time>2022-08-06T09:09:41Z</time>
      </trkpt>
      <trkpt lat="47.22156" lon="-1.50177">
        <ele>61</ele>
        <time>2022-08-06T09:09:43Z</time>
      </trkpt>
      <trkpt lat="47.22152" lon="-1.50198">
        <ele>61</ele>
        <time>2022-08-06T09:09:45Z</time>
      </trkpt>
      <trkpt lat="47.22148" lon="-1.50217">
        <ele>60</ele>
        <time>2022-08-06T09:09:47Z</time>
      </trkpt>
      <trkpt lat="47.22144" lon="-1.50236">
        <ele>60</ele>
        <time>2022-08-06T09:09:49Z</time>
      </trkpt>
      <trkpt lat="47.22138" lon="-1.50255">
        <ele>60</ele>
        <time>2022-08-06T09:09:51Z</time>
      </trkpt>
      <trkpt lat="47.2213" lon="-1.50274">
        <ele>60</ele>
        <time>2022-08-06T09:09:53Z</time>
      </trkpt>
      <trkpt lat="47.22121" lon="-1.50293">
        <ele>60</ele>
        <time>2022-08-06T09:09:55Z</time>
      </trkpt>
      <trkpt lat="47.22112" lon="-1.50309">
        <ele>61</ele>
        <time>2022-08-06T09:09:57Z</time>
      </trkpt>
      <trkpt lat="47.22104" lon="-1.50325">
        <ele>61</ele>
        <time>2022-08-06T09:09:59Z</time>
      </trkpt>
      <trkpt lat="47.22096" lon="-1.50341">
        <ele>61</ele>
        <time>2022-08-06T09:10:01Z</time>
      </trkpt>
      <trkpt lat="47.22092" lon="-1.50363">
        <ele>60</ele>
        <time>2022-08-06T09:10:03Z</time>
      </trkpt>
      <trkpt lat="47.22088" lon="-1.50382">
        <ele>60</ele>
        <time>2022-08-06T09:10:05Z</time>
      </trkpt>
      <trkpt lat="47.22083" lon="-1.50401">
        <ele>60</ele>
        <time>2022-08-06T09:10:07Z</time>
      </trkpt>
      <trkpt lat="47.22078" lon="-1.5042">
        <ele>59</ele>
        <time>2022-08-06T09:10:09Z</time>
      </trkpt>
      <trkpt lat="47.22075" lon="-1.5044">
        <ele>59</ele>
        <time>2022-08-06T09:10:11Z</time>
      </trkpt>
      <trkpt lat="47.22071" lon="-1.50462">
        <ele>58</ele>
        <time>2022-08-06T09:10:13Z</time>
      </trkpt>
      <trkpt lat="47.22068" lon="-1.50482">
        <ele>59</ele>
        <time>2022-08-06T09:10:15Z</time>
      </trkpt>
      <trkpt lat="47.22066" lon="-1.50502">
        <ele>59</ele>
        <time>2022-08-06T09:10:17Z</time>
      </trkpt>
      <trkpt lat="47.22064" lon="-1.50523">
        <ele>59</ele>
        <time>2022-08-06T09:10:19Z</time>
      </trkpt>
      <trkpt lat="47.22063" lon="-1.50542">
        <ele>59</ele>
        <time>2022-08-06T09:10:21Z</time>
      </trkpt>
      <trkpt lat="47.22062" lon="-1.50562">
        <ele>58</ele>
        <time>2022-08-06T09:10:23Z</time>
      </trkpt>
      <trkpt lat="47.22063" lon="-1.5058">
        <ele>59</ele>
        <time>2022-08-06T09:10:25Z</time>
      </trkpt>
      <trkpt lat="47.22062" lon="-1.50599">
        <ele>60</ele>
        <time>2022-08-06T09:10:27Z</time>
      </trkpt>
      <trkpt lat="47.22061" lon="-1.50618">
        <ele>60</ele>
        <time>2022-08-06T09:10:29Z</time>
      </trkpt>
      <trkpt lat="47.2206" lon="-1.50636">
        <ele>61</ele>
        <time>2022-08-06T09:10:31Z</time>
      </trkpt>
      <trkpt lat="47.22058" lon="-1.50654">
        <ele>62</ele>
        <time>2022-08-06T09:10:33Z</time>
      </trkpt>
      <trkpt lat="47.22057" lon="-1.50672">
        <ele>62</ele>
        <time>2022-08-06T09:10:35Z</time>
      </trkpt>
      <trkpt lat="47.22056" lon="-1.50691">
        <ele>62</ele>
        <time>2022-08-06T09:10:37Z</time>
      </trkpt>
      <trkpt lat="47.22055" lon="-1.50709">
        <ele>62</ele>
        <time>2022-08-06T09:10:39Z</time>
      </trkpt>
      <trkpt lat="47.22052" lon="-1.50729">
        <ele>62</ele>
        <time>2022-08-06T09:10:41Z</time>
      </trkpt>
      <trkpt lat="47.2205" lon="-1.50749">
        <ele>62</ele>
        <time>2022-08-06T09:10:43Z</time>
      </trkpt>
      <trkpt lat="47.22048" lon="-1.50769">
        <ele>63</ele>
        <time>2022-08-06T09:10:45Z</time>
      </trkpt>
      <trkpt lat="47.22043" lon="-1.50786">
        <ele>63</ele>
        <time>2022-08-06T09:10:47Z</time>
      </trkpt>
      <trkpt lat="47.22036" lon="-1.50804">
        <ele>63</ele>
        <time>2022-08-06T09:10:49Z</time>
      </trkpt>
      <trkpt lat="47.22031" lon="-1.5082">
        <ele>63</ele>
        <time>2022-08-06T09:10:51Z</time>
      </trkpt>
      <trkpt lat="47.22026" lon="-1.50835">
        <ele>63</ele>
        <time>2022-08-06T09:10:53Z</time>
      </trkpt>
      <trkpt lat="47.22019" lon="-1.50853">
        <ele>63</ele>
        <time>2022-08-06T09:10:55Z</time>
      </trkpt>
      <trkpt lat="47.22009" lon="-1.50873">
        <ele>62</ele>
        <time>2022-08-06T09:10:57Z</time>
      </trkpt>
      <trkpt lat="47.22002" lon="-1.50892">
        <ele>62</ele>
        <time>2022-08-06T09:10:59Z</time>
      </trkpt>
      <trkpt lat="47.21996" lon="-1.5091">
        <ele>61</ele>
        <time>2022-08-06T09:11:01Z</time>
      </trkpt>
      <trkpt lat="47.2199" lon="-1.50928">
        <ele>60</ele>
        <time>2022-08-06T09:11:03Z</time>
      </trkpt>
      <trkpt lat="47.21984" lon="-1.50946">
        <ele>59</ele>
        <time>2022-08-06T09:11:05Z</time>
      </trkpt>
      <trkpt lat="47.21979" lon="-1.50964">
        <ele>59</ele>
        <time>2022-08-06T09:11:07Z</time>
      </trkpt>
      <trkpt lat="47.21973" lon="-1.50982">
        <ele>59</ele>
        <time>2022-08-06T09:11:09Z</time>
      </trkpt>
      <trkpt lat="47.21969" lon="-1.51">
        <ele>58</ele>
        <time>2022-08-06T09:11:11Z</time>
      </trkpt>
      <trkpt lat="47.21964" lon="-1.51018">
        <ele>58</ele>
        <time>2022-08-06T09:11:13Z</time>
      </trkpt>
      <trkpt lat="47.21959" lon="-1.51035">
        <ele>57</ele>
        <time>2022-08-06T09:11:15Z</time>
      </trkpt>
      <trkpt lat="47.21954" lon="-1.51051">
        <ele>57</ele>
        <time>2022-08-06T09:11:17Z</time>
      </trkpt>
      <trkpt lat="47.21948" lon="-1.51062">
        <ele>58</ele>
        <time>2022-08-06T09:11:19Z</time>
      </trkpt>
      <trkpt lat="47.21939" lon="-1.51075">
        <ele>58</ele>
        <time>2022-08-06T09:11:21Z</time>
      </trkpt>
      <trkpt lat="47.21932" lon="-1.51093">
        <ele>58</ele>
        <time>2022-08-06T09:11:23Z</time>
      </trkpt>
      <trkpt lat="47.21925" lon="-1.51114">
        <ele>58</ele>
        <time>2022-08-06T09:11:25Z</time>
      </trkpt>
      <trkpt lat="47.21919" lon="-1.51134">
        <ele>58</ele>
        <time>2022-08-06T09:11:27Z</time>
      </trkpt>
      <trkpt lat="47.21913" lon="-1.51154">
        <ele>58</ele>
        <time>2022-08-06T09:11:29Z</time>
      </trkpt>
      <trkpt lat="47.21906" lon="-1.51173">
        <ele>58</ele>
        <time>2022-08-06T09:11:31Z</time>
      </trkpt>
      <trkpt lat="47.219" lon="-1.5119">
        <ele>58</ele>
        <time>2022-08-06T09:11:33Z</time>
      </trkpt>
      <trkpt lat="47.21895" lon="-1.51209">
        <ele>58</ele>
        <time>2022-08-06T09:11:35Z</time>
      </trkpt>
      <trkpt lat="47.21888" lon="-1.51228">
        <ele>58</ele>
        <time>2022-08-06T09:11:37Z</time>
      </trkpt>
      <trkpt lat="47.21882" lon="-1.51246">
        <ele>57</ele>
        <time>2022-08-06T09:11:39Z</time>
      </trkpt>
      <trkpt lat="47.21876" lon="-1.51265">
        <ele>57</ele>
        <time>2022-08-06T09:11:41Z</time>
      </trkpt>
      <trkpt lat="47.2187" lon="-1.51283">
        <ele>57</ele>
        <time>2022-08-06T09:11:43Z</time>
      </trkpt>
      <trkpt lat="47.21865" lon="-1.51303">
        <ele>58</ele>
        <time>2022-08-06T09:11:45Z</time>
      </trkpt>
      <trkpt lat="47.21859" lon="-1.51322">
        <ele>58</ele>
        <time>2022-08-06T09:11:47Z</time>
      </trkpt>
      <trkpt lat="47.21854" lon="-1.51339">
        <ele>58</ele>
        <time>2022-08-06T09:11:49Z</time>
      </trkpt>
      <trkpt lat="47.21849" lon="-1.51357">
        <ele>58</ele>
        <time>2022-08-06T09:11:51Z</time>
      </trkpt>
      <trkpt lat="47.21845" lon="-1.51375">
        <ele>58</ele>
        <time>2022-08-06T09:11:53Z</time>
      </trkpt>
      <trkpt lat="47.2184" lon="-1.51393">
        <ele>58</ele>
        <time>2022-08-06T09:11:55Z</time>
      </trkpt>
      <trkpt lat="47.21836" lon="-1.51412">
        <ele>58</ele>
        <time>2022-08-06T09:11:57Z</time>
      </trkpt>
      <trkpt lat="47.21832" lon="-1.5143">
        <ele>59</ele>
        <time>2022-08-06T09:11:59Z</time>
      </trkpt>
      <trkpt lat="47.21828" lon="-1.51449">
        <ele>58</ele>
        <time>2022-08-06T09:12:01Z</time>
      </trkpt>
      <trkpt lat="47.21823" lon="-1.51467">
        <ele>58</ele>
        <time>2022-08-06T09:12:03Z</time>
      </trkpt>
      <trkpt lat="47.21819" lon="-1.51485">
        <ele>57</ele>
        <time>2022-08-06T09:12:05Z</time>
      </trkpt>
      <trkpt lat="47.21813" lon="-1.51503">
        <ele>57</ele>
        <time>2022-08-06T09:12:07Z</time>
      </trkpt>
      <trkpt lat="47.21805" lon="-1.51519">
        <ele>57</ele>
        <time>2022-08-06T09:12:09Z</time>
      </trkpt>
      <trkpt lat="47.21798" lon="-1.51536">
        <ele>57</ele>
        <time>2022-08-06T09:12:11Z</time>
      </trkpt>
      <trkpt lat="47.2179" lon="-1.51552">
        <ele>57</ele>
        <time>2022-08-06T09:12:13Z</time>
      </trkpt>
      <trkpt lat="47.21783" lon="-1.51568">
        <ele>58</ele>
        <time>2022-08-06T09:12:15Z</time>
      </trkpt>
      <trkpt lat="47.21775" lon="-1.51584">
        <ele>58</ele>
        <time>2022-08-06T09:12:17Z</time>
      </trkpt>
      <trkpt lat="47.21766" lon="-1.51597">
        <ele>58</ele>
        <time>2022-08-06T09:12:19Z</time>
      </trkpt>
      <trkpt lat="47.21757" lon="-1.5161">
        <ele>58</ele>
        <time>2022-08-06T09:12:21Z</time>
      </trkpt>
      <trkpt lat="47.21749" lon="-1.51626">
        <ele>58</ele>
        <time>2022-08-06T09:12:23Z</time>
      </trkpt>
      <trkpt lat="47.21743" lon="-1.51642">
        <ele>58</ele>
        <time>2022-08-06T09:12:25Z</time>
      </trkpt>
      <trkpt lat="47.21736" lon="-1.51658">
        <ele>58</ele>
        <time>2022-08-06T09:12:27Z</time>
      </trkpt>
      <trkpt lat="47.21728" lon="-1.51675">
        <ele>58</ele>
        <time>2022-08-06T09:12:29Z</time>
      </trkpt>
      <trkpt lat="47.21721" lon="-1.5169">
        <ele>58</ele>
        <time>2022-08-06T09:12:31Z</time>
      </trkpt>
      <trkpt lat="47.21717" lon="-1.51706">
        <ele>59</ele>
        <time>2022-08-06T09:12:33Z</time>
      </trkpt>
      <trkpt lat="47.21712" lon="-1.51721">
        <ele>59</ele>
        <time>2022-08-06T09:12:35Z</time>
      </trkpt>
      <trkpt lat="47.21706" lon="-1.5174">
        <ele>60</ele>
        <time>2022-08-06T09:12:37Z</time>
      </trkpt>
      <trkpt lat="47.21696" lon="-1.51758">
        <ele>60</ele>
        <time>2022-08-06T09:12:39Z</time>
      </trkpt>
      <trkpt lat="47.21687" lon="-1.51776">
        <ele>60</ele>
        <time>2022-08-06T09:12:41Z</time>
      </trkpt>
      <trkpt lat="47.21679" lon="-1.51792">
        <ele>61</ele>
        <time>2022-08-06T09:12:43Z</time>
      </trkpt>
      <trkpt lat="47.21672" lon="-1.51809">
        <ele>61</ele>
        <time>2022-08-06T09:12:45Z</time>
      </trkpt>
      <trkpt lat="47.21665" lon="-1.51825">
        <ele>62</ele>
        <time>2022-08-06T09:12:47Z</time>
      </trkpt>
      <trkpt lat="47.21658" lon="-1.51842">
        <ele>62</ele>
        <time>2022-08-06T09:12:49Z</time>
      </trkpt>
      <trkpt lat="47.21653" lon="-1.5186">
        <ele>62</ele>
        <time>2022-08-06T09:12:51Z</time>
      </trkpt>
      <trkpt lat="47.2165" lon="-1.51879">
        <ele>62</ele>
        <time>2022-08-06T09:12:53Z</time>
      </trkpt>
      <trkpt lat="47.21642" lon="-1.51896">
        <ele>62</ele>
        <time>2022-08-06T09:12:55Z</time>
      </trkpt>
      <trkpt lat="47.21636" lon="-1.51911">
        <ele>62</ele>
        <time>2022-08-06T09:12:57Z</time>
      </trkpt>
      <trkpt lat="47.2163" lon="-1.51929">
        <ele>62</ele>
        <time>2022-08-06T09:12:59Z</time>
      </trkpt>
      <trkpt lat="47.21625" lon="-1.51948">
        <ele>62</ele>
        <time>2022-08-06T09:13:01Z</time>
      </trkpt>
      <trkpt lat="47.21623" lon="-1.51967">
        <ele>61</ele>
        <time>2022-08-06T09:13:03Z</time>
      </trkpt>
      <trkpt lat="47.21617" lon="-1.51984">
        <ele>63</ele>
        <time>2022-08-06T09:13:05Z</time>
      </trkpt>
      <trkpt lat="47.21608" lon="-1.51997">
        <ele>62</ele>
        <time>2022-08-06T09:13:07Z</time>
      </trkpt>
      <trkpt lat="47.21601" lon="-1.52016">
        <ele>61</ele>
        <time>2022-08-06T09:13:09Z</time>
      </trkpt>
      <trkpt lat="47.21596" lon="-1.52034">
        <ele>61</ele>
        <time>2022-08-06T09:13:11Z</time>
      </trkpt>
      <trkpt lat="47.2159" lon="-1.52053">
        <ele>61</ele>
        <time>2022-08-06T09:13:13Z</time>
      </trkpt>
      <trkpt lat="47.21583" lon="-1.52071">
        <ele>60</ele>
        <time>2022-08-06T09:13:15Z</time>
      </trkpt>
      <trkpt lat="47.21576" lon="-1.5209">
        <ele>59</ele>
        <time>2022-08-06T09:13:17Z</time>
      </trkpt>
      <trkpt lat="47.21569" lon="-1.5211">
        <ele>58</ele>
        <time>2022-08-06T09:13:19Z</time>
      </trkpt>
      <trkpt lat="47.21563" lon="-1.52129">
        <ele>58</ele>
        <time>2022-08-06T09:13:21Z</time>
      </trkpt>
      <trkpt lat="47.21557" lon="-1.52148">
        <ele>58</ele>
        <time>2022-08-06T09:13:23Z</time>
      </trkpt>
      <trkpt lat="47.2155" lon="-1.52169">
        <ele>58</ele>
        <time>2022-08-06T09:13:25Z</time>
      </trkpt>
      <trkpt lat="47.21543" lon="-1.52189">
        <ele>58</ele>
        <time>2022-08-06T09:13:27Z</time>
      </trkpt>
      <trkpt lat="47.21537" lon="-1.5221">
        <ele>58</ele>
        <time>2022-08-06T09:13:29Z</time>
      </trkpt>
      <trkpt lat="47.2153" lon="-1.5223">
        <ele>58</ele>
        <time>2022-08-06T09:13:31Z</time>
      </trkpt>
      <trkpt lat="47.21523" lon="-1.5225">
        <ele>58</ele>
        <time>2022-08-06T09:13:33Z</time>
      </trkpt>
      <trkpt lat="47.21517" lon="-1.5227">
        <ele>58</ele>
        <time>2022-08-06T09:13:35Z</time>
      </trkpt>
      <trkpt lat="47.21509" lon="-1.52292">
        <ele>58</ele>
        <time>2022-08-06T09:13:37Z</time>
      </trkpt>
      <trkpt lat="47.21503" lon="-1.52313">
        <ele>58</ele>
        <time>2022-08-06T09:13:39Z</time>
      </trkpt>
      <trkpt lat="47.21497" lon="-1.52334">
        <ele>58</ele>
        <time>2022-08-06T09:13:41Z</time>
      </trkpt>
      <trkpt lat="47.21492" lon="-1.52354">
        <ele>58</ele>
        <time>2022-08-06T09:13:43Z</time>
      </trkpt>
      <trkpt lat="47.21486" lon="-1.52374">
        <ele>58</ele>
        <time>2022-08-06T09:13:45Z</time>
      </trkpt>
      <trkpt lat="47.21479" lon="-1.52395">
        <ele>58</ele>
        <time>2022-08-06T09:13:47Z</time>
      </trkpt>
      <trkpt lat="47.21471" lon="-1.52415">
        <ele>58</ele>
        <time>2022-08-06T09:13:49Z</time>
      </trkpt>
      <trkpt lat="47.21464" lon="-1.52435">
        <ele>58</ele>
        <time>2022-08-06T09:13:51Z</time>
      </trkpt>
      <trkpt lat="47.21457" lon="-1.52455">
        <ele>57</ele>
        <time>2022-08-06T09:13:53Z</time>
      </trkpt>
      <trkpt lat="47.2145" lon="-1.52475">
        <ele>57</ele>
        <time>2022-08-06T09:13:55Z</time>
      </trkpt>
      <trkpt lat="47.21444" lon="-1.52495">
        <ele>58</ele>
        <time>2022-08-06T09:13:57Z</time>
      </trkpt>
      <trkpt lat="47.21438" lon="-1.52516">
        <ele>58</ele>
        <time>2022-08-06T09:13:59Z</time>
      </trkpt>
      <trkpt lat="47.21431" lon="-1.52536">
        <ele>58</ele>
        <time>2022-08-06T09:14:01Z</time>
      </trkpt>
      <trkpt lat="47.21425" lon="-1.52556">
        <ele>58</ele>
        <time>2022-08-06T09:14:03Z</time>
      </trkpt>
      <trkpt lat="47.2142" lon="-1.52576">
        <ele>58</ele>
        <time>2022-08-06T09:14:05Z</time>
      </trkpt>
      <trkpt lat="47.21413" lon="-1.52595">
        <ele>58</ele>
        <time>2022-08-06T09:14:07Z</time>
      </trkpt>
      <trkpt lat="47.21407" lon="-1.52615">
        <ele>58</ele>
        <time>2022-08-06T09:14:09Z</time>
      </trkpt>
      <trkpt lat="47.21402" lon="-1.52634">
        <ele>58</ele>
        <time>2022-08-06T09:14:11Z</time>
      </trkpt>
      <trkpt lat="47.21398" lon="-1.52652">
        <ele>59</ele>
        <time>2022-08-06T09:14:13Z</time>
      </trkpt>
      <trkpt lat="47.21394" lon="-1.52671">
        <ele>59</ele>
        <time>2022-08-06T09:14:15Z</time>
      </trkpt>
      <trkpt lat="47.21389" lon="-1.52694">
        <ele>59</ele>
        <time>2022-08-06T09:14:17Z</time>
      </trkpt>
      <trkpt lat="47.21383" lon="-1.52717">
        <ele>60</ele>
        <time>2022-08-06T09:14:19Z</time>
      </trkpt>
      <trkpt lat="47.21378" lon="-1.52739">
        <ele>60</ele>
        <time>2022-08-06T09:14:21Z</time>
      </trkpt>
      <trkpt lat="47.21374" lon="-1.52761">
        <ele>59</ele>
        <time>2022-08-06T09:14:23Z</time>
      </trkpt>
      <trkpt lat="47.21369" lon="-1.52783">
        <ele>59</ele>
        <time>2022-08-06T09:14:25Z</time>
      </trkpt>
      <trkpt lat="47.21366" lon="-1.52803">
        <ele>59</ele>
        <time>2022-08-06T09:14:27Z</time>
      </trkpt>
      <trkpt lat="47.21363" lon="-1.52822">
        <ele>59</ele>
        <time>2022-08-06T09:14:29Z</time>
      </trkpt>
      <trkpt lat="47.21359" lon="-1.52841">
        <ele>59</ele>
        <time>2022-08-06T09:14:31Z</time>
      </trkpt>
      <trkpt lat="47.21355" lon="-1.52862">
        <ele>59</ele>
        <time>2022-08-06T09:14:33Z</time>
      </trkpt>
      <trkpt lat="47.21351" lon="-1.52882">
        <ele>58</ele>
        <time>2022-08-06T09:14:35Z</time>
      </trkpt>
      <trkpt lat="47.21347" lon="-1.529">
        <ele>57</ele>
        <time>2022-08-06T09:14:37Z</time>
      </trkpt>
      <trkpt lat="47.21342" lon="-1.52918">
        <ele>57</ele>
        <time>2022-08-06T09:14:39Z</time>
      </trkpt>
      <trkpt lat="47.21339" lon="-1.52938">
        <ele>57</ele>
        <time>2022-08-06T09:14:41Z</time>
      </trkpt>
      <trkpt lat="47.21334" lon="-1.52965">
        <ele>60</ele>
        <time>2022-08-06T09:14:44Z</time>
      </trkpt>
      <trkpt lat="47.21334" lon="-1.52978">
        <ele>60</ele>
        <time>2022-08-06T09:14:45Z</time>
      </trkpt>
      <trkpt lat="47.21333" lon="-1.53">
        <ele>58</ele>
        <time>2022-08-06T09:14:47Z</time>
      </trkpt>
      <trkpt lat="47.21332" lon="-1.53022">
        <ele>57</ele>
        <time>2022-08-06T09:14:49Z</time>
      </trkpt>
      <trkpt lat="47.2133" lon="-1.53043">
        <ele>56</ele>
        <time>2022-08-06T09:14:51Z</time>
      </trkpt>
      <trkpt lat="47.21329" lon="-1.53064">
        <ele>57</ele>
        <time>2022-08-06T09:14:53Z</time>
      </trkpt>
      <trkpt lat="47.21328" lon="-1.53084">
        <ele>57</ele>
        <time>2022-08-06T09:14:55Z</time>
      </trkpt>
      <trkpt lat="47.21326" lon="-1.53103">
        <ele>57</ele>
        <time>2022-08-06T09:14:57Z</time>
      </trkpt>
      <trkpt lat="47.21324" lon="-1.53122">
        <ele>57</ele>
        <time>2022-08-06T09:14:59Z</time>
      </trkpt>
      <trkpt lat="47.2132" lon="-1.53141">
        <ele>57</ele>
        <time>2022-08-06T09:15:01Z</time>
      </trkpt>
      <trkpt lat="47.21317" lon="-1.53161">
        <ele>57</ele>
        <time>2022-08-06T09:15:03Z</time>
      </trkpt>
      <trkpt lat="47.21315" lon="-1.5318">
        <ele>58</ele>
        <time>2022-08-06T09:15:05Z</time>
      </trkpt>
      <trkpt lat="47.21314" lon="-1.53201">
        <ele>58</ele>
        <time>2022-08-06T09:15:07Z</time>
      </trkpt>
      <trkpt lat="47.21312" lon="-1.5322">
        <ele>58</ele>
        <time>2022-08-06T09:15:09Z</time>
      </trkpt>
      <trkpt lat="47.2131" lon="-1.5324">
        <ele>58</ele>
        <time>2022-08-06T09:15:11Z</time>
      </trkpt>
      <trkpt lat="47.2131" lon="-1.5326">
        <ele>58</ele>
        <time>2022-08-06T09:15:13Z</time>
      </trkpt>
      <trkpt lat="47.21311" lon="-1.53281">
        <ele>58</ele>
        <time>2022-08-06T09:15:15Z</time>
      </trkpt>
      <trkpt lat="47.21309" lon="-1.53302">
        <ele>58</ele>
        <time>2022-08-06T09:15:17Z</time>
      </trkpt>
      <trkpt lat="47.21307" lon="-1.53322">
        <ele>57</ele>
        <time>2022-08-06T09:15:19Z</time>
      </trkpt>
      <trkpt lat="47.21305" lon="-1.53342">
        <ele>57</ele>
        <time>2022-08-06T09:15:21Z</time>
      </trkpt>
      <trkpt lat="47.21302" lon="-1.53362">
        <ele>57</ele>
        <time>2022-08-06T09:15:23Z</time>
      </trkpt>
      <trkpt lat="47.21299" lon="-1.53381">
        <ele>57</ele>
        <time>2022-08-06T09:15:25Z</time>
      </trkpt>
      <trkpt lat="47.21296" lon="-1.53401">
        <ele>57</ele>
        <time>2022-08-06T09:15:27Z</time>
      </trkpt>
      <trkpt lat="47.21294" lon="-1.5342">
        <ele>57</ele>
        <time>2022-08-06T09:15:29Z</time>
      </trkpt>
      <trkpt lat="47.21291" lon="-1.53441">
        <ele>56</ele>
        <time>2022-08-06T09:15:31Z</time>
      </trkpt>
      <trkpt lat="47.21292" lon="-1.5346">
        <ele>56</ele>
        <time>2022-08-06T09:15:33Z</time>
      </trkpt>
      <trkpt lat="47.21298" lon="-1.53477">
        <ele>55</ele>
        <time>2022-08-06T09:15:35Z</time>
      </trkpt>
      <trkpt lat="47.213" lon="-1.53496">
        <ele>56</ele>
        <time>2022-08-06T09:15:37Z</time>
      </trkpt>
      <trkpt lat="47.21301" lon="-1.53515">
        <ele>56</ele>
        <time>2022-08-06T09:15:39Z</time>
      </trkpt>
      <trkpt lat="47.21302" lon="-1.53534">
        <ele>56</ele>
        <time>2022-08-06T09:15:41Z</time>
      </trkpt>
      <trkpt lat="47.21302" lon="-1.53553">
        <ele>57</ele>
        <time>2022-08-06T09:15:43Z</time>
      </trkpt>
      <trkpt lat="47.21302" lon="-1.53573">
        <ele>57</ele>
        <time>2022-08-06T09:15:45Z</time>
      </trkpt>
      <trkpt lat="47.21303" lon="-1.53592">
        <ele>57</ele>
        <time>2022-08-06T09:15:47Z</time>
      </trkpt>
      <trkpt lat="47.21304" lon="-1.53611">
        <ele>57</ele>
        <time>2022-08-06T09:15:49Z</time>
      </trkpt>
      <trkpt lat="47.21302" lon="-1.53627">
        <ele>58</ele>
        <time>2022-08-06T09:15:51Z</time>
      </trkpt>
      <trkpt lat="47.21296" lon="-1.53642">
        <ele>59</ele>
        <time>2022-08-06T09:15:54Z</time>
      </trkpt>
      <trkpt lat="47.21296" lon="-1.53656">
        <ele>59</ele>
        <time>2022-08-06T09:15:56Z</time>
      </trkpt>
      <trkpt lat="47.21295" lon="-1.53671">
        <ele>60</ele>
        <time>2022-08-06T09:15:58Z</time>
      </trkpt>
      <trkpt lat="47.21299" lon="-1.53684">
        <ele>61</ele>
        <time>2022-08-06T09:16:00Z</time>
      </trkpt>
      <trkpt lat="47.21303" lon="-1.53698">
        <ele>61</ele>
        <time>2022-08-06T09:16:02Z</time>
      </trkpt>
      <trkpt lat="47.21306" lon="-1.53715">
        <ele>60</ele>
        <time>2022-08-06T09:16:04Z</time>
      </trkpt>
      <trkpt lat="47.21311" lon="-1.53733">
        <ele>59</ele>
        <time>2022-08-06T09:16:06Z</time>
      </trkpt>
      <trkpt lat="47.21315" lon="-1.53753">
        <ele>58</ele>
        <time>2022-08-06T09:16:08Z</time>
      </trkpt>
      <trkpt lat="47.21318" lon="-1.53773">
        <ele>58</ele>
        <time>2022-08-06T09:16:10Z</time>
      </trkpt>
      <trkpt lat="47.21322" lon="-1.53791">
        <ele>59</ele>
        <time>2022-08-06T09:16:12Z</time>
      </trkpt>
      <trkpt lat="47.21324" lon="-1.53811">
        <ele>60</ele>
        <time>2022-08-06T09:16:14Z</time>
      </trkpt>
      <trkpt lat="47.21327" lon="-1.5383">
        <ele>60</ele>
        <time>2022-08-06T09:16:16Z</time>
      </trkpt>
      <trkpt lat="47.2133" lon="-1.5385">
        <ele>60</ele>
        <time>2022-08-06T09:16:18Z</time>
      </trkpt>
      <trkpt lat="47.21332" lon="-1.53869">
        <ele>61</ele>
        <time>2022-08-06T09:16:20Z</time>
      </trkpt>
      <trkpt lat="47.21335" lon="-1.53887">
        <ele>62</ele>
        <time>2022-08-06T09:16:22Z</time>
      </trkpt>
      <trkpt lat="47.21338" lon="-1.53904">
        <ele>62</ele>
        <time>2022-08-06T09:16:24Z</time>
      </trkpt>
      <trkpt lat="47.2134" lon="-1.53919">
        <ele>63</ele>
        <time>2022-08-06T09:16:26Z</time>
      </trkpt>
      <trkpt lat="47.21344" lon="-1.53935">
        <ele>62</ele>
        <time>2022-08-06T09:16:28Z</time>
      </trkpt>
      <trkpt lat="47.21347" lon="-1.53952">
        <ele>61</ele>
        <time>2022-08-06T09:16:30Z</time>
      </trkpt>
      <trkpt lat="47.21349" lon="-1.53968">
        <ele>61</ele>
        <time>2022-08-06T09:16:32Z</time>
      </trkpt>
      <trkpt lat="47.21347" lon="-1.53983">
        <ele>60</ele>
        <time>2022-08-06T09:16:35Z</time>
      </trkpt>
      <trkpt lat="47.21356" lon="-1.53995">
        <ele>61</ele>
        <time>2022-08-06T09:16:40Z</time>
      </trkpt>
      <trkpt lat="47.21365" lon="-1.54006">
        <ele>60</ele>
        <time>2022-08-06T09:16:43Z</time>
      </trkpt>
      <trkpt lat="47.21373" lon="-1.54018">
        <ele>60</ele>
        <time>2022-08-06T09:16:45Z</time>
      </trkpt>
      <trkpt lat="47.21382" lon="-1.54031">
        <ele>60</ele>
        <time>2022-08-06T09:16:47Z</time>
      </trkpt>
      <trkpt lat="47.21391" lon="-1.54046">
        <ele>59</ele>
        <time>2022-08-06T09:16:49Z</time>
      </trkpt>
      <trkpt lat="47.21402" lon="-1.5406">
        <ele>58</ele>
        <time>2022-08-06T09:16:51Z</time>
      </trkpt>
      <trkpt lat="47.21411" lon="-1.54075">
        <ele>58</ele>
        <time>2022-08-06T09:16:53Z</time>
      </trkpt>
      <trkpt lat="47.21421" lon="-1.54089">
        <ele>58</ele>
        <time>2022-08-06T09:16:55Z</time>
      </trkpt>
      <trkpt lat="47.2143" lon="-1.54104">
        <ele>58</ele>
        <time>2022-08-06T09:16:57Z</time>
      </trkpt>
      <trkpt lat="47.2144" lon="-1.54118">
        <ele>58</ele>
        <time>2022-08-06T09:16:59Z</time>
      </trkpt>
      <trkpt lat="47.2145" lon="-1.54134">
        <ele>57</ele>
        <time>2022-08-06T09:17:01Z</time>
      </trkpt>
      <trkpt lat="47.2146" lon="-1.54149">
        <ele>57</ele>
        <time>2022-08-06T09:17:03Z</time>
      </trkpt>
      <trkpt lat="47.2147" lon="-1.54164">
        <ele>57</ele>
        <time>2022-08-06T09:17:05Z</time>
      </trkpt>
      <trkpt lat="47.2148" lon="-1.54179">
        <ele>57</ele>
        <time>2022-08-06T09:17:07Z</time>
      </trkpt>
      <trkpt lat="47.2149" lon="-1.54194">
        <ele>57</ele>
        <time>2022-08-06T09:17:09Z</time>
      </trkpt>
      <trkpt lat="47.215" lon="-1.5421">
        <ele>57</ele>
        <time>2022-08-06T09:17:11Z</time>
      </trkpt>
      <trkpt lat="47.2151" lon="-1.54225">
        <ele>57</ele>
        <time>2022-08-06T09:17:13Z</time>
      </trkpt>
      <trkpt lat="47.2152" lon="-1.5424">
        <ele>57</ele>
        <time>2022-08-06T09:17:15Z</time>
      </trkpt>
      <trkpt lat="47.21529" lon="-1.54254">
        <ele>56</ele>
        <time>2022-08-06T09:17:17Z</time>
      </trkpt>
      <trkpt lat="47.21538" lon="-1.5427">
        <ele>56</ele>
        <time>2022-08-06T09:17:19Z</time>
      </trkpt>
      <trkpt lat="47.21549" lon="-1.54282">
        <ele>56</ele>
        <time>2022-08-06T09:17:21Z</time>
      </trkpt>
      <trkpt lat="47.21562" lon="-1.54289">
        <ele>56</ele>
        <time>2022-08-06T09:17:23Z</time>
      </trkpt>
      <trkpt lat="47.21571" lon="-1.54304">
        <ele>56</ele>
        <time>2022-08-06T09:17:25Z</time>
      </trkpt>
      <trkpt lat="47.21579" lon="-1.54318">
        <ele>56</ele>
        <time>2022-08-06T09:17:27Z</time>
      </trkpt>
      <trkpt lat="47.21588" lon="-1.54331">
        <ele>56</ele>
        <time>2022-08-06T09:17:29Z</time>
      </trkpt>
      <trkpt lat="47.21597" lon="-1.54343">
        <ele>58</ele>
        <time>2022-08-06T09:17:31Z</time>
      </trkpt>
      <trkpt lat="47.21601" lon="-1.54361">
        <ele>58</ele>
        <time>2022-08-06T09:17:33Z</time>
      </trkpt>
      <trkpt lat="47.2161" lon="-1.54372">
        <ele>58</ele>
        <time>2022-08-06T09:17:36Z</time>
      </trkpt>
      <trkpt lat="47.21618" lon="-1.54384">
        <ele>58</ele>
        <time>2022-08-06T09:17:38Z</time>
      </trkpt>
      <trkpt lat="47.2162" lon="-1.54404">
        <ele>57</ele>
        <time>2022-08-06T09:17:40Z</time>
      </trkpt>
      <trkpt lat="47.21617" lon="-1.54426">
        <ele>58</ele>
        <time>2022-08-06T09:17:42Z</time>
      </trkpt>
      <trkpt lat="47.21614" lon="-1.54446">
        <ele>59</ele>
        <time>2022-08-06T09:17:44Z</time>
      </trkpt>
      <trkpt lat="47.21613" lon="-1.54467">
        <ele>59</ele>
        <time>2022-08-06T09:17:46Z</time>
      </trkpt>
      <trkpt lat="47.2161" lon="-1.54486">
        <ele>60</ele>
        <time>2022-08-06T09:17:48Z</time>
      </trkpt>
      <trkpt lat="47.21606" lon="-1.54505">
        <ele>60</ele>
        <time>2022-08-06T09:17:50Z</time>
      </trkpt>
      <trkpt lat="47.216" lon="-1.54523">
        <ele>61</ele>
        <time>2022-08-06T09:17:52Z</time>
      </trkpt>
      <trkpt lat="47.21593" lon="-1.5454">
        <ele>61</ele>
        <time>2022-08-06T09:17:54Z</time>
      </trkpt>
      <trkpt lat="47.21587" lon="-1.54558">
        <ele>61</ele>
        <time>2022-08-06T09:17:56Z</time>
      </trkpt>
      <trkpt lat="47.21581" lon="-1.54576">
        <ele>61</ele>
        <time>2022-08-06T09:17:58Z</time>
      </trkpt>
      <trkpt lat="47.21574" lon="-1.54595">
        <ele>61</ele>
        <time>2022-08-06T09:18:00Z</time>
      </trkpt>
      <trkpt lat="47.21567" lon="-1.54615">
        <ele>60</ele>
        <time>2022-08-06T09:18:02Z</time>
      </trkpt>
      <trkpt lat="47.2156" lon="-1.54635">
        <ele>60</ele>
        <time>2022-08-06T09:18:04Z</time>
      </trkpt>
      <trkpt lat="47.21553" lon="-1.54653">
        <ele>61</ele>
        <time>2022-08-06T09:18:06Z</time>
      </trkpt>
      <trkpt lat="47.21547" lon="-1.54668">
        <ele>61</ele>
        <time>2022-08-06T09:18:08Z</time>
      </trkpt>
      <trkpt lat="47.21541" lon="-1.54684">
        <ele>61</ele>
        <time>2022-08-06T09:18:10Z</time>
      </trkpt>
      <trkpt lat="47.21535" lon="-1.54705">
        <ele>62</ele>
        <time>2022-08-06T09:18:12Z</time>
      </trkpt>
      <trkpt lat="47.2153" lon="-1.54724">
        <ele>62</ele>
        <time>2022-08-06T09:18:14Z</time>
      </trkpt>
      <trkpt lat="47.21523" lon="-1.54742">
        <ele>62</ele>
        <time>2022-08-06T09:18:16Z</time>
      </trkpt>
      <trkpt lat="47.21517" lon="-1.54761">
        <ele>62</ele>
        <time>2022-08-06T09:18:18Z</time>
      </trkpt>
      <trkpt lat="47.21511" lon="-1.5478">
        <ele>62</ele>
        <time>2022-08-06T09:18:20Z</time>
      </trkpt>
      <trkpt lat="47.21504" lon="-1.54798">
        <ele>62</ele>
        <time>2022-08-06T09:18:22Z</time>
      </trkpt>
      <trkpt lat="47.21496" lon="-1.54815">
        <ele>62</ele>
        <time>2022-08-06T09:18:24Z</time>
      </trkpt>
      <trkpt lat="47.21489" lon="-1.5483">
        <ele>63</ele>
        <time>2022-08-06T09:18:26Z</time>
      </trkpt>
      <trkpt lat="47.21481" lon="-1.54845">
        <ele>63</ele>
        <time>2022-08-06T09:18:28Z</time>
      </trkpt>
      <trkpt lat="47.21473" lon="-1.54862">
        <ele>62</ele>
        <time>2022-08-06T09:18:30Z</time>
      </trkpt>
      <trkpt lat="47.21463" lon="-1.54881">
        <ele>62</ele>
        <time>2022-08-06T09:18:32Z</time>
      </trkpt>
      <trkpt lat="47.21454" lon="-1.54899">
        <ele>62</ele>
        <time>2022-08-06T09:18:34Z</time>
      </trkpt>
      <trkpt lat="47.21446" lon="-1.54917">
        <ele>62</ele>
        <time>2022-08-06T09:18:36Z</time>
      </trkpt>
      <trkpt lat="47.21437" lon="-1.54935">
        <ele>62</ele>
        <time>2022-08-06T09:18:38Z</time>
      </trkpt>
      <trkpt lat="47.21427" lon="-1.54953">
        <ele>62</ele>
        <time>2022-08-06T09:18:40Z</time>
      </trkpt>
      <trkpt lat="47.21418" lon="-1.54972">
        <ele>62</ele>
        <time>2022-08-06T09:18:42Z</time>
      </trkpt>
      <trkpt lat="47.2141" lon="-1.54992">
        <ele>62</ele>
        <time>2022-08-06T09:18:44Z</time>
      </trkpt>
      <trkpt lat="47.21403" lon="-1.55011">
        <ele>62</ele>
        <time>2022-08-06T09:18:46Z</time>
      </trkpt>
      <trkpt lat="47.21394" lon="-1.5503">
        <ele>63</ele>
        <time>2022-08-06T09:18:48Z</time>
      </trkpt>
      <trkpt lat="47.21387" lon="-1.55048">
        <ele>63</ele>
        <time>2022-08-06T09:18:50Z</time>
      </trkpt>
      <trkpt lat="47.21378" lon="-1.55065">
        <ele>63</ele>
        <time>2022-08-06T09:18:52Z</time>
      </trkpt>
      <trkpt lat="47.2137" lon="-1.55083">
        <ele>62</ele>
        <time>2022-08-06T09:18:54Z</time>
      </trkpt>
      <trkpt lat="47.21363" lon="-1.55101">
        <ele>61</ele>
        <time>2022-08-06T09:18:56Z</time>
      </trkpt>
      <trkpt lat="47.21356" lon="-1.55119">
        <ele>62</ele>
        <time>2022-08-06T09:18:58Z</time>
      </trkpt>
      <trkpt lat="47.21349" lon="-1.55137">
        <ele>61</ele>
        <time>2022-08-06T09:19:00Z</time>
      </trkpt>
      <trkpt lat="47.21342" lon="-1.55155">
        <ele>61</ele>
        <time>2022-08-06T09:19:02Z</time>
      </trkpt>
      <trkpt lat="47.21334" lon="-1.55172">
        <ele>60</ele>
        <time>2022-08-06T09:19:04Z</time>
      </trkpt>
      <trkpt lat="47.21327" lon="-1.5519">
        <ele>60</ele>
        <time>2022-08-06T09:19:06Z</time>
      </trkpt>
      <trkpt lat="47.21319" lon="-1.55206">
        <ele>59</ele>
        <time>2022-08-06T09:19:08Z</time>
      </trkpt>
      <trkpt lat="47.21312" lon="-1.55224">
        <ele>58</ele>
        <time>2022-08-06T09:19:10Z</time>
      </trkpt>
      <trkpt lat="47.21305" lon="-1.5524">
        <ele>58</ele>
        <time>2022-08-06T09:19:12Z</time>
      </trkpt>
      <trkpt lat="47.21297" lon="-1.55257">
        <ele>58</ele>
        <time>2022-08-06T09:19:14Z</time>
      </trkpt>
      <trkpt lat="47.21291" lon="-1.55275">
        <ele>58</ele>
        <time>2022-08-06T09:19:16Z</time>
      </trkpt>
      <trkpt lat="47.21285" lon="-1.55291">
        <ele>59</ele>
        <time>2022-08-06T09:19:18Z</time>
      </trkpt>
      <trkpt lat="47.21278" lon="-1.55301">
        <ele>59</ele>
        <time>2022-08-06T09:19:20Z</time>
      </trkpt>
      <trkpt lat="47.21268" lon="-1.55302">
        <ele>61</ele>
        <time>2022-08-06T09:19:22Z</time>
      </trkpt>
      <trkpt lat="47.21261" lon="-1.55309">
        <ele>61</ele>
        <time>2022-08-06T09:19:24Z</time>
      </trkpt>
      <trkpt lat="47.21261" lon="-1.55323">
        <ele>62</ele>
        <time>2022-08-06T09:19:26Z</time>
      </trkpt>
      <trkpt lat="47.21266" lon="-1.55337">
        <ele>63</ele>
        <time>2022-08-06T09:19:28Z</time>
      </trkpt>
      <trkpt lat="47.21275" lon="-1.55349">
        <ele>61</ele>
        <time>2022-08-06T09:19:31Z</time>
      </trkpt>
      <trkpt lat="47.21286" lon="-1.5536">
        <ele>60</ele>
        <time>2022-08-06T09:19:34Z</time>
      </trkpt>
      <trkpt lat="47.21287" lon="-1.55376">
        <ele>59</ele>
        <time>2022-08-06T09:19:36Z</time>
      </trkpt>
      <trkpt lat="47.2128" lon="-1.55391">
        <ele>59</ele>
        <time>2022-08-06T09:19:38Z</time>
      </trkpt>
      <trkpt lat="47.21271" lon="-1.55406">
        <ele>60</ele>
        <time>2022-08-06T09:19:40Z</time>
      </trkpt>
      <trkpt lat="47.21261" lon="-1.5542">
        <ele>60</ele>
        <time>2022-08-06T09:19:42Z</time>
      </trkpt>
      <trkpt lat="47.21252" lon="-1.55435">
        <ele>61</ele>
        <time>2022-08-06T09:19:44Z</time>
      </trkpt>
      <trkpt lat="47.21241" lon="-1.5545">
        <ele>60</ele>
        <time>2022-08-06T09:19:46Z</time>
      </trkpt>
      <trkpt lat="47.21232" lon="-1.55466">
        <ele>61</ele>
        <time>2022-08-06T09:19:48Z</time>
      </trkpt>
      <trkpt lat="47.21224" lon="-1.55484">
        <ele>61</ele>
        <time>2022-08-06T09:19:50Z</time>
      </trkpt>
      <trkpt lat="47.21217" lon="-1.55504">
        <ele>61</ele>
        <time>2022-08-06T09:19:52Z</time>
      </trkpt>
      <trkpt lat="47.21211" lon="-1.55524">
        <ele>61</ele>
        <time>2022-08-06T09:19:54Z</time>
      </trkpt>
      <trkpt lat="47.21201" lon="-1.55554">
        <ele>59</ele>
        <time>2022-08-06T09:19:57Z</time>
      </trkpt>
      <trkpt lat="47.21195" lon="-1.55574">
        <ele>60</ele>
        <time>2022-08-06T09:19:59Z</time>
      </trkpt>
      <trkpt lat="47.2119" lon="-1.55593">
        <ele>60</ele>
        <time>2022-08-06T09:20:01Z</time>
      </trkpt>
      <trkpt lat="47.21183" lon="-1.55611">
        <ele>60</ele>
        <time>2022-08-06T09:20:03Z</time>
      </trkpt>
      <trkpt lat="47.21178" lon="-1.55627">
        <ele>60</ele>
        <time>2022-08-06T09:20:06Z</time>
      </trkpt>
      <trkpt lat="47.21173" lon="-1.55639">
        <ele>60</ele>
        <time>2022-08-06T09:20:09Z</time>
      </trkpt>
      <trkpt lat="47.21169" lon="-1.55655">
        <ele>60</ele>
        <time>2022-08-06T09:20:12Z</time>
      </trkpt>
      <trkpt lat="47.21164" lon="-1.55671">
        <ele>60</ele>
        <time>2022-08-06T09:20:14Z</time>
      </trkpt>
      <trkpt lat="47.21153" lon="-1.55671">
        <ele>61</ele>
        <time>2022-08-06T09:20:16Z</time>
      </trkpt>
      <trkpt lat="47.2114" lon="-1.55661">
        <ele>60</ele>
        <time>2022-08-06T09:20:18Z</time>
      </trkpt>
      <trkpt lat="47.21128" lon="-1.5565">
        <ele>60</ele>
        <time>2022-08-06T09:20:20Z</time>
      </trkpt>
      <trkpt lat="47.21115" lon="-1.55639">
        <ele>60</ele>
        <time>2022-08-06T09:20:22Z</time>
      </trkpt>
      <trkpt lat="47.211" lon="-1.55628">
        <ele>61</ele>
        <time>2022-08-06T09:20:24Z</time>
      </trkpt>
      <trkpt lat="47.21082" lon="-1.55621">
        <ele>63</ele>
        <time>2022-08-06T09:20:26Z</time>
      </trkpt>
      <trkpt lat="47.21067" lon="-1.55612">
        <ele>65</ele>
        <time>2022-08-06T09:20:28Z</time>
      </trkpt>
      <trkpt lat="47.21053" lon="-1.55601">
        <ele>67</ele>
        <time>2022-08-06T09:20:30Z</time>
      </trkpt>
      <trkpt lat="47.21039" lon="-1.55595">
        <ele>67</ele>
        <time>2022-08-06T09:20:32Z</time>
      </trkpt>
      <trkpt lat="47.21027" lon="-1.55588">
        <ele>67</ele>
        <time>2022-08-06T09:20:34Z</time>
      </trkpt>
      <trkpt lat="47.21016" lon="-1.55585">
        <ele>66</ele>
        <time>2022-08-06T09:20:36Z</time>
      </trkpt>
      <trkpt lat="47.21005" lon="-1.55582">
        <ele>66</ele>
        <time>2022-08-06T09:20:38Z</time>
      </trkpt>
      <trkpt lat="47.20995" lon="-1.5558">
        <ele>65</ele>
        <time>2022-08-06T09:20:40Z</time>
      </trkpt>
      <trkpt lat="47.20985" lon="-1.55578">
        <ele>64</ele>
        <time>2022-08-06T09:20:42Z</time>
      </trkpt>
      <trkpt lat="47.20974" lon="-1.55573">
        <ele>63</ele>
        <time>2022-08-06T09:20:45Z</time>
      </trkpt>
      <trkpt lat="47.20963" lon="-1.55573">
        <ele>64</ele>
        <time>2022-08-06T09:20:49Z</time>
      </trkpt>
      <trkpt lat="47.20954" lon="-1.55571">
        <ele>64</ele>
        <time>2022-08-06T09:20:56Z</time>
      </trkpt>
      <trkpt lat="47.20942" lon="-1.55572">
        <ele>63</ele>
        <time>2022-08-06T09:21:13Z</time>
      </trkpt>
      <trkpt lat="47.2093" lon="-1.55565">
        <ele>64</ele>
        <time>2022-08-06T09:21:15Z</time>
      </trkpt>
      <trkpt lat="47.20913" lon="-1.55562">
        <ele>65</ele>
        <time>2022-08-06T09:21:17Z</time>
      </trkpt>
      <trkpt lat="47.20903" lon="-1.55559">
        <ele>65</ele>
        <time>2022-08-06T09:21:18Z</time>
      </trkpt>
      <trkpt lat="47.20893" lon="-1.55556">
        <ele>65</ele>
        <time>2022-08-06T09:21:19Z</time>
      </trkpt>
      <trkpt lat="47.20877" lon="-1.5555">
        <ele>65</ele>
        <time>2022-08-06T09:21:21Z</time>
      </trkpt>
      <trkpt lat="47.20861" lon="-1.55546">
        <ele>64</ele>
        <time>2022-08-06T09:21:23Z</time>
      </trkpt>
      <trkpt lat="47.20845" lon="-1.55542">
        <ele>63</ele>
        <time>2022-08-06T09:21:25Z</time>
      </trkpt>
      <trkpt lat="47.2083" lon="-1.55538">
        <ele>63</ele>
        <time>2022-08-06T09:21:27Z</time>
      </trkpt>
      <trkpt lat="47.20814" lon="-1.55535">
        <ele>63</ele>
        <time>2022-08-06T09:21:29Z</time>
      </trkpt>
      <trkpt lat="47.20798" lon="-1.55531">
        <ele>63</ele>
        <time>2022-08-06T09:21:31Z</time>
      </trkpt>
      <trkpt lat="47.20782" lon="-1.55528">
        <ele>62</ele>
        <time>2022-08-06T09:21:33Z</time>
      </trkpt>
      <trkpt lat="47.20767" lon="-1.55524">
        <ele>61</ele>
        <time>2022-08-06T09:21:35Z</time>
      </trkpt>
      <trkpt lat="47.2075" lon="-1.5552">
        <ele>60</ele>
        <time>2022-08-06T09:21:37Z</time>
      </trkpt>
      <trkpt lat="47.20733" lon="-1.55515">
        <ele>59</ele>
        <time>2022-08-06T09:21:39Z</time>
      </trkpt>
      <trkpt lat="47.20719" lon="-1.55509">
        <ele>58</ele>
        <time>2022-08-06T09:21:41Z</time>
      </trkpt>
      <trkpt lat="47.20703" lon="-1.55505">
        <ele>59</ele>
        <time>2022-08-06T09:21:43Z</time>
      </trkpt>
      <trkpt lat="47.20685" lon="-1.55502">
        <ele>61</ele>
        <time>2022-08-06T09:21:45Z</time>
      </trkpt>
      <trkpt lat="47.20676" lon="-1.555">
        <ele>61</ele>
        <time>2022-08-06T09:21:46Z</time>
      </trkpt>
      <trkpt lat="47.20666" lon="-1.55499">
        <ele>62</ele>
        <time>2022-08-06T09:21:47Z</time>
      </trkpt>
      <trkpt lat="47.20657" lon="-1.55497">
        <ele>62</ele>
        <time>2022-08-06T09:21:48Z</time>
      </trkpt>
      <trkpt lat="47.20641" lon="-1.55493">
        <ele>64</ele>
        <time>2022-08-06T09:21:50Z</time>
      </trkpt>
      <trkpt lat="47.20625" lon="-1.55491">
        <ele>65</ele>
        <time>2022-08-06T09:21:52Z</time>
      </trkpt>
      <trkpt lat="47.20606" lon="-1.55487">
        <ele>66</ele>
        <time>2022-08-06T09:21:54Z</time>
      </trkpt>
      <trkpt lat="47.20597" lon="-1.55486">
        <ele>67</ele>
        <time>2022-08-06T09:21:55Z</time>
      </trkpt>
      <trkpt lat="47.20584" lon="-1.55485">
        <ele>67</ele>
        <time>2022-08-06T09:21:57Z</time>
      </trkpt>
      <trkpt lat="47.20569" lon="-1.55484">
        <ele>66</ele>
        <time>2022-08-06T09:21:59Z</time>
      </trkpt>
      <trkpt lat="47.20556" lon="-1.55491">
        <ele>66</ele>
        <time>2022-08-06T09:22:01Z</time>
      </trkpt>
      <trkpt lat="47.20542" lon="-1.55502">
        <ele>64</ele>
        <time>2022-08-06T09:22:03Z</time>
      </trkpt>
      <trkpt lat="47.20528" lon="-1.55504">
        <ele>63</ele>
        <time>2022-08-06T09:22:05Z</time>
      </trkpt>
      <trkpt lat="47.20516" lon="-1.55492">
        <ele>62</ele>
        <time>2022-08-06T09:22:07Z</time>
      </trkpt>
      <trkpt lat="47.20508" lon="-1.55474">
        <ele>63</ele>
        <time>2022-08-06T09:22:09Z</time>
      </trkpt>
      <trkpt lat="47.20505" lon="-1.55454">
        <ele>63</ele>
        <time>2022-08-06T09:22:11Z</time>
      </trkpt>
      <trkpt lat="47.20507" lon="-1.55434">
        <ele>62</ele>
        <time>2022-08-06T09:22:13Z</time>
      </trkpt>
      <trkpt lat="47.20507" lon="-1.5542">
        <ele>61</ele>
        <time>2022-08-06T09:22:17Z</time>
      </trkpt>
      <trkpt lat="47.205" lon="-1.55408">
        <ele>62</ele>
        <time>2022-08-06T09:22:22Z</time>
      </trkpt>
      <trkpt lat="47.20494" lon="-1.55395">
        <ele>64</ele>
        <time>2022-08-06T09:22:26Z</time>
      </trkpt>
      <trkpt lat="47.20489" lon="-1.55383">
        <ele>67</ele>
        <time>2022-08-06T09:22:30Z</time>
      </trkpt>
      <trkpt lat="47.20483" lon="-1.5537">
        <ele>70</ele>
        <time>2022-08-06T09:22:35Z</time>
      </trkpt>
      <trkpt lat="47.20474" lon="-1.55361">
        <ele>70</ele>
        <time>2022-08-06T09:22:47Z</time>
      </trkpt>
      <trkpt lat="47.2047" lon="-1.5535">
        <ele>69</ele>
        <time>2022-08-06T09:22:49Z</time>
      </trkpt>
      <trkpt lat="47.20462" lon="-1.55331">
        <ele>68</ele>
        <time>2022-08-06T09:22:51Z</time>
      </trkpt>
      <trkpt lat="47.20454" lon="-1.55315">
        <ele>68</ele>
        <time>2022-08-06T09:22:53Z</time>
      </trkpt>
      <trkpt lat="47.20446" lon="-1.55297">
        <ele>69</ele>
        <time>2022-08-06T09:22:55Z</time>
      </trkpt>
      <trkpt lat="47.2044" lon="-1.55281">
        <ele>69</ele>
        <time>2022-08-06T09:22:57Z</time>
      </trkpt>
      <trkpt lat="47.20431" lon="-1.55262">
        <ele>69</ele>
        <time>2022-08-06T09:22:59Z</time>
      </trkpt>
      <trkpt lat="47.20422" lon="-1.55244">
        <ele>70</ele>
        <time>2022-08-06T09:23:01Z</time>
      </trkpt>
      <trkpt lat="47.20414" lon="-1.55227">
        <ele>69</ele>
        <time>2022-08-06T09:23:03Z</time>
      </trkpt>
      <trkpt lat="47.20406" lon="-1.55212">
        <ele>69</ele>
        <time>2022-08-06T09:23:05Z</time>
      </trkpt>
      <trkpt lat="47.20398" lon="-1.55198">
        <ele>68</ele>
        <time>2022-08-06T09:23:07Z</time>
      </trkpt>
      <trkpt lat="47.2039" lon="-1.55187">
        <ele>69</ele>
        <time>2022-08-06T09:23:09Z</time>
      </trkpt>
      <trkpt lat="47.20381" lon="-1.55188">
        <ele>70</ele>
        <time>2022-08-06T09:23:11Z</time>
      </trkpt>
      <trkpt lat="47.20372" lon="-1.552">
        <ele>69</ele>
        <time>2022-08-06T09:23:13Z</time>
      </trkpt>
      <trkpt lat="47.2036" lon="-1.55214">
        <ele>67</ele>
        <time>2022-08-06T09:23:15Z</time>
      </trkpt>
      <trkpt lat="47.20347" lon="-1.55228">
        <ele>66</ele>
        <time>2022-08-06T09:23:17Z</time>
      </trkpt>
      <trkpt lat="47.20336" lon="-1.55244">
        <ele>65</ele>
        <time>2022-08-06T09:23:19Z</time>
      </trkpt>
      <trkpt lat="47.20325" lon="-1.55259">
        <ele>66</ele>
        <time>2022-08-06T09:23:21Z</time>
      </trkpt>
      <trkpt lat="47.20313" lon="-1.55274">
        <ele>66</ele>
        <time>2022-08-06T09:23:23Z</time>
      </trkpt>
      <trkpt lat="47.20301" lon="-1.55288">
        <ele>66</ele>
        <time>2022-08-06T09:23:25Z</time>
      </trkpt>
      <trkpt lat="47.2029" lon="-1.55303">
        <ele>65</ele>
        <time>2022-08-06T09:23:27Z</time>
      </trkpt>
      <trkpt lat="47.2028" lon="-1.55318">
        <ele>65</ele>
        <time>2022-08-06T09:23:29Z</time>
      </trkpt>
      <trkpt lat="47.20269" lon="-1.55333">
        <ele>64</ele>
        <time>2022-08-06T09:23:31Z</time>
      </trkpt>
      <trkpt lat="47.20258" lon="-1.55349">
        <ele>63</ele>
        <time>2022-08-06T09:23:33Z</time>
      </trkpt>
      <trkpt lat="47.20247" lon="-1.55363">
        <ele>63</ele>
        <time>2022-08-06T09:23:35Z</time>
      </trkpt>
      <trkpt lat="47.20235" lon="-1.55377">
        <ele>62</ele>
        <time>2022-08-06T09:23:37Z</time>
      </trkpt>
      <trkpt lat="47.20224" lon="-1.55392">
        <ele>61</ele>
        <time>2022-08-06T09:23:39Z</time>
      </trkpt>
      <trkpt lat="47.20214" lon="-1.55408">
        <ele>61</ele>
        <time>2022-08-06T09:23:41Z</time>
      </trkpt>
      <trkpt lat="47.20204" lon="-1.55424">
        <ele>61</ele>
        <time>2022-08-06T09:23:43Z</time>
      </trkpt>
      <trkpt lat="47.20194" lon="-1.55441">
        <ele>60</ele>
        <time>2022-08-06T09:23:45Z</time>
      </trkpt>
      <trkpt lat="47.20186" lon="-1.5546">
        <ele>60</ele>
        <time>2022-08-06T09:23:47Z</time>
      </trkpt>
      <trkpt lat="47.20182" lon="-1.5548">
        <ele>60</ele>
        <time>2022-08-06T09:23:49Z</time>
      </trkpt>
      <trkpt lat="47.20179" lon="-1.55501">
        <ele>59</ele>
        <time>2022-08-06T09:23:51Z</time>
      </trkpt>
      <trkpt lat="47.20183" lon="-1.5552">
        <ele>58</ele>
        <time>2022-08-06T09:23:53Z</time>
      </trkpt>
      <trkpt lat="47.20193" lon="-1.55533">
        <ele>58</ele>
        <time>2022-08-06T09:23:55Z</time>
      </trkpt>
      <trkpt lat="47.20205" lon="-1.5554">
        <ele>57</ele>
        <time>2022-08-06T09:23:57Z</time>
      </trkpt>
      <trkpt lat="47.20218" lon="-1.55545">
        <ele>57</ele>
        <time>2022-08-06T09:23:59Z</time>
      </trkpt>
      <trkpt lat="47.2023" lon="-1.5555">
        <ele>57</ele>
        <time>2022-08-06T09:24:01Z</time>
      </trkpt>
      <trkpt lat="47.20243" lon="-1.55556">
        <ele>57</ele>
        <time>2022-08-06T09:24:03Z</time>
      </trkpt>
      <trkpt lat="47.20256" lon="-1.55561">
        <ele>57</ele>
        <time>2022-08-06T09:24:05Z</time>
      </trkpt>
      <trkpt lat="47.20269" lon="-1.55565">
        <ele>57</ele>
        <time>2022-08-06T09:24:07Z</time>
      </trkpt>
      <trkpt lat="47.20282" lon="-1.55568">
        <ele>57</ele>
        <time>2022-08-06T09:24:09Z</time>
      </trkpt>
      <trkpt lat="47.20293" lon="-1.55575">
        <ele>57</ele>
        <time>2022-08-06T09:24:11Z</time>
      </trkpt>
      <trkpt lat="47.203" lon="-1.5559">
        <ele>57</ele>
        <time>2022-08-06T09:24:13Z</time>
      </trkpt>
      <trkpt lat="47.20298" lon="-1.55609">
        <ele>57</ele>
        <time>2022-08-06T09:24:15Z</time>
      </trkpt>
      <trkpt lat="47.20296" lon="-1.55629">
        <ele>57</ele>
        <time>2022-08-06T09:24:17Z</time>
      </trkpt>
      <trkpt lat="47.20295" lon="-1.55649">
        <ele>56</ele>
        <time>2022-08-06T09:24:19Z</time>
      </trkpt>
      <trkpt lat="47.20293" lon="-1.55669">
        <ele>56</ele>
        <time>2022-08-06T09:24:21Z</time>
      </trkpt>
      <trkpt lat="47.20291" lon="-1.5569">
        <ele>57</ele>
        <time>2022-08-06T09:24:23Z</time>
      </trkpt>
      <trkpt lat="47.20289" lon="-1.5571">
        <ele>57</ele>
        <time>2022-08-06T09:24:25Z</time>
      </trkpt>
      <trkpt lat="47.20286" lon="-1.5573">
        <ele>56</ele>
        <time>2022-08-06T09:24:27Z</time>
      </trkpt>
      <trkpt lat="47.20284" lon="-1.55751">
        <ele>56</ele>
        <time>2022-08-06T09:24:29Z</time>
      </trkpt>
      <trkpt lat="47.20282" lon="-1.55772">
        <ele>56</ele>
        <time>2022-08-06T09:24:31Z</time>
      </trkpt>
      <trkpt lat="47.20279" lon="-1.55793">
        <ele>56</ele>
        <time>2022-08-06T09:24:33Z</time>
      </trkpt>
      <trkpt lat="47.20277" lon="-1.55814">
        <ele>56</ele>
        <time>2022-08-06T09:24:35Z</time>
      </trkpt>
      <trkpt lat="47.20275" lon="-1.55834">
        <ele>56</ele>
        <time>2022-08-06T09:24:37Z</time>
      </trkpt>
      <trkpt lat="47.20272" lon="-1.55856">
        <ele>56</ele>
        <time>2022-08-06T09:24:39Z</time>
      </trkpt>
      <trkpt lat="47.2027" lon="-1.55876">
        <ele>56</ele>
        <time>2022-08-06T09:24:41Z</time>
      </trkpt>
      <trkpt lat="47.20268" lon="-1.55897">
        <ele>56</ele>
        <time>2022-08-06T09:24:43Z</time>
      </trkpt>
      <trkpt lat="47.20266" lon="-1.55918">
        <ele>56</ele>
        <time>2022-08-06T09:24:45Z</time>
      </trkpt>
      <trkpt lat="47.20264" lon="-1.55939">
        <ele>56</ele>
        <time>2022-08-06T09:24:47Z</time>
      </trkpt>
      <trkpt lat="47.20261" lon="-1.55959">
        <ele>57</ele>
        <time>2022-08-06T09:24:49Z</time>
      </trkpt>
      <trkpt lat="47.20259" lon="-1.5598">
        <ele>57</ele>
        <time>2022-08-06T09:24:51Z</time>
      </trkpt>
      <trkpt lat="47.20257" lon="-1.56">
        <ele>57</ele>
        <time>2022-08-06T09:24:53Z</time>
      </trkpt>
      <trkpt lat="47.20255" lon="-1.56021">
        <ele>57</ele>
        <time>2022-08-06T09:24:55Z</time>
      </trkpt>
      <trkpt lat="47.20253" lon="-1.56042">
        <ele>57</ele>
        <time>2022-08-06T09:24:57Z</time>
      </trkpt>
      <trkpt lat="47.20251" lon="-1.56063">
        <ele>57</ele>
        <time>2022-08-06T09:24:59Z</time>
      </trkpt>
      <trkpt lat="47.20249" lon="-1.56084">
        <ele>57</ele>
        <time>2022-08-06T09:25:01Z</time>
      </trkpt>
      <trkpt lat="47.20247" lon="-1.56105">
        <ele>57</ele>
        <time>2022-08-06T09:25:03Z</time>
      </trkpt>
      <trkpt lat="47.20243" lon="-1.56126">
        <ele>57</ele>
        <time>2022-08-06T09:25:05Z</time>
      </trkpt>
      <trkpt lat="47.20237" lon="-1.56143">
        <ele>57</ele>
        <time>2022-08-06T09:25:07Z</time>
      </trkpt>
      <trkpt lat="47.20225" lon="-1.56157">
        <ele>57</ele>
        <time>2022-08-06T09:25:09Z</time>
      </trkpt>
      <trkpt lat="47.20213" lon="-1.56168">
        <ele>57</ele>
        <time>2022-08-06T09:25:11Z</time>
      </trkpt>
      <trkpt lat="47.202" lon="-1.56174">
        <ele>56</ele>
        <time>2022-08-06T09:25:13Z</time>
      </trkpt>
      <trkpt lat="47.20188" lon="-1.56184">
        <ele>56</ele>
        <time>2022-08-06T09:25:15Z</time>
      </trkpt>
      <trkpt lat="47.20177" lon="-1.56195">
        <ele>56</ele>
        <time>2022-08-06T09:25:17Z</time>
      </trkpt>
      <trkpt lat="47.20164" lon="-1.56192">
        <ele>56</ele>
        <time>2022-08-06T09:25:19Z</time>
      </trkpt>
      <trkpt lat="47.20153" lon="-1.56181">
        <ele>56</ele>
        <time>2022-08-06T09:25:21Z</time>
      </trkpt>
      <trkpt lat="47.2014" lon="-1.5618">
        <ele>57</ele>
        <time>2022-08-06T09:25:23Z</time>
      </trkpt>
      <trkpt lat="47.20126" lon="-1.5618">
        <ele>57</ele>
        <time>2022-08-06T09:25:25Z</time>
      </trkpt>
      <trkpt lat="47.20112" lon="-1.5618">
        <ele>57</ele>
        <time>2022-08-06T09:25:27Z</time>
      </trkpt>
      <trkpt lat="47.20098" lon="-1.56181">
        <ele>57</ele>
        <time>2022-08-06T09:25:29Z</time>
      </trkpt>
      <trkpt lat="47.20084" lon="-1.56181">
        <ele>57</ele>
        <time>2022-08-06T09:25:31Z</time>
      </trkpt>
      <trkpt lat="47.2007" lon="-1.56181">
        <ele>57</ele>
        <time>2022-08-06T09:25:33Z</time>
      </trkpt>
      <trkpt lat="47.20056" lon="-1.56181">
        <ele>57</ele>
        <time>2022-08-06T09:25:35Z</time>
      </trkpt>
      <trkpt lat="47.20043" lon="-1.56182">
        <ele>57</ele>
        <time>2022-08-06T09:25:37Z</time>
      </trkpt>
      <trkpt lat="47.2003" lon="-1.56182">
        <ele>57</ele>
        <time>2022-08-06T09:25:39Z</time>
      </trkpt>
      <trkpt lat="47.20018" lon="-1.56184">
        <ele>57</ele>
        <time>2022-08-06T09:25:41Z</time>
      </trkpt>
      <trkpt lat="47.20006" lon="-1.5619">
        <ele>57</ele>
        <time>2022-08-06T09:25:43Z</time>
      </trkpt>
      <trkpt lat="47.19993" lon="-1.56194">
        <ele>57</ele>
        <time>2022-08-06T09:25:45Z</time>
      </trkpt>
      <trkpt lat="47.1998" lon="-1.56189">
        <ele>58</ele>
        <time>2022-08-06T09:25:47Z</time>
      </trkpt>
      <trkpt lat="47.19972" lon="-1.56172">
        <ele>58</ele>
        <time>2022-08-06T09:25:49Z</time>
      </trkpt>
      <trkpt lat="47.19962" lon="-1.56165">
        <ele>59</ele>
        <time>2022-08-06T09:25:51Z</time>
      </trkpt>
      <trkpt lat="47.1995" lon="-1.56169">
        <ele>59</ele>
        <time>2022-08-06T09:25:53Z</time>
      </trkpt>
      <trkpt lat="47.19936" lon="-1.56171">
        <ele>59</ele>
        <time>2022-08-06T09:25:55Z</time>
      </trkpt>
      <trkpt lat="47.19921" lon="-1.56174">
        <ele>59</ele>
        <time>2022-08-06T09:25:57Z</time>
      </trkpt>
      <trkpt lat="47.19905" lon="-1.56177">
        <ele>60</ele>
        <time>2022-08-06T09:25:59Z</time>
      </trkpt>
      <trkpt lat="47.1989" lon="-1.56179">
        <ele>61</ele>
        <time>2022-08-06T09:26:01Z</time>
      </trkpt>
      <trkpt lat="47.19875" lon="-1.56182">
        <ele>62</ele>
        <time>2022-08-06T09:26:03Z</time>
      </trkpt>
      <trkpt lat="47.19862" lon="-1.56184">
        <ele>62</ele>
        <time>2022-08-06T09:26:05Z</time>
      </trkpt>
      <trkpt lat="47.19849" lon="-1.56186">
        <ele>62</ele>
        <time>2022-08-06T09:26:07Z</time>
      </trkpt>
      <trkpt lat="47.19837" lon="-1.56188">
        <ele>62</ele>
        <time>2022-08-06T09:26:09Z</time>
      </trkpt>
      <trkpt lat="47.19824" lon="-1.5619">
        <ele>63</ele>
        <time>2022-08-06T09:26:11Z</time>
      </trkpt>
      <trkpt lat="47.19812" lon="-1.56193">
        <ele>63</ele>
        <time>2022-08-06T09:26:13Z</time>
      </trkpt>
      <trkpt lat="47.19799" lon="-1.56195">
        <ele>63</ele>
        <time>2022-08-06T09:26:15Z</time>
      </trkpt>
      <trkpt lat="47.19787" lon="-1.56198">
        <ele>62</ele>
        <time>2022-08-06T09:26:17Z</time>
      </trkpt>
      <trkpt lat="47.19774" lon="-1.562">
        <ele>62</ele>
        <time>2022-08-06T09:26:19Z</time>
      </trkpt>
      <trkpt lat="47.19761" lon="-1.56202">
        <ele>62</ele>
        <time>2022-08-06T09:26:21Z</time>
      </trkpt>
      <trkpt lat="47.19748" lon="-1.56205">
        <ele>61</ele>
        <time>2022-08-06T09:26:23Z</time>
      </trkpt>
      <trkpt lat="47.19735" lon="-1.56208">
        <ele>61</ele>
        <time>2022-08-06T09:26:25Z</time>
      </trkpt>
      <trkpt lat="47.1972" lon="-1.56211">
        <ele>60</ele>
        <time>2022-08-06T09:26:27Z</time>
      </trkpt>
      <trkpt lat="47.19705" lon="-1.56214">
        <ele>59</ele>
        <time>2022-08-06T09:26:29Z</time>
      </trkpt>
      <trkpt lat="47.19687" lon="-1.56217">
        <ele>58</ele>
        <time>2022-08-06T09:26:31Z</time>
      </trkpt>
      <trkpt lat="47.19671" lon="-1.56223">
        <ele>57</ele>
        <time>2022-08-06T09:26:33Z</time>
      </trkpt>
      <trkpt lat="47.19654" lon="-1.56228">
        <ele>56</ele>
        <time>2022-08-06T09:26:35Z</time>
      </trkpt>
      <trkpt lat="47.19641" lon="-1.56243">
        <ele>56</ele>
        <time>2022-08-06T09:26:37Z</time>
      </trkpt>
      <trkpt lat="47.19638" lon="-1.56268">
        <ele>56</ele>
        <time>2022-08-06T09:26:39Z</time>
      </trkpt>
      <trkpt lat="47.19637" lon="-1.56291">
        <ele>56</ele>
        <time>2022-08-06T09:26:41Z</time>
      </trkpt>
      <trkpt lat="47.19635" lon="-1.56313">
        <ele>56</ele>
        <time>2022-08-06T09:26:43Z</time>
      </trkpt>
      <trkpt lat="47.19634" lon="-1.56335">
        <ele>56</ele>
        <time>2022-08-06T09:26:45Z</time>
      </trkpt>
      <trkpt lat="47.19634" lon="-1.56357">
        <ele>57</ele>
        <time>2022-08-06T09:26:47Z</time>
      </trkpt>
      <trkpt lat="47.19634" lon="-1.56379">
        <ele>57</ele>
        <time>2022-08-06T09:26:49Z</time>
      </trkpt>
      <trkpt lat="47.19635" lon="-1.56401">
        <ele>57</ele>
        <time>2022-08-06T09:26:51Z</time>
      </trkpt>
      <trkpt lat="47.19635" lon="-1.56423">
        <ele>56</ele>
        <time>2022-08-06T09:26:53Z</time>
      </trkpt>
      <trkpt lat="47.19636" lon="-1.56444">
        <ele>56</ele>
        <time>2022-08-06T09:26:55Z</time>
      </trkpt>
      <trkpt lat="47.19636" lon="-1.56466">
        <ele>56</ele>
        <time>2022-08-06T09:26:57Z</time>
      </trkpt>
      <trkpt lat="47.19637" lon="-1.56488">
        <ele>56</ele>
        <time>2022-08-06T09:26:59Z</time>
      </trkpt>
      <trkpt lat="47.19638" lon="-1.56509">
        <ele>56</ele>
        <time>2022-08-06T09:27:01Z</time>
      </trkpt>
      <trkpt lat="47.19637" lon="-1.5653">
        <ele>57</ele>
        <time>2022-08-06T09:27:03Z</time>
      </trkpt>
      <trkpt lat="47.19637" lon="-1.56551">
        <ele>57</ele>
        <time>2022-08-06T09:27:05Z</time>
      </trkpt>
      <trkpt lat="47.19636" lon="-1.56572">
        <ele>57</ele>
        <time>2022-08-06T09:27:07Z</time>
      </trkpt>
      <trkpt lat="47.19635" lon="-1.56593">
        <ele>58</ele>
        <time>2022-08-06T09:27:09Z</time>
      </trkpt>
      <trkpt lat="47.19634" lon="-1.56614">
        <ele>58</ele>
        <time>2022-08-06T09:27:11Z</time>
      </trkpt>
      <trkpt lat="47.19633" lon="-1.56634">
        <ele>58</ele>
        <time>2022-08-06T09:27:13Z</time>
      </trkpt>
      <trkpt lat="47.19632" lon="-1.56655">
        <ele>58</ele>
        <time>2022-08-06T09:27:15Z</time>
      </trkpt>
      <trkpt lat="47.19632" lon="-1.56676">
        <ele>58</ele>
        <time>2022-08-06T09:27:17Z</time>
      </trkpt>
      <trkpt lat="47.19631" lon="-1.56697">
        <ele>58</ele>
        <time>2022-08-06T09:27:19Z</time>
      </trkpt>
      <trkpt lat="47.1963" lon="-1.56718">
        <ele>58</ele>
        <time>2022-08-06T09:27:21Z</time>
      </trkpt>
      <trkpt lat="47.19629" lon="-1.56739">
        <ele>58</ele>
        <time>2022-08-06T09:27:23Z</time>
      </trkpt>
      <trkpt lat="47.19627" lon="-1.56759">
        <ele>58</ele>
        <time>2022-08-06T09:27:25Z</time>
      </trkpt>
      <trkpt lat="47.19625" lon="-1.5678">
        <ele>58</ele>
        <time>2022-08-06T09:27:27Z</time>
      </trkpt>
      <trkpt lat="47.19623" lon="-1.56801">
        <ele>58</ele>
        <time>2022-08-06T09:27:29Z</time>
      </trkpt>
      <trkpt lat="47.19622" lon="-1.56822">
        <ele>58</ele>
        <time>2022-08-06T09:27:31Z</time>
      </trkpt>
      <trkpt lat="47.19621" lon="-1.56843">
        <ele>57</ele>
        <time>2022-08-06T09:27:33Z</time>
      </trkpt>
      <trkpt lat="47.1962" lon="-1.56863">
        <ele>57</ele>
        <time>2022-08-06T09:27:35Z</time>
      </trkpt>
      <trkpt lat="47.19618" lon="-1.56884">
        <ele>57</ele>
        <time>2022-08-06T09:27:37Z</time>
      </trkpt>
      <trkpt lat="47.19616" lon="-1.56905">
        <ele>58</ele>
        <time>2022-08-06T09:27:39Z</time>
      </trkpt>
      <trkpt lat="47.19615" lon="-1.56925">
        <ele>57</ele>
        <time>2022-08-06T09:27:41Z</time>
      </trkpt>
      <trkpt lat="47.19613" lon="-1.56946">
        <ele>57</ele>
        <time>2022-08-06T09:27:43Z</time>
      </trkpt>
      <trkpt lat="47.19612" lon="-1.56967">
        <ele>57</ele>
        <time>2022-08-06T09:27:45Z</time>
      </trkpt>
      <trkpt lat="47.19611" lon="-1.56987">
        <ele>57</ele>
        <time>2022-08-06T09:27:47Z</time>
      </trkpt>
      <trkpt lat="47.19609" lon="-1.57007">
        <ele>56</ele>
        <time>2022-08-06T09:27:49Z</time>
      </trkpt>
      <trkpt lat="47.19608" lon="-1.57028">
        <ele>57</ele>
        <time>2022-08-06T09:27:51Z</time>
      </trkpt>
      <trkpt lat="47.19606" lon="-1.57048">
        <ele>56</ele>
        <time>2022-08-06T09:27:53Z</time>
      </trkpt>
      <trkpt lat="47.19606" lon="-1.57068">
        <ele>56</ele>
        <time>2022-08-06T09:27:55Z</time>
      </trkpt>
      <trkpt lat="47.19605" lon="-1.57087">
        <ele>55</ele>
        <time>2022-08-06T09:27:57Z</time>
      </trkpt>
      <trkpt lat="47.19604" lon="-1.57104">
        <ele>55</ele>
        <time>2022-08-06T09:27:59Z</time>
      </trkpt>
      <trkpt lat="47.19601" lon="-1.57119">
        <ele>55</ele>
        <time>2022-08-06T09:28:01Z</time>
      </trkpt>
      <trkpt lat="47.19594" lon="-1.57129">
        <ele>56</ele>
        <time>2022-08-06T09:28:03Z</time>
      </trkpt>
      <trkpt lat="47.19581" lon="-1.57126">
        <ele>56</ele>
        <time>2022-08-06T09:28:05Z</time>
      </trkpt>
      <trkpt lat="47.19567" lon="-1.57122">
        <ele>57</ele>
        <time>2022-08-06T09:28:07Z</time>
      </trkpt>
      <trkpt lat="47.19554" lon="-1.57124">
        <ele>59</ele>
        <time>2022-08-06T09:28:09Z</time>
      </trkpt>
      <trkpt lat="47.19542" lon="-1.57125">
        <ele>62</ele>
        <time>2022-08-06T09:28:11Z</time>
      </trkpt>
      <trkpt lat="47.1953" lon="-1.57122">
        <ele>64</ele>
        <time>2022-08-06T09:28:13Z</time>
      </trkpt>
      <trkpt lat="47.19518" lon="-1.57119">
        <ele>65</ele>
        <time>2022-08-06T09:28:15Z</time>
      </trkpt>
      <trkpt lat="47.19505" lon="-1.57113">
        <ele>64</ele>
        <time>2022-08-06T09:28:17Z</time>
      </trkpt>
      <trkpt lat="47.19494" lon="-1.57109">
        <ele>63</ele>
        <time>2022-08-06T09:28:19Z</time>
      </trkpt>
      <trkpt lat="47.19484" lon="-1.57107">
        <ele>62</ele>
        <time>2022-08-06T09:28:21Z</time>
      </trkpt>
      <trkpt lat="47.19474" lon="-1.57108">
        <ele>61</ele>
        <time>2022-08-06T09:28:23Z</time>
      </trkpt>
      <trkpt lat="47.19462" lon="-1.57109">
        <ele>60</ele>
        <time>2022-08-06T09:28:25Z</time>
      </trkpt>
      <trkpt lat="47.19451" lon="-1.57105">
        <ele>61</ele>
        <time>2022-08-06T09:28:27Z</time>
      </trkpt>
      <trkpt lat="47.19439" lon="-1.57097">
        <ele>60</ele>
        <time>2022-08-06T09:28:29Z</time>
      </trkpt>
      <trkpt lat="47.19427" lon="-1.57094">
        <ele>60</ele>
        <time>2022-08-06T09:28:31Z</time>
      </trkpt>
      <trkpt lat="47.19414" lon="-1.57091">
        <ele>61</ele>
        <time>2022-08-06T09:28:33Z</time>
      </trkpt>
      <trkpt lat="47.19401" lon="-1.57088">
        <ele>61</ele>
        <time>2022-08-06T09:28:35Z</time>
      </trkpt>
      <trkpt lat="47.19389" lon="-1.57085">
        <ele>60</ele>
        <time>2022-08-06T09:28:37Z</time>
      </trkpt>
      <trkpt lat="47.19375" lon="-1.57082">
        <ele>59</ele>
        <time>2022-08-06T09:28:39Z</time>
      </trkpt>
      <trkpt lat="47.19363" lon="-1.57079">
        <ele>59</ele>
        <time>2022-08-06T09:28:41Z</time>
      </trkpt>
      <trkpt lat="47.19353" lon="-1.57078">
        <ele>59</ele>
        <time>2022-08-06T09:28:43Z</time>
      </trkpt>
      <trkpt lat="47.19343" lon="-1.57082">
        <ele>59</ele>
        <time>2022-08-06T09:28:45Z</time>
      </trkpt>
      <trkpt lat="47.19332" lon="-1.57085">
        <ele>60</ele>
        <time>2022-08-06T09:28:47Z</time>
      </trkpt>
      <trkpt lat="47.19319" lon="-1.57081">
        <ele>60</ele>
        <time>2022-08-06T09:28:49Z</time>
      </trkpt>
      <trkpt lat="47.19311" lon="-1.57074">
        <ele>59</ele>
        <time>2022-08-06T09:28:52Z</time>
      </trkpt>
      <trkpt lat="47.19302" lon="-1.57068">
        <ele>60</ele>
        <time>2022-08-06T09:28:58Z</time>
      </trkpt>
      <trkpt lat="47.19291" lon="-1.57068">
        <ele>62</ele>
        <time>2022-08-06T09:29:02Z</time>
      </trkpt>
      <trkpt lat="47.19274" lon="-1.57069">
        <ele>61</ele>
        <time>2022-08-06T09:29:04Z</time>
      </trkpt>
      <trkpt lat="47.19266" lon="-1.57066">
        <ele>60</ele>
        <time>2022-08-06T09:29:05Z</time>
      </trkpt>
      <trkpt lat="47.19252" lon="-1.57053">
        <ele>59</ele>
        <time>2022-08-06T09:29:07Z</time>
      </trkpt>
      <trkpt lat="47.19239" lon="-1.57045">
        <ele>58</ele>
        <time>2022-08-06T09:29:09Z</time>
      </trkpt>
      <trkpt lat="47.19225" lon="-1.57043">
        <ele>58</ele>
        <time>2022-08-06T09:29:11Z</time>
      </trkpt>
      <trkpt lat="47.19213" lon="-1.5704">
        <ele>58</ele>
        <time>2022-08-06T09:29:13Z</time>
      </trkpt>
      <trkpt lat="47.192" lon="-1.57035">
        <ele>58</ele>
        <time>2022-08-06T09:29:15Z</time>
      </trkpt>
      <trkpt lat="47.19188" lon="-1.57031">
        <ele>59</ele>
        <time>2022-08-06T09:29:17Z</time>
      </trkpt>
      <trkpt lat="47.19175" lon="-1.57029">
        <ele>59</ele>
        <time>2022-08-06T09:29:19Z</time>
      </trkpt>
      <trkpt lat="47.19162" lon="-1.57024">
        <ele>61</ele>
        <time>2022-08-06T09:29:21Z</time>
      </trkpt>
      <trkpt lat="47.19151" lon="-1.57021">
        <ele>62</ele>
        <time>2022-08-06T09:29:23Z</time>
      </trkpt>
      <trkpt lat="47.1914" lon="-1.57022">
        <ele>62</ele>
        <time>2022-08-06T09:29:25Z</time>
      </trkpt>
      <trkpt lat="47.1913" lon="-1.57026">
        <ele>62</ele>
        <time>2022-08-06T09:29:27Z</time>
      </trkpt>
      <trkpt lat="47.19127" lon="-1.57043">
        <ele>62</ele>
        <time>2022-08-06T09:29:29Z</time>
      </trkpt>
      <trkpt lat="47.19122" lon="-1.57059">
        <ele>61</ele>
        <time>2022-08-06T09:29:31Z</time>
      </trkpt>
      <trkpt lat="47.19117" lon="-1.57076">
        <ele>61</ele>
        <time>2022-08-06T09:29:33Z</time>
      </trkpt>
      <trkpt lat="47.19112" lon="-1.57093">
        <ele>60</ele>
        <time>2022-08-06T09:29:35Z</time>
      </trkpt>
      <trkpt lat="47.19107" lon="-1.57111">
        <ele>60</ele>
        <time>2022-08-06T09:29:37Z</time>
      </trkpt>
      <trkpt lat="47.19099" lon="-1.57125">
        <ele>60</ele>
        <time>2022-08-06T09:29:39Z</time>
      </trkpt>
      <trkpt lat="47.19092" lon="-1.5714">
        <ele>60</ele>
        <time>2022-08-06T09:29:41Z</time>
      </trkpt>
      <trkpt lat="47.19085" lon="-1.57157">
        <ele>59</ele>
        <time>2022-08-06T09:29:43Z</time>
      </trkpt>
      <trkpt lat="47.19079" lon="-1.57175">
        <ele>59</ele>
        <time>2022-08-06T09:29:45Z</time>
      </trkpt>
      <trkpt lat="47.19073" lon="-1.57192">
        <ele>58</ele>
        <time>2022-08-06T09:29:47Z</time>
      </trkpt>
      <trkpt lat="47.19065" lon="-1.57207">
        <ele>59</ele>
        <time>2022-08-06T09:29:49Z</time>
      </trkpt>
      <trkpt lat="47.19055" lon="-1.57219">
        <ele>59</ele>
        <time>2022-08-06T09:29:51Z</time>
      </trkpt>
      <trkpt lat="47.19045" lon="-1.57228">
        <ele>60</ele>
        <time>2022-08-06T09:29:53Z</time>
      </trkpt>
      <trkpt lat="47.19034" lon="-1.57235">
        <ele>61</ele>
        <time>2022-08-06T09:29:55Z</time>
      </trkpt>
      <trkpt lat="47.19022" lon="-1.57242">
        <ele>62</ele>
        <time>2022-08-06T09:29:57Z</time>
      </trkpt>
      <trkpt lat="47.19011" lon="-1.57251">
        <ele>62</ele>
        <time>2022-08-06T09:29:59Z</time>
      </trkpt>
      <trkpt lat="47.19001" lon="-1.57258">
        <ele>63</ele>
        <time>2022-08-06T09:30:01Z</time>
      </trkpt>
      <trkpt lat="47.18989" lon="-1.57263">
        <ele>64</ele>
        <time>2022-08-06T09:30:03Z</time>
      </trkpt>
      <trkpt lat="47.18977" lon="-1.57264">
        <ele>64</ele>
        <time>2022-08-06T09:30:05Z</time>
      </trkpt>
      <trkpt lat="47.18965" lon="-1.57264">
        <ele>65</ele>
        <time>2022-08-06T09:30:07Z</time>
      </trkpt>
      <trkpt lat="47.18953" lon="-1.57264">
        <ele>66</ele>
        <time>2022-08-06T09:30:09Z</time>
      </trkpt>
      <trkpt lat="47.18942" lon="-1.57265">
        <ele>66</ele>
        <time>2022-08-06T09:30:11Z</time>
      </trkpt>
      <trkpt lat="47.18932" lon="-1.57265">
        <ele>68</ele>
        <time>2022-08-06T09:30:13Z</time>
      </trkpt>
      <trkpt lat="47.18921" lon="-1.57267">
        <ele>69</ele>
        <time>2022-08-06T09:30:15Z</time>
      </trkpt>
      <trkpt lat="47.18908" lon="-1.5727">
        <ele>69</ele>
        <time>2022-08-06T09:30:17Z</time>
      </trkpt>
      <trkpt lat="47.18897" lon="-1.57271">
        <ele>69</ele>
        <time>2022-08-06T09:30:19Z</time>
      </trkpt>
      <trkpt lat="47.18887" lon="-1.57273">
        <ele>69</ele>
        <time>2022-08-06T09:30:21Z</time>
      </trkpt>
      <trkpt lat="47.18875" lon="-1.57276">
        <ele>69</ele>
        <time>2022-08-06T09:30:23Z</time>
      </trkpt>
      <trkpt lat="47.18864" lon="-1.57281">
        <ele>69</ele>
        <time>2022-08-06T09:30:25Z</time>
      </trkpt>
      <trkpt lat="47.18854" lon="-1.5729">
        <ele>67</ele>
        <time>2022-08-06T09:30:27Z</time>
      </trkpt>
      <trkpt lat="47.18845" lon="-1.57302">
        <ele>67</ele>
        <time>2022-08-06T09:30:29Z</time>
      </trkpt>
      <trkpt lat="47.18837" lon="-1.57318">
        <ele>66</ele>
        <time>2022-08-06T09:30:31Z</time>
      </trkpt>
      <trkpt lat="47.18832" lon="-1.57336">
        <ele>65</ele>
        <time>2022-08-06T09:30:33Z</time>
      </trkpt>
      <trkpt lat="47.18826" lon="-1.57355">
        <ele>64</ele>
        <time>2022-08-06T09:30:35Z</time>
      </trkpt>
      <trkpt lat="47.1882" lon="-1.57375">
        <ele>64</ele>
        <time>2022-08-06T09:30:37Z</time>
      </trkpt>
      <trkpt lat="47.18812" lon="-1.57392">
        <ele>64</ele>
        <time>2022-08-06T09:30:39Z</time>
      </trkpt>
      <trkpt lat="47.18799" lon="-1.57406">
        <ele>63</ele>
        <time>2022-08-06T09:30:41Z</time>
      </trkpt>
      <trkpt lat="47.18785" lon="-1.57415">
        <ele>63</ele>
        <time>2022-08-06T09:30:43Z</time>
      </trkpt>
      <trkpt lat="47.1877" lon="-1.57423">
        <ele>62</ele>
        <time>2022-08-06T09:30:45Z</time>
      </trkpt>
      <trkpt lat="47.18754" lon="-1.57432">
        <ele>62</ele>
        <time>2022-08-06T09:30:47Z</time>
      </trkpt>
      <trkpt lat="47.18739" lon="-1.5744">
        <ele>62</ele>
        <time>2022-08-06T09:30:49Z</time>
      </trkpt>
      <trkpt lat="47.18725" lon="-1.57447">
        <ele>62</ele>
        <time>2022-08-06T09:30:51Z</time>
      </trkpt>
      <trkpt lat="47.18711" lon="-1.57454">
        <ele>62</ele>
        <time>2022-08-06T09:30:53Z</time>
      </trkpt>
      <trkpt lat="47.18697" lon="-1.57461">
        <ele>63</ele>
        <time>2022-08-06T09:30:55Z</time>
      </trkpt>
      <trkpt lat="47.18685" lon="-1.57468">
        <ele>63</ele>
        <time>2022-08-06T09:30:57Z</time>
      </trkpt>
      <trkpt lat="47.18673" lon="-1.57477">
        <ele>62</ele>
        <time>2022-08-06T09:30:59Z</time>
      </trkpt>
      <trkpt lat="47.18662" lon="-1.57487">
        <ele>63</ele>
        <time>2022-08-06T09:31:01Z</time>
      </trkpt>
      <trkpt lat="47.18654" lon="-1.575">
        <ele>63</ele>
        <time>2022-08-06T09:31:03Z</time>
      </trkpt>
      <trkpt lat="47.18646" lon="-1.57515">
        <ele>64</ele>
        <time>2022-08-06T09:31:05Z</time>
      </trkpt>
      <trkpt lat="47.1864" lon="-1.57531">
        <ele>64</ele>
        <time>2022-08-06T09:31:07Z</time>
      </trkpt>
      <trkpt lat="47.18636" lon="-1.57548">
        <ele>65</ele>
        <time>2022-08-06T09:31:09Z</time>
      </trkpt>
      <trkpt lat="47.18631" lon="-1.57565">
        <ele>65</ele>
        <time>2022-08-06T09:31:11Z</time>
      </trkpt>
      <trkpt lat="47.18628" lon="-1.57582">
        <ele>66</ele>
        <time>2022-08-06T09:31:13Z</time>
      </trkpt>
      <trkpt lat="47.18627" lon="-1.57599">
        <ele>66</ele>
        <time>2022-08-06T09:31:15Z</time>
      </trkpt>
      <trkpt lat="47.18627" lon="-1.57616">
        <ele>66</ele>
        <time>2022-08-06T09:31:17Z</time>
      </trkpt>
      <trkpt lat="47.18627" lon="-1.57633">
        <ele>66</ele>
        <time>2022-08-06T09:31:19Z</time>
      </trkpt>
      <trkpt lat="47.18629" lon="-1.57651">
        <ele>66</ele>
        <time>2022-08-06T09:31:21Z</time>
      </trkpt>
      <trkpt lat="47.1863" lon="-1.57669">
        <ele>66</ele>
        <time>2022-08-06T09:31:23Z</time>
      </trkpt>
      <trkpt lat="47.18631" lon="-1.57685">
        <ele>66</ele>
        <time>2022-08-06T09:31:25Z</time>
      </trkpt>
      <trkpt lat="47.18633" lon="-1.57703">
        <ele>66</ele>
        <time>2022-08-06T09:31:27Z</time>
      </trkpt>
      <trkpt lat="47.18635" lon="-1.57721">
        <ele>66</ele>
        <time>2022-08-06T09:31:29Z</time>
      </trkpt>
      <trkpt lat="47.18636" lon="-1.57738">
        <ele>67</ele>
        <time>2022-08-06T09:31:31Z</time>
      </trkpt>
      <trkpt lat="47.18637" lon="-1.57754">
        <ele>67</ele>
        <time>2022-08-06T09:31:33Z</time>
      </trkpt>
      <trkpt lat="47.18639" lon="-1.57771">
        <ele>66</ele>
        <time>2022-08-06T09:31:35Z</time>
      </trkpt>
      <trkpt lat="47.1864" lon="-1.57788">
        <ele>66</ele>
        <time>2022-08-06T09:31:37Z</time>
      </trkpt>
      <trkpt lat="47.18641" lon="-1.57805">
        <ele>66</ele>
        <time>2022-08-06T09:31:39Z</time>
      </trkpt>
      <trkpt lat="47.18642" lon="-1.57824">
        <ele>67</ele>
        <time>2022-08-06T09:31:41Z</time>
      </trkpt>
      <trkpt lat="47.18642" lon="-1.57842">
        <ele>66</ele>
        <time>2022-08-06T09:31:43Z</time>
      </trkpt>
      <trkpt lat="47.18642" lon="-1.57861">
        <ele>66</ele>
        <time>2022-08-06T09:31:45Z</time>
      </trkpt>
      <trkpt lat="47.1864" lon="-1.5788">
        <ele>66</ele>
        <time>2022-08-06T09:31:47Z</time>
      </trkpt>
      <trkpt lat="47.18637" lon="-1.57899">
        <ele>66</ele>
        <time>2022-08-06T09:31:49Z</time>
      </trkpt>
      <trkpt lat="47.18634" lon="-1.57918">
        <ele>66</ele>
        <time>2022-08-06T09:31:51Z</time>
      </trkpt>
      <trkpt lat="47.18632" lon="-1.57937">
        <ele>66</ele>
        <time>2022-08-06T09:31:53Z</time>
      </trkpt>
      <trkpt lat="47.18628" lon="-1.57955">
        <ele>67</ele>
        <time>2022-08-06T09:31:55Z</time>
      </trkpt>
      <trkpt lat="47.18625" lon="-1.57974">
        <ele>67</ele>
        <time>2022-08-06T09:31:57Z</time>
      </trkpt>
      <trkpt lat="47.18622" lon="-1.57993">
        <ele>66</ele>
        <time>2022-08-06T09:31:59Z</time>
      </trkpt>
      <trkpt lat="47.1862" lon="-1.58013">
        <ele>66</ele>
        <time>2022-08-06T09:32:01Z</time>
      </trkpt>
      <trkpt lat="47.18617" lon="-1.58031">
        <ele>67</ele>
        <time>2022-08-06T09:32:03Z</time>
      </trkpt>
      <trkpt lat="47.18614" lon="-1.58049">
        <ele>67</ele>
        <time>2022-08-06T09:32:05Z</time>
      </trkpt>
      <trkpt lat="47.18611" lon="-1.58067">
        <ele>67</ele>
        <time>2022-08-06T09:32:07Z</time>
      </trkpt>
      <trkpt lat="47.18609" lon="-1.58083">
        <ele>67</ele>
        <time>2022-08-06T09:32:09Z</time>
      </trkpt>
      <trkpt lat="47.18599" lon="-1.58083">
        <ele>67</ele>
        <time>2022-08-06T09:32:11Z</time>
      </trkpt>
      <trkpt lat="47.18588" lon="-1.58076">
        <ele>67</ele>
        <time>2022-08-06T09:32:13Z</time>
      </trkpt>
      <trkpt lat="47.18575" lon="-1.58073">
        <ele>67</ele>
        <time>2022-08-06T09:32:15Z</time>
      </trkpt>
      <trkpt lat="47.18562" lon="-1.58069">
        <ele>67</ele>
        <time>2022-08-06T09:32:17Z</time>
      </trkpt>
      <trkpt lat="47.18549" lon="-1.58064">
        <ele>68</ele>
        <time>2022-08-06T09:32:19Z</time>
      </trkpt>
      <trkpt lat="47.18537" lon="-1.5806">
        <ele>68</ele>
        <time>2022-08-06T09:32:21Z</time>
      </trkpt>
      <trkpt lat="47.18523" lon="-1.58055">
        <ele>68</ele>
        <time>2022-08-06T09:32:23Z</time>
      </trkpt>
      <trkpt lat="47.18511" lon="-1.58051">
        <ele>68</ele>
        <time>2022-08-06T09:32:25Z</time>
      </trkpt>
      <trkpt lat="47.18499" lon="-1.58047">
        <ele>69</ele>
        <time>2022-08-06T09:32:27Z</time>
      </trkpt>
      <trkpt lat="47.18487" lon="-1.58043">
        <ele>69</ele>
        <time>2022-08-06T09:32:29Z</time>
      </trkpt>
      <trkpt lat="47.18475" lon="-1.58039">
        <ele>69</ele>
        <time>2022-08-06T09:32:31Z</time>
      </trkpt>
      <trkpt lat="47.18464" lon="-1.58035">
        <ele>69</ele>
        <time>2022-08-06T09:32:33Z</time>
      </trkpt>
      <trkpt lat="47.18452" lon="-1.58031">
        <ele>69</ele>
        <time>2022-08-06T09:32:35Z</time>
      </trkpt>
      <trkpt lat="47.1844" lon="-1.58026">
        <ele>69</ele>
        <time>2022-08-06T09:32:37Z</time>
      </trkpt>
      <trkpt lat="47.18428" lon="-1.58022">
        <ele>70</ele>
        <time>2022-08-06T09:32:39Z</time>
      </trkpt>
      <trkpt lat="47.18416" lon="-1.58017">
        <ele>70</ele>
        <time>2022-08-06T09:32:41Z</time>
      </trkpt>
      <trkpt lat="47.18405" lon="-1.58013">
        <ele>71</ele>
        <time>2022-08-06T09:32:43Z</time>
      </trkpt>
      <trkpt lat="47.18393" lon="-1.5801">
        <ele>71</ele>
        <time>2022-08-06T09:32:45Z</time>
      </trkpt>
      <trkpt lat="47.18381" lon="-1.58006">
        <ele>72</ele>
        <time>2022-08-06T09:32:47Z</time>
      </trkpt>
      <trkpt lat="47.18368" lon="-1.58003">
        <ele>72</ele>
        <time>2022-08-06T09:32:49Z</time>
      </trkpt>
      <trkpt lat="47.18357" lon="-1.58001">
        <ele>72</ele>
        <time>2022-08-06T09:32:51Z</time>
      </trkpt>
      <trkpt lat="47.18345" lon="-1.58">
        <ele>72</ele>
        <time>2022-08-06T09:32:53Z</time>
      </trkpt>
      <trkpt lat="47.18333" lon="-1.57999">
        <ele>72</ele>
        <time>2022-08-06T09:32:55Z</time>
      </trkpt>
      <trkpt lat="47.18321" lon="-1.57997">
        <ele>72</ele>
        <time>2022-08-06T09:32:57Z</time>
      </trkpt>
      <trkpt lat="47.18309" lon="-1.57996">
        <ele>73</ele>
        <time>2022-08-06T09:32:59Z</time>
      </trkpt>
      <trkpt lat="47.18297" lon="-1.57996">
        <ele>73</ele>
        <time>2022-08-06T09:33:01Z</time>
      </trkpt>
      <trkpt lat="47.18285" lon="-1.57994">
        <ele>73</ele>
        <time>2022-08-06T09:33:03Z</time>
      </trkpt>
      <trkpt lat="47.18274" lon="-1.57992">
        <ele>74</ele>
        <time>2022-08-06T09:33:05Z</time>
      </trkpt>
      <trkpt lat="47.18262" lon="-1.5799">
        <ele>74</ele>
        <time>2022-08-06T09:33:07Z</time>
      </trkpt>
      <trkpt lat="47.1825" lon="-1.57989">
        <ele>74</ele>
        <time>2022-08-06T09:33:09Z</time>
      </trkpt>
      <trkpt lat="47.1824" lon="-1.57988">
        <ele>74</ele>
        <time>2022-08-06T09:33:11Z</time>
      </trkpt>
      <trkpt lat="47.1823" lon="-1.57989">
        <ele>74</ele>
        <time>2022-08-06T09:33:13Z</time>
      </trkpt>
      <trkpt lat="47.18222" lon="-1.57998">
        <ele>74</ele>
        <time>2022-08-06T09:33:15Z</time>
      </trkpt>
      <trkpt lat="47.18221" lon="-1.58014">
        <ele>74</ele>
        <time>2022-08-06T09:33:17Z</time>
      </trkpt>
      <trkpt lat="47.18221" lon="-1.5803">
        <ele>74</ele>
        <time>2022-08-06T09:33:19Z</time>
      </trkpt>
      <trkpt lat="47.18222" lon="-1.58047">
        <ele>74</ele>
        <time>2022-08-06T09:33:21Z</time>
      </trkpt>
      <trkpt lat="47.18223" lon="-1.58065">
        <ele>73</ele>
        <time>2022-08-06T09:33:23Z</time>
      </trkpt>
      <trkpt lat="47.18225" lon="-1.58084">
        <ele>73</ele>
        <time>2022-08-06T09:33:25Z</time>
      </trkpt>
      <trkpt lat="47.18226" lon="-1.58104">
        <ele>73</ele>
        <time>2022-08-06T09:33:27Z</time>
      </trkpt>
      <trkpt lat="47.18227" lon="-1.58125">
        <ele>72</ele>
        <time>2022-08-06T09:33:29Z</time>
      </trkpt>
      <trkpt lat="47.18229" lon="-1.58146">
        <ele>71</ele>
        <time>2022-08-06T09:33:31Z</time>
      </trkpt>
      <trkpt lat="47.1823" lon="-1.58167">
        <ele>71</ele>
        <time>2022-08-06T09:33:33Z</time>
      </trkpt>
      <trkpt lat="47.18228" lon="-1.58188">
        <ele>70</ele>
        <time>2022-08-06T09:33:35Z</time>
      </trkpt>
      <trkpt lat="47.18224" lon="-1.58208">
        <ele>70</ele>
        <time>2022-08-06T09:33:37Z</time>
      </trkpt>
      <trkpt lat="47.18217" lon="-1.58227">
        <ele>71</ele>
        <time>2022-08-06T09:33:39Z</time>
      </trkpt>
      <trkpt lat="47.18209" lon="-1.58245">
        <ele>71</ele>
        <time>2022-08-06T09:33:41Z</time>
      </trkpt>
      <trkpt lat="47.18201" lon="-1.58262">
        <ele>72</ele>
        <time>2022-08-06T09:33:43Z</time>
      </trkpt>
      <trkpt lat="47.18193" lon="-1.58278">
        <ele>73</ele>
        <time>2022-08-06T09:33:45Z</time>
      </trkpt>
      <trkpt lat="47.18186" lon="-1.58294">
        <ele>74</ele>
        <time>2022-08-06T09:33:47Z</time>
      </trkpt>
      <trkpt lat="47.18178" lon="-1.5831">
        <ele>74</ele>
        <time>2022-08-06T09:33:49Z</time>
      </trkpt>
      <trkpt lat="47.18171" lon="-1.58325">
        <ele>74</ele>
        <time>2022-08-06T09:33:51Z</time>
      </trkpt>
      <trkpt lat="47.18165" lon="-1.58341">
        <ele>74</ele>
        <time>2022-08-06T09:33:53Z</time>
      </trkpt>
      <trkpt lat="47.18159" lon="-1.58358">
        <ele>75</ele>
        <time>2022-08-06T09:33:55Z</time>
      </trkpt>
      <trkpt lat="47.18153" lon="-1.58374">
        <ele>75</ele>
        <time>2022-08-06T09:33:57Z</time>
      </trkpt>
      <trkpt lat="47.18147" lon="-1.58391">
        <ele>75</ele>
        <time>2022-08-06T09:33:59Z</time>
      </trkpt>
      <trkpt lat="47.18142" lon="-1.58407">
        <ele>75</ele>
        <time>2022-08-06T09:34:01Z</time>
      </trkpt>
      <trkpt lat="47.18138" lon="-1.58423">
        <ele>75</ele>
        <time>2022-08-06T09:34:03Z</time>
      </trkpt>
      <trkpt lat="47.18132" lon="-1.58438">
        <ele>75</ele>
        <time>2022-08-06T09:34:05Z</time>
      </trkpt>
      <trkpt lat="47.18123" lon="-1.5845">
        <ele>75</ele>
        <time>2022-08-06T09:34:07Z</time>
      </trkpt>
      <trkpt lat="47.18118" lon="-1.58465">
        <ele>75</ele>
        <time>2022-08-06T09:34:09Z</time>
      </trkpt>
      <trkpt lat="47.18116" lon="-1.58484">
        <ele>74</ele>
        <time>2022-08-06T09:34:11Z</time>
      </trkpt>
      <trkpt lat="47.18115" lon="-1.58504">
        <ele>73</ele>
        <time>2022-08-06T09:34:13Z</time>
      </trkpt>
      <trkpt lat="47.18114" lon="-1.58523">
        <ele>73</ele>
        <time>2022-08-06T09:34:15Z</time>
      </trkpt>
      <trkpt lat="47.18114" lon="-1.5854">
        <ele>73</ele>
        <time>2022-08-06T09:34:17Z</time>
      </trkpt>
      <trkpt lat="47.18122" lon="-1.58553">
        <ele>73</ele>
        <time>2022-08-06T09:34:19Z</time>
      </trkpt>
      <trkpt lat="47.18136" lon="-1.5856">
        <ele>72</ele>
        <time>2022-08-06T09:34:21Z</time>
      </trkpt>
      <trkpt lat="47.18149" lon="-1.58567">
        <ele>72</ele>
        <time>2022-08-06T09:34:23Z</time>
      </trkpt>
      <trkpt lat="47.18161" lon="-1.58574">
        <ele>71</ele>
        <time>2022-08-06T09:34:25Z</time>
      </trkpt>
      <trkpt lat="47.18174" lon="-1.5858">
        <ele>71</ele>
        <time>2022-08-06T09:34:27Z</time>
      </trkpt>
      <trkpt lat="47.18186" lon="-1.58586">
        <ele>71</ele>
        <time>2022-08-06T09:34:29Z</time>
      </trkpt>
      <trkpt lat="47.18199" lon="-1.58591">
        <ele>71</ele>
        <time>2022-08-06T09:34:31Z</time>
      </trkpt>
      <trkpt lat="47.18211" lon="-1.58598">
        <ele>71</ele>
        <time>2022-08-06T09:34:33Z</time>
      </trkpt>
      <trkpt lat="47.18224" lon="-1.58602">
        <ele>72</ele>
        <time>2022-08-06T09:34:35Z</time>
      </trkpt>
      <trkpt lat="47.18235" lon="-1.58608">
        <ele>72</ele>
        <time>2022-08-06T09:34:37Z</time>
      </trkpt>
      <trkpt lat="47.18246" lon="-1.58615">
        <ele>71</ele>
        <time>2022-08-06T09:34:39Z</time>
      </trkpt>
      <trkpt lat="47.18253" lon="-1.58629">
        <ele>71</ele>
        <time>2022-08-06T09:34:41Z</time>
      </trkpt>
      <trkpt lat="47.18251" lon="-1.58649">
        <ele>71</ele>
        <time>2022-08-06T09:34:43Z</time>
      </trkpt>
      <trkpt lat="47.18249" lon="-1.58669">
        <ele>71</ele>
        <time>2022-08-06T09:34:45Z</time>
      </trkpt>
      <trkpt lat="47.18248" lon="-1.58688">
        <ele>71</ele>
        <time>2022-08-06T09:34:47Z</time>
      </trkpt>
      <trkpt lat="47.18249" lon="-1.58708">
        <ele>71</ele>
        <time>2022-08-06T09:34:49Z</time>
      </trkpt>
      <trkpt lat="47.18248" lon="-1.58727">
        <ele>71</ele>
        <time>2022-08-06T09:34:51Z</time>
      </trkpt>
      <trkpt lat="47.18248" lon="-1.58747">
        <ele>71</ele>
        <time>2022-08-06T09:34:53Z</time>
      </trkpt>
      <trkpt lat="47.18249" lon="-1.58765">
        <ele>71</ele>
        <time>2022-08-06T09:34:55Z</time>
      </trkpt>
      <trkpt lat="47.18251" lon="-1.58784">
        <ele>71</ele>
        <time>2022-08-06T09:34:57Z</time>
      </trkpt>
      <trkpt lat="47.18255" lon="-1.58802">
        <ele>71</ele>
        <time>2022-08-06T09:34:59Z</time>
      </trkpt>
      <trkpt lat="47.18262" lon="-1.58818">
        <ele>71</ele>
        <time>2022-08-06T09:35:01Z</time>
      </trkpt>
      <trkpt lat="47.18269" lon="-1.58834">
        <ele>71</ele>
        <time>2022-08-06T09:35:03Z</time>
      </trkpt>
      <trkpt lat="47.18275" lon="-1.58849">
        <ele>71</ele>
        <time>2022-08-06T09:35:05Z</time>
      </trkpt>
      <trkpt lat="47.18279" lon="-1.58864">
        <ele>71</ele>
        <time>2022-08-06T09:35:07Z</time>
      </trkpt>
      <trkpt lat="47.18284" lon="-1.58882">
        <ele>71</ele>
        <time>2022-08-06T09:35:10Z</time>
      </trkpt>
      <trkpt lat="47.18294" lon="-1.58889">
        <ele>71</ele>
        <time>2022-08-06T09:35:13Z</time>
      </trkpt>
      <trkpt lat="47.18305" lon="-1.58887">
        <ele>71</ele>
        <time>2022-08-06T09:35:16Z</time>
      </trkpt>
      <trkpt lat="47.18316" lon="-1.58885">
        <ele>71</ele>
        <time>2022-08-06T09:35:19Z</time>
      </trkpt>
      <trkpt lat="47.18318" lon="-1.58898">
        <ele>72</ele>
        <time>2022-08-06T09:36:45Z</time>
      </trkpt>
      <trkpt lat="47.18317" lon="-1.58898">
        <ele>72</ele>
        <time>2022-08-06T09:38:46Z</time>
      </trkpt>
      <trkpt lat="47.18317" lon="-1.58898">
        <ele>72</ele>
        <time>2022-08-06T09:40:47Z</time>
      </trkpt>
      <trkpt lat="47.18317" lon="-1.58898">
        <ele>72</ele>
        <time>2022-08-06T09:42:48Z</time>
      </trkpt>
      <trkpt lat="47.18317" lon="-1.58899">
        <ele>72</ele>
        <time>2022-08-06T09:44:49Z</time>
      </trkpt>
      <trkpt lat="47.18317" lon="-1.58899">
        <ele>72</ele>
        <time>2022-08-06T09:46:50Z</time>
      </trkpt>
      <trkpt lat="47.18317" lon="-1.58899">
        <ele>72</ele>
        <time>2022-08-06T09:48:51Z</time>
      </trkpt>
      <trkpt lat="47.18317" lon="-1.58899">
        <ele>72</ele>
        <time>2022-08-06T09:50:52Z</time>
      </trkpt>
      <trkpt lat="47.18317" lon="-1.58899">
        <ele>72</ele>
        <time>2022-08-06T09:52:53Z</time>
      </trkpt>
      <trkpt lat="47.18317" lon="-1.58899">
        <ele>72</ele>
        <time>2022-08-06T09:54:54Z</time>
      </trkpt>
      <trkpt lat="47.18317" lon="-1.58899">
        <ele>72</ele>
        <time>2022-08-06T09:56:55Z</time>
      </trkpt>
      <trkpt lat="47.18317" lon="-1.58899">
        <ele>72</ele>
        <time>2022-08-06T09:58:56Z</time>
      </trkpt>
      <trkpt lat="47.18317" lon="-1.58898">
        <ele>74</ele>
        <time>2022-08-06T10:00:57Z</time>
      </trkpt>
      <trkpt lat="47.18316" lon="-1.58897">
        <ele>74</ele>
        <time>2022-08-06T10:02:58Z</time>
      </trkpt>
      <trkpt lat="47.18317" lon="-1.58897">
        <ele>74</ele>
        <time>2022-08-06T10:04:59Z</time>
      </trkpt>
      <trkpt lat="47.18317" lon="-1.58897">
        <ele>74</ele>
        <time>2022-08-06T10:07:00Z</time>
      </trkpt>
      <trkpt lat="47.18317" lon="-1.58897">
        <ele>74</ele>
        <time>2022-08-06T10:09:01Z</time>
      </trkpt>
      <trkpt lat="47.18317" lon="-1.58897">
        <ele>74</ele>
        <time>2022-08-06T10:11:02Z</time>
      </trkpt>
      <trkpt lat="47.18317" lon="-1.58897">
        <ele>74</ele>
        <time>2022-08-06T10:13:03Z</time>
      </trkpt>
      <trkpt lat="47.18317" lon="-1.58897">
        <ele>74</ele>
        <time>2022-08-06T10:15:04Z</time>
      </trkpt>
      <trkpt lat="47.18316" lon="-1.58897">
        <ele>73</ele>
        <time>2022-08-06T10:17:05Z</time>
      </trkpt>
      <trkpt lat="47.18316" lon="-1.58897">
        <ele>73</ele>
        <time>2022-08-06T10:19:06Z</time>
      </trkpt>
      <trkpt lat="47.18315" lon="-1.58906">
        <ele>75</ele>
        <time>2022-08-06T10:47:01.991Z</time>
      </trkpt>
      <trkpt lat="47.18311" lon="-1.58901">
        <ele>66</ele>
        <time>2022-08-06T10:49:02Z</time>
      </trkpt>
      <trkpt lat="47.18319" lon="-1.58893">
        <ele>68</ele>
        <time>2022-08-06T10:49:59Z</time>
      </trkpt>
      <trkpt lat="47.1832" lon="-1.58908">
        <ele>67</ele>
        <time>2022-08-06T10:50:03Z</time>
      </trkpt>
      <trkpt lat="47.18321" lon="-1.58926">
        <ele>68</ele>
        <time>2022-08-06T10:50:06Z</time>
      </trkpt>
      <trkpt lat="47.18328" lon="-1.58944">
        <ele>68</ele>
        <time>2022-08-06T10:50:09Z</time>
      </trkpt>
      <trkpt lat="47.18335" lon="-1.58955">
        <ele>68</ele>
        <time>2022-08-06T10:50:11Z</time>
      </trkpt>
      <trkpt lat="47.18342" lon="-1.58964">
        <ele>68</ele>
        <time>2022-08-06T10:50:13Z</time>
      </trkpt>
      <trkpt lat="47.1835" lon="-1.58973">
        <ele>67</ele>
        <time>2022-08-06T10:50:15Z</time>
      </trkpt>
      <trkpt lat="47.18358" lon="-1.58987">
        <ele>67</ele>
        <time>2022-08-06T10:50:18Z</time>
      </trkpt>
      <trkpt lat="47.1835" lon="-1.59004">
        <ele>67</ele>
        <time>2022-08-06T10:50:21Z</time>
      </trkpt>
      <trkpt lat="47.18342" lon="-1.59018">
        <ele>66</ele>
        <time>2022-08-06T10:50:23Z</time>
      </trkpt>
      <trkpt lat="47.18335" lon="-1.59033">
        <ele>65</ele>
        <time>2022-08-06T10:50:25Z</time>
      </trkpt>
      <trkpt lat="47.18327" lon="-1.59049">
        <ele>65</ele>
        <time>2022-08-06T10:50:27Z</time>
      </trkpt>
      <trkpt lat="47.18321" lon="-1.59067">
        <ele>65</ele>
        <time>2022-08-06T10:50:29Z</time>
      </trkpt>
      <trkpt lat="47.18316" lon="-1.59085">
        <ele>65</ele>
        <time>2022-08-06T10:50:31Z</time>
      </trkpt>
      <trkpt lat="47.18309" lon="-1.59103">
        <ele>65</ele>
        <time>2022-08-06T10:50:33Z</time>
      </trkpt>
      <trkpt lat="47.18303" lon="-1.5912">
        <ele>65</ele>
        <time>2022-08-06T10:50:35Z</time>
      </trkpt>
      <trkpt lat="47.18297" lon="-1.59137">
        <ele>66</ele>
        <time>2022-08-06T10:50:37Z</time>
      </trkpt>
      <trkpt lat="47.18291" lon="-1.59155">
        <ele>66</ele>
        <time>2022-08-06T10:50:39Z</time>
      </trkpt>
      <trkpt lat="47.18285" lon="-1.59171">
        <ele>66</ele>
        <time>2022-08-06T10:50:41Z</time>
      </trkpt>
      <trkpt lat="47.1828" lon="-1.59187">
        <ele>66</ele>
        <time>2022-08-06T10:50:43Z</time>
      </trkpt>
      <trkpt lat="47.18276" lon="-1.59203">
        <ele>66</ele>
        <time>2022-08-06T10:50:45Z</time>
      </trkpt>
      <trkpt lat="47.18267" lon="-1.59215">
        <ele>66</ele>
        <time>2022-08-06T10:50:47Z</time>
      </trkpt>
      <trkpt lat="47.18256" lon="-1.59224">
        <ele>66</ele>
        <time>2022-08-06T10:50:49Z</time>
      </trkpt>
      <trkpt lat="47.18246" lon="-1.59233">
        <ele>66</ele>
        <time>2022-08-06T10:50:51Z</time>
      </trkpt>
      <trkpt lat="47.18238" lon="-1.59243">
        <ele>66</ele>
        <time>2022-08-06T10:50:54Z</time>
      </trkpt>
      <trkpt lat="47.1823" lon="-1.59254">
        <ele>66</ele>
        <time>2022-08-06T10:50:56Z</time>
      </trkpt>
      <trkpt lat="47.18219" lon="-1.59266">
        <ele>66</ele>
        <time>2022-08-06T10:50:58Z</time>
      </trkpt>
      <trkpt lat="47.18208" lon="-1.59277">
        <ele>66</ele>
        <time>2022-08-06T10:51:00Z</time>
      </trkpt>
      <trkpt lat="47.18197" lon="-1.59288">
        <ele>66</ele>
        <time>2022-08-06T10:51:02Z</time>
      </trkpt>
      <trkpt lat="47.18186" lon="-1.593">
        <ele>67</ele>
        <time>2022-08-06T10:51:04Z</time>
      </trkpt>
      <trkpt lat="47.18175" lon="-1.59311">
        <ele>67</ele>
        <time>2022-08-06T10:51:06Z</time>
      </trkpt>
      <trkpt lat="47.18164" lon="-1.59322">
        <ele>67</ele>
        <time>2022-08-06T10:51:08Z</time>
      </trkpt>
      <trkpt lat="47.18153" lon="-1.59333">
        <ele>67</ele>
        <time>2022-08-06T10:51:10Z</time>
      </trkpt>
      <trkpt lat="47.18141" lon="-1.59344">
        <ele>67</ele>
        <time>2022-08-06T10:51:12Z</time>
      </trkpt>
      <trkpt lat="47.1813" lon="-1.59355">
        <ele>67</ele>
        <time>2022-08-06T10:51:14Z</time>
      </trkpt>
      <trkpt lat="47.18119" lon="-1.59366">
        <ele>67</ele>
        <time>2022-08-06T10:51:16Z</time>
      </trkpt>
      <trkpt lat="47.18108" lon="-1.59377">
        <ele>67</ele>
        <time>2022-08-06T10:51:18Z</time>
      </trkpt>
      <trkpt lat="47.18097" lon="-1.59387">
        <ele>67</ele>
        <time>2022-08-06T10:51:20Z</time>
      </trkpt>
      <trkpt lat="47.18085" lon="-1.59397">
        <ele>67</ele>
        <time>2022-08-06T10:51:22Z</time>
      </trkpt>
      <trkpt lat="47.18075" lon="-1.59408">
        <ele>67</ele>
        <time>2022-08-06T10:51:24Z</time>
      </trkpt>
      <trkpt lat="47.18066" lon="-1.59422">
        <ele>68</ele>
        <time>2022-08-06T10:51:26Z</time>
      </trkpt>
      <trkpt lat="47.18056" lon="-1.59434">
        <ele>67</ele>
        <time>2022-08-06T10:51:28Z</time>
      </trkpt>
      <trkpt lat="47.18047" lon="-1.59448">
        <ele>67</ele>
        <time>2022-08-06T10:51:30Z</time>
      </trkpt>
      <trkpt lat="47.1804" lon="-1.59466">
        <ele>68</ele>
        <time>2022-08-06T10:51:32Z</time>
      </trkpt>
      <trkpt lat="47.18034" lon="-1.59484">
        <ele>67</ele>
        <time>2022-08-06T10:51:34Z</time>
      </trkpt>
      <trkpt lat="47.18029" lon="-1.59503">
        <ele>67</ele>
        <time>2022-08-06T10:51:36Z</time>
      </trkpt>
      <trkpt lat="47.18024" lon="-1.59521">
        <ele>67</ele>
        <time>2022-08-06T10:51:38Z</time>
      </trkpt>
      <trkpt lat="47.1802" lon="-1.5954">
        <ele>68</ele>
        <time>2022-08-06T10:51:40Z</time>
      </trkpt>
      <trkpt lat="47.18015" lon="-1.59558">
        <ele>67</ele>
        <time>2022-08-06T10:51:42Z</time>
      </trkpt>
      <trkpt lat="47.18011" lon="-1.59576">
        <ele>68</ele>
        <time>2022-08-06T10:51:44Z</time>
      </trkpt>
      <trkpt lat="47.18006" lon="-1.59595">
        <ele>68</ele>
        <time>2022-08-06T10:51:46Z</time>
      </trkpt>
      <trkpt lat="47.18001" lon="-1.59613">
        <ele>68</ele>
        <time>2022-08-06T10:51:48Z</time>
      </trkpt>
      <trkpt lat="47.17997" lon="-1.59631">
        <ele>68</ele>
        <time>2022-08-06T10:51:50Z</time>
      </trkpt>
      <trkpt lat="47.17991" lon="-1.5965">
        <ele>68</ele>
        <time>2022-08-06T10:51:52Z</time>
      </trkpt>
      <trkpt lat="47.17987" lon="-1.59669">
        <ele>67</ele>
        <time>2022-08-06T10:51:54Z</time>
      </trkpt>
      <trkpt lat="47.17983" lon="-1.59689">
        <ele>67</ele>
        <time>2022-08-06T10:51:56Z</time>
      </trkpt>
      <trkpt lat="47.17977" lon="-1.5971">
        <ele>67</ele>
        <time>2022-08-06T10:51:58Z</time>
      </trkpt>
      <trkpt lat="47.17971" lon="-1.59731">
        <ele>66</ele>
        <time>2022-08-06T10:52:00Z</time>
      </trkpt>
      <trkpt lat="47.17964" lon="-1.59753">
        <ele>65</ele>
        <time>2022-08-06T10:52:02Z</time>
      </trkpt>
      <trkpt lat="47.17959" lon="-1.59775">
        <ele>64</ele>
        <time>2022-08-06T10:52:04Z</time>
      </trkpt>
      <trkpt lat="47.17953" lon="-1.598">
        <ele>63</ele>
        <time>2022-08-06T10:52:06Z</time>
      </trkpt>
      <trkpt lat="47.17951" lon="-1.59813">
        <ele>63</ele>
        <time>2022-08-06T10:52:07Z</time>
      </trkpt>
      <trkpt lat="47.17948" lon="-1.59827">
        <ele>62</ele>
        <time>2022-08-06T10:52:08Z</time>
      </trkpt>
      <trkpt lat="47.17946" lon="-1.59841">
        <ele>61</ele>
        <time>2022-08-06T10:52:09Z</time>
      </trkpt>
      <trkpt lat="47.17944" lon="-1.59855">
        <ele>60</ele>
        <time>2022-08-06T10:52:10Z</time>
      </trkpt>
      <trkpt lat="47.17941" lon="-1.59869">
        <ele>59</ele>
        <time>2022-08-06T10:52:11Z</time>
      </trkpt>
      <trkpt lat="47.17937" lon="-1.59882">
        <ele>59</ele>
        <time>2022-08-06T10:52:12Z</time>
      </trkpt>
      <trkpt lat="47.17933" lon="-1.59896">
        <ele>59</ele>
        <time>2022-08-06T10:52:13Z</time>
      </trkpt>
      <trkpt lat="47.1793" lon="-1.59911">
        <ele>57</ele>
        <time>2022-08-06T10:52:14Z</time>
      </trkpt>
      <trkpt lat="47.17927" lon="-1.59926">
        <ele>56</ele>
        <time>2022-08-06T10:52:15Z</time>
      </trkpt>
      <trkpt lat="47.17921" lon="-1.59938">
        <ele>55</ele>
        <time>2022-08-06T10:52:16Z</time>
      </trkpt>
      <trkpt lat="47.17911" lon="-1.59944">
        <ele>54</ele>
        <time>2022-08-06T10:52:17Z</time>
      </trkpt>
      <trkpt lat="47.17901" lon="-1.59944">
        <ele>54</ele>
        <time>2022-08-06T10:52:18Z</time>
      </trkpt>
      <trkpt lat="47.17891" lon="-1.59945">
        <ele>53</ele>
        <time>2022-08-06T10:52:19Z</time>
      </trkpt>
      <trkpt lat="47.17878" lon="-1.59959">
        <ele>53</ele>
        <time>2022-08-06T10:52:21Z</time>
      </trkpt>
      <trkpt lat="47.17868" lon="-1.59978">
        <ele>53</ele>
        <time>2022-08-06T10:52:23Z</time>
      </trkpt>
      <trkpt lat="47.17859" lon="-1.59997">
        <ele>53</ele>
        <time>2022-08-06T10:52:25Z</time>
      </trkpt>
      <trkpt lat="47.17848" lon="-1.60014">
        <ele>53</ele>
        <time>2022-08-06T10:52:27Z</time>
      </trkpt>
      <trkpt lat="47.17839" lon="-1.6003">
        <ele>54</ele>
        <time>2022-08-06T10:52:29Z</time>
      </trkpt>
      <trkpt lat="47.1783" lon="-1.60046">
        <ele>55</ele>
        <time>2022-08-06T10:52:31Z</time>
      </trkpt>
      <trkpt lat="47.17822" lon="-1.60061">
        <ele>56</ele>
        <time>2022-08-06T10:52:33Z</time>
      </trkpt>
      <trkpt lat="47.17813" lon="-1.60076">
        <ele>57</ele>
        <time>2022-08-06T10:52:35Z</time>
      </trkpt>
      <trkpt lat="47.17805" lon="-1.60091">
        <ele>58</ele>
        <time>2022-08-06T10:52:37Z</time>
      </trkpt>
      <trkpt lat="47.17797" lon="-1.60106">
        <ele>59</ele>
        <time>2022-08-06T10:52:39Z</time>
      </trkpt>
      <trkpt lat="47.17788" lon="-1.6012">
        <ele>59</ele>
        <time>2022-08-06T10:52:41Z</time>
      </trkpt>
      <trkpt lat="47.1778" lon="-1.60134">
        <ele>60</ele>
        <time>2022-08-06T10:52:43Z</time>
      </trkpt>
      <trkpt lat="47.17771" lon="-1.60148">
        <ele>60</ele>
        <time>2022-08-06T10:52:45Z</time>
      </trkpt>
      <trkpt lat="47.17764" lon="-1.60164">
        <ele>61</ele>
        <time>2022-08-06T10:52:47Z</time>
      </trkpt>
      <trkpt lat="47.17757" lon="-1.6018">
        <ele>62</ele>
        <time>2022-08-06T10:52:49Z</time>
      </trkpt>
      <trkpt lat="47.17751" lon="-1.60197">
        <ele>62</ele>
        <time>2022-08-06T10:52:51Z</time>
      </trkpt>
      <trkpt lat="47.17747" lon="-1.60216">
        <ele>62</ele>
        <time>2022-08-06T10:52:53Z</time>
      </trkpt>
      <trkpt lat="47.17743" lon="-1.60234">
        <ele>63</ele>
        <time>2022-08-06T10:52:55Z</time>
      </trkpt>
      <trkpt lat="47.17738" lon="-1.60252">
        <ele>63</ele>
        <time>2022-08-06T10:52:57Z</time>
      </trkpt>
      <trkpt lat="47.17732" lon="-1.60269">
        <ele>63</ele>
        <time>2022-08-06T10:52:59Z</time>
      </trkpt>
      <trkpt lat="47.17723" lon="-1.60284">
        <ele>63</ele>
        <time>2022-08-06T10:53:01Z</time>
      </trkpt>
      <trkpt lat="47.17714" lon="-1.60297">
        <ele>64</ele>
        <time>2022-08-06T10:53:03Z</time>
      </trkpt>
      <trkpt lat="47.17705" lon="-1.60309">
        <ele>64</ele>
        <time>2022-08-06T10:53:05Z</time>
      </trkpt>
      <trkpt lat="47.17695" lon="-1.60323">
        <ele>64</ele>
        <time>2022-08-06T10:53:07Z</time>
      </trkpt>
      <trkpt lat="47.17686" lon="-1.60335">
        <ele>64</ele>
        <time>2022-08-06T10:53:09Z</time>
      </trkpt>
      <trkpt lat="47.17677" lon="-1.60348">
        <ele>64</ele>
        <time>2022-08-06T10:53:11Z</time>
      </trkpt>
      <trkpt lat="47.17667" lon="-1.60362">
        <ele>64</ele>
        <time>2022-08-06T10:53:13Z</time>
      </trkpt>
      <trkpt lat="47.17658" lon="-1.60375">
        <ele>64</ele>
        <time>2022-08-06T10:53:15Z</time>
      </trkpt>
      <trkpt lat="47.17648" lon="-1.6039">
        <ele>63</ele>
        <time>2022-08-06T10:53:17Z</time>
      </trkpt>
      <trkpt lat="47.17639" lon="-1.60406">
        <ele>63</ele>
        <time>2022-08-06T10:53:19Z</time>
      </trkpt>
      <trkpt lat="47.17629" lon="-1.60422">
        <ele>63</ele>
        <time>2022-08-06T10:53:21Z</time>
      </trkpt>
      <trkpt lat="47.17618" lon="-1.60438">
        <ele>62</ele>
        <time>2022-08-06T10:53:23Z</time>
      </trkpt>
      <trkpt lat="47.17608" lon="-1.60455">
        <ele>61</ele>
        <time>2022-08-06T10:53:25Z</time>
      </trkpt>
      <trkpt lat="47.17598" lon="-1.60471">
        <ele>61</ele>
        <time>2022-08-06T10:53:27Z</time>
      </trkpt>
      <trkpt lat="47.17587" lon="-1.60487">
        <ele>61</ele>
        <time>2022-08-06T10:53:29Z</time>
      </trkpt>
      <trkpt lat="47.17577" lon="-1.60504">
        <ele>61</ele>
        <time>2022-08-06T10:53:31Z</time>
      </trkpt>
      <trkpt lat="47.17567" lon="-1.6052">
        <ele>61</ele>
        <time>2022-08-06T10:53:33Z</time>
      </trkpt>
      <trkpt lat="47.17557" lon="-1.60537">
        <ele>61</ele>
        <time>2022-08-06T10:53:35Z</time>
      </trkpt>
      <trkpt lat="47.17548" lon="-1.60553">
        <ele>61</ele>
        <time>2022-08-06T10:53:37Z</time>
      </trkpt>
      <trkpt lat="47.17538" lon="-1.60569">
        <ele>61</ele>
        <time>2022-08-06T10:53:39Z</time>
      </trkpt>
      <trkpt lat="47.17528" lon="-1.60586">
        <ele>60</ele>
        <time>2022-08-06T10:53:41Z</time>
      </trkpt>
      <trkpt lat="47.17518" lon="-1.60602">
        <ele>60</ele>
        <time>2022-08-06T10:53:43Z</time>
      </trkpt>
      <trkpt lat="47.17508" lon="-1.60619">
        <ele>60</ele>
        <time>2022-08-06T10:53:45Z</time>
      </trkpt>
      <trkpt lat="47.17497" lon="-1.60636">
        <ele>60</ele>
        <time>2022-08-06T10:53:47Z</time>
      </trkpt>
      <trkpt lat="47.17486" lon="-1.60653">
        <ele>60</ele>
        <time>2022-08-06T10:53:49Z</time>
      </trkpt>
      <trkpt lat="47.17475" lon="-1.60671">
        <ele>60</ele>
        <time>2022-08-06T10:53:51Z</time>
      </trkpt>
      <trkpt lat="47.17464" lon="-1.60689">
        <ele>60</ele>
        <time>2022-08-06T10:53:53Z</time>
      </trkpt>
      <trkpt lat="47.17453" lon="-1.60707">
        <ele>60</ele>
        <time>2022-08-06T10:53:55Z</time>
      </trkpt>
      <trkpt lat="47.17441" lon="-1.60727">
        <ele>59</ele>
        <time>2022-08-06T10:53:57Z</time>
      </trkpt>
      <trkpt lat="47.17435" lon="-1.60737">
        <ele>59</ele>
        <time>2022-08-06T10:53:58Z</time>
      </trkpt>
      <trkpt lat="47.1743" lon="-1.60748">
        <ele>59</ele>
        <time>2022-08-06T10:53:59Z</time>
      </trkpt>
      <trkpt lat="47.17425" lon="-1.6076">
        <ele>58</ele>
        <time>2022-08-06T10:54:00Z</time>
      </trkpt>
      <trkpt lat="47.17421" lon="-1.60772">
        <ele>58</ele>
        <time>2022-08-06T10:54:01Z</time>
      </trkpt>
      <trkpt lat="47.17417" lon="-1.60784">
        <ele>57</ele>
        <time>2022-08-06T10:54:02Z</time>
      </trkpt>
      <trkpt lat="47.17412" lon="-1.60796">
        <ele>57</ele>
        <time>2022-08-06T10:54:03Z</time>
      </trkpt>
      <trkpt lat="47.17408" lon="-1.60809">
        <ele>57</ele>
        <time>2022-08-06T10:54:04Z</time>
      </trkpt>
      <trkpt lat="47.17405" lon="-1.60822">
        <ele>56</ele>
        <time>2022-08-06T10:54:05Z</time>
      </trkpt>
      <trkpt lat="47.17402" lon="-1.60835">
        <ele>56</ele>
        <time>2022-08-06T10:54:06Z</time>
      </trkpt>
      <trkpt lat="47.174" lon="-1.60849">
        <ele>56</ele>
        <time>2022-08-06T10:54:07Z</time>
      </trkpt>
      <trkpt lat="47.17398" lon="-1.60862">
        <ele>56</ele>
        <time>2022-08-06T10:54:08Z</time>
      </trkpt>
      <trkpt lat="47.17397" lon="-1.60876">
        <ele>56</ele>
        <time>2022-08-06T10:54:09Z</time>
      </trkpt>
      <trkpt lat="47.17397" lon="-1.6089">
        <ele>55</ele>
        <time>2022-08-06T10:54:10Z</time>
      </trkpt>
      <trkpt lat="47.17397" lon="-1.60904">
        <ele>55</ele>
        <time>2022-08-06T10:54:11Z</time>
      </trkpt>
      <trkpt lat="47.17397" lon="-1.60918">
        <ele>55</ele>
        <time>2022-08-06T10:54:12Z</time>
      </trkpt>
      <trkpt lat="47.17399" lon="-1.60933">
        <ele>55</ele>
        <time>2022-08-06T10:54:13Z</time>
      </trkpt>
      <trkpt lat="47.17401" lon="-1.60947">
        <ele>54</ele>
        <time>2022-08-06T10:54:14Z</time>
      </trkpt>
      <trkpt lat="47.17404" lon="-1.60961">
        <ele>54</ele>
        <time>2022-08-06T10:54:15Z</time>
      </trkpt>
      <trkpt lat="47.17409" lon="-1.60973">
        <ele>54</ele>
        <time>2022-08-06T10:54:16Z</time>
      </trkpt>
      <trkpt lat="47.17414" lon="-1.60985">
        <ele>54</ele>
        <time>2022-08-06T10:54:17Z</time>
      </trkpt>
      <trkpt lat="47.17418" lon="-1.60997">
        <ele>53</ele>
        <time>2022-08-06T10:54:18Z</time>
      </trkpt>
      <trkpt lat="47.17421" lon="-1.6101">
        <ele>53</ele>
        <time>2022-08-06T10:54:19Z</time>
      </trkpt>
      <trkpt lat="47.17423" lon="-1.61023">
        <ele>53</ele>
        <time>2022-08-06T10:54:20Z</time>
      </trkpt>
      <trkpt lat="47.17426" lon="-1.61047">
        <ele>54</ele>
        <time>2022-08-06T10:54:22Z</time>
      </trkpt>
      <trkpt lat="47.17433" lon="-1.61069">
        <ele>53</ele>
        <time>2022-08-06T10:54:24Z</time>
      </trkpt>
      <trkpt lat="47.17441" lon="-1.61089">
        <ele>54</ele>
        <time>2022-08-06T10:54:26Z</time>
      </trkpt>
      <trkpt lat="47.1745" lon="-1.61108">
        <ele>55</ele>
        <time>2022-08-06T10:54:28Z</time>
      </trkpt>
      <trkpt lat="47.17458" lon="-1.61128">
        <ele>55</ele>
        <time>2022-08-06T10:54:30Z</time>
      </trkpt>
      <trkpt lat="47.17465" lon="-1.61147">
        <ele>56</ele>
        <time>2022-08-06T10:54:32Z</time>
      </trkpt>
      <trkpt lat="47.17473" lon="-1.61165">
        <ele>56</ele>
        <time>2022-08-06T10:54:34Z</time>
      </trkpt>
      <trkpt lat="47.1748" lon="-1.61183">
        <ele>56</ele>
        <time>2022-08-06T10:54:36Z</time>
      </trkpt>
      <trkpt lat="47.17488" lon="-1.61202">
        <ele>56</ele>
        <time>2022-08-06T10:54:38Z</time>
      </trkpt>
      <trkpt lat="47.17495" lon="-1.61221">
        <ele>57</ele>
        <time>2022-08-06T10:54:40Z</time>
      </trkpt>
      <trkpt lat="47.17503" lon="-1.6124">
        <ele>57</ele>
        <time>2022-08-06T10:54:42Z</time>
      </trkpt>
      <trkpt lat="47.17512" lon="-1.61257">
        <ele>57</ele>
        <time>2022-08-06T10:54:44Z</time>
      </trkpt>
      <trkpt lat="47.17522" lon="-1.61272">
        <ele>58</ele>
        <time>2022-08-06T10:54:46Z</time>
      </trkpt>
      <trkpt lat="47.17534" lon="-1.61285">
        <ele>57</ele>
        <time>2022-08-06T10:54:48Z</time>
      </trkpt>
      <trkpt lat="47.17547" lon="-1.61294">
        <ele>56</ele>
        <time>2022-08-06T10:54:50Z</time>
      </trkpt>
      <trkpt lat="47.17558" lon="-1.61304">
        <ele>56</ele>
        <time>2022-08-06T10:54:52Z</time>
      </trkpt>
      <trkpt lat="47.17563" lon="-1.61323">
        <ele>56</ele>
        <time>2022-08-06T10:54:54Z</time>
      </trkpt>
      <trkpt lat="47.17557" lon="-1.61343">
        <ele>56</ele>
        <time>2022-08-06T10:54:56Z</time>
      </trkpt>
      <trkpt lat="47.17544" lon="-1.61358">
        <ele>56</ele>
        <time>2022-08-06T10:54:58Z</time>
      </trkpt>
      <trkpt lat="47.17533" lon="-1.61373">
        <ele>56</ele>
        <time>2022-08-06T10:55:00Z</time>
      </trkpt>
      <trkpt lat="47.17526" lon="-1.61392">
        <ele>56</ele>
        <time>2022-08-06T10:55:02Z</time>
      </trkpt>
      <trkpt lat="47.17521" lon="-1.61411">
        <ele>57</ele>
        <time>2022-08-06T10:55:04Z</time>
      </trkpt>
      <trkpt lat="47.17519" lon="-1.61429">
        <ele>58</ele>
        <time>2022-08-06T10:55:06Z</time>
      </trkpt>
      <trkpt lat="47.17516" lon="-1.61444">
        <ele>58</ele>
        <time>2022-08-06T10:55:08Z</time>
      </trkpt>
      <trkpt lat="47.17511" lon="-1.61458">
        <ele>59</ele>
        <time>2022-08-06T10:55:10Z</time>
      </trkpt>
      <trkpt lat="47.17501" lon="-1.61466">
        <ele>60</ele>
        <time>2022-08-06T10:55:12Z</time>
      </trkpt>
      <trkpt lat="47.17484" lon="-1.61472">
        <ele>61</ele>
        <time>2022-08-06T10:55:15Z</time>
      </trkpt>
      <trkpt lat="47.17473" lon="-1.61477">
        <ele>61</ele>
        <time>2022-08-06T10:55:17Z</time>
      </trkpt>
      <trkpt lat="47.17462" lon="-1.61482">
        <ele>62</ele>
        <time>2022-08-06T10:55:19Z</time>
      </trkpt>
      <trkpt lat="47.1745" lon="-1.61487">
        <ele>62</ele>
        <time>2022-08-06T10:55:21Z</time>
      </trkpt>
      <trkpt lat="47.17439" lon="-1.61494">
        <ele>62</ele>
        <time>2022-08-06T10:55:23Z</time>
      </trkpt>
      <trkpt lat="47.17428" lon="-1.61501">
        <ele>62</ele>
        <time>2022-08-06T10:55:25Z</time>
      </trkpt>
      <trkpt lat="47.17418" lon="-1.61508">
        <ele>63</ele>
        <time>2022-08-06T10:55:27Z</time>
      </trkpt>
      <trkpt lat="47.17407" lon="-1.61515">
        <ele>63</ele>
        <time>2022-08-06T10:55:29Z</time>
      </trkpt>
      <trkpt lat="47.17398" lon="-1.61522">
        <ele>63</ele>
        <time>2022-08-06T10:55:31Z</time>
      </trkpt>
      <trkpt lat="47.17388" lon="-1.61531">
        <ele>63</ele>
        <time>2022-08-06T10:55:33Z</time>
      </trkpt>
      <trkpt lat="47.17379" lon="-1.61539">
        <ele>63</ele>
        <time>2022-08-06T10:55:35Z</time>
      </trkpt>
      <trkpt lat="47.17371" lon="-1.61548">
        <ele>64</ele>
        <time>2022-08-06T10:55:37Z</time>
      </trkpt>
      <trkpt lat="47.17362" lon="-1.61556">
        <ele>64</ele>
        <time>2022-08-06T10:55:39Z</time>
      </trkpt>
      <trkpt lat="47.17353" lon="-1.61566">
        <ele>65</ele>
        <time>2022-08-06T10:55:41Z</time>
      </trkpt>
      <trkpt lat="47.17345" lon="-1.61577">
        <ele>65</ele>
        <time>2022-08-06T10:55:43Z</time>
      </trkpt>
      <trkpt lat="47.17336" lon="-1.61588">
        <ele>64</ele>
        <time>2022-08-06T10:55:45Z</time>
      </trkpt>
      <trkpt lat="47.17327" lon="-1.61599">
        <ele>64</ele>
        <time>2022-08-06T10:55:47Z</time>
      </trkpt>
      <trkpt lat="47.17319" lon="-1.6161">
        <ele>64</ele>
        <time>2022-08-06T10:55:49Z</time>
      </trkpt>
      <trkpt lat="47.1731" lon="-1.61623">
        <ele>64</ele>
        <time>2022-08-06T10:55:51Z</time>
      </trkpt>
      <trkpt lat="47.17302" lon="-1.61636">
        <ele>64</ele>
        <time>2022-08-06T10:55:53Z</time>
      </trkpt>
      <trkpt lat="47.17294" lon="-1.61649">
        <ele>64</ele>
        <time>2022-08-06T10:55:55Z</time>
      </trkpt>
      <trkpt lat="47.17288" lon="-1.61663">
        <ele>65</ele>
        <time>2022-08-06T10:55:57Z</time>
      </trkpt>
      <trkpt lat="47.17281" lon="-1.61677">
        <ele>65</ele>
        <time>2022-08-06T10:55:59Z</time>
      </trkpt>
      <trkpt lat="47.17273" lon="-1.61691">
        <ele>65</ele>
        <time>2022-08-06T10:56:01Z</time>
      </trkpt>
      <trkpt lat="47.17266" lon="-1.61705">
        <ele>65</ele>
        <time>2022-08-06T10:56:03Z</time>
      </trkpt>
      <trkpt lat="47.17259" lon="-1.61719">
        <ele>65</ele>
        <time>2022-08-06T10:56:05Z</time>
      </trkpt>
      <trkpt lat="47.17252" lon="-1.61734">
        <ele>65</ele>
        <time>2022-08-06T10:56:07Z</time>
      </trkpt>
      <trkpt lat="47.17247" lon="-1.61749">
        <ele>65</ele>
        <time>2022-08-06T10:56:09Z</time>
      </trkpt>
      <trkpt lat="47.17244" lon="-1.61767">
        <ele>65</ele>
        <time>2022-08-06T10:56:11Z</time>
      </trkpt>
      <trkpt lat="47.17237" lon="-1.61781">
        <ele>65</ele>
        <time>2022-08-06T10:56:13Z</time>
      </trkpt>
      <trkpt lat="47.17226" lon="-1.61792">
        <ele>65</ele>
        <time>2022-08-06T10:56:15Z</time>
      </trkpt>
      <trkpt lat="47.17215" lon="-1.61802">
        <ele>65</ele>
        <time>2022-08-06T10:56:17Z</time>
      </trkpt>
      <trkpt lat="47.17204" lon="-1.61812">
        <ele>65</ele>
        <time>2022-08-06T10:56:19Z</time>
      </trkpt>
      <trkpt lat="47.17193" lon="-1.61822">
        <ele>64</ele>
        <time>2022-08-06T10:56:21Z</time>
      </trkpt>
      <trkpt lat="47.17182" lon="-1.61832">
        <ele>65</ele>
        <time>2022-08-06T10:56:23Z</time>
      </trkpt>
      <trkpt lat="47.17172" lon="-1.61842">
        <ele>65</ele>
        <time>2022-08-06T10:56:25Z</time>
      </trkpt>
      <trkpt lat="47.17161" lon="-1.61852">
        <ele>64</ele>
        <time>2022-08-06T10:56:27Z</time>
      </trkpt>
      <trkpt lat="47.1715" lon="-1.61863">
        <ele>64</ele>
        <time>2022-08-06T10:56:29Z</time>
      </trkpt>
      <trkpt lat="47.17139" lon="-1.61873">
        <ele>64</ele>
        <time>2022-08-06T10:56:31Z</time>
      </trkpt>
      <trkpt lat="47.17128" lon="-1.61884">
        <ele>64</ele>
        <time>2022-08-06T10:56:33Z</time>
      </trkpt>
      <trkpt lat="47.17117" lon="-1.61894">
        <ele>64</ele>
        <time>2022-08-06T10:56:35Z</time>
      </trkpt>
      <trkpt lat="47.17106" lon="-1.61906">
        <ele>63</ele>
        <time>2022-08-06T10:56:37Z</time>
      </trkpt>
      <trkpt lat="47.17094" lon="-1.61916">
        <ele>64</ele>
        <time>2022-08-06T10:56:39Z</time>
      </trkpt>
      <trkpt lat="47.17084" lon="-1.61927">
        <ele>63</ele>
        <time>2022-08-06T10:56:41Z</time>
      </trkpt>
      <trkpt lat="47.17074" lon="-1.61936">
        <ele>64</ele>
        <time>2022-08-06T10:56:43Z</time>
      </trkpt>
      <trkpt lat="47.17065" lon="-1.61947">
        <ele>64</ele>
        <time>2022-08-06T10:56:45Z</time>
      </trkpt>
      <trkpt lat="47.17055" lon="-1.6196">
        <ele>64</ele>
        <time>2022-08-06T10:56:47Z</time>
      </trkpt>
      <trkpt lat="47.17045" lon="-1.61973">
        <ele>64</ele>
        <time>2022-08-06T10:56:49Z</time>
      </trkpt>
      <trkpt lat="47.17035" lon="-1.61987">
        <ele>64</ele>
        <time>2022-08-06T10:56:51Z</time>
      </trkpt>
      <trkpt lat="47.17026" lon="-1.62">
        <ele>64</ele>
        <time>2022-08-06T10:56:53Z</time>
      </trkpt>
      <trkpt lat="47.17017" lon="-1.62014">
        <ele>64</ele>
        <time>2022-08-06T10:56:55Z</time>
      </trkpt>
      <trkpt lat="47.17008" lon="-1.62028">
        <ele>64</ele>
        <time>2022-08-06T10:56:57Z</time>
      </trkpt>
      <trkpt lat="47.16999" lon="-1.62044">
        <ele>64</ele>
        <time>2022-08-06T10:56:59Z</time>
      </trkpt>
      <trkpt lat="47.16989" lon="-1.62059">
        <ele>64</ele>
        <time>2022-08-06T10:57:01Z</time>
      </trkpt>
      <trkpt lat="47.16981" lon="-1.62075">
        <ele>65</ele>
        <time>2022-08-06T10:57:03Z</time>
      </trkpt>
      <trkpt lat="47.16972" lon="-1.62091">
        <ele>65</ele>
        <time>2022-08-06T10:57:05Z</time>
      </trkpt>
      <trkpt lat="47.16963" lon="-1.62106">
        <ele>65</ele>
        <time>2022-08-06T10:57:07Z</time>
      </trkpt>
      <trkpt lat="47.16955" lon="-1.62122">
        <ele>65</ele>
        <time>2022-08-06T10:57:09Z</time>
      </trkpt>
      <trkpt lat="47.16947" lon="-1.62138">
        <ele>64</ele>
        <time>2022-08-06T10:57:11Z</time>
      </trkpt>
      <trkpt lat="47.16939" lon="-1.62153">
        <ele>64</ele>
        <time>2022-08-06T10:57:13Z</time>
      </trkpt>
      <trkpt lat="47.16931" lon="-1.62169">
        <ele>64</ele>
        <time>2022-08-06T10:57:15Z</time>
      </trkpt>
      <trkpt lat="47.16924" lon="-1.62185">
        <ele>64</ele>
        <time>2022-08-06T10:57:17Z</time>
      </trkpt>
      <trkpt lat="47.16915" lon="-1.62201">
        <ele>65</ele>
        <time>2022-08-06T10:57:19Z</time>
      </trkpt>
      <trkpt lat="47.16906" lon="-1.62215">
        <ele>65</ele>
        <time>2022-08-06T10:57:21Z</time>
      </trkpt>
      <trkpt lat="47.16895" lon="-1.62228">
        <ele>65</ele>
        <time>2022-08-06T10:57:23Z</time>
      </trkpt>
      <trkpt lat="47.16885" lon="-1.62241">
        <ele>65</ele>
        <time>2022-08-06T10:57:25Z</time>
      </trkpt>
      <trkpt lat="47.16875" lon="-1.62254">
        <ele>66</ele>
        <time>2022-08-06T10:57:27Z</time>
      </trkpt>
      <trkpt lat="47.16864" lon="-1.62267">
        <ele>66</ele>
        <time>2022-08-06T10:57:29Z</time>
      </trkpt>
      <trkpt lat="47.16854" lon="-1.62279">
        <ele>66</ele>
        <time>2022-08-06T10:57:31Z</time>
      </trkpt>
      <trkpt lat="47.16844" lon="-1.62293">
        <ele>66</ele>
        <time>2022-08-06T10:57:33Z</time>
      </trkpt>
      <trkpt lat="47.16833" lon="-1.62305">
        <ele>66</ele>
        <time>2022-08-06T10:57:35Z</time>
      </trkpt>
      <trkpt lat="47.16822" lon="-1.62315">
        <ele>66</ele>
        <time>2022-08-06T10:57:37Z</time>
      </trkpt>
      <trkpt lat="47.1681" lon="-1.62323">
        <ele>66</ele>
        <time>2022-08-06T10:57:39Z</time>
      </trkpt>
      <trkpt lat="47.16798" lon="-1.62332">
        <ele>66</ele>
        <time>2022-08-06T10:57:41Z</time>
      </trkpt>
      <trkpt lat="47.16785" lon="-1.62338">
        <ele>66</ele>
        <time>2022-08-06T10:57:43Z</time>
      </trkpt>
      <trkpt lat="47.16773" lon="-1.62345">
        <ele>66</ele>
        <time>2022-08-06T10:57:45Z</time>
      </trkpt>
      <trkpt lat="47.16762" lon="-1.62353">
        <ele>66</ele>
        <time>2022-08-06T10:57:47Z</time>
      </trkpt>
      <trkpt lat="47.1675" lon="-1.62363">
        <ele>66</ele>
        <time>2022-08-06T10:57:49Z</time>
      </trkpt>
      <trkpt lat="47.1674" lon="-1.62377">
        <ele>65</ele>
        <time>2022-08-06T10:57:51Z</time>
      </trkpt>
      <trkpt lat="47.16733" lon="-1.62393">
        <ele>65</ele>
        <time>2022-08-06T10:57:53Z</time>
      </trkpt>
      <trkpt lat="47.1673" lon="-1.62411">
        <ele>65</ele>
        <time>2022-08-06T10:57:55Z</time>
      </trkpt>
      <trkpt lat="47.16728" lon="-1.62429">
        <ele>64</ele>
        <time>2022-08-06T10:57:57Z</time>
      </trkpt>
      <trkpt lat="47.16724" lon="-1.62445">
        <ele>65</ele>
        <time>2022-08-06T10:57:59Z</time>
      </trkpt>
      <trkpt lat="47.1672" lon="-1.62463">
        <ele>65</ele>
        <time>2022-08-06T10:58:01Z</time>
      </trkpt>
      <trkpt lat="47.16716" lon="-1.6248">
        <ele>64</ele>
        <time>2022-08-06T10:58:03Z</time>
      </trkpt>
      <trkpt lat="47.1672" lon="-1.62496">
        <ele>64</ele>
        <time>2022-08-06T10:58:05Z</time>
      </trkpt>
      <trkpt lat="47.16731" lon="-1.62503">
        <ele>64</ele>
        <time>2022-08-06T10:58:07Z</time>
      </trkpt>
      <trkpt lat="47.16744" lon="-1.62508">
        <ele>64</ele>
        <time>2022-08-06T10:58:09Z</time>
      </trkpt>
      <trkpt lat="47.16756" lon="-1.62513">
        <ele>64</ele>
        <time>2022-08-06T10:58:11Z</time>
      </trkpt>
      <trkpt lat="47.16767" lon="-1.62519">
        <ele>64</ele>
        <time>2022-08-06T10:58:13Z</time>
      </trkpt>
      <trkpt lat="47.16778" lon="-1.62525">
        <ele>63</ele>
        <time>2022-08-06T10:58:15Z</time>
      </trkpt>
      <trkpt lat="47.1679" lon="-1.62533">
        <ele>64</ele>
        <time>2022-08-06T10:58:17Z</time>
      </trkpt>
      <trkpt lat="47.168" lon="-1.6254">
        <ele>64</ele>
        <time>2022-08-06T10:58:19Z</time>
      </trkpt>
      <trkpt lat="47.1681" lon="-1.62547">
        <ele>64</ele>
        <time>2022-08-06T10:58:21Z</time>
      </trkpt>
      <trkpt lat="47.1682" lon="-1.62556">
        <ele>64</ele>
        <time>2022-08-06T10:58:23Z</time>
      </trkpt>
      <trkpt lat="47.16829" lon="-1.62569">
        <ele>64</ele>
        <time>2022-08-06T10:58:25Z</time>
      </trkpt>
      <trkpt lat="47.16832" lon="-1.62584">
        <ele>64</ele>
        <time>2022-08-06T10:58:27Z</time>
      </trkpt>
      <trkpt lat="47.16823" lon="-1.62599">
        <ele>64</ele>
        <time>2022-08-06T10:58:29Z</time>
      </trkpt>
      <trkpt lat="47.16815" lon="-1.62612">
        <ele>64</ele>
        <time>2022-08-06T10:58:31Z</time>
      </trkpt>
      <trkpt lat="47.16807" lon="-1.62625">
        <ele>64</ele>
        <time>2022-08-06T10:58:33Z</time>
      </trkpt>
      <trkpt lat="47.168" lon="-1.62637">
        <ele>65</ele>
        <time>2022-08-06T10:58:35Z</time>
      </trkpt>
      <trkpt lat="47.16794" lon="-1.62648">
        <ele>64</ele>
        <time>2022-08-06T10:58:37Z</time>
      </trkpt>
      <trkpt lat="47.16787" lon="-1.62661">
        <ele>65</ele>
        <time>2022-08-06T10:58:40Z</time>
      </trkpt>
      <trkpt lat="47.16778" lon="-1.62658">
        <ele>65</ele>
        <time>2022-08-06T10:58:45Z</time>
      </trkpt>
    </trkseg>
  </trk>
</gpx>